<?xml version='1.0' encoding='UTF-8'?><gpx version="1.1" creator="JPX - https://github.com/jenetics/jpx" xmlns="http://www.topografix.com/GPX/1/1"><trk><trkseg><trkpt lat="43.51146" lon="13.229455"><ele>84.0</ele><time>2026-04-19T14:40:34.762Z</time></trkpt><trkpt lat="43.5113833" lon="13.2294867"><ele>84.0</ele><time>2026-04-19T14:41:14.761Z</time></trkpt><trkpt lat="43.511305" lon="13.22945"><ele>84.0</ele><time>2026-04-19T14:41:18.763Z</time></trkpt><trkpt lat="43.51122" lon="13.229425"><ele>84.0</ele><time>2026-04-19T14:41:27.763Z</time></trkpt><trkpt lat="43.5111433" lon="13.2293183"><ele>84.0</ele><time>2026-04-19T14:41:29.763Z</time></trkpt><trkpt lat="43.5111" lon="13.22924"><ele>84.0</ele><time>2026-04-19T14:41:30.761Z</time></trkpt><trkpt lat="43.5110517" lon="13.2291317"><ele>84.75</ele><time>2026-04-19T14:41:31.762Z</time></trkpt><trkpt lat="43.5109867" lon="13.2289817"><ele>85.5</ele><time>2026-04-19T14:41:32.761Z</time></trkpt><trkpt lat="43.510915" lon="13.2288067"><ele>86.25</ele><time>2026-04-19T14:41:33.763Z</time></trkpt><trkpt lat="43.5108267" lon="13.2286"><ele>87.0</ele><time>2026-04-19T14:41:34.764Z</time></trkpt><trkpt lat="43.5107283" lon="13.2283833"><ele>88.33333333333333</ele><time>2026-04-19T14:41:35.761Z</time></trkpt><trkpt lat="43.5106317" lon="13.2281933"><ele>89.66666666666666</ele><time>2026-04-19T14:41:36.761Z</time></trkpt><trkpt lat="43.5105217" lon="13.2279683"><ele>91.0</ele><time>2026-04-19T14:41:37.761Z</time></trkpt><trkpt lat="43.5104267" lon="13.2277367"><ele>91.33333333333333</ele><time>2026-04-19T14:41:38.765Z</time></trkpt><trkpt lat="43.51034" lon="13.2275167"><ele>91.66666666666667</ele><time>2026-04-19T14:41:39.763Z</time></trkpt><trkpt lat="43.5102567" lon="13.2273083"><ele>92.0</ele><time>2026-04-19T14:41:40.762Z</time></trkpt><trkpt lat="43.5101783" lon="13.2271067"><ele>92.0</ele><time>2026-04-19T14:41:41.763Z</time></trkpt><trkpt lat="43.5101" lon="13.22691"><ele>92.0</ele><time>2026-04-19T14:41:42.762Z</time></trkpt><trkpt lat="43.510025" lon="13.226715"><ele>92.0</ele><time>2026-04-19T14:41:43.761Z</time></trkpt><trkpt lat="43.5099483" lon="13.22653"><ele>91.75</ele><time>2026-04-19T14:41:44.764Z</time></trkpt><trkpt lat="43.509875" lon="13.2263583"><ele>91.5</ele><time>2026-04-19T14:41:45.76Z</time></trkpt><trkpt lat="43.5098017" lon="13.2262033"><ele>91.25</ele><time>2026-04-19T14:41:46.761Z</time></trkpt><trkpt lat="43.50973" lon="13.22606"><ele>91.0</ele><time>2026-04-19T14:41:47.761Z</time></trkpt><trkpt lat="43.5096517" lon="13.22593"><ele>91.25</ele><time>2026-04-19T14:41:48.764Z</time></trkpt><trkpt lat="43.5095733" lon="13.225805"><ele>91.5</ele><time>2026-04-19T14:41:49.764Z</time></trkpt><trkpt lat="43.509475" lon="13.225695"><ele>91.75</ele><time>2026-04-19T14:41:50.761Z</time></trkpt><trkpt lat="43.5093733" lon="13.2255933"><ele>92.0</ele><time>2026-04-19T14:41:51.763Z</time></trkpt><trkpt lat="43.50928" lon="13.2255067"><ele>92.0</ele><time>2026-04-19T14:41:52.761Z</time></trkpt><trkpt lat="43.5091967" lon="13.2254233"><ele>92.0</ele><time>2026-04-19T14:41:53.761Z</time></trkpt><trkpt lat="43.5091133" lon="13.2253383"><ele>92.0</ele><time>2026-04-19T14:41:54.762Z</time></trkpt><trkpt lat="43.5090383" lon="13.225235"><ele>92.0</ele><time>2026-04-19T14:41:55.764Z</time></trkpt><trkpt lat="43.508975" lon="13.2251033"><ele>92.0</ele><time>2026-04-19T14:41:56.763Z</time></trkpt><trkpt lat="43.5089183" lon="13.224965"><ele>92.0</ele><time>2026-04-19T14:41:57.763Z</time></trkpt><trkpt lat="43.5088667" lon="13.224825"><ele>92.0</ele><time>2026-04-19T14:41:58.764Z</time></trkpt><trkpt lat="43.5088267" lon="13.2246933"><ele>92.0</ele><time>2026-04-19T14:41:59.762Z</time></trkpt><trkpt lat="43.5087867" lon="13.2245717"><ele>92.0</ele><time>2026-04-19T14:42:00.765Z</time></trkpt><trkpt lat="43.508745" lon="13.224445"><ele>92.0</ele><time>2026-04-19T14:42:01.762Z</time></trkpt><trkpt lat="43.5086967" lon="13.224315"><ele>92.0</ele><time>2026-04-19T14:42:02.762Z</time></trkpt><trkpt lat="43.5086517" lon="13.224185"><ele>92.0</ele><time>2026-04-19T14:42:03.76Z</time></trkpt><trkpt lat="43.50861" lon="13.2240633"><ele>92.0</ele><time>2026-04-19T14:42:04.761Z</time></trkpt><trkpt lat="43.508575" lon="13.2239617"><ele>92.0</ele><time>2026-04-19T14:42:05.765Z</time></trkpt><trkpt lat="43.508545" lon="13.2238783"><ele>92.0</ele><time>2026-04-19T14:42:06.761Z</time></trkpt><trkpt lat="43.5085017" lon="13.2237517"><ele>92.0</ele><time>2026-04-19T14:42:08.762Z</time></trkpt><trkpt lat="43.5084933" lon="13.2236433"><ele>92.0</ele><time>2026-04-19T14:42:11.762Z</time></trkpt><trkpt lat="43.508485" lon="13.2235483"><ele>92.0</ele><time>2026-04-19T14:42:14.761Z</time></trkpt><trkpt lat="43.5084433" lon="13.223635"><ele>92.0</ele><time>2026-04-19T14:42:19.763Z</time></trkpt><trkpt lat="43.5084767" lon="13.22376"><ele>92.0</ele><time>2026-04-19T14:42:21.764Z</time></trkpt><trkpt lat="43.5085283" lon="13.223905"><ele>92.0</ele><time>2026-04-19T14:42:23.763Z</time></trkpt><trkpt lat="43.5085683" lon="13.2240483"><ele>91.0</ele><time>2026-04-19T14:42:25.762Z</time></trkpt><trkpt lat="43.5086167" lon="13.2241883"><ele>90.0</ele><time>2026-04-19T14:42:27.762Z</time></trkpt><trkpt lat="43.5086533" lon="13.2242883"><ele>89.0</ele><time>2026-04-19T14:42:28.761Z</time></trkpt><trkpt lat="43.508695" lon="13.2244"><ele>88.0</ele><time>2026-04-19T14:42:29.764Z</time></trkpt><trkpt lat="43.5087383" lon="13.2245333"><ele>87.0</ele><time>2026-04-19T14:42:30.764Z</time></trkpt><trkpt lat="43.50879" lon="13.224675"><ele>88.25</ele><time>2026-04-19T14:42:31.762Z</time></trkpt><trkpt lat="43.5088433" lon="13.2248283"><ele>89.5</ele><time>2026-04-19T14:42:32.763Z</time></trkpt><trkpt lat="43.5088983" lon="13.2249917"><ele>90.75</ele><time>2026-04-19T14:42:33.763Z</time></trkpt><trkpt lat="43.5089633" lon="13.22514"><ele>92.0</ele><time>2026-04-19T14:42:34.764Z</time></trkpt><trkpt lat="43.509045" lon="13.2252783"><ele>92.0</ele><time>2026-04-19T14:42:35.763Z</time></trkpt><trkpt lat="43.5091383" lon="13.2253983"><ele>92.0</ele><time>2026-04-19T14:42:36.765Z</time></trkpt><trkpt lat="43.50924" lon="13.2255067"><ele>92.0</ele><time>2026-04-19T14:42:37.762Z</time></trkpt><trkpt lat="43.5093433" lon="13.22561"><ele>92.0</ele><time>2026-04-19T14:42:38.763Z</time></trkpt><trkpt lat="43.5094417" lon="13.2257217"><ele>91.8</ele><time>2026-04-19T14:42:39.763Z</time></trkpt><trkpt lat="43.5095267" lon="13.2258433"><ele>91.6</ele><time>2026-04-19T14:42:40.761Z</time></trkpt><trkpt lat="43.509595" lon="13.2259667"><ele>91.39999999999999</ele><time>2026-04-19T14:42:41.764Z</time></trkpt><trkpt lat="43.5096517" lon="13.2260883"><ele>91.19999999999999</ele><time>2026-04-19T14:42:42.764Z</time></trkpt><trkpt lat="43.5097083" lon="13.2262017"><ele>91.0</ele><time>2026-04-19T14:42:43.763Z</time></trkpt><trkpt lat="43.50978" lon="13.2263133"><ele>91.0</ele><time>2026-04-19T14:42:44.764Z</time></trkpt><trkpt lat="43.509845" lon="13.2264317"><ele>91.0</ele><time>2026-04-19T14:42:45.764Z</time></trkpt><trkpt lat="43.5099083" lon="13.22656"><ele>91.0</ele><time>2026-04-19T14:42:46.762Z</time></trkpt><trkpt lat="43.50997" lon="13.226695"><ele>91.0</ele><time>2026-04-19T14:42:47.763Z</time></trkpt><trkpt lat="43.51003" lon="13.22683"><ele>91.19999999999999</ele><time>2026-04-19T14:42:48.762Z</time></trkpt><trkpt lat="43.5100883" lon="13.22696"><ele>91.39999999999999</ele><time>2026-04-19T14:42:49.763Z</time></trkpt><trkpt lat="43.5101433" lon="13.2270867"><ele>91.6</ele><time>2026-04-19T14:42:50.761Z</time></trkpt><trkpt lat="43.510195" lon="13.2272083"><ele>91.8</ele><time>2026-04-19T14:42:51.763Z</time></trkpt><trkpt lat="43.510245" lon="13.227325"><ele>92.0</ele><time>2026-04-19T14:42:52.762Z</time></trkpt><trkpt lat="43.5102867" lon="13.2274317"><ele>91.5</ele><time>2026-04-19T14:42:53.762Z</time></trkpt><trkpt lat="43.5103267" lon="13.227525"><ele>91.0</ele><time>2026-04-19T14:42:54.762Z</time></trkpt><trkpt lat="43.51036" lon="13.2276033"><ele>90.5</ele><time>2026-04-19T14:42:55.762Z</time></trkpt><trkpt lat="43.5104133" lon="13.2277"><ele>90.0</ele><time>2026-04-19T14:42:57.765Z</time></trkpt><trkpt lat="43.5104783" lon="13.2276733"><ele>89.5</ele><time>2026-04-19T14:43:00.763Z</time></trkpt><trkpt lat="43.510455" lon="13.2275"><ele>89.0</ele><time>2026-04-19T14:43:02.762Z</time></trkpt><trkpt lat="43.5104317" lon="13.2273867"><ele>89.5</ele><time>2026-04-19T14:43:03.762Z</time></trkpt><trkpt lat="43.5104083" lon="13.2272617"><ele>90.0</ele><time>2026-04-19T14:43:04.763Z</time></trkpt><trkpt lat="43.5103883" lon="13.2271383"><ele>90.5</ele><time>2026-04-19T14:43:05.764Z</time></trkpt><trkpt lat="43.510385" lon="13.22703"><ele>91.0</ele><time>2026-04-19T14:43:06.762Z</time></trkpt><trkpt lat="43.5104" lon="13.22693"><ele>91.5</ele><time>2026-04-19T14:43:07.763Z</time></trkpt><trkpt lat="43.5104317" lon="13.22683"><ele>92.0</ele><time>2026-04-19T14:43:08.763Z</time></trkpt><trkpt lat="43.5104867" lon="13.2267283"><ele>93.0</ele><time>2026-04-19T14:43:09.764Z</time></trkpt><trkpt lat="43.5105567" lon="13.22663"><ele>94.0</ele><time>2026-04-19T14:43:10.762Z</time></trkpt><trkpt lat="43.5106217" lon="13.22653"><ele>95.0</ele><time>2026-04-19T14:43:11.764Z</time></trkpt><trkpt lat="43.5106883" lon="13.2264217"><ele>96.0</ele><time>2026-04-19T14:43:12.765Z</time></trkpt><trkpt lat="43.51075" lon="13.2263"><ele>97.0</ele><time>2026-04-19T14:43:13.76Z</time></trkpt><trkpt lat="43.51081" lon="13.2261483"><ele>97.0</ele><time>2026-04-19T14:43:14.761Z</time></trkpt><trkpt lat="43.510865" lon="13.2259833"><ele>97.0</ele><time>2026-04-19T14:43:15.761Z</time></trkpt><trkpt lat="43.510915" lon="13.2258233"><ele>97.0</ele><time>2026-04-19T14:43:16.761Z</time></trkpt><trkpt lat="43.5109683" lon="13.2256583"><ele>97.0</ele><time>2026-04-19T14:43:17.76Z</time></trkpt><trkpt lat="43.51102" lon="13.2254883"><ele>97.5</ele><time>2026-04-19T14:43:18.761Z</time></trkpt><trkpt lat="43.5110717" lon="13.2253217"><ele>98.0</ele><time>2026-04-19T14:43:19.762Z</time></trkpt><trkpt lat="43.5111083" lon="13.2251467"><ele>98.5</ele><time>2026-04-19T14:43:20.762Z</time></trkpt><trkpt lat="43.5111233" lon="13.2249617"><ele>99.0</ele><time>2026-04-19T14:43:21.762Z</time></trkpt><trkpt lat="43.5111183" lon="13.2247633"><ele>99.66666666666666</ele><time>2026-04-19T14:43:22.761Z</time></trkpt><trkpt lat="43.5110933" lon="13.2245533"><ele>100.33333333333333</ele><time>2026-04-19T14:43:23.762Z</time></trkpt><trkpt lat="43.5110617" lon="13.2243317"><ele>101.0</ele><time>2026-04-19T14:43:24.762Z</time></trkpt><trkpt lat="43.5110333" lon="13.224095"><ele>101.66666666666666</ele><time>2026-04-19T14:43:25.765Z</time></trkpt><trkpt lat="43.5110017" lon="13.2238583"><ele>102.33333333333334</ele><time>2026-04-19T14:43:26.761Z</time></trkpt><trkpt lat="43.510975" lon="13.2236167"><ele>103.0</ele><time>2026-04-19T14:43:27.764Z</time></trkpt><trkpt lat="43.5109467" lon="13.2233783"><ele>103.0</ele><time>2026-04-19T14:43:28.766Z</time></trkpt><trkpt lat="43.51092" lon="13.22315"><ele>103.0</ele><time>2026-04-19T14:43:29.762Z</time></trkpt><trkpt lat="43.510905" lon="13.2229317"><ele>103.0</ele><time>2026-04-19T14:43:30.762Z</time></trkpt><trkpt lat="43.5108967" lon="13.22272"><ele>103.25</ele><time>2026-04-19T14:43:31.763Z</time></trkpt><trkpt lat="43.5108883" lon="13.2225183"><ele>103.5</ele><time>2026-04-19T14:43:32.764Z</time></trkpt><trkpt lat="43.5108917" lon="13.22231"><ele>103.75</ele><time>2026-04-19T14:43:33.763Z</time></trkpt><trkpt lat="43.5109" lon="13.2221067"><ele>104.0</ele><time>2026-04-19T14:43:34.762Z</time></trkpt><trkpt lat="43.510905" lon="13.2218933"><ele>104.0</ele><time>2026-04-19T14:43:35.763Z</time></trkpt><trkpt lat="43.510905" lon="13.221675"><ele>104.0</ele><time>2026-04-19T14:43:36.762Z</time></trkpt><trkpt lat="43.5109067" lon="13.2214467"><ele>104.0</ele><time>2026-04-19T14:43:37.763Z</time></trkpt><trkpt lat="43.5109133" lon="13.2212067"><ele>104.0</ele><time>2026-04-19T14:43:38.762Z</time></trkpt><trkpt lat="43.5109267" lon="13.22096"><ele>104.0</ele><time>2026-04-19T14:43:39.765Z</time></trkpt><trkpt lat="43.5109583" lon="13.2207033"><ele>104.0</ele><time>2026-04-19T14:43:40.763Z</time></trkpt><trkpt lat="43.5110133" lon="13.220435"><ele>104.66666666666666</ele><time>2026-04-19T14:43:41.762Z</time></trkpt><trkpt lat="43.5110833" lon="13.2201567"><ele>105.33333333333334</ele><time>2026-04-19T14:43:42.762Z</time></trkpt><trkpt lat="43.511165" lon="13.219865"><ele>106.0</ele><time>2026-04-19T14:43:43.765Z</time></trkpt><trkpt lat="43.5112483" lon="13.2195817"><ele>106.0</ele><time>2026-04-19T14:43:44.764Z</time></trkpt><trkpt lat="43.5113283" lon="13.2193083"><ele>106.0</ele><time>2026-04-19T14:43:45.762Z</time></trkpt><trkpt lat="43.5113967" lon="13.21905"><ele>106.0</ele><time>2026-04-19T14:43:46.761Z</time></trkpt><trkpt lat="43.5114667" lon="13.2187983"><ele>106.33333333333334</ele><time>2026-04-19T14:43:47.761Z</time></trkpt><trkpt lat="43.5115383" lon="13.21855"><ele>106.66666666666666</ele><time>2026-04-19T14:43:48.761Z</time></trkpt><trkpt lat="43.51161" lon="13.2183117"><ele>107.0</ele><time>2026-04-19T14:43:49.762Z</time></trkpt><trkpt lat="43.5116817" lon="13.2180917"><ele>107.33333333333333</ele><time>2026-04-19T14:43:50.761Z</time></trkpt><trkpt lat="43.5117517" lon="13.2178867"><ele>107.66666666666666</ele><time>2026-04-19T14:43:51.762Z</time></trkpt><trkpt lat="43.51182" lon="13.2176967"><ele>108.0</ele><time>2026-04-19T14:43:52.761Z</time></trkpt><trkpt lat="43.5118883" lon="13.2175217"><ele>108.0</ele><time>2026-04-19T14:43:53.764Z</time></trkpt><trkpt lat="43.5119583" lon="13.2173617"><ele>108.00000000000001</ele><time>2026-04-19T14:43:54.762Z</time></trkpt><trkpt lat="43.51202" lon="13.2172267"><ele>108.00000000000001</ele><time>2026-04-19T14:43:55.76Z</time></trkpt><trkpt lat="43.51207" lon="13.21711"><ele>108.0</ele><time>2026-04-19T14:43:56.761Z</time></trkpt><trkpt lat="43.5121017" lon="13.2170033"><ele>108.0</ele><time>2026-04-19T14:43:57.763Z</time></trkpt><trkpt lat="43.5121133" lon="13.2168967"><ele>108.4</ele><time>2026-04-19T14:43:58.761Z</time></trkpt><trkpt lat="43.5120917" lon="13.216775"><ele>108.80000000000001</ele><time>2026-04-19T14:43:59.76Z</time></trkpt><trkpt lat="43.5120333" lon="13.2166633"><ele>109.2</ele><time>2026-04-19T14:44:00.76Z</time></trkpt><trkpt lat="43.511945" lon="13.216585"><ele>109.6</ele><time>2026-04-19T14:44:01.76Z</time></trkpt><trkpt lat="43.5118617" lon="13.2165217"><ele>110.0</ele><time>2026-04-19T14:44:02.761Z</time></trkpt><trkpt lat="43.5117867" lon="13.21647"><ele>110.2</ele><time>2026-04-19T14:44:03.764Z</time></trkpt><trkpt lat="43.51173" lon="13.2164133"><ele>110.4</ele><time>2026-04-19T14:44:04.761Z</time></trkpt><trkpt lat="43.5116867" lon="13.2163467"><ele>110.6</ele><time>2026-04-19T14:44:05.762Z</time></trkpt><trkpt lat="43.511665" lon="13.2161767"><ele>110.8</ele><time>2026-04-19T14:44:07.762Z</time></trkpt><trkpt lat="43.51169" lon="13.216065"><ele>111.0</ele><time>2026-04-19T14:44:08.761Z</time></trkpt><trkpt lat="43.5117367" lon="13.21593"><ele>111.0</ele><time>2026-04-19T14:44:09.763Z</time></trkpt><trkpt lat="43.5117983" lon="13.215795"><ele>111.0</ele><time>2026-04-19T14:44:10.761Z</time></trkpt><trkpt lat="43.5118667" lon="13.21566"><ele>111.0</ele><time>2026-04-19T14:44:11.762Z</time></trkpt><trkpt lat="43.5119383" lon="13.2155183"><ele>111.0</ele><time>2026-04-19T14:44:12.764Z</time></trkpt><trkpt lat="43.512015" lon="13.2153733"><ele>110.75</ele><time>2026-04-19T14:44:13.761Z</time></trkpt><trkpt lat="43.5120933" lon="13.2152283"><ele>110.5</ele><time>2026-04-19T14:44:14.764Z</time></trkpt><trkpt lat="43.5121733" lon="13.2150833"><ele>110.25</ele><time>2026-04-19T14:44:15.761Z</time></trkpt><trkpt lat="43.5122483" lon="13.2149417"><ele>110.0</ele><time>2026-04-19T14:44:16.76Z</time></trkpt><trkpt lat="43.5123217" lon="13.2147967"><ele>110.75</ele><time>2026-04-19T14:44:17.759Z</time></trkpt><trkpt lat="43.5123917" lon="13.214645"><ele>111.5</ele><time>2026-04-19T14:44:18.76Z</time></trkpt><trkpt lat="43.512465" lon="13.2144767"><ele>112.25</ele><time>2026-04-19T14:44:19.761Z</time></trkpt><trkpt lat="43.512535" lon="13.2142983"><ele>113.0</ele><time>2026-04-19T14:44:20.76Z</time></trkpt><trkpt lat="43.51261" lon="13.214105"><ele>113.0</ele><time>2026-04-19T14:44:21.761Z</time></trkpt><trkpt lat="43.5126817" lon="13.2138933"><ele>113.0</ele><time>2026-04-19T14:44:22.761Z</time></trkpt><trkpt lat="43.5127517" lon="13.2136483"><ele>113.0</ele><time>2026-04-19T14:44:23.76Z</time></trkpt><trkpt lat="43.5128217" lon="13.2133567"><ele>113.0</ele><time>2026-04-19T14:44:24.76Z</time></trkpt><trkpt lat="43.5128917" lon="13.213055"><ele>113.0</ele><time>2026-04-19T14:44:25.768Z</time></trkpt><trkpt lat="43.5129533" lon="13.2127783"><ele>113.0</ele><time>2026-04-19T14:44:26.762Z</time></trkpt><trkpt lat="43.5130117" lon="13.2125267"><ele>114.0</ele><time>2026-04-19T14:44:27.765Z</time></trkpt><trkpt lat="43.5130767" lon="13.2123033"><ele>115.0</ele><time>2026-04-19T14:44:28.761Z</time></trkpt><trkpt lat="43.5131583" lon="13.2121"><ele>116.0</ele><time>2026-04-19T14:44:29.761Z</time></trkpt><trkpt lat="43.5132533" lon="13.2118967"><ele>116.0</ele><time>2026-04-19T14:44:30.761Z</time></trkpt><trkpt lat="43.5133583" lon="13.211685"><ele>116.0</ele><time>2026-04-19T14:44:31.761Z</time></trkpt><trkpt lat="43.5134683" lon="13.2114633"><ele>116.0</ele><time>2026-04-19T14:44:32.761Z</time></trkpt><trkpt lat="43.5135833" lon="13.2112383"><ele>115.66666666666666</ele><time>2026-04-19T14:44:33.765Z</time></trkpt><trkpt lat="43.5137033" lon="13.2110133"><ele>115.33333333333334</ele><time>2026-04-19T14:44:34.761Z</time></trkpt><trkpt lat="43.5138183" lon="13.2107967"><ele>115.0</ele><time>2026-04-19T14:44:35.762Z</time></trkpt><trkpt lat="43.5139167" lon="13.2105983"><ele>115.66666666666667</ele><time>2026-04-19T14:44:36.762Z</time></trkpt><trkpt lat="43.5140067" lon="13.21041"><ele>116.33333333333334</ele><time>2026-04-19T14:44:37.762Z</time></trkpt><trkpt lat="43.514105" lon="13.2102117"><ele>117.0</ele><time>2026-04-19T14:44:38.763Z</time></trkpt><trkpt lat="43.5142217" lon="13.209985"><ele>117.5</ele><time>2026-04-19T14:44:39.764Z</time></trkpt><trkpt lat="43.514355" lon="13.2097217"><ele>118.0</ele><time>2026-04-19T14:44:40.761Z</time></trkpt><trkpt lat="43.5144883" lon="13.2094567"><ele>117.66666666666667</ele><time>2026-04-19T14:44:41.763Z</time></trkpt><trkpt lat="43.51461" lon="13.2092233"><ele>117.33333333333334</ele><time>2026-04-19T14:44:42.762Z</time></trkpt><trkpt lat="43.5147133" lon="13.2090217"><ele>117.0</ele><time>2026-04-19T14:44:43.761Z</time></trkpt><trkpt lat="43.5147967" lon="13.2088367"><ele>117.0</ele><time>2026-04-19T14:44:44.762Z</time></trkpt><trkpt lat="43.5148617" lon="13.2086367"><ele>117.0</ele><time>2026-04-19T14:44:45.761Z</time></trkpt><trkpt lat="43.5149017" lon="13.2084167"><ele>117.0</ele><time>2026-04-19T14:44:46.761Z</time></trkpt><trkpt lat="43.514925" lon="13.2081917"><ele>118.0</ele><time>2026-04-19T14:44:47.761Z</time></trkpt><trkpt lat="43.5149333" lon="13.2079633"><ele>119.0</ele><time>2026-04-19T14:44:48.761Z</time></trkpt><trkpt lat="43.5149683" lon="13.2077017"><ele>120.0</ele><time>2026-04-19T14:44:49.76Z</time></trkpt><trkpt lat="43.51499" lon="13.2073983"><ele>120.0</ele><time>2026-04-19T14:44:50.76Z</time></trkpt><trkpt lat="43.51502" lon="13.2070783"><ele>120.0</ele><time>2026-04-19T14:44:51.763Z</time></trkpt><trkpt lat="43.5150517" lon="13.2066817"><ele>120.5</ele><time>2026-04-19T14:44:52.76Z</time></trkpt><trkpt lat="43.5150917" lon="13.206295"><ele>121.0</ele><time>2026-04-19T14:44:53.76Z</time></trkpt><trkpt lat="43.5151233" lon="13.2059483"><ele>121.66666666666667</ele><time>2026-04-19T14:44:54.76Z</time></trkpt><trkpt lat="43.51516" lon="13.2056367"><ele>122.33333333333334</ele><time>2026-04-19T14:44:55.763Z</time></trkpt><trkpt lat="43.5151983" lon="13.2053383"><ele>123.0</ele><time>2026-04-19T14:44:56.763Z</time></trkpt><trkpt lat="43.51522" lon="13.20504"><ele>123.0</ele><time>2026-04-19T14:44:57.762Z</time></trkpt><trkpt lat="43.51523" lon="13.2047483"><ele>123.0</ele><time>2026-04-19T14:44:58.76Z</time></trkpt><trkpt lat="43.515235" lon="13.2044767"><ele>123.0</ele><time>2026-04-19T14:44:59.761Z</time></trkpt><trkpt lat="43.515245" lon="13.204215"><ele>123.33333333333334</ele><time>2026-04-19T14:45:00.76Z</time></trkpt><trkpt lat="43.5152667" lon="13.2039467"><ele>123.66666666666667</ele><time>2026-04-19T14:45:01.76Z</time></trkpt><trkpt lat="43.51531" lon="13.2036683"><ele>124.0</ele><time>2026-04-19T14:45:02.761Z</time></trkpt><trkpt lat="43.515375" lon="13.2033867"><ele>123.66666666666667</ele><time>2026-04-19T14:45:03.76Z</time></trkpt><trkpt lat="43.5154517" lon="13.2031167"><ele>123.33333333333334</ele><time>2026-04-19T14:45:04.762Z</time></trkpt><trkpt lat="43.51553" lon="13.20287"><ele>123.0</ele><time>2026-04-19T14:45:05.764Z</time></trkpt><trkpt lat="43.515605" lon="13.202645"><ele>123.0</ele><time>2026-04-19T14:45:06.76Z</time></trkpt><trkpt lat="43.5156767" lon="13.202435"><ele>123.0</ele><time>2026-04-19T14:45:07.764Z</time></trkpt><trkpt lat="43.5157433" lon="13.2022267"><ele>123.0</ele><time>2026-04-19T14:45:08.762Z</time></trkpt><trkpt lat="43.5158067" lon="13.202015"><ele>124.0</ele><time>2026-04-19T14:45:09.761Z</time></trkpt><trkpt lat="43.5158633" lon="13.201795"><ele>125.0</ele><time>2026-04-19T14:45:10.759Z</time></trkpt><trkpt lat="43.5159133" lon="13.2015667"><ele>126.0</ele><time>2026-04-19T14:45:11.763Z</time></trkpt><trkpt lat="43.5159567" lon="13.2013167"><ele>126.66666666666666</ele><time>2026-04-19T14:45:12.763Z</time></trkpt><trkpt lat="43.5159917" lon="13.2010317"><ele>127.33333333333333</ele><time>2026-04-19T14:45:13.76Z</time></trkpt><trkpt lat="43.5160333" lon="13.2007283"><ele>128.0</ele><time>2026-04-19T14:45:14.761Z</time></trkpt><trkpt lat="43.5160783" lon="13.2004167"><ele>128.0</ele><time>2026-04-19T14:45:15.761Z</time></trkpt><trkpt lat="43.516125" lon="13.200115"><ele>128.0</ele><time>2026-04-19T14:45:16.759Z</time></trkpt><trkpt lat="43.51617" lon="13.1998267"><ele>128.0</ele><time>2026-04-19T14:45:17.761Z</time></trkpt><trkpt lat="43.5162117" lon="13.1995467"><ele>128.0</ele><time>2026-04-19T14:45:18.762Z</time></trkpt><trkpt lat="43.51625" lon="13.199285"><ele>128.0</ele><time>2026-04-19T14:45:19.764Z</time></trkpt><trkpt lat="43.516285" lon="13.1990467"><ele>128.0</ele><time>2026-04-19T14:45:20.761Z</time></trkpt><trkpt lat="43.5163033" lon="13.1988233"><ele>128.0</ele><time>2026-04-19T14:45:21.76Z</time></trkpt><trkpt lat="43.5163017" lon="13.1985933"><ele>128.0</ele><time>2026-04-19T14:45:22.761Z</time></trkpt><trkpt lat="43.5162767" lon="13.198355"><ele>128.0</ele><time>2026-04-19T14:45:23.76Z</time></trkpt><trkpt lat="43.5162333" lon="13.1981183"><ele>133.0</ele><time>2026-04-19T14:45:24.76Z</time></trkpt><trkpt lat="43.51618" lon="13.1978933"><ele>138.0</ele><time>2026-04-19T14:45:25.762Z</time></trkpt><trkpt lat="43.5161233" lon="13.19769"><ele>143.0</ele><time>2026-04-19T14:45:26.761Z</time></trkpt><trkpt lat="43.5160717" lon="13.1975"><ele>144.0</ele><time>2026-04-19T14:45:27.761Z</time></trkpt><trkpt lat="43.5160317" lon="13.19733"><ele>145.0</ele><time>2026-04-19T14:45:28.761Z</time></trkpt><trkpt lat="43.5160117" lon="13.1971733"><ele>146.0</ele><time>2026-04-19T14:45:29.761Z</time></trkpt><trkpt lat="43.516015" lon="13.1970183"><ele>147.0</ele><time>2026-04-19T14:45:30.762Z</time></trkpt><trkpt lat="43.516045" lon="13.1968617"><ele>147.0</ele><time>2026-04-19T14:45:31.764Z</time></trkpt><trkpt lat="43.51609" lon="13.1966983"><ele>147.0</ele><time>2026-04-19T14:45:32.762Z</time></trkpt><trkpt lat="43.5161467" lon="13.1965417"><ele>147.0</ele><time>2026-04-19T14:45:33.763Z</time></trkpt><trkpt lat="43.5162017" lon="13.1963833"><ele>147.0</ele><time>2026-04-19T14:45:34.761Z</time></trkpt><trkpt lat="43.5162483" lon="13.19622"><ele>147.25</ele><time>2026-04-19T14:45:35.76Z</time></trkpt><trkpt lat="43.51629" lon="13.1960517"><ele>147.5</ele><time>2026-04-19T14:45:36.76Z</time></trkpt><trkpt lat="43.5163233" lon="13.1958767"><ele>147.75</ele><time>2026-04-19T14:45:37.76Z</time></trkpt><trkpt lat="43.5163483" lon="13.1956833"><ele>148.0</ele><time>2026-04-19T14:45:38.763Z</time></trkpt><trkpt lat="43.5163683" lon="13.1954717"><ele>150.33333333333334</ele><time>2026-04-19T14:45:39.759Z</time></trkpt><trkpt lat="43.51639" lon="13.1952417"><ele>152.66666666666666</ele><time>2026-04-19T14:45:40.761Z</time></trkpt><trkpt lat="43.5164033" lon="13.19498"><ele>155.0</ele><time>2026-04-19T14:45:41.76Z</time></trkpt><trkpt lat="43.51642" lon="13.1946983"><ele>157.33333333333331</ele><time>2026-04-19T14:45:42.762Z</time></trkpt><trkpt lat="43.51644" lon="13.1944167"><ele>159.66666666666666</ele><time>2026-04-19T14:45:43.761Z</time></trkpt><trkpt lat="43.51647" lon="13.19413"><ele>162.0</ele><time>2026-04-19T14:45:44.761Z</time></trkpt><trkpt lat="43.5165067" lon="13.1938367"><ele>163.66666666666666</ele><time>2026-04-19T14:45:45.763Z</time></trkpt><trkpt lat="43.5165433" lon="13.1935367"><ele>165.33333333333331</ele><time>2026-04-19T14:45:46.759Z</time></trkpt><trkpt lat="43.516585" lon="13.1932317"><ele>167.0</ele><time>2026-04-19T14:45:47.761Z</time></trkpt><trkpt lat="43.5166267" lon="13.192935"><ele>168.0</ele><time>2026-04-19T14:45:48.762Z</time></trkpt><trkpt lat="43.51667" lon="13.1926317"><ele>169.0</ele><time>2026-04-19T14:45:49.762Z</time></trkpt><trkpt lat="43.51671" lon="13.1923417"><ele>170.0</ele><time>2026-04-19T14:45:50.762Z</time></trkpt><trkpt lat="43.5167467" lon="13.192055"><ele>171.33333333333331</ele><time>2026-04-19T14:45:51.762Z</time></trkpt><trkpt lat="43.516785" lon="13.191775"><ele>172.66666666666666</ele><time>2026-04-19T14:45:52.761Z</time></trkpt><trkpt lat="43.5168267" lon="13.1914967"><ele>174.0</ele><time>2026-04-19T14:45:53.763Z</time></trkpt><trkpt lat="43.5168617" lon="13.191225"><ele>175.66666666666666</ele><time>2026-04-19T14:45:54.762Z</time></trkpt><trkpt lat="43.516895" lon="13.1909617"><ele>177.33333333333331</ele><time>2026-04-19T14:45:55.763Z</time></trkpt><trkpt lat="43.5169283" lon="13.1906933"><ele>179.0</ele><time>2026-04-19T14:45:56.761Z</time></trkpt><trkpt lat="43.51696" lon="13.190415"><ele>179.33333333333331</ele><time>2026-04-19T14:45:57.764Z</time></trkpt><trkpt lat="43.5169883" lon="13.19014"><ele>179.66666666666666</ele><time>2026-04-19T14:45:58.762Z</time></trkpt><trkpt lat="43.5170117" lon="13.1898833"><ele>180.0</ele><time>2026-04-19T14:45:59.765Z</time></trkpt><trkpt lat="43.51703" lon="13.189645"><ele>180.0</ele><time>2026-04-19T14:46:00.765Z</time></trkpt><trkpt lat="43.5170267" lon="13.1894183"><ele>180.0</ele><time>2026-04-19T14:46:01.762Z</time></trkpt><trkpt lat="43.5170083" lon="13.189185"><ele>180.0</ele><time>2026-04-19T14:46:02.761Z</time></trkpt><trkpt lat="43.5169817" lon="13.1889517"><ele>179.66666666666666</ele><time>2026-04-19T14:46:03.761Z</time></trkpt><trkpt lat="43.51696" lon="13.1887117"><ele>179.33333333333331</ele><time>2026-04-19T14:46:04.762Z</time></trkpt><trkpt lat="43.5169383" lon="13.1884633"><ele>179.0</ele><time>2026-04-19T14:46:05.765Z</time></trkpt><trkpt lat="43.5169167" lon="13.18821"><ele>178.33333333333331</ele><time>2026-04-19T14:46:06.762Z</time></trkpt><trkpt lat="43.516895" lon="13.1879583"><ele>177.66666666666666</ele><time>2026-04-19T14:46:07.762Z</time></trkpt><trkpt lat="43.516875" lon="13.1877167"><ele>177.0</ele><time>2026-04-19T14:46:08.761Z</time></trkpt><trkpt lat="43.5168533" lon="13.1874733"><ele>175.33333333333334</ele><time>2026-04-19T14:46:09.761Z</time></trkpt><trkpt lat="43.51683" lon="13.18723"><ele>173.66666666666669</ele><time>2026-04-19T14:46:10.761Z</time></trkpt><trkpt lat="43.5168067" lon="13.1869933"><ele>172.0</ele><time>2026-04-19T14:46:11.76Z</time></trkpt><trkpt lat="43.516785" lon="13.18677"><ele>172.0</ele><time>2026-04-19T14:46:12.761Z</time></trkpt><trkpt lat="43.516765" lon="13.1865483"><ele>172.0</ele><time>2026-04-19T14:46:13.845Z</time></trkpt><trkpt lat="43.5167467" lon="13.18633"><ele>172.0</ele><time>2026-04-19T14:46:14.762Z</time></trkpt><trkpt lat="43.516725" lon="13.186115"><ele>172.0</ele><time>2026-04-19T14:46:15.76Z</time></trkpt><trkpt lat="43.5166983" lon="13.1859083"><ele>172.0</ele><time>2026-04-19T14:46:16.763Z</time></trkpt><trkpt lat="43.516665" lon="13.18571"><ele>172.0</ele><time>2026-04-19T14:46:17.761Z</time></trkpt><trkpt lat="43.51663" lon="13.18552"><ele>172.0</ele><time>2026-04-19T14:46:18.763Z</time></trkpt><trkpt lat="43.516595" lon="13.1853417"><ele>172.5</ele><time>2026-04-19T14:46:19.76Z</time></trkpt><trkpt lat="43.51657" lon="13.18516"><ele>173.0</ele><time>2026-04-19T14:46:20.76Z</time></trkpt><trkpt lat="43.516555" lon="13.1849717"><ele>173.5</ele><time>2026-04-19T14:46:21.761Z</time></trkpt><trkpt lat="43.5165467" lon="13.184785"><ele>174.0</ele><time>2026-04-19T14:46:22.761Z</time></trkpt><trkpt lat="43.5165383" lon="13.1846033"><ele>174.0</ele><time>2026-04-19T14:46:23.761Z</time></trkpt><trkpt lat="43.5165317" lon="13.1844317"><ele>174.0</ele><time>2026-04-19T14:46:24.762Z</time></trkpt><trkpt lat="43.516525" lon="13.1842617"><ele>174.0</ele><time>2026-04-19T14:46:25.761Z</time></trkpt><trkpt lat="43.5165233" lon="13.184085"><ele>174.0</ele><time>2026-04-19T14:46:26.763Z</time></trkpt><trkpt lat="43.516525" lon="13.1839083"><ele>173.5</ele><time>2026-04-19T14:46:27.761Z</time></trkpt><trkpt lat="43.5165283" lon="13.1837233"><ele>173.0</ele><time>2026-04-19T14:46:28.761Z</time></trkpt><trkpt lat="43.516525" lon="13.1835333"><ele>172.5</ele><time>2026-04-19T14:46:29.761Z</time></trkpt><trkpt lat="43.5165233" lon="13.1833483"><ele>172.0</ele><time>2026-04-19T14:46:30.761Z</time></trkpt><trkpt lat="43.5165167" lon="13.1831717"><ele>172.0</ele><time>2026-04-19T14:46:31.762Z</time></trkpt><trkpt lat="43.5165133" lon="13.183005"><ele>172.0</ele><time>2026-04-19T14:46:32.762Z</time></trkpt><trkpt lat="43.5165167" lon="13.1828533"><ele>172.0</ele><time>2026-04-19T14:46:33.762Z</time></trkpt><trkpt lat="43.516515" lon="13.1827083"><ele>172.0</ele><time>2026-04-19T14:46:34.763Z</time></trkpt><trkpt lat="43.516515" lon="13.1825617"><ele>172.0</ele><time>2026-04-19T14:46:35.761Z</time></trkpt><trkpt lat="43.516515" lon="13.1824183"><ele>172.16666666666669</ele><time>2026-04-19T14:46:36.761Z</time></trkpt><trkpt lat="43.516515" lon="13.18229"><ele>172.33333333333334</ele><time>2026-04-19T14:46:37.763Z</time></trkpt><trkpt lat="43.5165117" lon="13.1821717"><ele>172.5</ele><time>2026-04-19T14:46:38.761Z</time></trkpt><trkpt lat="43.5165133" lon="13.1820717"><ele>172.66666666666666</ele><time>2026-04-19T14:46:39.761Z</time></trkpt><trkpt lat="43.5165083" lon="13.18193"><ele>172.83333333333331</ele><time>2026-04-19T14:46:41.761Z</time></trkpt><trkpt lat="43.5164917" lon="13.1818317"><ele>173.0</ele><time>2026-04-19T14:46:43.762Z</time></trkpt><trkpt lat="43.5164233" lon="13.1817733"><ele>173.0</ele><time>2026-04-19T14:46:45.762Z</time></trkpt><trkpt lat="43.5163283" lon="13.1817767"><ele>173.0</ele><time>2026-04-19T14:46:46.76Z</time></trkpt><trkpt lat="43.5162267" lon="13.1817767"><ele>173.0</ele><time>2026-04-19T14:46:47.76Z</time></trkpt><trkpt lat="43.5160867" lon="13.1817867"><ele>173.0</ele><time>2026-04-19T14:46:48.761Z</time></trkpt><trkpt lat="43.515935" lon="13.1817967"><ele>167.66666666666666</ele><time>2026-04-19T14:46:49.76Z</time></trkpt><trkpt lat="43.5157783" lon="13.1817967"><ele>162.33333333333334</ele><time>2026-04-19T14:46:50.761Z</time></trkpt><trkpt lat="43.5156167" lon="13.1818117"><ele>157.0</ele><time>2026-04-19T14:46:51.761Z</time></trkpt><trkpt lat="43.5154533" lon="13.1818133"><ele>153.66666666666669</ele><time>2026-04-19T14:46:52.762Z</time></trkpt><trkpt lat="43.515285" lon="13.1818217"><ele>150.33333333333334</ele><time>2026-04-19T14:46:53.76Z</time></trkpt><trkpt lat="43.5151033" lon="13.1818283"><ele>147.0</ele><time>2026-04-19T14:46:54.76Z</time></trkpt><trkpt lat="43.5149183" lon="13.1818417"><ele>147.0</ele><time>2026-04-19T14:46:55.762Z</time></trkpt><trkpt lat="43.514725" lon="13.1818583"><ele>147.0</ele><time>2026-04-19T14:46:56.761Z</time></trkpt><trkpt lat="43.5145233" lon="13.1818733"><ele>147.0</ele><time>2026-04-19T14:46:57.76Z</time></trkpt><trkpt lat="43.51432" lon="13.1818917"><ele>145.0</ele><time>2026-04-19T14:46:58.761Z</time></trkpt><trkpt lat="43.5141133" lon="13.18191"><ele>143.0</ele><time>2026-04-19T14:46:59.762Z</time></trkpt><trkpt lat="43.5139117" lon="13.181925"><ele>141.0</ele><time>2026-04-19T14:47:00.76Z</time></trkpt><trkpt lat="43.5137167" lon="13.18194"><ele>139.66666666666666</ele><time>2026-04-19T14:47:01.763Z</time></trkpt><trkpt lat="43.5135267" lon="13.181955"><ele>138.33333333333331</ele><time>2026-04-19T14:47:02.761Z</time></trkpt><trkpt lat="43.5133383" lon="13.18197"><ele>137.0</ele><time>2026-04-19T14:47:03.761Z</time></trkpt><trkpt lat="43.5131517" lon="13.1819817"><ele>137.0</ele><time>2026-04-19T14:47:04.761Z</time></trkpt><trkpt lat="43.5129667" lon="13.181995"><ele>137.0</ele><time>2026-04-19T14:47:05.761Z</time></trkpt><trkpt lat="43.5127783" lon="13.1820033"><ele>137.0</ele><time>2026-04-19T14:47:06.763Z</time></trkpt><trkpt lat="43.5125817" lon="13.1820117"><ele>137.33333333333331</ele><time>2026-04-19T14:47:07.762Z</time></trkpt><trkpt lat="43.5123783" lon="13.182025"><ele>137.66666666666666</ele><time>2026-04-19T14:47:08.761Z</time></trkpt><trkpt lat="43.5121717" lon="13.1820333"><ele>138.0</ele><time>2026-04-19T14:47:09.764Z</time></trkpt><trkpt lat="43.5119633" lon="13.1820483"><ele>138.0</ele><time>2026-04-19T14:47:10.761Z</time></trkpt><trkpt lat="43.5117583" lon="13.1820583"><ele>138.0</ele><time>2026-04-19T14:47:11.762Z</time></trkpt><trkpt lat="43.5115467" lon="13.1820717"><ele>138.0</ele><time>2026-04-19T14:47:12.763Z</time></trkpt><trkpt lat="43.511335" lon="13.1820917"><ele>137.0</ele><time>2026-04-19T14:47:13.76Z</time></trkpt><trkpt lat="43.51112" lon="13.18211"><ele>136.0</ele><time>2026-04-19T14:47:14.762Z</time></trkpt><trkpt lat="43.5109" lon="13.1821283"><ele>135.0</ele><time>2026-04-19T14:47:15.764Z</time></trkpt><trkpt lat="43.5106783" lon="13.182145"><ele>135.0</ele><time>2026-04-19T14:47:16.761Z</time></trkpt><trkpt lat="43.5104667" lon="13.18216"><ele>135.0</ele><time>2026-04-19T14:47:17.762Z</time></trkpt><trkpt lat="43.5102633" lon="13.1821767"><ele>135.0</ele><time>2026-04-19T14:47:18.767Z</time></trkpt><trkpt lat="43.5100717" lon="13.1821867"><ele>134.66666666666666</ele><time>2026-04-19T14:47:19.762Z</time></trkpt><trkpt lat="43.50989" lon="13.1822017"><ele>134.33333333333331</ele><time>2026-04-19T14:47:20.763Z</time></trkpt><trkpt lat="43.50972" lon="13.1822117"><ele>134.0</ele><time>2026-04-19T14:47:21.763Z</time></trkpt><trkpt lat="43.5095583" lon="13.1822217"><ele>133.5</ele><time>2026-04-19T14:47:22.764Z</time></trkpt><trkpt lat="43.509405" lon="13.182235"><ele>133.0</ele><time>2026-04-19T14:47:23.764Z</time></trkpt><trkpt lat="43.5092617" lon="13.182245"><ele>132.5</ele><time>2026-04-19T14:47:24.764Z</time></trkpt><trkpt lat="43.509125" lon="13.1822533"><ele>132.0</ele><time>2026-04-19T14:47:25.762Z</time></trkpt><trkpt lat="43.5089933" lon="13.18226"><ele>132.0</ele><time>2026-04-19T14:47:26.761Z</time></trkpt><trkpt lat="43.5088683" lon="13.1822633"><ele>132.0</ele><time>2026-04-19T14:47:27.761Z</time></trkpt><trkpt lat="43.5087433" lon="13.18227"><ele>132.0</ele><time>2026-04-19T14:47:28.761Z</time></trkpt><trkpt lat="43.5086267" lon="13.1822767"><ele>132.0</ele><time>2026-04-19T14:47:29.762Z</time></trkpt><trkpt lat="43.5085117" lon="13.18229"><ele>131.6</ele><time>2026-04-19T14:47:30.762Z</time></trkpt><trkpt lat="43.5084033" lon="13.1823083"><ele>131.2</ele><time>2026-04-19T14:47:31.761Z</time></trkpt><trkpt lat="43.508295" lon="13.1823417"><ele>130.8</ele><time>2026-04-19T14:47:32.761Z</time></trkpt><trkpt lat="43.5081917" lon="13.18239"><ele>130.4</ele><time>2026-04-19T14:47:33.761Z</time></trkpt><trkpt lat="43.5080967" lon="13.182455"><ele>130.0</ele><time>2026-04-19T14:47:34.761Z</time></trkpt><trkpt lat="43.5080033" lon="13.1825467"><ele>130.0</ele><time>2026-04-19T14:47:35.761Z</time></trkpt><trkpt lat="43.5079083" lon="13.1826483"><ele>130.0</ele><time>2026-04-19T14:47:36.761Z</time></trkpt><trkpt lat="43.5078117" lon="13.1827567"><ele>130.0</ele><time>2026-04-19T14:47:37.76Z</time></trkpt><trkpt lat="43.5077183" lon="13.1828717"><ele>130.0</ele><time>2026-04-19T14:47:38.762Z</time></trkpt><trkpt lat="43.5076283" lon="13.1829817"><ele>130.0</ele><time>2026-04-19T14:47:39.761Z</time></trkpt><trkpt lat="43.507545" lon="13.1830917"><ele>130.0</ele><time>2026-04-19T14:47:40.76Z</time></trkpt><trkpt lat="43.5074617" lon="13.1832183"><ele>130.0</ele><time>2026-04-19T14:47:41.762Z</time></trkpt><trkpt lat="43.50738" lon="13.18334"><ele>130.0</ele><time>2026-04-19T14:47:42.762Z</time></trkpt><trkpt lat="43.50729" lon="13.1834617"><ele>128.0</ele><time>2026-04-19T14:47:43.764Z</time></trkpt><trkpt lat="43.5071983" lon="13.1835817"><ele>126.0</ele><time>2026-04-19T14:47:44.764Z</time></trkpt><trkpt lat="43.5070933" lon="13.1836883"><ele>124.0</ele><time>2026-04-19T14:47:45.762Z</time></trkpt><trkpt lat="43.506985" lon="13.1837767"><ele>122.0</ele><time>2026-04-19T14:47:46.761Z</time></trkpt><trkpt lat="43.5068717" lon="13.1838633"><ele>121.75</ele><time>2026-04-19T14:47:47.762Z</time></trkpt><trkpt lat="43.5067583" lon="13.18395"><ele>121.5</ele><time>2026-04-19T14:47:48.764Z</time></trkpt><trkpt lat="43.5066517" lon="13.1840267"><ele>121.25</ele><time>2026-04-19T14:47:49.761Z</time></trkpt><trkpt lat="43.5065567" lon="13.1841033"><ele>121.0</ele><time>2026-04-19T14:47:50.761Z</time></trkpt><trkpt lat="43.5064683" lon="13.1841767"><ele>118.50000000000001</ele><time>2026-04-19T14:47:51.76Z</time></trkpt><trkpt lat="43.5063883" lon="13.1842433"><ele>116.0</ele><time>2026-04-19T14:47:52.761Z</time></trkpt><trkpt lat="43.5063183" lon="13.184295"><ele>113.5</ele><time>2026-04-19T14:47:53.76Z</time></trkpt><trkpt lat="43.5062617" lon="13.18434"><ele>111.0</ele><time>2026-04-19T14:47:54.761Z</time></trkpt><trkpt lat="43.50618" lon="13.1844033"><ele>108.50000000000001</ele><time>2026-04-19T14:47:56.76Z</time></trkpt><trkpt lat="43.5061117" lon="13.184415"><ele>106.0</ele><time>2026-04-19T14:47:59.76Z</time></trkpt><trkpt lat="43.506085" lon="13.1843"><ele>104.6</ele><time>2026-04-19T14:48:02.764Z</time></trkpt><trkpt lat="43.5060883" lon="13.184205"><ele>103.19999999999999</ele><time>2026-04-19T14:48:03.761Z</time></trkpt><trkpt lat="43.5060817" lon="13.1840717"><ele>101.80000000000001</ele><time>2026-04-19T14:48:04.761Z</time></trkpt><trkpt lat="43.5060783" lon="13.1839"><ele>100.4</ele><time>2026-04-19T14:48:05.76Z</time></trkpt><trkpt lat="43.50607" lon="13.1837067"><ele>99.0</ele><time>2026-04-19T14:48:06.761Z</time></trkpt><trkpt lat="43.5060617" lon="13.1834867"><ele>99.0</ele><time>2026-04-19T14:48:07.761Z</time></trkpt><trkpt lat="43.506055" lon="13.1832333"><ele>99.0</ele><time>2026-04-19T14:48:08.761Z</time></trkpt><trkpt lat="43.5060483" lon="13.18296"><ele>99.0</ele><time>2026-04-19T14:48:09.76Z</time></trkpt><trkpt lat="43.5060433" lon="13.1826667"><ele>100.0</ele><time>2026-04-19T14:48:10.76Z</time></trkpt><trkpt lat="43.5060383" lon="13.1823433"><ele>101.0</ele><time>2026-04-19T14:48:11.761Z</time></trkpt><trkpt lat="43.5060367" lon="13.1819833"><ele>101.0</ele><time>2026-04-19T14:48:12.764Z</time></trkpt><trkpt lat="43.5060333" lon="13.1815783"><ele>101.0</ele><time>2026-04-19T14:48:13.761Z</time></trkpt><trkpt lat="43.5060283" lon="13.1811583"><ele>101.0</ele><time>2026-04-19T14:48:14.762Z</time></trkpt><trkpt lat="43.5060217" lon="13.1807483"><ele>101.0</ele><time>2026-04-19T14:48:15.761Z</time></trkpt><trkpt lat="43.5060133" lon="13.18036"><ele>101.0</ele><time>2026-04-19T14:48:16.762Z</time></trkpt><trkpt lat="43.5060167" lon="13.1799833"><ele>101.0</ele><time>2026-04-19T14:48:17.762Z</time></trkpt><trkpt lat="43.5060283" lon="13.179605"><ele>101.0</ele><time>2026-04-19T14:48:18.762Z</time></trkpt><trkpt lat="43.5060483" lon="13.1792167"><ele>101.0</ele><time>2026-04-19T14:48:19.764Z</time></trkpt><trkpt lat="43.50608" lon="13.1788133"><ele>100.0</ele><time>2026-04-19T14:48:20.76Z</time></trkpt><trkpt lat="43.5061133" lon="13.1784367"><ele>99.0</ele><time>2026-04-19T14:48:21.764Z</time></trkpt><trkpt lat="43.50615" lon="13.1780933"><ele>98.0</ele><time>2026-04-19T14:48:22.76Z</time></trkpt><trkpt lat="43.5061833" lon="13.1777633"><ele>97.0</ele><time>2026-04-19T14:48:23.762Z</time></trkpt><trkpt lat="43.50621" lon="13.1774417"><ele>96.5</ele><time>2026-04-19T14:48:24.763Z</time></trkpt><trkpt lat="43.5062333" lon="13.1771217"><ele>96.0</ele><time>2026-04-19T14:48:25.761Z</time></trkpt><trkpt lat="43.50626" lon="13.1768017"><ele>98.5</ele><time>2026-04-19T14:48:26.762Z</time></trkpt><trkpt lat="43.5062883" lon="13.1764867"><ele>101.0</ele><time>2026-04-19T14:48:27.769Z</time></trkpt><trkpt lat="43.5063133" lon="13.1761817"><ele>101.0</ele><time>2026-04-19T14:48:28.76Z</time></trkpt><trkpt lat="43.5063333" lon="13.1758917"><ele>101.0</ele><time>2026-04-19T14:48:29.763Z</time></trkpt><trkpt lat="43.50635" lon="13.1756067"><ele>101.0</ele><time>2026-04-19T14:48:30.762Z</time></trkpt><trkpt lat="43.5063617" lon="13.1753167"><ele>100.66666666666666</ele><time>2026-04-19T14:48:31.762Z</time></trkpt><trkpt lat="43.5063667" lon="13.1750317"><ele>100.33333333333334</ele><time>2026-04-19T14:48:32.763Z</time></trkpt><trkpt lat="43.506375" lon="13.17474"><ele>100.0</ele><time>2026-04-19T14:48:33.761Z</time></trkpt><trkpt lat="43.50638" lon="13.1744417"><ele>99.66666666666667</ele><time>2026-04-19T14:48:34.76Z</time></trkpt><trkpt lat="43.5063883" lon="13.1741467"><ele>99.33333333333334</ele><time>2026-04-19T14:48:35.762Z</time></trkpt><trkpt lat="43.5063967" lon="13.173845"><ele>99.0</ele><time>2026-04-19T14:48:36.761Z</time></trkpt><trkpt lat="43.5064017" lon="13.1735467"><ele>99.66666666666666</ele><time>2026-04-19T14:48:37.762Z</time></trkpt><trkpt lat="43.5064083" lon="13.1732567"><ele>100.33333333333333</ele><time>2026-04-19T14:48:38.762Z</time></trkpt><trkpt lat="43.5064183" lon="13.17298"><ele>101.0</ele><time>2026-04-19T14:48:39.761Z</time></trkpt><trkpt lat="43.5064233" lon="13.172715"><ele>101.33333333333333</ele><time>2026-04-19T14:48:40.763Z</time></trkpt><trkpt lat="43.5064333" lon="13.1724567"><ele>101.66666666666666</ele><time>2026-04-19T14:48:41.761Z</time></trkpt><trkpt lat="43.5064433" lon="13.1721967"><ele>102.0</ele><time>2026-04-19T14:48:42.763Z</time></trkpt><trkpt lat="43.5064517" lon="13.1719317"><ele>102.33333333333334</ele><time>2026-04-19T14:48:43.762Z</time></trkpt><trkpt lat="43.506455" lon="13.1716633"><ele>102.66666666666667</ele><time>2026-04-19T14:48:44.762Z</time></trkpt><trkpt lat="43.506455" lon="13.1713917"><ele>103.0</ele><time>2026-04-19T14:48:45.762Z</time></trkpt><trkpt lat="43.5064533" lon="13.1711217"><ele>103.33333333333334</ele><time>2026-04-19T14:48:46.763Z</time></trkpt><trkpt lat="43.5064433" lon="13.1708583"><ele>103.66666666666666</ele><time>2026-04-19T14:48:47.762Z</time></trkpt><trkpt lat="43.50643" lon="13.1706133"><ele>104.0</ele><time>2026-04-19T14:48:48.763Z</time></trkpt><trkpt lat="43.5064133" lon="13.1703833"><ele>103.33333333333333</ele><time>2026-04-19T14:48:49.761Z</time></trkpt><trkpt lat="43.506395" lon="13.170165"><ele>102.66666666666666</ele><time>2026-04-19T14:48:50.762Z</time></trkpt><trkpt lat="43.5063767" lon="13.1699517"><ele>102.0</ele><time>2026-04-19T14:48:51.762Z</time></trkpt><trkpt lat="43.5063567" lon="13.1697467"><ele>102.0</ele><time>2026-04-19T14:48:52.761Z</time></trkpt><trkpt lat="43.5063383" lon="13.1695517"><ele>102.0</ele><time>2026-04-19T14:48:53.762Z</time></trkpt><trkpt lat="43.5063217" lon="13.1693567"><ele>102.0</ele><time>2026-04-19T14:48:54.761Z</time></trkpt><trkpt lat="43.5063" lon="13.1691617"><ele>102.0</ele><time>2026-04-19T14:48:55.762Z</time></trkpt><trkpt lat="43.5062783" lon="13.168955"><ele>102.0</ele><time>2026-04-19T14:48:56.761Z</time></trkpt><trkpt lat="43.5062583" lon="13.168735"><ele>102.0</ele><time>2026-04-19T14:48:57.761Z</time></trkpt><trkpt lat="43.5062333" lon="13.1685117"><ele>102.0</ele><time>2026-04-19T14:48:58.762Z</time></trkpt><trkpt lat="43.5062133" lon="13.1682967"><ele>102.0</ele><time>2026-04-19T14:48:59.762Z</time></trkpt><trkpt lat="43.506195" lon="13.16809"><ele>102.0</ele><time>2026-04-19T14:49:00.763Z</time></trkpt><trkpt lat="43.5061783" lon="13.16789"><ele>102.0</ele><time>2026-04-19T14:49:01.762Z</time></trkpt><trkpt lat="43.50616" lon="13.1676967"><ele>102.0</ele><time>2026-04-19T14:49:02.762Z</time></trkpt><trkpt lat="43.5061433" lon="13.1675033"><ele>102.0</ele><time>2026-04-19T14:49:03.761Z</time></trkpt><trkpt lat="43.5061233" lon="13.1673083"><ele>102.0</ele><time>2026-04-19T14:49:04.761Z</time></trkpt><trkpt lat="43.5061033" lon="13.16711"><ele>102.0</ele><time>2026-04-19T14:49:05.762Z</time></trkpt><trkpt lat="43.5060833" lon="13.1669067"><ele>102.0</ele><time>2026-04-19T14:49:06.761Z</time></trkpt><trkpt lat="43.5060667" lon="13.1667017"><ele>102.25</ele><time>2026-04-19T14:49:07.761Z</time></trkpt><trkpt lat="43.5060517" lon="13.1665"><ele>102.5</ele><time>2026-04-19T14:49:08.761Z</time></trkpt><trkpt lat="43.506035" lon="13.1662983"><ele>102.75</ele><time>2026-04-19T14:49:09.762Z</time></trkpt><trkpt lat="43.5060117" lon="13.1660933"><ele>103.0</ele><time>2026-04-19T14:49:10.761Z</time></trkpt><trkpt lat="43.5059917" lon="13.165885"><ele>103.5</ele><time>2026-04-19T14:49:11.762Z</time></trkpt><trkpt lat="43.5059717" lon="13.1656817"><ele>104.0</ele><time>2026-04-19T14:49:12.763Z</time></trkpt><trkpt lat="43.5059533" lon="13.1654933"><ele>104.5</ele><time>2026-04-19T14:49:13.762Z</time></trkpt><trkpt lat="43.5059367" lon="13.165325"><ele>105.0</ele><time>2026-04-19T14:49:14.761Z</time></trkpt><trkpt lat="43.505925" lon="13.1651583"><ele>105.0</ele><time>2026-04-19T14:49:15.766Z</time></trkpt><trkpt lat="43.5059133" lon="13.1650017"><ele>105.0</ele><time>2026-04-19T14:49:16.761Z</time></trkpt><trkpt lat="43.5059067" lon="13.1648383"><ele>105.0</ele><time>2026-04-19T14:49:17.761Z</time></trkpt><trkpt lat="43.5058933" lon="13.164675"><ele>105.0</ele><time>2026-04-19T14:49:18.76Z</time></trkpt><trkpt lat="43.5058783" lon="13.1645083"><ele>105.0</ele><time>2026-04-19T14:49:19.764Z</time></trkpt><trkpt lat="43.50586" lon="13.164335"><ele>105.0</ele><time>2026-04-19T14:49:20.761Z</time></trkpt><trkpt lat="43.505845" lon="13.1641517"><ele>105.0</ele><time>2026-04-19T14:49:21.765Z</time></trkpt><trkpt lat="43.50583" lon="13.163965"><ele>105.0</ele><time>2026-04-19T14:49:22.761Z</time></trkpt><trkpt lat="43.5058133" lon="13.1637717"><ele>105.0</ele><time>2026-04-19T14:49:23.762Z</time></trkpt><trkpt lat="43.505795" lon="13.1635717"><ele>105.0</ele><time>2026-04-19T14:49:24.762Z</time></trkpt><trkpt lat="43.5057767" lon="13.1633667"><ele>105.0</ele><time>2026-04-19T14:49:25.764Z</time></trkpt><trkpt lat="43.5057617" lon="13.1631583"><ele>105.0</ele><time>2026-04-19T14:49:26.761Z</time></trkpt><trkpt lat="43.505745" lon="13.1629467"><ele>105.0</ele><time>2026-04-19T14:49:27.763Z</time></trkpt><trkpt lat="43.5057283" lon="13.16274"><ele>105.0</ele><time>2026-04-19T14:49:28.762Z</time></trkpt><trkpt lat="43.50571" lon="13.162535"><ele>105.0</ele><time>2026-04-19T14:49:29.762Z</time></trkpt><trkpt lat="43.5056933" lon="13.1623367"><ele>105.0</ele><time>2026-04-19T14:49:30.763Z</time></trkpt><trkpt lat="43.5056783" lon="13.1621383"><ele>105.0</ele><time>2026-04-19T14:49:31.762Z</time></trkpt><trkpt lat="43.50566" lon="13.1619417"><ele>105.0</ele><time>2026-04-19T14:49:32.762Z</time></trkpt><trkpt lat="43.5056417" lon="13.1617483"><ele>105.0</ele><time>2026-04-19T14:49:33.763Z</time></trkpt><trkpt lat="43.5056233" lon="13.1615533"><ele>105.0</ele><time>2026-04-19T14:49:34.765Z</time></trkpt><trkpt lat="43.5056033" lon="13.1613617"><ele>104.75</ele><time>2026-04-19T14:49:35.763Z</time></trkpt><trkpt lat="43.505585" lon="13.1611733"><ele>104.5</ele><time>2026-04-19T14:49:36.762Z</time></trkpt><trkpt lat="43.5055667" lon="13.160985"><ele>104.25</ele><time>2026-04-19T14:49:37.762Z</time></trkpt><trkpt lat="43.5055483" lon="13.1607967"><ele>104.0</ele><time>2026-04-19T14:49:38.762Z</time></trkpt><trkpt lat="43.50553" lon="13.16061"><ele>103.5</ele><time>2026-04-19T14:49:39.763Z</time></trkpt><trkpt lat="43.5055117" lon="13.1604183"><ele>103.0</ele><time>2026-04-19T14:49:40.762Z</time></trkpt><trkpt lat="43.505495" lon="13.160225"><ele>102.5</ele><time>2026-04-19T14:49:41.763Z</time></trkpt><trkpt lat="43.5054767" lon="13.160025"><ele>102.0</ele><time>2026-04-19T14:49:42.765Z</time></trkpt><trkpt lat="43.5054617" lon="13.1598217"><ele>102.0</ele><time>2026-04-19T14:49:43.762Z</time></trkpt><trkpt lat="43.505445" lon="13.15961"><ele>102.0</ele><time>2026-04-19T14:49:44.763Z</time></trkpt><trkpt lat="43.505425" lon="13.159395"><ele>102.0</ele><time>2026-04-19T14:49:45.762Z</time></trkpt><trkpt lat="43.5054067" lon="13.1591767"><ele>103.33333333333334</ele><time>2026-04-19T14:49:46.761Z</time></trkpt><trkpt lat="43.505385" lon="13.15896"><ele>104.66666666666667</ele><time>2026-04-19T14:49:47.762Z</time></trkpt><trkpt lat="43.505365" lon="13.158745"><ele>106.0</ele><time>2026-04-19T14:49:48.764Z</time></trkpt><trkpt lat="43.505345" lon="13.15853"><ele>106.0</ele><time>2026-04-19T14:49:49.765Z</time></trkpt><trkpt lat="43.505325" lon="13.1583167"><ele>106.0</ele><time>2026-04-19T14:49:50.761Z</time></trkpt><trkpt lat="43.505305" lon="13.158105"><ele>106.0</ele><time>2026-04-19T14:49:51.765Z</time></trkpt><trkpt lat="43.5052833" lon="13.1578867"><ele>106.66666666666667</ele><time>2026-04-19T14:49:52.763Z</time></trkpt><trkpt lat="43.5052617" lon="13.1576617"><ele>107.33333333333334</ele><time>2026-04-19T14:49:53.761Z</time></trkpt><trkpt lat="43.5052367" lon="13.15743"><ele>108.0</ele><time>2026-04-19T14:49:54.761Z</time></trkpt><trkpt lat="43.5052083" lon="13.15719"><ele>108.66666666666666</ele><time>2026-04-19T14:49:55.76Z</time></trkpt><trkpt lat="43.5051767" lon="13.1569467"><ele>109.33333333333333</ele><time>2026-04-19T14:49:56.761Z</time></trkpt><trkpt lat="43.5051483" lon="13.1567083"><ele>110.0</ele><time>2026-04-19T14:49:57.763Z</time></trkpt><trkpt lat="43.50512" lon="13.1564817"><ele>110.5</ele><time>2026-04-19T14:49:58.762Z</time></trkpt><trkpt lat="43.5051" lon="13.1562717"><ele>111.0</ele><time>2026-04-19T14:49:59.761Z</time></trkpt><trkpt lat="43.50508" lon="13.156065"><ele>111.5</ele><time>2026-04-19T14:50:00.763Z</time></trkpt><trkpt lat="43.5050617" lon="13.15587"><ele>112.0</ele><time>2026-04-19T14:50:01.76Z</time></trkpt><trkpt lat="43.505045" lon="13.1556817"><ele>112.0</ele><time>2026-04-19T14:50:02.762Z</time></trkpt><trkpt lat="43.5050283" lon="13.1554983"><ele>112.0</ele><time>2026-04-19T14:50:03.762Z</time></trkpt><trkpt lat="43.5050133" lon="13.155325"><ele>112.0</ele><time>2026-04-19T14:50:04.763Z</time></trkpt><trkpt lat="43.5049983" lon="13.15516"><ele>112.0</ele><time>2026-04-19T14:50:05.761Z</time></trkpt><trkpt lat="43.5049817" lon="13.1550133"><ele>112.00000000000001</ele><time>2026-04-19T14:50:06.762Z</time></trkpt><trkpt lat="43.5049667" lon="13.1548867"><ele>112.0</ele><time>2026-04-19T14:50:07.762Z</time></trkpt><trkpt lat="43.504955" lon="13.1547767"><ele>112.0</ele><time>2026-04-19T14:50:08.761Z</time></trkpt><trkpt lat="43.504945" lon="13.1546817"><ele>112.0</ele><time>2026-04-19T14:50:09.761Z</time></trkpt><trkpt lat="43.504945" lon="13.1545267"><ele>112.00000000000001</ele><time>2026-04-19T14:50:11.762Z</time></trkpt><trkpt lat="43.5049683" lon="13.15443"><ele>112.0</ele><time>2026-04-19T14:50:13.761Z</time></trkpt><trkpt lat="43.5050017" lon="13.1543383"><ele>112.0</ele><time>2026-04-19T14:50:16.761Z</time></trkpt><trkpt lat="43.5050567" lon="13.15424"><ele>111.99999999999999</ele><time>2026-04-19T14:50:18.762Z</time></trkpt><trkpt lat="43.5051233" lon="13.1541083"><ele>111.99999999999999</ele><time>2026-04-19T14:50:20.763Z</time></trkpt><trkpt lat="43.5051433" lon="13.154025"><ele>112.0</ele><time>2026-04-19T14:50:21.762Z</time></trkpt><trkpt lat="43.5051483" lon="13.1538717"><ele>112.0</ele><time>2026-04-19T14:50:23.761Z</time></trkpt><trkpt lat="43.5051017" lon="13.153745"><ele>112.00000000000001</ele><time>2026-04-19T14:50:25.761Z</time></trkpt><trkpt lat="43.5050533" lon="13.1536833"><ele>112.0</ele><time>2026-04-19T14:50:26.761Z</time></trkpt><trkpt lat="43.5049867" lon="13.1536317"><ele>112.0</ele><time>2026-04-19T14:50:27.761Z</time></trkpt><trkpt lat="43.5049183" lon="13.1535767"><ele>112.0</ele><time>2026-04-19T14:50:28.762Z</time></trkpt><trkpt lat="43.5048483" lon="13.15351"><ele>112.00000000000001</ele><time>2026-04-19T14:50:29.762Z</time></trkpt><trkpt lat="43.504785" lon="13.1534183"><ele>112.0</ele><time>2026-04-19T14:50:30.761Z</time></trkpt><trkpt lat="43.50474" lon="13.1532967"><ele>112.25</ele><time>2026-04-19T14:50:31.761Z</time></trkpt><trkpt lat="43.5047083" lon="13.1531583"><ele>112.5</ele><time>2026-04-19T14:50:32.763Z</time></trkpt><trkpt lat="43.5046833" lon="13.15299"><ele>112.75</ele><time>2026-04-19T14:50:33.761Z</time></trkpt><trkpt lat="43.5046567" lon="13.1528033"><ele>113.0</ele><time>2026-04-19T14:50:34.762Z</time></trkpt><trkpt lat="43.5046283" lon="13.1526"><ele>113.0</ele><time>2026-04-19T14:50:35.763Z</time></trkpt><trkpt lat="43.5045983" lon="13.1523767"><ele>113.0</ele><time>2026-04-19T14:50:36.765Z</time></trkpt><trkpt lat="43.5045683" lon="13.1521417"><ele>113.0</ele><time>2026-04-19T14:50:37.766Z</time></trkpt><trkpt lat="43.5045333" lon="13.151895"><ele>112.33333333333333</ele><time>2026-04-19T14:50:38.762Z</time></trkpt><trkpt lat="43.504495" lon="13.151645"><ele>111.66666666666666</ele><time>2026-04-19T14:50:39.764Z</time></trkpt><trkpt lat="43.50446" lon="13.1513933"><ele>111.0</ele><time>2026-04-19T14:50:40.763Z</time></trkpt><trkpt lat="43.5044283" lon="13.151145"><ele>111.0</ele><time>2026-04-19T14:50:41.764Z</time></trkpt><trkpt lat="43.5043967" lon="13.1508983"><ele>111.0</ele><time>2026-04-19T14:50:42.761Z</time></trkpt><trkpt lat="43.5043617" lon="13.150655"><ele>111.0</ele><time>2026-04-19T14:50:43.766Z</time></trkpt><trkpt lat="43.504335" lon="13.1504167"><ele>111.0</ele><time>2026-04-19T14:50:44.76Z</time></trkpt><trkpt lat="43.504305" lon="13.1501867"><ele>111.0</ele><time>2026-04-19T14:50:45.759Z</time></trkpt><trkpt lat="43.504275" lon="13.1499667"><ele>111.0</ele><time>2026-04-19T14:50:46.762Z</time></trkpt><trkpt lat="43.5042467" lon="13.1497533"><ele>110.33333333333334</ele><time>2026-04-19T14:50:47.763Z</time></trkpt><trkpt lat="43.5042183" lon="13.1495433"><ele>109.66666666666667</ele><time>2026-04-19T14:50:48.762Z</time></trkpt><trkpt lat="43.5041917" lon="13.1493367"><ele>109.0</ele><time>2026-04-19T14:50:49.762Z</time></trkpt><trkpt lat="43.5041633" lon="13.149135"><ele>109.0</ele><time>2026-04-19T14:50:50.761Z</time></trkpt><trkpt lat="43.5041367" lon="13.1489417"><ele>109.0</ele><time>2026-04-19T14:50:51.762Z</time></trkpt><trkpt lat="43.5041117" lon="13.1487483"><ele>109.0</ele><time>2026-04-19T14:50:52.762Z</time></trkpt><trkpt lat="43.5040817" lon="13.1485517"><ele>109.0</ele><time>2026-04-19T14:50:53.762Z</time></trkpt><trkpt lat="43.5040533" lon="13.1483533"><ele>109.0</ele><time>2026-04-19T14:50:54.761Z</time></trkpt><trkpt lat="43.5040267" lon="13.14816"><ele>109.0</ele><time>2026-04-19T14:50:55.762Z</time></trkpt><trkpt lat="43.5040033" lon="13.1479683"><ele>109.0</ele><time>2026-04-19T14:50:56.761Z</time></trkpt><trkpt lat="43.50398" lon="13.147785"><ele>109.0</ele><time>2026-04-19T14:50:57.761Z</time></trkpt><trkpt lat="43.5039533" lon="13.1476033"><ele>109.0</ele><time>2026-04-19T14:50:58.762Z</time></trkpt><trkpt lat="43.50393" lon="13.1474283"><ele>109.0</ele><time>2026-04-19T14:50:59.763Z</time></trkpt><trkpt lat="43.5039083" lon="13.147255"><ele>109.0</ele><time>2026-04-19T14:51:00.762Z</time></trkpt><trkpt lat="43.5038883" lon="13.1470883"><ele>109.0</ele><time>2026-04-19T14:51:01.762Z</time></trkpt><trkpt lat="43.5038633" lon="13.1469233"><ele>109.0</ele><time>2026-04-19T14:51:02.761Z</time></trkpt><trkpt lat="43.5038417" lon="13.1467533"><ele>109.0</ele><time>2026-04-19T14:51:03.762Z</time></trkpt><trkpt lat="43.5038167" lon="13.146575"><ele>109.0</ele><time>2026-04-19T14:51:04.759Z</time></trkpt><trkpt lat="43.5037917" lon="13.1463933"><ele>109.0</ele><time>2026-04-19T14:51:05.762Z</time></trkpt><trkpt lat="43.503765" lon="13.1462083"><ele>109.0</ele><time>2026-04-19T14:51:06.762Z</time></trkpt><trkpt lat="43.5037417" lon="13.1460183"><ele>109.0</ele><time>2026-04-19T14:51:07.763Z</time></trkpt><trkpt lat="43.5037167" lon="13.14583"><ele>109.0</ele><time>2026-04-19T14:51:08.764Z</time></trkpt><trkpt lat="43.503695" lon="13.1456467"><ele>109.0</ele><time>2026-04-19T14:51:09.76Z</time></trkpt><trkpt lat="43.50367" lon="13.1454733"><ele>109.0</ele><time>2026-04-19T14:51:10.76Z</time></trkpt><trkpt lat="43.50365" lon="13.1452983"><ele>109.0</ele><time>2026-04-19T14:51:11.76Z</time></trkpt><trkpt lat="43.5036267" lon="13.1451267"><ele>109.0</ele><time>2026-04-19T14:51:12.762Z</time></trkpt><trkpt lat="43.5036067" lon="13.144955"><ele>109.0</ele><time>2026-04-19T14:51:13.763Z</time></trkpt><trkpt lat="43.5035833" lon="13.14478"><ele>109.25</ele><time>2026-04-19T14:51:14.761Z</time></trkpt><trkpt lat="43.5035617" lon="13.1446067"><ele>109.5</ele><time>2026-04-19T14:51:15.761Z</time></trkpt><trkpt lat="43.5035367" lon="13.14444"><ele>109.75</ele><time>2026-04-19T14:51:16.762Z</time></trkpt><trkpt lat="43.503515" lon="13.144275"><ele>110.0</ele><time>2026-04-19T14:51:17.761Z</time></trkpt><trkpt lat="43.5034933" lon="13.144105"><ele>110.25</ele><time>2026-04-19T14:51:18.762Z</time></trkpt><trkpt lat="43.5034717" lon="13.1439333"><ele>110.5</ele><time>2026-04-19T14:51:19.762Z</time></trkpt><trkpt lat="43.5034483" lon="13.1437683"><ele>110.75</ele><time>2026-04-19T14:51:20.762Z</time></trkpt><trkpt lat="43.503425" lon="13.1436067"><ele>111.0</ele><time>2026-04-19T14:51:21.761Z</time></trkpt><trkpt lat="43.5034067" lon="13.1434433"><ele>111.0</ele><time>2026-04-19T14:51:22.761Z</time></trkpt><trkpt lat="43.50339" lon="13.1432767"><ele>111.0</ele><time>2026-04-19T14:51:23.761Z</time></trkpt><trkpt lat="43.50337" lon="13.1431017"><ele>111.0</ele><time>2026-04-19T14:51:24.763Z</time></trkpt><trkpt lat="43.503345" lon="13.1429317"><ele>111.0</ele><time>2026-04-19T14:51:25.761Z</time></trkpt><trkpt lat="43.5033267" lon="13.1427633"><ele>111.0</ele><time>2026-04-19T14:51:26.761Z</time></trkpt><trkpt lat="43.5033033" lon="13.1426"><ele>111.0</ele><time>2026-04-19T14:51:27.761Z</time></trkpt><trkpt lat="43.5032817" lon="13.14244"><ele>111.0</ele><time>2026-04-19T14:51:28.761Z</time></trkpt><trkpt lat="43.50326" lon="13.1422817"><ele>111.0</ele><time>2026-04-19T14:51:29.762Z</time></trkpt><trkpt lat="43.5032417" lon="13.1421283"><ele>111.0</ele><time>2026-04-19T14:51:30.76Z</time></trkpt><trkpt lat="43.503225" lon="13.1419733"><ele>111.0</ele><time>2026-04-19T14:51:31.761Z</time></trkpt><trkpt lat="43.5032083" lon="13.1418167"><ele>111.0</ele><time>2026-04-19T14:51:32.761Z</time></trkpt><trkpt lat="43.5031867" lon="13.1416667"><ele>111.0</ele><time>2026-04-19T14:51:33.759Z</time></trkpt><trkpt lat="43.5031667" lon="13.1415283"><ele>111.0</ele><time>2026-04-19T14:51:34.759Z</time></trkpt><trkpt lat="43.5031483" lon="13.1414033"><ele>111.0</ele><time>2026-04-19T14:51:35.76Z</time></trkpt><trkpt lat="43.5031333" lon="13.1412933"><ele>111.0</ele><time>2026-04-19T14:51:36.76Z</time></trkpt><trkpt lat="43.5031267" lon="13.141195"><ele>111.0</ele><time>2026-04-19T14:51:37.762Z</time></trkpt><trkpt lat="43.5031317" lon="13.1411067"><ele>111.0</ele><time>2026-04-19T14:51:38.761Z</time></trkpt><trkpt lat="43.50318" lon="13.14098"><ele>111.0</ele><time>2026-04-19T14:51:40.76Z</time></trkpt><trkpt lat="43.5032233" lon="13.1408733"><ele>111.0</ele><time>2026-04-19T14:51:42.761Z</time></trkpt><trkpt lat="43.5031833" lon="13.1407567"><ele>111.19999999999999</ele><time>2026-04-19T14:51:44.759Z</time></trkpt><trkpt lat="43.50309" lon="13.1406567"><ele>111.39999999999999</ele><time>2026-04-19T14:51:46.76Z</time></trkpt><trkpt lat="43.503045" lon="13.1405783"><ele>111.6</ele><time>2026-04-19T14:51:47.759Z</time></trkpt><trkpt lat="43.5030167" lon="13.1404617"><ele>111.8</ele><time>2026-04-19T14:51:48.76Z</time></trkpt><trkpt lat="43.5029933" lon="13.14031"><ele>112.0</ele><time>2026-04-19T14:51:49.761Z</time></trkpt><trkpt lat="43.5029717" lon="13.1401483"><ele>112.0</ele><time>2026-04-19T14:51:50.76Z</time></trkpt><trkpt lat="43.5029483" lon="13.13999"><ele>112.0</ele><time>2026-04-19T14:51:51.76Z</time></trkpt><trkpt lat="43.502925" lon="13.1398267"><ele>112.0</ele><time>2026-04-19T14:51:52.76Z</time></trkpt><trkpt lat="43.5029033" lon="13.139665"><ele>112.0</ele><time>2026-04-19T14:51:53.76Z</time></trkpt><trkpt lat="43.50288" lon="13.1395017"><ele>111.75</ele><time>2026-04-19T14:51:54.761Z</time></trkpt><trkpt lat="43.5028583" lon="13.1393417"><ele>111.5</ele><time>2026-04-19T14:51:55.761Z</time></trkpt><trkpt lat="43.5028367" lon="13.13918"><ele>111.25</ele><time>2026-04-19T14:51:56.761Z</time></trkpt><trkpt lat="43.5028183" lon="13.139015"><ele>111.0</ele><time>2026-04-19T14:51:57.762Z</time></trkpt><trkpt lat="43.502795" lon="13.1388517"><ele>111.5</ele><time>2026-04-19T14:51:58.763Z</time></trkpt><trkpt lat="43.5027733" lon="13.1386883"><ele>112.0</ele><time>2026-04-19T14:51:59.76Z</time></trkpt><trkpt lat="43.5027517" lon="13.1385283"><ele>112.5</ele><time>2026-04-19T14:52:00.76Z</time></trkpt><trkpt lat="43.5027317" lon="13.1383717"><ele>113.0</ele><time>2026-04-19T14:52:01.759Z</time></trkpt><trkpt lat="43.5027083" lon="13.1382267"><ele>112.80000000000001</ele><time>2026-04-19T14:52:02.76Z</time></trkpt><trkpt lat="43.50269" lon="13.13809"><ele>112.60000000000001</ele><time>2026-04-19T14:52:03.761Z</time></trkpt><trkpt lat="43.50267" lon="13.137965"><ele>112.39999999999999</ele><time>2026-04-19T14:52:04.762Z</time></trkpt><trkpt lat="43.502655" lon="13.1378633"><ele>112.19999999999999</ele><time>2026-04-19T14:52:05.762Z</time></trkpt><trkpt lat="43.5026517" lon="13.1377133"><ele>112.0</ele><time>2026-04-19T14:52:07.761Z</time></trkpt><trkpt lat="43.5027183" lon="13.137605"><ele>112.00000000000001</ele><time>2026-04-19T14:52:09.76Z</time></trkpt><trkpt lat="43.5027717" lon="13.1375567"><ele>112.0</ele><time>2026-04-19T14:52:10.761Z</time></trkpt><trkpt lat="43.5028517" lon="13.1375383"><ele>112.0</ele><time>2026-04-19T14:52:11.761Z</time></trkpt><trkpt lat="43.5029333" lon="13.137515"><ele>112.0</ele><time>2026-04-19T14:52:12.763Z</time></trkpt><trkpt lat="43.503015" lon="13.137485"><ele>112.00000000000001</ele><time>2026-04-19T14:52:13.76Z</time></trkpt><trkpt lat="43.5030933" lon="13.1374533"><ele>112.0</ele><time>2026-04-19T14:52:14.76Z</time></trkpt><trkpt lat="43.50317" lon="13.137425"><ele>112.0</ele><time>2026-04-19T14:52:15.761Z</time></trkpt><trkpt lat="43.503245" lon="13.137405"><ele>112.0</ele><time>2026-04-19T14:52:16.762Z</time></trkpt><trkpt lat="43.503315" lon="13.1373783"><ele>112.0</ele><time>2026-04-19T14:52:17.761Z</time></trkpt><trkpt lat="43.5033867" lon="13.137355"><ele>112.0</ele><time>2026-04-19T14:52:18.762Z</time></trkpt><trkpt lat="43.50346" lon="13.1373367"><ele>112.0</ele><time>2026-04-19T14:52:19.763Z</time></trkpt><trkpt lat="43.50353" lon="13.1373167"><ele>112.0</ele><time>2026-04-19T14:52:20.761Z</time></trkpt><trkpt lat="43.5035933" lon="13.1373"><ele>112.0</ele><time>2026-04-19T14:52:21.761Z</time></trkpt><trkpt lat="43.5036933" lon="13.1372683"><ele>112.39999999999999</ele><time>2026-04-19T14:52:23.763Z</time></trkpt><trkpt lat="43.50379" lon="13.1372333"><ele>112.79999999999998</ele><time>2026-04-19T14:52:25.762Z</time></trkpt><trkpt lat="43.50391" lon="13.1371767"><ele>113.2</ele><time>2026-04-19T14:52:27.762Z</time></trkpt><trkpt lat="43.50398" lon="13.137145"><ele>113.6</ele><time>2026-04-19T14:52:28.761Z</time></trkpt><trkpt lat="43.5040567" lon="13.1371183"><ele>114.0</ele><time>2026-04-19T14:52:29.76Z</time></trkpt><trkpt lat="43.504145" lon="13.1370867"><ele>114.0</ele><time>2026-04-19T14:52:30.759Z</time></trkpt><trkpt lat="43.5042333" lon="13.1370683"><ele>114.0</ele><time>2026-04-19T14:52:31.761Z</time></trkpt><trkpt lat="43.50431" lon="13.1370517"><ele>114.0</ele><time>2026-04-19T14:52:32.76Z</time></trkpt><trkpt lat="43.50438" lon="13.1370333"><ele>114.0</ele><time>2026-04-19T14:52:33.76Z</time></trkpt><trkpt lat="43.504485" lon="13.137"><ele>114.0</ele><time>2026-04-19T14:52:35.765Z</time></trkpt><trkpt lat="43.50458" lon="13.1369783"><ele>114.0</ele><time>2026-04-19T14:52:37.762Z</time></trkpt><trkpt lat="43.5046717" lon="13.1369183"><ele>114.75</ele><time>2026-04-19T14:52:39.761Z</time></trkpt><trkpt lat="43.5047217" lon="13.1368033"><ele>115.5</ele><time>2026-04-19T14:52:41.76Z</time></trkpt><trkpt lat="43.50469" lon="13.1366783"><ele>116.25</ele><time>2026-04-19T14:52:42.76Z</time></trkpt><trkpt lat="43.50466" lon="13.136495"><ele>117.0</ele><time>2026-04-19T14:52:43.759Z</time></trkpt><trkpt lat="43.504635" lon="13.136285"><ele>117.0</ele><time>2026-04-19T14:52:44.76Z</time></trkpt><trkpt lat="43.5046233" lon="13.1360817"><ele>117.0</ele><time>2026-04-19T14:52:45.76Z</time></trkpt><trkpt lat="43.5046233" lon="13.13589"><ele>117.0</ele><time>2026-04-19T14:52:46.76Z</time></trkpt><trkpt lat="43.5046483" lon="13.135705"><ele>117.0</ele><time>2026-04-19T14:52:47.76Z</time></trkpt><trkpt lat="43.504695" lon="13.1355267"><ele>116.5</ele><time>2026-04-19T14:52:48.761Z</time></trkpt><trkpt lat="43.504745" lon="13.1353717"><ele>116.0</ele><time>2026-04-19T14:52:49.762Z</time></trkpt><trkpt lat="43.50479" lon="13.1352217"><ele>115.5</ele><time>2026-04-19T14:52:50.76Z</time></trkpt><trkpt lat="43.5048383" lon="13.1350617"><ele>115.0</ele><time>2026-04-19T14:52:51.762Z</time></trkpt><trkpt lat="43.504895" lon="13.1348917"><ele>115.33333333333334</ele><time>2026-04-19T14:52:52.76Z</time></trkpt><trkpt lat="43.5049533" lon="13.134715"><ele>115.66666666666666</ele><time>2026-04-19T14:52:53.761Z</time></trkpt><trkpt lat="43.5050133" lon="13.134525"><ele>116.0</ele><time>2026-04-19T14:52:54.76Z</time></trkpt><trkpt lat="43.50508" lon="13.1343167"><ele>116.0</ele><time>2026-04-19T14:52:55.76Z</time></trkpt><trkpt lat="43.5051617" lon="13.134095"><ele>116.0</ele><time>2026-04-19T14:52:56.76Z</time></trkpt><trkpt lat="43.50525" lon="13.1338683"><ele>116.0</ele><time>2026-04-19T14:52:57.761Z</time></trkpt><trkpt lat="43.5053333" lon="13.1336483"><ele>115.66666666666666</ele><time>2026-04-19T14:52:58.761Z</time></trkpt><trkpt lat="43.50541" lon="13.1334333"><ele>115.33333333333334</ele><time>2026-04-19T14:52:59.765Z</time></trkpt><trkpt lat="43.505475" lon="13.13322"><ele>115.0</ele><time>2026-04-19T14:53:00.761Z</time></trkpt><trkpt lat="43.5055217" lon="13.13298"><ele>115.66666666666667</ele><time>2026-04-19T14:53:01.761Z</time></trkpt><trkpt lat="43.5055567" lon="13.1327133"><ele>116.33333333333334</ele><time>2026-04-19T14:53:02.763Z</time></trkpt><trkpt lat="43.5055833" lon="13.1324467"><ele>117.0</ele><time>2026-04-19T14:53:03.762Z</time></trkpt><trkpt lat="43.5056033" lon="13.1321983"><ele>117.33333333333334</ele><time>2026-04-19T14:53:04.76Z</time></trkpt><trkpt lat="43.5056233" lon="13.1319617"><ele>117.66666666666667</ele><time>2026-04-19T14:53:05.761Z</time></trkpt><trkpt lat="43.5056417" lon="13.1317283"><ele>118.0</ele><time>2026-04-19T14:53:06.763Z</time></trkpt><trkpt lat="43.5056583" lon="13.1315033"><ele>118.66666666666667</ele><time>2026-04-19T14:53:07.764Z</time></trkpt><trkpt lat="43.5056767" lon="13.131285"><ele>119.33333333333334</ele><time>2026-04-19T14:53:08.764Z</time></trkpt><trkpt lat="43.505695" lon="13.1310783"><ele>120.0</ele><time>2026-04-19T14:53:09.762Z</time></trkpt><trkpt lat="43.5057083" lon="13.1308767"><ele>120.25</ele><time>2026-04-19T14:53:10.761Z</time></trkpt><trkpt lat="43.505725" lon="13.1306867"><ele>120.5</ele><time>2026-04-19T14:53:11.76Z</time></trkpt><trkpt lat="43.50574" lon="13.130495"><ele>120.75</ele><time>2026-04-19T14:53:12.761Z</time></trkpt><trkpt lat="43.5057633" lon="13.13031"><ele>121.0</ele><time>2026-04-19T14:53:13.767Z</time></trkpt><trkpt lat="43.5057917" lon="13.1301233"><ele>121.0</ele><time>2026-04-19T14:53:14.763Z</time></trkpt><trkpt lat="43.5058167" lon="13.129945"><ele>121.0</ele><time>2026-04-19T14:53:15.76Z</time></trkpt><trkpt lat="43.505835" lon="13.12977"><ele>121.0</ele><time>2026-04-19T14:53:16.76Z</time></trkpt><trkpt lat="43.5058517" lon="13.1295933"><ele>121.0</ele><time>2026-04-19T14:53:17.761Z</time></trkpt><trkpt lat="43.5058683" lon="13.1294133"><ele>121.0</ele><time>2026-04-19T14:53:18.761Z</time></trkpt><trkpt lat="43.5058833" lon="13.1292333"><ele>121.0</ele><time>2026-04-19T14:53:19.763Z</time></trkpt><trkpt lat="43.5058967" lon="13.1290467"><ele>121.0</ele><time>2026-04-19T14:53:20.761Z</time></trkpt><trkpt lat="43.5059" lon="13.1288617"><ele>121.0</ele><time>2026-04-19T14:53:21.761Z</time></trkpt><trkpt lat="43.50589" lon="13.1286833"><ele>121.0</ele><time>2026-04-19T14:53:22.762Z</time></trkpt><trkpt lat="43.5058767" lon="13.1285117"><ele>121.0</ele><time>2026-04-19T14:53:23.764Z</time></trkpt><trkpt lat="43.5058633" lon="13.1283633"><ele>121.0</ele><time>2026-04-19T14:53:24.765Z</time></trkpt><trkpt lat="43.5058583" lon="13.128245"><ele>121.0</ele><time>2026-04-19T14:53:25.76Z</time></trkpt><trkpt lat="43.5058533" lon="13.12815"><ele>121.0</ele><time>2026-04-19T14:53:26.76Z</time></trkpt><trkpt lat="43.5058483" lon="13.1279717"><ele>121.19999999999999</ele><time>2026-04-19T14:53:28.764Z</time></trkpt><trkpt lat="43.50586" lon="13.1278467"><ele>121.39999999999999</ele><time>2026-04-19T14:53:29.76Z</time></trkpt><trkpt lat="43.505885" lon="13.1277"><ele>121.6</ele><time>2026-04-19T14:53:30.76Z</time></trkpt><trkpt lat="43.505915" lon="13.1275467"><ele>121.8</ele><time>2026-04-19T14:53:31.76Z</time></trkpt><trkpt lat="43.5059533" lon="13.1274033"><ele>122.0</ele><time>2026-04-19T14:53:32.76Z</time></trkpt><trkpt lat="43.5059933" lon="13.1272717"><ele>121.99999999999999</ele><time>2026-04-19T14:53:33.761Z</time></trkpt><trkpt lat="43.5060267" lon="13.1271517"><ele>122.0</ele><time>2026-04-19T14:53:34.76Z</time></trkpt><trkpt lat="43.506055" lon="13.1270583"><ele>122.0</ele><time>2026-04-19T14:53:35.761Z</time></trkpt><trkpt lat="43.5060967" lon="13.126925"><ele>122.0</ele><time>2026-04-19T14:53:37.76Z</time></trkpt><trkpt lat="43.5061" lon="13.12681"><ele>121.99999999999999</ele><time>2026-04-19T14:53:39.764Z</time></trkpt><trkpt lat="43.5060333" lon="13.126725"><ele>122.0</ele><time>2026-04-19T14:53:41.762Z</time></trkpt><trkpt lat="43.505905" lon="13.126715"><ele>121.99999999999999</ele><time>2026-04-19T14:53:43.761Z</time></trkpt><trkpt lat="43.5058333" lon="13.1267233"><ele>122.0</ele><time>2026-04-19T14:53:44.764Z</time></trkpt><trkpt lat="43.50576" lon="13.126735"><ele>122.0</ele><time>2026-04-19T14:53:45.76Z</time></trkpt><trkpt lat="43.505675" lon="13.1267483"><ele>122.0</ele><time>2026-04-19T14:53:46.76Z</time></trkpt><trkpt lat="43.5055833" lon="13.1267683"><ele>121.99999999999999</ele><time>2026-04-19T14:53:47.762Z</time></trkpt><trkpt lat="43.5055067" lon="13.126785"><ele>122.0</ele><time>2026-04-19T14:53:48.761Z</time></trkpt><trkpt lat="43.50544" lon="13.1267967"><ele>121.83333333333333</ele><time>2026-04-19T14:53:49.762Z</time></trkpt><trkpt lat="43.5053467" lon="13.126775"><ele>121.66666666666666</ele><time>2026-04-19T14:53:51.762Z</time></trkpt><trkpt lat="43.5053" lon="13.126665"><ele>121.5</ele><time>2026-04-19T14:53:53.761Z</time></trkpt><trkpt lat="43.50529" lon="13.1265583"><ele>121.33333333333334</ele><time>2026-04-19T14:53:55.762Z</time></trkpt><trkpt lat="43.5052367" lon="13.1266583"><ele>121.16666666666667</ele><time>2026-04-19T14:54:00.763Z</time></trkpt><trkpt lat="43.505235" lon="13.1267833"><ele>121.0</ele><time>2026-04-19T14:54:02.762Z</time></trkpt><trkpt lat="43.5051717" lon="13.1268417"><ele>121.00000000000001</ele><time>2026-04-19T14:54:04.76Z</time></trkpt><trkpt lat="43.5051083" lon="13.1268617"><ele>121.0</ele><time>2026-04-19T14:54:05.76Z</time></trkpt><trkpt lat="43.5050267" lon="13.1268767"><ele>121.0</ele><time>2026-04-19T14:54:06.762Z</time></trkpt><trkpt lat="43.50495" lon="13.1268933"><ele>121.0</ele><time>2026-04-19T14:54:07.76Z</time></trkpt><trkpt lat="43.5048867" lon="13.12691"><ele>121.00000000000001</ele><time>2026-04-19T14:54:08.763Z</time></trkpt><trkpt lat="43.5047833" lon="13.12693"><ele>121.0</ele><time>2026-04-19T14:54:10.762Z</time></trkpt><trkpt lat="43.5047117" lon="13.1269333"><ele>121.0</ele><time>2026-04-19T14:54:13.764Z</time></trkpt><trkpt lat="43.5046617" lon="13.1268383"><ele>121.0</ele><time>2026-04-19T14:54:16.762Z</time></trkpt><trkpt lat="43.504635" lon="13.1266333"><ele>121.0</ele><time>2026-04-19T14:54:18.762Z</time></trkpt><trkpt lat="43.5046283" lon="13.12647"><ele>121.0</ele><time>2026-04-19T14:54:19.76Z</time></trkpt><trkpt lat="43.50462" lon="13.1263317"><ele>121.0</ele><time>2026-04-19T14:54:20.763Z</time></trkpt><trkpt lat="43.5046067" lon="13.1262033"><ele>121.0</ele><time>2026-04-19T14:54:21.761Z</time></trkpt><trkpt lat="43.50459" lon="13.1260617"><ele>121.0</ele><time>2026-04-19T14:54:22.762Z</time></trkpt><trkpt lat="43.5045783" lon="13.1259133"><ele>121.0</ele><time>2026-04-19T14:54:23.761Z</time></trkpt><trkpt lat="43.504565" lon="13.1257633"><ele>121.0</ele><time>2026-04-19T14:54:24.762Z</time></trkpt><trkpt lat="43.5045533" lon="13.1256233"><ele>120.83333333333334</ele><time>2026-04-19T14:54:25.76Z</time></trkpt><trkpt lat="43.5045433" lon="13.1254983"><ele>120.66666666666667</ele><time>2026-04-19T14:54:26.761Z</time></trkpt><trkpt lat="43.5045333" lon="13.1253867"><ele>120.5</ele><time>2026-04-19T14:54:27.763Z</time></trkpt><trkpt lat="43.5045283" lon="13.1252817"><ele>120.33333333333334</ele><time>2026-04-19T14:54:28.76Z</time></trkpt><trkpt lat="43.504535" lon="13.1251717"><ele>120.16666666666667</ele><time>2026-04-19T14:54:30.76Z</time></trkpt><trkpt lat="43.5046267" lon="13.12508"><ele>120.0</ele><time>2026-04-19T14:54:33.761Z</time></trkpt><trkpt lat="43.504705" lon="13.1250483"><ele>120.0</ele><time>2026-04-19T14:54:34.76Z</time></trkpt><trkpt lat="43.5048083" lon="13.1250333"><ele>120.0</ele><time>2026-04-19T14:54:35.76Z</time></trkpt><trkpt lat="43.504945" lon="13.1250117"><ele>120.0</ele><time>2026-04-19T14:54:36.763Z</time></trkpt><trkpt lat="43.5050867" lon="13.124985"><ele>120.0</ele><time>2026-04-19T14:54:37.76Z</time></trkpt><trkpt lat="43.50524" lon="13.124965"><ele>120.0</ele><time>2026-04-19T14:54:38.761Z</time></trkpt><trkpt lat="43.5054017" lon="13.1249467"><ele>120.0</ele><time>2026-04-19T14:54:39.762Z</time></trkpt><trkpt lat="43.50556" lon="13.1249167"><ele>120.0</ele><time>2026-04-19T14:54:40.761Z</time></trkpt><trkpt lat="43.50571" lon="13.1248767"><ele>120.75</ele><time>2026-04-19T14:54:41.76Z</time></trkpt><trkpt lat="43.5058483" lon="13.1248517"><ele>121.5</ele><time>2026-04-19T14:54:42.76Z</time></trkpt><trkpt lat="43.50598" lon="13.12483"><ele>122.25</ele><time>2026-04-19T14:54:43.762Z</time></trkpt><trkpt lat="43.5061017" lon="13.1248033"><ele>123.0</ele><time>2026-04-19T14:54:44.76Z</time></trkpt><trkpt lat="43.5062133" lon="13.124775"><ele>123.2</ele><time>2026-04-19T14:54:45.761Z</time></trkpt><trkpt lat="43.506315" lon="13.12476"><ele>123.4</ele><time>2026-04-19T14:54:46.761Z</time></trkpt><trkpt lat="43.5064" lon="13.124755"><ele>123.60000000000001</ele><time>2026-04-19T14:54:47.763Z</time></trkpt><trkpt lat="43.506495" lon="13.124745"><ele>123.80000000000001</ele><time>2026-04-19T14:54:49.762Z</time></trkpt><trkpt lat="43.50657" lon="13.1247033"><ele>124.0</ele><time>2026-04-19T14:54:56.764Z</time></trkpt><trkpt lat="43.5066333" lon="13.1245317"><ele>124.0</ele><time>2026-04-19T14:54:58.76Z</time></trkpt><trkpt lat="43.50666" lon="13.1244017"><ele>124.0</ele><time>2026-04-19T14:54:59.761Z</time></trkpt><trkpt lat="43.506685" lon="13.1242417"><ele>124.0</ele><time>2026-04-19T14:55:00.763Z</time></trkpt><trkpt lat="43.5067133" lon="13.12408"><ele>124.0</ele><time>2026-04-19T14:55:01.765Z</time></trkpt><trkpt lat="43.5067433" lon="13.1239217"><ele>124.2</ele><time>2026-04-19T14:55:02.762Z</time></trkpt><trkpt lat="43.506765" lon="13.1237683"><ele>124.4</ele><time>2026-04-19T14:55:03.761Z</time></trkpt><trkpt lat="43.5067883" lon="13.1236233"><ele>124.6</ele><time>2026-04-19T14:55:04.761Z</time></trkpt><trkpt lat="43.50681" lon="13.123475"><ele>124.8</ele><time>2026-04-19T14:55:05.764Z</time></trkpt><trkpt lat="43.5068283" lon="13.1233217"><ele>125.0</ele><time>2026-04-19T14:55:06.764Z</time></trkpt><trkpt lat="43.506845" lon="13.1231733"><ele>125.0</ele><time>2026-04-19T14:55:07.763Z</time></trkpt><trkpt lat="43.5068533" lon="13.12303"><ele>125.0</ele><time>2026-04-19T14:55:08.761Z</time></trkpt><trkpt lat="43.506855" lon="13.1228883"><ele>125.0</ele><time>2026-04-19T14:55:09.762Z</time></trkpt><trkpt lat="43.5068517" lon="13.122745"><ele>125.0</ele><time>2026-04-19T14:55:10.762Z</time></trkpt><trkpt lat="43.50685" lon="13.1225933"><ele>125.0</ele><time>2026-04-19T14:55:11.762Z</time></trkpt><trkpt lat="43.5068517" lon="13.1224483"><ele>125.0</ele><time>2026-04-19T14:55:12.764Z</time></trkpt><trkpt lat="43.5068567" lon="13.12231"><ele>125.0</ele><time>2026-04-19T14:55:13.763Z</time></trkpt><trkpt lat="43.5068567" lon="13.1221817"><ele>125.0</ele><time>2026-04-19T14:55:14.761Z</time></trkpt><trkpt lat="43.5068583" lon="13.1220767"><ele>125.0</ele><time>2026-04-19T14:55:15.764Z</time></trkpt><trkpt lat="43.50686" lon="13.1219533"><ele>125.0</ele><time>2026-04-19T14:55:17.762Z</time></trkpt><trkpt lat="43.50686" lon="13.1218183"><ele>125.0</ele><time>2026-04-19T14:55:23.761Z</time></trkpt><trkpt lat="43.5068467" lon="13.1217117"><ele>125.0</ele><time>2026-04-19T14:55:24.762Z</time></trkpt><trkpt lat="43.5068233" lon="13.1215817"><ele>125.0</ele><time>2026-04-19T14:55:25.761Z</time></trkpt><trkpt lat="43.50679" lon="13.1214233"><ele>125.0</ele><time>2026-04-19T14:55:26.763Z</time></trkpt><trkpt lat="43.5067633" lon="13.1212183"><ele>125.0</ele><time>2026-04-19T14:55:27.762Z</time></trkpt><trkpt lat="43.5067383" lon="13.1210233"><ele>124.75</ele><time>2026-04-19T14:55:28.761Z</time></trkpt><trkpt lat="43.50671" lon="13.1208233"><ele>124.5</ele><time>2026-04-19T14:55:29.763Z</time></trkpt><trkpt lat="43.5066733" lon="13.1206183"><ele>124.25</ele><time>2026-04-19T14:55:30.76Z</time></trkpt><trkpt lat="43.5066367" lon="13.12042"><ele>124.0</ele><time>2026-04-19T14:55:31.762Z</time></trkpt><trkpt lat="43.5066" lon="13.1202383"><ele>123.25</ele><time>2026-04-19T14:55:32.76Z</time></trkpt><trkpt lat="43.50657" lon="13.120065"><ele>122.5</ele><time>2026-04-19T14:55:33.762Z</time></trkpt><trkpt lat="43.5065433" lon="13.119905"><ele>121.75</ele><time>2026-04-19T14:55:34.76Z</time></trkpt><trkpt lat="43.5065133" lon="13.11974"><ele>121.0</ele><time>2026-04-19T14:55:35.761Z</time></trkpt><trkpt lat="43.5064783" lon="13.119565"><ele>119.75</ele><time>2026-04-19T14:55:36.761Z</time></trkpt><trkpt lat="43.506445" lon="13.1193817"><ele>118.5</ele><time>2026-04-19T14:55:37.764Z</time></trkpt><trkpt lat="43.50642" lon="13.1191917"><ele>117.25</ele><time>2026-04-19T14:55:38.761Z</time></trkpt><trkpt lat="43.5064067" lon="13.1190017"><ele>116.0</ele><time>2026-04-19T14:55:39.762Z</time></trkpt><trkpt lat="43.50641" lon="13.1188083"><ele>115.5</ele><time>2026-04-19T14:55:40.763Z</time></trkpt><trkpt lat="43.50642" lon="13.1186167"><ele>115.0</ele><time>2026-04-19T14:55:41.762Z</time></trkpt><trkpt lat="43.50643" lon="13.1184383"><ele>114.5</ele><time>2026-04-19T14:55:42.763Z</time></trkpt><trkpt lat="43.5064383" lon="13.1182733"><ele>114.0</ele><time>2026-04-19T14:55:43.761Z</time></trkpt><trkpt lat="43.50644" lon="13.11811"><ele>115.4</ele><time>2026-04-19T14:55:44.76Z</time></trkpt><trkpt lat="43.5064383" lon="13.1179617"><ele>116.80000000000001</ele><time>2026-04-19T14:55:45.762Z</time></trkpt><trkpt lat="43.5064283" lon="13.11783"><ele>118.19999999999999</ele><time>2026-04-19T14:55:46.761Z</time></trkpt><trkpt lat="43.5064167" lon="13.117705"><ele>119.6</ele><time>2026-04-19T14:55:47.762Z</time></trkpt><trkpt lat="43.5064133" lon="13.1175817"><ele>121.0</ele><time>2026-04-19T14:55:48.761Z</time></trkpt><trkpt lat="43.5064183" lon="13.117445"><ele>121.8</ele><time>2026-04-19T14:55:49.761Z</time></trkpt><trkpt lat="43.5064467" lon="13.1173017"><ele>122.6</ele><time>2026-04-19T14:55:50.76Z</time></trkpt><trkpt lat="43.506475" lon="13.1171667"><ele>123.4</ele><time>2026-04-19T14:55:51.762Z</time></trkpt><trkpt lat="43.5064933" lon="13.1170417"><ele>124.2</ele><time>2026-04-19T14:55:52.76Z</time></trkpt><trkpt lat="43.5064983" lon="13.1169233"><ele>125.0</ele><time>2026-04-19T14:55:53.761Z</time></trkpt><trkpt lat="43.5064833" lon="13.1168167"><ele>124.99999999999999</ele><time>2026-04-19T14:55:54.763Z</time></trkpt><trkpt lat="43.5064467" lon="13.1167333"><ele>125.0</ele><time>2026-04-19T14:55:55.762Z</time></trkpt><trkpt lat="43.5063733" lon="13.1166317"><ele>125.0</ele><time>2026-04-19T14:55:57.761Z</time></trkpt><trkpt lat="43.5063483" lon="13.1165367"><ele>125.0</ele><time>2026-04-19T14:56:00.762Z</time></trkpt><trkpt lat="43.5062833" lon="13.11655"><ele>124.99999999999999</ele><time>2026-04-19T14:56:04.761Z</time></trkpt><trkpt lat="43.5063333" lon="13.11666"><ele>125.0</ele><time>2026-04-19T14:56:07.763Z</time></trkpt><trkpt lat="43.5063833" lon="13.1167217"><ele>124.99999999999999</ele><time>2026-04-19T14:56:08.762Z</time></trkpt><trkpt lat="43.5064267" lon="13.1167917"><ele>125.0</ele><time>2026-04-19T14:56:09.763Z</time></trkpt><trkpt lat="43.5064633" lon="13.1168717"><ele>125.0</ele><time>2026-04-19T14:56:10.762Z</time></trkpt><trkpt lat="43.50648" lon="13.1169717"><ele>125.0</ele><time>2026-04-19T14:56:11.764Z</time></trkpt><trkpt lat="43.5064583" lon="13.1171067"><ele>124.99999999999999</ele><time>2026-04-19T14:56:12.763Z</time></trkpt><trkpt lat="43.50643" lon="13.1172417"><ele>125.0</ele><time>2026-04-19T14:56:13.764Z</time></trkpt><trkpt lat="43.5064" lon="13.1173717"><ele>124.33333333333333</ele><time>2026-04-19T14:56:14.761Z</time></trkpt><trkpt lat="43.5063817" lon="13.11749"><ele>123.66666666666666</ele><time>2026-04-19T14:56:15.762Z</time></trkpt><trkpt lat="43.5063717" lon="13.1175983"><ele>123.0</ele><time>2026-04-19T14:56:16.761Z</time></trkpt><trkpt lat="43.506375" lon="13.1176933"><ele>122.33333333333334</ele><time>2026-04-19T14:56:17.761Z</time></trkpt><trkpt lat="43.50641" lon="13.1178117"><ele>121.66666666666667</ele><time>2026-04-19T14:56:19.76Z</time></trkpt><trkpt lat="43.50651" lon="13.1178383"><ele>121.0</ele><time>2026-04-19T14:56:21.76Z</time></trkpt><trkpt lat="43.5065817" lon="13.1178267"><ele>121.0</ele><time>2026-04-19T14:56:22.762Z</time></trkpt><trkpt lat="43.5066683" lon="13.1178083"><ele>121.0</ele><time>2026-04-19T14:56:23.761Z</time></trkpt><trkpt lat="43.5067583" lon="13.1178033"><ele>121.0</ele><time>2026-04-19T14:56:24.761Z</time></trkpt><trkpt lat="43.50685" lon="13.117805"><ele>121.0</ele><time>2026-04-19T14:56:25.761Z</time></trkpt><trkpt lat="43.506945" lon="13.1178267"><ele>121.0</ele><time>2026-04-19T14:56:26.761Z</time></trkpt><trkpt lat="43.50704" lon="13.1178633"><ele>122.4</ele><time>2026-04-19T14:56:27.761Z</time></trkpt><trkpt lat="43.5071367" lon="13.1179083"><ele>123.8</ele><time>2026-04-19T14:56:28.762Z</time></trkpt><trkpt lat="43.5072367" lon="13.1179683"><ele>125.20000000000002</ele><time>2026-04-19T14:56:29.76Z</time></trkpt><trkpt lat="43.5073333" lon="13.1180333"><ele>126.60000000000001</ele><time>2026-04-19T14:56:30.761Z</time></trkpt><trkpt lat="43.5074233" lon="13.118105"><ele>128.0</ele><time>2026-04-19T14:56:31.76Z</time></trkpt><trkpt lat="43.507505" lon="13.1181733"><ele>128.0</ele><time>2026-04-19T14:56:32.761Z</time></trkpt><trkpt lat="43.507585" lon="13.1182267"><ele>128.0</ele><time>2026-04-19T14:56:33.761Z</time></trkpt><trkpt lat="43.5076667" lon="13.1182583"><ele>128.0</ele><time>2026-04-19T14:56:34.761Z</time></trkpt><trkpt lat="43.5077583" lon="13.1182617"><ele>128.0</ele><time>2026-04-19T14:56:35.761Z</time></trkpt><trkpt lat="43.5078633" lon="13.118245"><ele>128.0</ele><time>2026-04-19T14:56:36.762Z</time></trkpt><trkpt lat="43.5079683" lon="13.118225"><ele>127.80000000000001</ele><time>2026-04-19T14:56:37.76Z</time></trkpt><trkpt lat="43.508065" lon="13.11819"><ele>127.60000000000001</ele><time>2026-04-19T14:56:38.761Z</time></trkpt><trkpt lat="43.5081533" lon="13.1181267"><ele>127.39999999999999</ele><time>2026-04-19T14:56:39.761Z</time></trkpt><trkpt lat="43.5082333" lon="13.11803"><ele>127.19999999999999</ele><time>2026-04-19T14:56:40.761Z</time></trkpt><trkpt lat="43.5083033" lon="13.1179183"><ele>127.0</ele><time>2026-04-19T14:56:41.76Z</time></trkpt><trkpt lat="43.5083717" lon="13.1178233"><ele>127.0</ele><time>2026-04-19T14:56:42.76Z</time></trkpt><trkpt lat="43.508445" lon="13.1177517"><ele>126.99999999999999</ele><time>2026-04-19T14:56:43.76Z</time></trkpt><trkpt lat="43.50854" lon="13.1177067"><ele>126.99999999999999</ele><time>2026-04-19T14:56:44.76Z</time></trkpt><trkpt lat="43.5086533" lon="13.1176883"><ele>127.0</ele><time>2026-04-19T14:56:45.761Z</time></trkpt><trkpt lat="43.5087767" lon="13.1176883"><ele>127.0</ele><time>2026-04-19T14:56:46.76Z</time></trkpt><trkpt lat="43.5089" lon="13.1176917"><ele>125.8</ele><time>2026-04-19T14:56:47.761Z</time></trkpt><trkpt lat="43.5090183" lon="13.117685"><ele>124.6</ele><time>2026-04-19T14:56:48.764Z</time></trkpt><trkpt lat="43.5091267" lon="13.117665"><ele>123.39999999999999</ele><time>2026-04-19T14:56:49.761Z</time></trkpt><trkpt lat="43.5092233" lon="13.1176283"><ele>122.19999999999999</ele><time>2026-04-19T14:56:50.76Z</time></trkpt><trkpt lat="43.509315" lon="13.1175767"><ele>121.0</ele><time>2026-04-19T14:56:51.76Z</time></trkpt><trkpt lat="43.509405" lon="13.1175"><ele>122.0</ele><time>2026-04-19T14:56:52.761Z</time></trkpt><trkpt lat="43.5094817" lon="13.1173983"><ele>123.0</ele><time>2026-04-19T14:56:53.761Z</time></trkpt><trkpt lat="43.5095433" lon="13.1172717"><ele>124.0</ele><time>2026-04-19T14:56:54.761Z</time></trkpt><trkpt lat="43.5095983" lon="13.1171283"><ele>125.0</ele><time>2026-04-19T14:56:55.761Z</time></trkpt><trkpt lat="43.509655" lon="13.11698"><ele>126.0</ele><time>2026-04-19T14:56:56.76Z</time></trkpt><trkpt lat="43.5097083" lon="13.11683"><ele>127.0</ele><time>2026-04-19T14:56:57.765Z</time></trkpt><trkpt lat="43.5097567" lon="13.1166783"><ele>128.0</ele><time>2026-04-19T14:56:58.762Z</time></trkpt><trkpt lat="43.509805" lon="13.1165317"><ele>129.0</ele><time>2026-04-19T14:56:59.761Z</time></trkpt><trkpt lat="43.5098517" lon="13.116385"><ele>130.6</ele><time>2026-04-19T14:57:00.76Z</time></trkpt><trkpt lat="43.509895" lon="13.116245"><ele>132.2</ele><time>2026-04-19T14:57:01.76Z</time></trkpt><trkpt lat="43.5099417" lon="13.1161067"><ele>133.79999999999998</ele><time>2026-04-19T14:57:02.761Z</time></trkpt><trkpt lat="43.5099883" lon="13.1159683"><ele>135.4</ele><time>2026-04-19T14:57:03.761Z</time></trkpt><trkpt lat="43.510035" lon="13.1158283"><ele>137.0</ele><time>2026-04-19T14:57:04.76Z</time></trkpt><trkpt lat="43.5100767" lon="13.115685"><ele>138.4</ele><time>2026-04-19T14:57:05.761Z</time></trkpt><trkpt lat="43.5101117" lon="13.1155383"><ele>139.79999999999998</ele><time>2026-04-19T14:57:06.762Z</time></trkpt><trkpt lat="43.5101267" lon="13.115395"><ele>141.2</ele><time>2026-04-19T14:57:07.762Z</time></trkpt><trkpt lat="43.5101267" lon="13.1152567"><ele>142.6</ele><time>2026-04-19T14:57:08.76Z</time></trkpt><trkpt lat="43.510125" lon="13.1151233"><ele>144.0</ele><time>2026-04-19T14:57:09.762Z</time></trkpt><trkpt lat="43.5101333" lon="13.1149883"><ele>145.0</ele><time>2026-04-19T14:57:10.763Z</time></trkpt><trkpt lat="43.510165" lon="13.114855"><ele>146.0</ele><time>2026-04-19T14:57:11.76Z</time></trkpt><trkpt lat="43.51022" lon="13.11472"><ele>147.0</ele><time>2026-04-19T14:57:12.76Z</time></trkpt><trkpt lat="43.5102817" lon="13.1145867"><ele>148.0</ele><time>2026-04-19T14:57:13.762Z</time></trkpt><trkpt lat="43.5103467" lon="13.1144467"><ele>149.0</ele><time>2026-04-19T14:57:14.762Z</time></trkpt><trkpt lat="43.5104183" lon="13.114305"><ele>151.75</ele><time>2026-04-19T14:57:15.76Z</time></trkpt><trkpt lat="43.5104917" lon="13.11416"><ele>154.5</ele><time>2026-04-19T14:57:16.762Z</time></trkpt><trkpt lat="43.5105633" lon="13.114005"><ele>157.25</ele><time>2026-04-19T14:57:17.761Z</time></trkpt><trkpt lat="43.5106333" lon="13.113845"><ele>160.0</ele><time>2026-04-19T14:57:18.761Z</time></trkpt><trkpt lat="43.5107" lon="13.1136783"><ele>162.75</ele><time>2026-04-19T14:57:19.76Z</time></trkpt><trkpt lat="43.5107683" lon="13.11352"><ele>165.5</ele><time>2026-04-19T14:57:20.76Z</time></trkpt><trkpt lat="43.5108417" lon="13.1133633"><ele>168.25</ele><time>2026-04-19T14:57:21.76Z</time></trkpt><trkpt lat="43.5109283" lon="13.1132083"><ele>171.0</ele><time>2026-04-19T14:57:22.76Z</time></trkpt><trkpt lat="43.5110267" lon="13.1130583"><ele>173.5</ele><time>2026-04-19T14:57:23.76Z</time></trkpt><trkpt lat="43.51113" lon="13.1129133"><ele>176.0</ele><time>2026-04-19T14:57:24.761Z</time></trkpt><trkpt lat="43.5112367" lon="13.11277"><ele>178.5</ele><time>2026-04-19T14:57:25.76Z</time></trkpt><trkpt lat="43.5113317" lon="13.1126233"><ele>181.0</ele><time>2026-04-19T14:57:26.761Z</time></trkpt><trkpt lat="43.5114167" lon="13.1124833"><ele>185.0</ele><time>2026-04-19T14:57:27.764Z</time></trkpt><trkpt lat="43.5114883" lon="13.1123383"><ele>189.0</ele><time>2026-04-19T14:57:28.76Z</time></trkpt><trkpt lat="43.5115483" lon="13.11218"><ele>193.0</ele><time>2026-04-19T14:57:29.761Z</time></trkpt><trkpt lat="43.5116" lon="13.1120083"><ele>197.0</ele><time>2026-04-19T14:57:30.763Z</time></trkpt><trkpt lat="43.5116433" lon="13.1118367"><ele>197.0</ele><time>2026-04-19T14:57:31.762Z</time></trkpt><trkpt lat="43.51168" lon="13.1116683"><ele>197.0</ele><time>2026-04-19T14:57:32.762Z</time></trkpt><trkpt lat="43.511715" lon="13.1115167"><ele>197.0</ele><time>2026-04-19T14:57:33.762Z</time></trkpt><trkpt lat="43.5117533" lon="13.11138"><ele>197.0</ele><time>2026-04-19T14:57:34.761Z</time></trkpt><trkpt lat="43.5118117" lon="13.1112433"><ele>199.5</ele><time>2026-04-19T14:57:35.762Z</time></trkpt><trkpt lat="43.511885" lon="13.1111117"><ele>202.0</ele><time>2026-04-19T14:57:36.761Z</time></trkpt><trkpt lat="43.5119617" lon="13.1109833"><ele>204.5</ele><time>2026-04-19T14:57:37.76Z</time></trkpt><trkpt lat="43.5120383" lon="13.110855"><ele>207.0</ele><time>2026-04-19T14:57:38.761Z</time></trkpt><trkpt lat="43.5121067" lon="13.1107367"><ele>208.75</ele><time>2026-04-19T14:57:39.76Z</time></trkpt><trkpt lat="43.5121617" lon="13.1106167"><ele>210.5</ele><time>2026-04-19T14:57:40.759Z</time></trkpt><trkpt lat="43.5122117" lon="13.1104917"><ele>212.25</ele><time>2026-04-19T14:57:41.762Z</time></trkpt><trkpt lat="43.51226" lon="13.1103467"><ele>214.0</ele><time>2026-04-19T14:57:42.76Z</time></trkpt><trkpt lat="43.5123183" lon="13.110185"><ele>214.0</ele><time>2026-04-19T14:57:43.76Z</time></trkpt><trkpt lat="43.5123817" lon="13.1100167"><ele>214.0</ele><time>2026-04-19T14:57:44.76Z</time></trkpt><trkpt lat="43.5124367" lon="13.109855"><ele>214.0</ele><time>2026-04-19T14:57:45.76Z</time></trkpt><trkpt lat="43.512485" lon="13.10971"><ele>214.0</ele><time>2026-04-19T14:57:46.76Z</time></trkpt><trkpt lat="43.5125217" lon="13.1095767"><ele>215.0</ele><time>2026-04-19T14:57:47.759Z</time></trkpt><trkpt lat="43.5125433" lon="13.1094433"><ele>215.99999999999997</ele><time>2026-04-19T14:57:48.761Z</time></trkpt><trkpt lat="43.5125517" lon="13.1093017"><ele>216.99999999999997</ele><time>2026-04-19T14:57:49.761Z</time></trkpt><trkpt lat="43.5125517" lon="13.1091483"><ele>218.0</ele><time>2026-04-19T14:57:50.76Z</time></trkpt><trkpt lat="43.512545" lon="13.1089767"><ele>219.0</ele><time>2026-04-19T14:57:51.76Z</time></trkpt><trkpt lat="43.512535" lon="13.1087883"><ele>220.0</ele><time>2026-04-19T14:57:52.759Z</time></trkpt><trkpt lat="43.5125267" lon="13.1085933"><ele>221.0</ele><time>2026-04-19T14:57:53.761Z</time></trkpt><trkpt lat="43.51252" lon="13.1084083"><ele>222.0</ele><time>2026-04-19T14:57:54.76Z</time></trkpt><trkpt lat="43.51251" lon="13.1082333"><ele>223.0</ele><time>2026-04-19T14:57:55.76Z</time></trkpt><trkpt lat="43.5124867" lon="13.10806"><ele>224.0</ele><time>2026-04-19T14:57:56.762Z</time></trkpt><trkpt lat="43.512455" lon="13.1078917"><ele>225.0</ele><time>2026-04-19T14:57:57.764Z</time></trkpt><trkpt lat="43.512395" lon="13.107725"><ele>226.0</ele><time>2026-04-19T14:57:58.76Z</time></trkpt><trkpt lat="43.5123167" lon="13.1075533"><ele>227.0</ele><time>2026-04-19T14:57:59.761Z</time></trkpt><trkpt lat="43.512225" lon="13.1073633"><ele>229.33333333333334</ele><time>2026-04-19T14:58:00.76Z</time></trkpt><trkpt lat="43.512135" lon="13.107155"><ele>231.66666666666669</ele><time>2026-04-19T14:58:01.763Z</time></trkpt><trkpt lat="43.51204" lon="13.1069333"><ele>234.0</ele><time>2026-04-19T14:58:02.76Z</time></trkpt><trkpt lat="43.51194" lon="13.106705"><ele>239.66666666666669</ele><time>2026-04-19T14:58:03.761Z</time></trkpt><trkpt lat="43.5118333" lon="13.1064683"><ele>245.33333333333334</ele><time>2026-04-19T14:58:04.76Z</time></trkpt><trkpt lat="43.5117267" lon="13.1062317"><ele>251.0</ele><time>2026-04-19T14:58:05.76Z</time></trkpt><trkpt lat="43.5116217" lon="13.106"><ele>251.0</ele><time>2026-04-19T14:58:06.76Z</time></trkpt><trkpt lat="43.51152" lon="13.1057717"><ele>251.0</ele><time>2026-04-19T14:58:07.76Z</time></trkpt><trkpt lat="43.5114283" lon="13.10555"><ele>251.0</ele><time>2026-04-19T14:58:08.763Z</time></trkpt><trkpt lat="43.5113383" lon="13.10533"><ele>254.0</ele><time>2026-04-19T14:58:09.761Z</time></trkpt><trkpt lat="43.51125" lon="13.1051167"><ele>257.0</ele><time>2026-04-19T14:58:10.765Z</time></trkpt><trkpt lat="43.5111683" lon="13.1049033"><ele>260.0</ele><time>2026-04-19T14:58:11.76Z</time></trkpt><trkpt lat="43.5110933" lon="13.1046983"><ele>265.0</ele><time>2026-04-19T14:58:12.761Z</time></trkpt><trkpt lat="43.5110217" lon="13.104515"><ele>270.0</ele><time>2026-04-19T14:58:13.76Z</time></trkpt><trkpt lat="43.5109483" lon="13.1043583"><ele>275.0</ele><time>2026-04-19T14:58:14.761Z</time></trkpt><trkpt lat="43.5108717" lon="13.10422"><ele>280.0</ele><time>2026-04-19T14:58:15.76Z</time></trkpt><trkpt lat="43.5107883" lon="13.1040883"><ele>282.0</ele><time>2026-04-19T14:58:16.76Z</time></trkpt><trkpt lat="43.5107017" lon="13.1039633"><ele>284.0</ele><time>2026-04-19T14:58:17.76Z</time></trkpt><trkpt lat="43.5106167" lon="13.1038383"><ele>286.0</ele><time>2026-04-19T14:58:18.76Z</time></trkpt><trkpt lat="43.51054" lon="13.10372"><ele>288.0</ele><time>2026-04-19T14:58:19.761Z</time></trkpt><trkpt lat="43.5104817" lon="13.1036"><ele>288.0</ele><time>2026-04-19T14:58:20.762Z</time></trkpt><trkpt lat="43.5104417" lon="13.103465"><ele>288.0</ele><time>2026-04-19T14:58:21.76Z</time></trkpt><trkpt lat="43.5104183" lon="13.1033117"><ele>288.0</ele><time>2026-04-19T14:58:22.759Z</time></trkpt><trkpt lat="43.5103967" lon="13.10315"><ele>288.0</ele><time>2026-04-19T14:58:23.76Z</time></trkpt><trkpt lat="43.5103567" lon="13.1029783"><ele>295.3333333333333</ele><time>2026-04-19T14:58:24.759Z</time></trkpt><trkpt lat="43.51029" lon="13.102795"><ele>302.66666666666663</ele><time>2026-04-19T14:58:25.761Z</time></trkpt><trkpt lat="43.510215" lon="13.1026083"><ele>310.0</ele><time>2026-04-19T14:58:26.76Z</time></trkpt><trkpt lat="43.5101317" lon="13.102415"><ele>312.5</ele><time>2026-04-19T14:58:27.76Z</time></trkpt><trkpt lat="43.510045" lon="13.10222"><ele>315.0</ele><time>2026-04-19T14:58:28.761Z</time></trkpt><trkpt lat="43.5099617" lon="13.1020467"><ele>317.5</ele><time>2026-04-19T14:58:29.761Z</time></trkpt><trkpt lat="43.5098867" lon="13.1019"><ele>320.0</ele><time>2026-04-19T14:58:30.76Z</time></trkpt><trkpt lat="43.5098133" lon="13.10176"><ele>320.0</ele><time>2026-04-19T14:58:31.76Z</time></trkpt><trkpt lat="43.5097417" lon="13.1016133"><ele>320.0</ele><time>2026-04-19T14:58:32.762Z</time></trkpt><trkpt lat="43.509675" lon="13.10147"><ele>320.0</ele><time>2026-04-19T14:58:33.759Z</time></trkpt><trkpt lat="43.509625" lon="13.1013467"><ele>320.0</ele><time>2026-04-19T14:58:34.76Z</time></trkpt><trkpt lat="43.5095867" lon="13.1012383"><ele>320.0</ele><time>2026-04-19T14:58:35.759Z</time></trkpt><trkpt lat="43.5095533" lon="13.101125"><ele>320.6666666666667</ele><time>2026-04-19T14:58:36.76Z</time></trkpt><trkpt lat="43.5095267" lon="13.1010067"><ele>321.33333333333337</ele><time>2026-04-19T14:58:37.76Z</time></trkpt><trkpt lat="43.50951" lon="13.1008917"><ele>322.0</ele><time>2026-04-19T14:58:38.76Z</time></trkpt><trkpt lat="43.5095017" lon="13.1007883"><ele>322.6666666666667</ele><time>2026-04-19T14:58:39.761Z</time></trkpt><trkpt lat="43.509495" lon="13.1006817"><ele>323.3333333333333</ele><time>2026-04-19T14:58:40.76Z</time></trkpt><trkpt lat="43.5095" lon="13.10057"><ele>324.0</ele><time>2026-04-19T14:58:41.76Z</time></trkpt><trkpt lat="43.5095217" lon="13.1004617"><ele>324.5</ele><time>2026-04-19T14:58:42.761Z</time></trkpt><trkpt lat="43.5095567" lon="13.1003583"><ele>325.0</ele><time>2026-04-19T14:58:43.761Z</time></trkpt><trkpt lat="43.5096017" lon="13.1002583"><ele>325.5</ele><time>2026-04-19T14:58:44.762Z</time></trkpt><trkpt lat="43.5096533" lon="13.1001533"><ele>326.0</ele><time>2026-04-19T14:58:45.76Z</time></trkpt><trkpt lat="43.5096933" lon="13.1000567"><ele>326.5</ele><time>2026-04-19T14:58:46.761Z</time></trkpt><trkpt lat="43.5097317" lon="13.0999633"><ele>327.0</ele><time>2026-04-19T14:58:47.761Z</time></trkpt><trkpt lat="43.5097567" lon="13.0998733"><ele>327.5</ele><time>2026-04-19T14:58:48.76Z</time></trkpt><trkpt lat="43.50978" lon="13.0997833"><ele>328.0</ele><time>2026-04-19T14:58:49.762Z</time></trkpt><trkpt lat="43.5097967" lon="13.0996833"><ele>328.5</ele><time>2026-04-19T14:58:50.76Z</time></trkpt><trkpt lat="43.5098067" lon="13.0995767"><ele>329.0</ele><time>2026-04-19T14:58:51.761Z</time></trkpt><trkpt lat="43.5098017" lon="13.099455"><ele>329.5</ele><time>2026-04-19T14:58:52.764Z</time></trkpt><trkpt lat="43.5097833" lon="13.0993233"><ele>330.0</ele><time>2026-04-19T14:58:53.762Z</time></trkpt><trkpt lat="43.5097467" lon="13.0991833"><ele>330.0</ele><time>2026-04-19T14:58:54.761Z</time></trkpt><trkpt lat="43.5097067" lon="13.09904"><ele>330.0</ele><time>2026-04-19T14:58:55.762Z</time></trkpt><trkpt lat="43.50967" lon="13.0988917"><ele>330.0</ele><time>2026-04-19T14:58:56.761Z</time></trkpt><trkpt lat="43.5096367" lon="13.0987383"><ele>330.0</ele><time>2026-04-19T14:58:57.762Z</time></trkpt><trkpt lat="43.5096" lon="13.0985767"><ele>333.8</ele><time>2026-04-19T14:58:58.76Z</time></trkpt><trkpt lat="43.5095517" lon="13.0984333"><ele>337.6</ele><time>2026-04-19T14:58:59.767Z</time></trkpt><trkpt lat="43.5095017" lon="13.09831"><ele>341.4</ele><time>2026-04-19T14:59:00.762Z</time></trkpt><trkpt lat="43.5094583" lon="13.098205"><ele>345.2</ele><time>2026-04-19T14:59:01.762Z</time></trkpt><trkpt lat="43.5094133" lon="13.0981167"><ele>349.0</ele><time>2026-04-19T14:59:02.76Z</time></trkpt><trkpt lat="43.509375" lon="13.098035"><ele>348.99999999999994</ele><time>2026-04-19T14:59:03.76Z</time></trkpt><trkpt lat="43.5093317" lon="13.097955"><ele>349.0</ele><time>2026-04-19T14:59:04.76Z</time></trkpt><trkpt lat="43.5092783" lon="13.0978917"><ele>349.0</ele><time>2026-04-19T14:59:05.765Z</time></trkpt><trkpt lat="43.50922" lon="13.0978317"><ele>349.0</ele><time>2026-04-19T14:59:06.762Z</time></trkpt><trkpt lat="43.5091633" lon="13.0977667"><ele>349.0</ele><time>2026-04-19T14:59:07.762Z</time></trkpt><trkpt lat="43.509115" lon="13.0977"><ele>348.99999999999994</ele><time>2026-04-19T14:59:08.764Z</time></trkpt><trkpt lat="43.5090683" lon="13.0976217"><ele>349.0</ele><time>2026-04-19T14:59:09.762Z</time></trkpt><trkpt lat="43.50902" lon="13.0975283"><ele>349.0</ele><time>2026-04-19T14:59:10.762Z</time></trkpt><trkpt lat="43.508975" lon="13.0974317"><ele>349.0</ele><time>2026-04-19T14:59:11.764Z</time></trkpt><trkpt lat="43.50894" lon="13.097335"><ele>349.0</ele><time>2026-04-19T14:59:12.76Z</time></trkpt><trkpt lat="43.5089117" lon="13.0972383"><ele>349.0</ele><time>2026-04-19T14:59:13.759Z</time></trkpt><trkpt lat="43.50888" lon="13.0971417"><ele>349.0</ele><time>2026-04-19T14:59:14.761Z</time></trkpt><trkpt lat="43.5088483" lon="13.0970467"><ele>349.0</ele><time>2026-04-19T14:59:15.763Z</time></trkpt><trkpt lat="43.5088167" lon="13.09696"><ele>349.0</ele><time>2026-04-19T14:59:16.76Z</time></trkpt><trkpt lat="43.5087717" lon="13.0968783"><ele>349.0</ele><time>2026-04-19T14:59:17.762Z</time></trkpt><trkpt lat="43.5087233" lon="13.09679"><ele>349.0</ele><time>2026-04-19T14:59:18.761Z</time></trkpt><trkpt lat="43.50868" lon="13.0966967"><ele>349.0</ele><time>2026-04-19T14:59:19.76Z</time></trkpt><trkpt lat="43.5086333" lon="13.096615"><ele>349.0</ele><time>2026-04-19T14:59:20.763Z</time></trkpt><trkpt lat="43.5086017" lon="13.0965267"><ele>349.0</ele><time>2026-04-19T14:59:21.763Z</time></trkpt><trkpt lat="43.50856" lon="13.0964417"><ele>349.0</ele><time>2026-04-19T14:59:22.763Z</time></trkpt><trkpt lat="43.5085183" lon="13.0963533"><ele>349.0</ele><time>2026-04-19T14:59:23.763Z</time></trkpt><trkpt lat="43.50847" lon="13.096255"><ele>349.0</ele><time>2026-04-19T14:59:24.762Z</time></trkpt><trkpt lat="43.5084167" lon="13.096145"><ele>349.0</ele><time>2026-04-19T14:59:25.761Z</time></trkpt><trkpt lat="43.508365" lon="13.0960367"><ele>349.0</ele><time>2026-04-19T14:59:26.762Z</time></trkpt><trkpt lat="43.5083167" lon="13.0959333"><ele>349.0</ele><time>2026-04-19T14:59:27.76Z</time></trkpt><trkpt lat="43.5082717" lon="13.0958383"><ele>348.66666666666663</ele><time>2026-04-19T14:59:28.763Z</time></trkpt><trkpt lat="43.5082383" lon="13.0957483"><ele>348.3333333333333</ele><time>2026-04-19T14:59:29.76Z</time></trkpt><trkpt lat="43.5082133" lon="13.0956517"><ele>348.0</ele><time>2026-04-19T14:59:30.761Z</time></trkpt><trkpt lat="43.5082117" lon="13.0955283"><ele>347.6666666666667</ele><time>2026-04-19T14:59:31.76Z</time></trkpt><trkpt lat="43.5082233" lon="13.0953967"><ele>347.33333333333337</ele><time>2026-04-19T14:59:32.76Z</time></trkpt><trkpt lat="43.5082417" lon="13.0952617"><ele>347.0</ele><time>2026-04-19T14:59:33.76Z</time></trkpt><trkpt lat="43.5082633" lon="13.09513"><ele>347.0</ele><time>2026-04-19T14:59:34.761Z</time></trkpt><trkpt lat="43.5082917" lon="13.0949983"><ele>347.0</ele><time>2026-04-19T14:59:35.761Z</time></trkpt><trkpt lat="43.5083333" lon="13.0948733"><ele>347.0</ele><time>2026-04-19T14:59:36.762Z</time></trkpt><trkpt lat="43.5083917" lon="13.09476"><ele>347.0</ele><time>2026-04-19T14:59:37.761Z</time></trkpt><trkpt lat="43.5084717" lon="13.0946533"><ele>347.0</ele><time>2026-04-19T14:59:38.76Z</time></trkpt><trkpt lat="43.5085567" lon="13.09456"><ele>347.8</ele><time>2026-04-19T14:59:39.76Z</time></trkpt><trkpt lat="43.508635" lon="13.0944767"><ele>348.6</ele><time>2026-04-19T14:59:40.76Z</time></trkpt><trkpt lat="43.5087067" lon="13.0944"><ele>349.40000000000003</ele><time>2026-04-19T14:59:41.76Z</time></trkpt><trkpt lat="43.5087717" lon="13.09432"><ele>350.20000000000005</ele><time>2026-04-19T14:59:42.761Z</time></trkpt><trkpt lat="43.5088383" lon="13.0942383"><ele>351.0</ele><time>2026-04-19T14:59:43.761Z</time></trkpt><trkpt lat="43.5089017" lon="13.0941483"><ele>350.1666666666667</ele><time>2026-04-19T14:59:44.761Z</time></trkpt><trkpt lat="43.50896" lon="13.09406"><ele>349.3333333333333</ele><time>2026-04-19T14:59:45.763Z</time></trkpt><trkpt lat="43.509015" lon="13.0939733"><ele>348.5</ele><time>2026-04-19T14:59:46.763Z</time></trkpt><trkpt lat="43.5090683" lon="13.0938817"><ele>347.66666666666663</ele><time>2026-04-19T14:59:47.765Z</time></trkpt><trkpt lat="43.50912" lon="13.0937867"><ele>346.8333333333333</ele><time>2026-04-19T14:59:48.764Z</time></trkpt><trkpt lat="43.50917" lon="13.0936917"><ele>346.0</ele><time>2026-04-19T14:59:49.763Z</time></trkpt><trkpt lat="43.5092183" lon="13.09361"><ele>346.0</ele><time>2026-04-19T14:59:50.766Z</time></trkpt><trkpt lat="43.5092733" lon="13.09354"><ele>346.0</ele><time>2026-04-19T14:59:51.764Z</time></trkpt><trkpt lat="43.509335" lon="13.0934517"><ele>346.0</ele><time>2026-04-19T14:59:52.763Z</time></trkpt><trkpt lat="43.5093917" lon="13.09337"><ele>346.0</ele><time>2026-04-19T14:59:53.764Z</time></trkpt><trkpt lat="43.509465" lon="13.0933133"><ele>346.0</ele><time>2026-04-19T14:59:54.763Z</time></trkpt><trkpt lat="43.5095233" lon="13.0932517"><ele>346.0</ele><time>2026-04-19T14:59:55.763Z</time></trkpt><trkpt lat="43.5095867" lon="13.09318"><ele>343.66666666666663</ele><time>2026-04-19T14:59:56.761Z</time></trkpt><trkpt lat="43.5096417" lon="13.09311"><ele>341.3333333333333</ele><time>2026-04-19T14:59:57.762Z</time></trkpt><trkpt lat="43.5096917" lon="13.093035"><ele>339.0</ele><time>2026-04-19T14:59:58.762Z</time></trkpt><trkpt lat="43.50974" lon="13.0929567"><ele>336.6666666666667</ele><time>2026-04-19T14:59:59.762Z</time></trkpt><trkpt lat="43.5097833" lon="13.0928683"><ele>334.33333333333337</ele><time>2026-04-19T15:00:00.763Z</time></trkpt><trkpt lat="43.5098117" lon="13.0927667"><ele>332.0</ele><time>2026-04-19T15:00:01.761Z</time></trkpt><trkpt lat="43.5098167" lon="13.0926683"><ele>332.0</ele><time>2026-04-19T15:00:02.762Z</time></trkpt><trkpt lat="43.5098" lon="13.092495"><ele>332.0</ele><time>2026-04-19T15:00:04.762Z</time></trkpt><trkpt lat="43.5097767" lon="13.0924"><ele>332.0</ele><time>2026-04-19T15:00:05.762Z</time></trkpt><trkpt lat="43.50975" lon="13.0923083"><ele>332.0</ele><time>2026-04-19T15:00:06.763Z</time></trkpt><trkpt lat="43.509715" lon="13.092215"><ele>332.0</ele><time>2026-04-19T15:00:07.764Z</time></trkpt><trkpt lat="43.5096717" lon="13.0921117"><ele>332.0</ele><time>2026-04-19T15:00:08.763Z</time></trkpt><trkpt lat="43.5096283" lon="13.092005"><ele>333.0</ele><time>2026-04-19T15:00:09.762Z</time></trkpt><trkpt lat="43.5095783" lon="13.0918883"><ele>334.0</ele><time>2026-04-19T15:00:10.761Z</time></trkpt><trkpt lat="43.5095333" lon="13.0917733"><ele>335.0</ele><time>2026-04-19T15:00:11.762Z</time></trkpt><trkpt lat="43.509495" lon="13.0916617"><ele>336.0</ele><time>2026-04-19T15:00:12.762Z</time></trkpt><trkpt lat="43.5094633" lon="13.0915533"><ele>337.0</ele><time>2026-04-19T15:00:13.761Z</time></trkpt><trkpt lat="43.5094333" lon="13.0914417"><ele>339.66666666666663</ele><time>2026-04-19T15:00:14.761Z</time></trkpt><trkpt lat="43.5094067" lon="13.091335"><ele>342.3333333333333</ele><time>2026-04-19T15:00:15.761Z</time></trkpt><trkpt lat="43.509385" lon="13.091225"><ele>345.0</ele><time>2026-04-19T15:00:16.76Z</time></trkpt><trkpt lat="43.5093767" lon="13.09112"><ele>347.6666666666667</ele><time>2026-04-19T15:00:17.762Z</time></trkpt><trkpt lat="43.5093783" lon="13.0910183"><ele>350.33333333333337</ele><time>2026-04-19T15:00:18.764Z</time></trkpt><trkpt lat="43.509385" lon="13.090925"><ele>353.0</ele><time>2026-04-19T15:00:19.764Z</time></trkpt><trkpt lat="43.5093967" lon="13.09076"><ele>351.6666666666667</ele><time>2026-04-19T15:00:21.764Z</time></trkpt><trkpt lat="43.5093783" lon="13.0906667"><ele>350.33333333333337</ele><time>2026-04-19T15:00:22.761Z</time></trkpt><trkpt lat="43.50934" lon="13.090565"><ele>349.0</ele><time>2026-04-19T15:00:23.765Z</time></trkpt><trkpt lat="43.509295" lon="13.0904617"><ele>347.6666666666667</ele><time>2026-04-19T15:00:24.761Z</time></trkpt><trkpt lat="43.5092483" lon="13.090365"><ele>346.3333333333333</ele><time>2026-04-19T15:00:25.76Z</time></trkpt><trkpt lat="43.509195" lon="13.0902683"><ele>345.0</ele><time>2026-04-19T15:00:26.76Z</time></trkpt><trkpt lat="43.5091417" lon="13.09017"><ele>345.0</ele><time>2026-04-19T15:00:27.76Z</time></trkpt><trkpt lat="43.5090767" lon="13.090065"><ele>345.0</ele><time>2026-04-19T15:00:28.763Z</time></trkpt><trkpt lat="43.5090067" lon="13.0899567"><ele>345.0</ele><time>2026-04-19T15:00:29.761Z</time></trkpt><trkpt lat="43.5089317" lon="13.08985"><ele>345.0</ele><time>2026-04-19T15:00:30.761Z</time></trkpt><trkpt lat="43.5088467" lon="13.0897317"><ele>345.0</ele><time>2026-04-19T15:00:31.763Z</time></trkpt><trkpt lat="43.50877" lon="13.0895983"><ele>344.5</ele><time>2026-04-19T15:00:32.762Z</time></trkpt><trkpt lat="43.5087017" lon="13.089455"><ele>344.0</ele><time>2026-04-19T15:00:33.764Z</time></trkpt><trkpt lat="43.5086433" lon="13.0893167"><ele>343.5</ele><time>2026-04-19T15:00:34.761Z</time></trkpt><trkpt lat="43.5085833" lon="13.0891783"><ele>343.0</ele><time>2026-04-19T15:00:35.764Z</time></trkpt><trkpt lat="43.5085233" lon="13.0890383"><ele>342.4</ele><time>2026-04-19T15:00:36.761Z</time></trkpt><trkpt lat="43.508465" lon="13.0889117"><ele>341.79999999999995</ele><time>2026-04-19T15:00:37.762Z</time></trkpt><trkpt lat="43.508415" lon="13.0887933"><ele>341.2</ele><time>2026-04-19T15:00:38.764Z</time></trkpt><trkpt lat="43.50836" lon="13.088685"><ele>340.6</ele><time>2026-04-19T15:00:39.762Z</time></trkpt><trkpt lat="43.50831" lon="13.088575"><ele>340.0</ele><time>2026-04-19T15:00:40.762Z</time></trkpt><trkpt lat="43.5082617" lon="13.08846"><ele>340.0</ele><time>2026-04-19T15:00:41.761Z</time></trkpt><trkpt lat="43.5082183" lon="13.0883467"><ele>340.0</ele><time>2026-04-19T15:00:42.764Z</time></trkpt><trkpt lat="43.5081783" lon="13.08824"><ele>340.0</ele><time>2026-04-19T15:00:43.761Z</time></trkpt><trkpt lat="43.5081417" lon="13.088135"><ele>340.0</ele><time>2026-04-19T15:00:44.764Z</time></trkpt><trkpt lat="43.508105" lon="13.0880267"><ele>340.0</ele><time>2026-04-19T15:00:45.76Z</time></trkpt><trkpt lat="43.5080633" lon="13.0879233"><ele>340.0</ele><time>2026-04-19T15:00:46.76Z</time></trkpt><trkpt lat="43.5080167" lon="13.0878267"><ele>339.0</ele><time>2026-04-19T15:00:47.762Z</time></trkpt><trkpt lat="43.5079683" lon="13.087735"><ele>338.0</ele><time>2026-04-19T15:00:48.764Z</time></trkpt><trkpt lat="43.5079233" lon="13.08764"><ele>337.0</ele><time>2026-04-19T15:00:49.76Z</time></trkpt><trkpt lat="43.50788" lon="13.0875333"><ele>336.0</ele><time>2026-04-19T15:00:50.763Z</time></trkpt><trkpt lat="43.5078433" lon="13.08741"><ele>335.0</ele><time>2026-04-19T15:00:51.763Z</time></trkpt><trkpt lat="43.507795" lon="13.0872767"><ele>331.75</ele><time>2026-04-19T15:00:52.763Z</time></trkpt><trkpt lat="43.507745" lon="13.0871233"><ele>328.5</ele><time>2026-04-19T15:00:53.765Z</time></trkpt><trkpt lat="43.5076783" lon="13.0869867"><ele>325.25</ele><time>2026-04-19T15:00:54.764Z</time></trkpt><trkpt lat="43.507615" lon="13.086835"><ele>322.0</ele><time>2026-04-19T15:00:55.764Z</time></trkpt><trkpt lat="43.5075533" lon="13.08668"><ele>321.25</ele><time>2026-04-19T15:00:56.763Z</time></trkpt><trkpt lat="43.507495" lon="13.0865217"><ele>320.5</ele><time>2026-04-19T15:00:57.761Z</time></trkpt><trkpt lat="43.5074283" lon="13.0863683"><ele>319.75</ele><time>2026-04-19T15:00:58.761Z</time></trkpt><trkpt lat="43.50735" lon="13.0862167"><ele>319.0</ele><time>2026-04-19T15:00:59.761Z</time></trkpt><trkpt lat="43.5072733" lon="13.0860633"><ele>319.0</ele><time>2026-04-19T15:01:00.763Z</time></trkpt><trkpt lat="43.50719" lon="13.0859233"><ele>319.0</ele><time>2026-04-19T15:01:01.762Z</time></trkpt><trkpt lat="43.50711" lon="13.0857983"><ele>319.0</ele><time>2026-04-19T15:01:02.764Z</time></trkpt><trkpt lat="43.5070317" lon="13.0856883"><ele>319.0</ele><time>2026-04-19T15:01:03.763Z</time></trkpt><trkpt lat="43.506955" lon="13.0855983"><ele>318.0</ele><time>2026-04-19T15:01:04.762Z</time></trkpt><trkpt lat="43.5068817" lon="13.0855283"><ele>317.0</ele><time>2026-04-19T15:01:05.761Z</time></trkpt><trkpt lat="43.5068117" lon="13.0854733"><ele>316.0</ele><time>2026-04-19T15:01:06.763Z</time></trkpt><trkpt lat="43.50675" lon="13.08543"><ele>315.0</ele><time>2026-04-19T15:01:07.762Z</time></trkpt><trkpt lat="43.506655" lon="13.0853733"><ele>314.0</ele><time>2026-04-19T15:01:09.761Z</time></trkpt><trkpt lat="43.5065967" lon="13.0853333"><ele>313.0</ele><time>2026-04-19T15:01:11.761Z</time></trkpt><trkpt lat="43.50652" lon="13.0852417"><ele>313.0</ele><time>2026-04-19T15:01:14.76Z</time></trkpt><trkpt lat="43.506485" lon="13.0851567"><ele>313.0</ele><time>2026-04-19T15:01:15.76Z</time></trkpt><trkpt lat="43.5064333" lon="13.0850533"><ele>313.0</ele><time>2026-04-19T15:01:16.76Z</time></trkpt><trkpt lat="43.506365" lon="13.08492"><ele>313.0</ele><time>2026-04-19T15:01:17.76Z</time></trkpt><trkpt lat="43.5062883" lon="13.0847617"><ele>313.0</ele><time>2026-04-19T15:01:18.761Z</time></trkpt><trkpt lat="43.5061867" lon="13.08459"><ele>313.3333333333333</ele><time>2026-04-19T15:01:19.762Z</time></trkpt><trkpt lat="43.5060717" lon="13.0844067"><ele>313.6666666666667</ele><time>2026-04-19T15:01:20.761Z</time></trkpt><trkpt lat="43.5059467" lon="13.0842067"><ele>314.0</ele><time>2026-04-19T15:01:21.763Z</time></trkpt><trkpt lat="43.505825" lon="13.083995"><ele>312.33333333333337</ele><time>2026-04-19T15:01:22.763Z</time></trkpt><trkpt lat="43.505715" lon="13.0837933"><ele>310.6666666666667</ele><time>2026-04-19T15:01:23.763Z</time></trkpt><trkpt lat="43.5056083" lon="13.0836033"><ele>309.0</ele><time>2026-04-19T15:01:24.76Z</time></trkpt><trkpt lat="43.5055017" lon="13.083425"><ele>312.25</ele><time>2026-04-19T15:01:25.76Z</time></trkpt><trkpt lat="43.5054" lon="13.0832683"><ele>315.5</ele><time>2026-04-19T15:01:26.76Z</time></trkpt><trkpt lat="43.5053" lon="13.0831383"><ele>318.75</ele><time>2026-04-19T15:01:27.762Z</time></trkpt><trkpt lat="43.5051933" lon="13.0830233"><ele>322.0</ele><time>2026-04-19T15:01:28.763Z</time></trkpt><trkpt lat="43.5050667" lon="13.0829233"><ele>322.3333333333333</ele><time>2026-04-19T15:01:29.762Z</time></trkpt><trkpt lat="43.5049267" lon="13.0828267"><ele>322.6666666666667</ele><time>2026-04-19T15:01:30.762Z</time></trkpt><trkpt lat="43.5047883" lon="13.0827333"><ele>323.0</ele><time>2026-04-19T15:01:31.762Z</time></trkpt><trkpt lat="43.5046533" lon="13.0826283"><ele>323.0</ele><time>2026-04-19T15:01:32.764Z</time></trkpt><trkpt lat="43.50452" lon="13.08251"><ele>323.0</ele><time>2026-04-19T15:01:33.763Z</time></trkpt><trkpt lat="43.5043767" lon="13.08238"><ele>323.0</ele><time>2026-04-19T15:01:34.761Z</time></trkpt><trkpt lat="43.5042283" lon="13.082225"><ele>327.33333333333337</ele><time>2026-04-19T15:01:35.764Z</time></trkpt><trkpt lat="43.5040767" lon="13.0820633"><ele>331.6666666666667</ele><time>2026-04-19T15:01:36.764Z</time></trkpt><trkpt lat="43.5039367" lon="13.081915"><ele>336.0</ele><time>2026-04-19T15:01:37.763Z</time></trkpt><trkpt lat="43.503805" lon="13.08178"><ele>338.6666666666667</ele><time>2026-04-19T15:01:38.763Z</time></trkpt><trkpt lat="43.503675" lon="13.0816467"><ele>341.33333333333337</ele><time>2026-04-19T15:01:39.76Z</time></trkpt><trkpt lat="43.5035433" lon="13.0815183"><ele>344.0</ele><time>2026-04-19T15:01:40.764Z</time></trkpt><trkpt lat="43.5033983" lon="13.0813933"><ele>344.0</ele><time>2026-04-19T15:01:41.761Z</time></trkpt><trkpt lat="43.503235" lon="13.081285"><ele>344.0</ele><time>2026-04-19T15:01:42.761Z</time></trkpt><trkpt lat="43.50305" lon="13.0811817"><ele>344.0</ele><time>2026-04-19T15:01:43.761Z</time></trkpt><trkpt lat="43.502865" lon="13.081085"><ele>342.33333333333337</ele><time>2026-04-19T15:01:44.761Z</time></trkpt><trkpt lat="43.5026967" lon="13.0809933"><ele>340.6666666666667</ele><time>2026-04-19T15:01:45.763Z</time></trkpt><trkpt lat="43.502535" lon="13.08093"><ele>339.0</ele><time>2026-04-19T15:01:46.761Z</time></trkpt><trkpt lat="43.5023967" lon="13.0808683"><ele>339.0</ele><time>2026-04-19T15:01:47.762Z</time></trkpt><trkpt lat="43.5022633" lon="13.0808083"><ele>339.0</ele><time>2026-04-19T15:01:48.761Z</time></trkpt><trkpt lat="43.5021433" lon="13.0807283"><ele>339.0</ele><time>2026-04-19T15:01:49.763Z</time></trkpt><trkpt lat="43.502025" lon="13.0806483"><ele>339.0</ele><time>2026-04-19T15:01:50.762Z</time></trkpt><trkpt lat="43.5019167" lon="13.0805717"><ele>340.0</ele><time>2026-04-19T15:01:51.763Z</time></trkpt><trkpt lat="43.501835" lon="13.0804983"><ele>341.0</ele><time>2026-04-19T15:01:52.76Z</time></trkpt><trkpt lat="43.501775" lon="13.0804567"><ele>342.0</ele><time>2026-04-19T15:01:53.761Z</time></trkpt><trkpt lat="43.50171" lon="13.08039"><ele>343.0</ele><time>2026-04-19T15:01:55.762Z</time></trkpt><trkpt lat="43.501725" lon="13.0802817"><ele>344.0</ele><time>2026-04-19T15:01:57.762Z</time></trkpt><trkpt lat="43.5017767" lon="13.0802183"><ele>345.0</ele><time>2026-04-19T15:01:58.763Z</time></trkpt><trkpt lat="43.50185" lon="13.0801383"><ele>345.0</ele><time>2026-04-19T15:01:59.76Z</time></trkpt><trkpt lat="43.5019617" lon="13.0800433"><ele>345.0</ele><time>2026-04-19T15:02:00.76Z</time></trkpt><trkpt lat="43.5020883" lon="13.0799333"><ele>345.0</ele><time>2026-04-19T15:02:01.761Z</time></trkpt><trkpt lat="43.5022333" lon="13.0798217"><ele>345.0</ele><time>2026-04-19T15:02:02.762Z</time></trkpt><trkpt lat="43.5023917" lon="13.0797"><ele>344.0</ele><time>2026-04-19T15:02:03.766Z</time></trkpt><trkpt lat="43.5025567" lon="13.0795733"><ele>343.0</ele><time>2026-04-19T15:02:04.761Z</time></trkpt><trkpt lat="43.5027217" lon="13.0794533"><ele>342.0</ele><time>2026-04-19T15:02:05.761Z</time></trkpt><trkpt lat="43.5028733" lon="13.07935"><ele>344.0</ele><time>2026-04-19T15:02:06.761Z</time></trkpt><trkpt lat="43.5030067" lon="13.079255"><ele>346.0</ele><time>2026-04-19T15:02:07.762Z</time></trkpt><trkpt lat="43.50313" lon="13.0791617"><ele>348.0</ele><time>2026-04-19T15:02:08.764Z</time></trkpt><trkpt lat="43.503245" lon="13.0790683"><ele>350.0</ele><time>2026-04-19T15:02:09.761Z</time></trkpt><trkpt lat="43.5033517" lon="13.0789617"><ele>350.0</ele><time>2026-04-19T15:02:10.76Z</time></trkpt><trkpt lat="43.503435" lon="13.0788383"><ele>350.0</ele><time>2026-04-19T15:02:11.761Z</time></trkpt><trkpt lat="43.5034983" lon="13.0787067"><ele>350.0</ele><time>2026-04-19T15:02:12.76Z</time></trkpt><trkpt lat="43.50355" lon="13.0785633"><ele>350.0</ele><time>2026-04-19T15:02:13.761Z</time></trkpt><trkpt lat="43.5036067" lon="13.0784217"><ele>350.0</ele><time>2026-04-19T15:02:14.762Z</time></trkpt><trkpt lat="43.503665" lon="13.0782867"><ele>350.0</ele><time>2026-04-19T15:02:15.76Z</time></trkpt><trkpt lat="43.5037167" lon="13.078155"><ele>350.0</ele><time>2026-04-19T15:02:16.763Z</time></trkpt><trkpt lat="43.503765" lon="13.078035"><ele>350.0</ele><time>2026-04-19T15:02:17.762Z</time></trkpt><trkpt lat="43.5038083" lon="13.07793"><ele>350.0</ele><time>2026-04-19T15:02:18.765Z</time></trkpt><trkpt lat="43.5038483" lon="13.077835"><ele>349.5</ele><time>2026-04-19T15:02:19.761Z</time></trkpt><trkpt lat="43.503875" lon="13.0777533"><ele>349.0</ele><time>2026-04-19T15:02:20.761Z</time></trkpt><trkpt lat="43.5039017" lon="13.0776433"><ele>348.5</ele><time>2026-04-19T15:02:22.761Z</time></trkpt><trkpt lat="43.5039517" lon="13.0775217"><ele>348.0</ele><time>2026-04-19T15:02:24.761Z</time></trkpt><trkpt lat="43.50399" lon="13.0774317"><ele>347.5</ele><time>2026-04-19T15:02:25.763Z</time></trkpt><trkpt lat="43.5040417" lon="13.0773183"><ele>347.0</ele><time>2026-04-19T15:02:26.762Z</time></trkpt><trkpt lat="43.5041117" lon="13.0771667"><ele>347.0</ele><time>2026-04-19T15:02:27.762Z</time></trkpt><trkpt lat="43.5041833" lon="13.0770033"><ele>347.0</ele><time>2026-04-19T15:02:28.761Z</time></trkpt><trkpt lat="43.5042633" lon="13.0768317"><ele>347.0</ele><time>2026-04-19T15:02:29.761Z</time></trkpt><trkpt lat="43.50435" lon="13.0766633"><ele>347.0</ele><time>2026-04-19T15:02:30.76Z</time></trkpt><trkpt lat="43.5044467" lon="13.0765033"><ele>350.0</ele><time>2026-04-19T15:02:31.764Z</time></trkpt><trkpt lat="43.5045533" lon="13.0763617"><ele>353.0</ele><time>2026-04-19T15:02:32.762Z</time></trkpt><trkpt lat="43.50469" lon="13.0762467"><ele>356.0</ele><time>2026-04-19T15:02:33.763Z</time></trkpt><trkpt lat="43.5048483" lon="13.0761567"><ele>356.0</ele><time>2026-04-19T15:02:34.762Z</time></trkpt><trkpt lat="43.5050233" lon="13.076075"><ele>356.0</ele><time>2026-04-19T15:02:35.761Z</time></trkpt><trkpt lat="43.5052067" lon="13.07599"><ele>356.0</ele><time>2026-04-19T15:02:36.762Z</time></trkpt><trkpt lat="43.5053783" lon="13.0759167"><ele>352.6666666666667</ele><time>2026-04-19T15:02:37.76Z</time></trkpt><trkpt lat="43.5055317" lon="13.075845"><ele>349.3333333333333</ele><time>2026-04-19T15:02:38.76Z</time></trkpt><trkpt lat="43.5056833" lon="13.0757583"><ele>346.0</ele><time>2026-04-19T15:02:39.76Z</time></trkpt><trkpt lat="43.5058383" lon="13.07564"><ele>348.3333333333333</ele><time>2026-04-19T15:02:40.759Z</time></trkpt><trkpt lat="43.5059983" lon="13.075495"><ele>350.6666666666667</ele><time>2026-04-19T15:02:41.762Z</time></trkpt><trkpt lat="43.5061567" lon="13.0753383"><ele>353.0</ele><time>2026-04-19T15:02:42.76Z</time></trkpt><trkpt lat="43.5063133" lon="13.07517"><ele>353.0</ele><time>2026-04-19T15:02:43.764Z</time></trkpt><trkpt lat="43.5064633" lon="13.0750033"><ele>353.0</ele><time>2026-04-19T15:02:44.762Z</time></trkpt><trkpt lat="43.5066" lon="13.0748567"><ele>353.0</ele><time>2026-04-19T15:02:45.761Z</time></trkpt><trkpt lat="43.5067167" lon="13.0747233"><ele>358.75</ele><time>2026-04-19T15:02:46.76Z</time></trkpt><trkpt lat="43.5068233" lon="13.0746133"><ele>364.5</ele><time>2026-04-19T15:02:47.76Z</time></trkpt><trkpt lat="43.5069217" lon="13.074535"><ele>370.25</ele><time>2026-04-19T15:02:48.761Z</time></trkpt><trkpt lat="43.507025" lon="13.0744933"><ele>376.0</ele><time>2026-04-19T15:02:49.761Z</time></trkpt><trkpt lat="43.50714" lon="13.07448"><ele>376.0</ele><time>2026-04-19T15:02:50.76Z</time></trkpt><trkpt lat="43.50726" lon="13.0744867"><ele>376.0</ele><time>2026-04-19T15:02:51.76Z</time></trkpt><trkpt lat="43.507375" lon="13.0744967"><ele>376.0</ele><time>2026-04-19T15:02:52.761Z</time></trkpt><trkpt lat="43.50749" lon="13.0745033"><ele>376.0</ele><time>2026-04-19T15:02:53.765Z</time></trkpt><trkpt lat="43.5075933" lon="13.07451"><ele>376.0</ele><time>2026-04-19T15:02:54.762Z</time></trkpt><trkpt lat="43.5076933" lon="13.0745183"><ele>376.0</ele><time>2026-04-19T15:02:55.76Z</time></trkpt><trkpt lat="43.5077817" lon="13.0745317"><ele>376.0</ele><time>2026-04-19T15:02:56.764Z</time></trkpt><trkpt lat="43.5078717" lon="13.0745433"><ele>376.0</ele><time>2026-04-19T15:02:57.761Z</time></trkpt><trkpt lat="43.5079583" lon="13.0745517"><ele>376.0</ele><time>2026-04-19T15:02:58.761Z</time></trkpt><trkpt lat="43.5080533" lon="13.0745533"><ele>378.5</ele><time>2026-04-19T15:02:59.761Z</time></trkpt><trkpt lat="43.5081833" lon="13.0745633"><ele>381.0</ele><time>2026-04-19T15:03:00.762Z</time></trkpt><trkpt lat="43.5083183" lon="13.0745733"><ele>383.5</ele><time>2026-04-19T15:03:01.76Z</time></trkpt><trkpt lat="43.50847" lon="13.0745717"><ele>386.0</ele><time>2026-04-19T15:03:02.762Z</time></trkpt><trkpt lat="43.5086367" lon="13.07453"><ele>387.66666666666663</ele><time>2026-04-19T15:03:03.761Z</time></trkpt><trkpt lat="43.5088033" lon="13.0744717"><ele>389.33333333333337</ele><time>2026-04-19T15:03:04.761Z</time></trkpt><trkpt lat="43.5089667" lon="13.0744417"><ele>391.0</ele><time>2026-04-19T15:03:05.761Z</time></trkpt><trkpt lat="43.5091283" lon="13.0744433"><ele>391.0</ele><time>2026-04-19T15:03:06.76Z</time></trkpt><trkpt lat="43.5092983" lon="13.074465"><ele>391.0</ele><time>2026-04-19T15:03:07.76Z</time></trkpt><trkpt lat="43.5094667" lon="13.0745033"><ele>391.0</ele><time>2026-04-19T15:03:08.76Z</time></trkpt><trkpt lat="43.5096217" lon="13.0745483"><ele>392.5</ele><time>2026-04-19T15:03:09.76Z</time></trkpt><trkpt lat="43.50976" lon="13.0745933"><ele>394.0</ele><time>2026-04-19T15:03:10.761Z</time></trkpt><trkpt lat="43.509885" lon="13.0746433"><ele>395.5</ele><time>2026-04-19T15:03:11.76Z</time></trkpt><trkpt lat="43.5100083" lon="13.074695"><ele>397.0</ele><time>2026-04-19T15:03:12.761Z</time></trkpt><trkpt lat="43.510125" lon="13.0747517"><ele>397.0</ele><time>2026-04-19T15:03:13.763Z</time></trkpt><trkpt lat="43.510235" lon="13.074805"><ele>397.0</ele><time>2026-04-19T15:03:14.763Z</time></trkpt><trkpt lat="43.5103383" lon="13.0748517"><ele>397.0</ele><time>2026-04-19T15:03:15.761Z</time></trkpt><trkpt lat="43.510435" lon="13.074895"><ele>397.0</ele><time>2026-04-19T15:03:16.76Z</time></trkpt><trkpt lat="43.51052" lon="13.0749433"><ele>397.0</ele><time>2026-04-19T15:03:17.76Z</time></trkpt><trkpt lat="43.5106017" lon="13.0749917"><ele>395.33333333333337</ele><time>2026-04-19T15:03:18.764Z</time></trkpt><trkpt lat="43.5106817" lon="13.0750383"><ele>393.6666666666667</ele><time>2026-04-19T15:03:19.763Z</time></trkpt><trkpt lat="43.510755" lon="13.0750817"><ele>392.0</ele><time>2026-04-19T15:03:20.761Z</time></trkpt><trkpt lat="43.5108217" lon="13.07512"><ele>390.33333333333337</ele><time>2026-04-19T15:03:21.762Z</time></trkpt><trkpt lat="43.5109233" lon="13.0751683"><ele>388.6666666666667</ele><time>2026-04-19T15:03:23.765Z</time></trkpt><trkpt lat="43.5110183" lon="13.0751517"><ele>387.0</ele><time>2026-04-19T15:03:25.764Z</time></trkpt><trkpt lat="43.5110883" lon="13.07511"><ele>387.0</ele><time>2026-04-19T15:03:28.762Z</time></trkpt><trkpt lat="43.5110117" lon="13.0750733"><ele>387.0</ele><time>2026-04-19T15:03:34.762Z</time></trkpt><trkpt lat="43.5109017" lon="13.07511"><ele>387.0</ele><time>2026-04-19T15:03:36.761Z</time></trkpt><trkpt lat="43.5108217" lon="13.0751167"><ele>387.0</ele><time>2026-04-19T15:03:38.765Z</time></trkpt><trkpt lat="43.5107833" lon="13.075215"><ele>387.0</ele><time>2026-04-19T15:03:41.765Z</time></trkpt><trkpt lat="43.5108417" lon="13.075295"><ele>387.0</ele><time>2026-04-19T15:03:43.761Z</time></trkpt><trkpt lat="43.5108867" lon="13.0754117"><ele>387.0</ele><time>2026-04-19T15:03:45.76Z</time></trkpt><trkpt lat="43.5109033" lon="13.0755767"><ele>387.0</ele><time>2026-04-19T15:03:47.76Z</time></trkpt><trkpt lat="43.510905" lon="13.07567"><ele>387.0</ele><time>2026-04-19T15:03:48.762Z</time></trkpt><trkpt lat="43.510905" lon="13.0757867"><ele>387.0</ele><time>2026-04-19T15:03:49.764Z</time></trkpt><trkpt lat="43.5109083" lon="13.0759133"><ele>387.0</ele><time>2026-04-19T15:03:50.762Z</time></trkpt><trkpt lat="43.51092" lon="13.0760533"><ele>385.0</ele><time>2026-04-19T15:03:51.76Z</time></trkpt><trkpt lat="43.5109333" lon="13.07619"><ele>383.0</ele><time>2026-04-19T15:03:52.762Z</time></trkpt><trkpt lat="43.5109717" lon="13.076335"><ele>381.0</ele><time>2026-04-19T15:03:53.761Z</time></trkpt><trkpt lat="43.5110233" lon="13.0764817"><ele>379.0</ele><time>2026-04-19T15:03:54.763Z</time></trkpt><trkpt lat="43.51107" lon="13.0766183"><ele>377.0</ele><time>2026-04-19T15:03:55.761Z</time></trkpt><trkpt lat="43.51112" lon="13.0767483"><ele>378.20000000000005</ele><time>2026-04-19T15:03:56.761Z</time></trkpt><trkpt lat="43.51118" lon="13.0768683"><ele>379.4</ele><time>2026-04-19T15:03:57.761Z</time></trkpt><trkpt lat="43.5112433" lon="13.076975"><ele>380.6</ele><time>2026-04-19T15:03:58.759Z</time></trkpt><trkpt lat="43.5113" lon="13.0770717"><ele>381.79999999999995</ele><time>2026-04-19T15:03:59.76Z</time></trkpt><trkpt lat="43.511365" lon="13.07715"><ele>383.0</ele><time>2026-04-19T15:04:00.761Z</time></trkpt><trkpt lat="43.51144" lon="13.077205"><ele>383.0</ele><time>2026-04-19T15:04:01.76Z</time></trkpt><trkpt lat="43.511505" lon="13.0772317"><ele>383.0</ele><time>2026-04-19T15:04:02.761Z</time></trkpt><trkpt lat="43.511595" lon="13.07723"><ele>383.0</ele><time>2026-04-19T15:04:04.76Z</time></trkpt><trkpt lat="43.5117" lon="13.0771917"><ele>383.0</ele><time>2026-04-19T15:04:06.76Z</time></trkpt><trkpt lat="43.5117717" lon="13.077155"><ele>383.0</ele><time>2026-04-19T15:04:07.76Z</time></trkpt><trkpt lat="43.5118517" lon="13.0771017"><ele>383.0</ele><time>2026-04-19T15:04:08.76Z</time></trkpt><trkpt lat="43.51193" lon="13.077035"><ele>383.0</ele><time>2026-04-19T15:04:09.76Z</time></trkpt><trkpt lat="43.5119967" lon="13.0769417"><ele>383.0</ele><time>2026-04-19T15:04:10.761Z</time></trkpt><trkpt lat="43.51205" lon="13.076835"><ele>383.0</ele><time>2026-04-19T15:04:11.76Z</time></trkpt><trkpt lat="43.5120867" lon="13.0767267"><ele>383.0</ele><time>2026-04-19T15:04:12.762Z</time></trkpt><trkpt lat="43.5121067" lon="13.0766167"><ele>383.0</ele><time>2026-04-19T15:04:13.76Z</time></trkpt><trkpt lat="43.5121067" lon="13.0765017"><ele>383.0</ele><time>2026-04-19T15:04:14.76Z</time></trkpt><trkpt lat="43.5120933" lon="13.07639"><ele>383.5</ele><time>2026-04-19T15:04:15.761Z</time></trkpt><trkpt lat="43.512075" lon="13.0762767"><ele>384.0</ele><time>2026-04-19T15:04:16.759Z</time></trkpt><trkpt lat="43.5120417" lon="13.0761583"><ele>384.5</ele><time>2026-04-19T15:04:17.761Z</time></trkpt><trkpt lat="43.5120033" lon="13.0760417"><ele>385.0</ele><time>2026-04-19T15:04:18.762Z</time></trkpt><trkpt lat="43.511965" lon="13.0759317"><ele>385.49999999999994</ele><time>2026-04-19T15:04:19.76Z</time></trkpt><trkpt lat="43.5119167" lon="13.075835"><ele>386.0</ele><time>2026-04-19T15:04:20.762Z</time></trkpt><trkpt lat="43.5118683" lon="13.075745"><ele>384.16666666666663</ele><time>2026-04-19T15:04:21.76Z</time></trkpt><trkpt lat="43.5118117" lon="13.07567"><ele>382.3333333333333</ele><time>2026-04-19T15:04:22.761Z</time></trkpt><trkpt lat="43.511755" lon="13.0755917"><ele>380.5</ele><time>2026-04-19T15:04:23.761Z</time></trkpt><trkpt lat="43.5116917" lon="13.07551"><ele>378.66666666666663</ele><time>2026-04-19T15:04:24.76Z</time></trkpt><trkpt lat="43.5116217" lon="13.0754267"><ele>376.8333333333333</ele><time>2026-04-19T15:04:25.761Z</time></trkpt><trkpt lat="43.5115483" lon="13.075345"><ele>375.0</ele><time>2026-04-19T15:04:26.762Z</time></trkpt><trkpt lat="43.5114733" lon="13.0752733"><ele>375.0</ele><time>2026-04-19T15:04:27.762Z</time></trkpt><trkpt lat="43.5113933" lon="13.07521"><ele>375.0</ele><time>2026-04-19T15:04:28.76Z</time></trkpt><trkpt lat="43.5113117" lon="13.0751683"><ele>375.0</ele><time>2026-04-19T15:04:29.762Z</time></trkpt><trkpt lat="43.5112367" lon="13.0751383"><ele>375.0</ele><time>2026-04-19T15:04:30.76Z</time></trkpt><trkpt lat="43.511145" lon="13.0751233"><ele>375.0</ele><time>2026-04-19T15:04:32.762Z</time></trkpt><trkpt lat="43.5110933" lon="13.0750483"><ele>375.0</ele><time>2026-04-19T15:04:35.761Z</time></trkpt><trkpt lat="43.511085" lon="13.074875"><ele>381.0</ele><time>2026-04-19T15:04:37.763Z</time></trkpt><trkpt lat="43.5110967" lon="13.0747317"><ele>387.0</ele><time>2026-04-19T15:04:38.762Z</time></trkpt><trkpt lat="43.51111" lon="13.0745317"><ele>393.0</ele><time>2026-04-19T15:04:39.761Z</time></trkpt><trkpt lat="43.51111" lon="13.07426"><ele>399.0</ele><time>2026-04-19T15:04:40.76Z</time></trkpt><trkpt lat="43.5111067" lon="13.07402"><ele>401.66666666666663</ele><time>2026-04-19T15:04:41.761Z</time></trkpt><trkpt lat="43.5111067" lon="13.0737633"><ele>404.3333333333333</ele><time>2026-04-19T15:04:42.763Z</time></trkpt><trkpt lat="43.51111" lon="13.073535"><ele>407.0</ele><time>2026-04-19T15:04:43.761Z</time></trkpt><trkpt lat="43.5111067" lon="13.0733217"><ele>408.25</ele><time>2026-04-19T15:04:44.762Z</time></trkpt><trkpt lat="43.5111033" lon="13.0731017"><ele>409.5</ele><time>2026-04-19T15:04:45.762Z</time></trkpt><trkpt lat="43.5111017" lon="13.07291"><ele>410.75</ele><time>2026-04-19T15:04:46.76Z</time></trkpt><trkpt lat="43.5110983" lon="13.0727283"><ele>412.0</ele><time>2026-04-19T15:04:47.763Z</time></trkpt><trkpt lat="43.5110867" lon="13.0725617"><ele>411.0</ele><time>2026-04-19T15:04:48.763Z</time></trkpt><trkpt lat="43.51106" lon="13.07241"><ele>410.0</ele><time>2026-04-19T15:04:49.761Z</time></trkpt><trkpt lat="43.511015" lon="13.07227"><ele>409.0</ele><time>2026-04-19T15:04:50.762Z</time></trkpt><trkpt lat="43.510935" lon="13.07214"><ele>408.0</ele><time>2026-04-19T15:04:51.764Z</time></trkpt><trkpt lat="43.510825" lon="13.0720533"><ele>408.0</ele><time>2026-04-19T15:04:52.76Z</time></trkpt><trkpt lat="43.510695" lon="13.0719917"><ele>408.0</ele><time>2026-04-19T15:04:53.761Z</time></trkpt><trkpt lat="43.5105533" lon="13.071935"><ele>408.0</ele><time>2026-04-19T15:04:54.76Z</time></trkpt><trkpt lat="43.51041" lon="13.071875"><ele>408.0</ele><time>2026-04-19T15:04:55.76Z</time></trkpt><trkpt lat="43.510255" lon="13.0718167"><ele>409.0</ele><time>2026-04-19T15:04:56.764Z</time></trkpt><trkpt lat="43.51009" lon="13.0717583"><ele>410.0</ele><time>2026-04-19T15:04:57.761Z</time></trkpt><trkpt lat="43.5099317" lon="13.0717033"><ele>411.0</ele><time>2026-04-19T15:04:58.761Z</time></trkpt><trkpt lat="43.5097933" lon="13.0716467"><ele>411.0</ele><time>2026-04-19T15:04:59.759Z</time></trkpt><trkpt lat="43.509665" lon="13.0716017"><ele>411.0</ele><time>2026-04-19T15:05:00.759Z</time></trkpt><trkpt lat="43.5095467" lon="13.07158"><ele>411.0</ele><time>2026-04-19T15:05:01.76Z</time></trkpt><trkpt lat="43.5094333" lon="13.071585"><ele>411.0</ele><time>2026-04-19T15:05:02.761Z</time></trkpt><trkpt lat="43.5093167" lon="13.0716333"><ele>411.0</ele><time>2026-04-19T15:05:03.76Z</time></trkpt><trkpt lat="43.5092017" lon="13.0717283"><ele>411.0</ele><time>2026-04-19T15:05:04.761Z</time></trkpt><trkpt lat="43.509085" lon="13.071855"><ele>411.0</ele><time>2026-04-19T15:05:05.762Z</time></trkpt><trkpt lat="43.5089667" lon="13.071995"><ele>411.0</ele><time>2026-04-19T15:05:06.764Z</time></trkpt><trkpt lat="43.50885" lon="13.07213"><ele>411.0</ele><time>2026-04-19T15:05:07.762Z</time></trkpt><trkpt lat="43.5087417" lon="13.07225"><ele>411.0</ele><time>2026-04-19T15:05:08.762Z</time></trkpt><trkpt lat="43.50863" lon="13.07235"><ele>411.0</ele><time>2026-04-19T15:05:09.766Z</time></trkpt><trkpt lat="43.5085" lon="13.0724283"><ele>411.0</ele><time>2026-04-19T15:05:10.761Z</time></trkpt><trkpt lat="43.508355" lon="13.0724833"><ele>411.0</ele><time>2026-04-19T15:05:11.763Z</time></trkpt><trkpt lat="43.5081933" lon="13.0725167"><ele>411.0</ele><time>2026-04-19T15:05:12.765Z</time></trkpt><trkpt lat="43.5080283" lon="13.072545"><ele>411.0</ele><time>2026-04-19T15:05:13.762Z</time></trkpt><trkpt lat="43.5078683" lon="13.0725633"><ele>410.75</ele><time>2026-04-19T15:05:14.762Z</time></trkpt><trkpt lat="43.5077217" lon="13.0725867"><ele>410.5</ele><time>2026-04-19T15:05:15.761Z</time></trkpt><trkpt lat="43.5075767" lon="13.0726117"><ele>410.25</ele><time>2026-04-19T15:05:16.762Z</time></trkpt><trkpt lat="43.5074383" lon="13.0726233"><ele>410.0</ele><time>2026-04-19T15:05:17.76Z</time></trkpt><trkpt lat="43.507305" lon="13.07261"><ele>410.0</ele><time>2026-04-19T15:05:18.761Z</time></trkpt><trkpt lat="43.5071733" lon="13.0725683"><ele>410.0</ele><time>2026-04-19T15:05:19.762Z</time></trkpt><trkpt lat="43.5070417" lon="13.0725033"><ele>410.0</ele><time>2026-04-19T15:05:20.765Z</time></trkpt><trkpt lat="43.506905" lon="13.0724083"><ele>410.0</ele><time>2026-04-19T15:05:21.763Z</time></trkpt><trkpt lat="43.506765" lon="13.0723017"><ele>409.0</ele><time>2026-04-19T15:05:22.761Z</time></trkpt><trkpt lat="43.5066183" lon="13.0721933"><ele>408.0</ele><time>2026-04-19T15:05:23.763Z</time></trkpt><trkpt lat="43.506465" lon="13.0720817"><ele>407.0</ele><time>2026-04-19T15:05:24.763Z</time></trkpt><trkpt lat="43.5063117" lon="13.071965"><ele>406.75</ele><time>2026-04-19T15:05:25.764Z</time></trkpt><trkpt lat="43.5061717" lon="13.0718567"><ele>406.5</ele><time>2026-04-19T15:05:26.763Z</time></trkpt><trkpt lat="43.5060417" lon="13.0717683"><ele>406.25</ele><time>2026-04-19T15:05:27.762Z</time></trkpt><trkpt lat="43.5059217" lon="13.0716917"><ele>406.0</ele><time>2026-04-19T15:05:28.762Z</time></trkpt><trkpt lat="43.5058067" lon="13.0716383"><ele>406.25</ele><time>2026-04-19T15:05:29.765Z</time></trkpt><trkpt lat="43.50569" lon="13.0715833"><ele>406.5</ele><time>2026-04-19T15:05:30.765Z</time></trkpt><trkpt lat="43.5055783" lon="13.0715233"><ele>406.75</ele><time>2026-04-19T15:05:31.763Z</time></trkpt><trkpt lat="43.50547" lon="13.0714417"><ele>407.0</ele><time>2026-04-19T15:05:32.763Z</time></trkpt><trkpt lat="43.5053633" lon="13.071325"><ele>406.3333333333333</ele><time>2026-04-19T15:05:33.762Z</time></trkpt><trkpt lat="43.5052567" lon="13.071175"><ele>405.66666666666663</ele><time>2026-04-19T15:05:34.762Z</time></trkpt><trkpt lat="43.5051517" lon="13.071005"><ele>405.0</ele><time>2026-04-19T15:05:35.762Z</time></trkpt><trkpt lat="43.5050367" lon="13.0708183"><ele>405.33333333333337</ele><time>2026-04-19T15:05:36.764Z</time></trkpt><trkpt lat="43.504915" lon="13.070625"><ele>405.6666666666667</ele><time>2026-04-19T15:05:37.763Z</time></trkpt><trkpt lat="43.50478" lon="13.0704367"><ele>406.0</ele><time>2026-04-19T15:05:38.762Z</time></trkpt><trkpt lat="43.504635" lon="13.0702517"><ele>404.6666666666667</ele><time>2026-04-19T15:05:39.761Z</time></trkpt><trkpt lat="43.5044683" lon="13.0700683"><ele>403.33333333333337</ele><time>2026-04-19T15:05:40.762Z</time></trkpt><trkpt lat="43.504295" lon="13.069885"><ele>402.0</ele><time>2026-04-19T15:05:41.761Z</time></trkpt><trkpt lat="43.5041217" lon="13.06971"><ele>402.0</ele><time>2026-04-19T15:05:42.761Z</time></trkpt><trkpt lat="43.50396" lon="13.0695333"><ele>402.0</ele><time>2026-04-19T15:05:43.763Z</time></trkpt><trkpt lat="43.5038083" lon="13.069345"><ele>402.0</ele><time>2026-04-19T15:05:44.763Z</time></trkpt><trkpt lat="43.5036717" lon="13.0691317"><ele>404.66666666666663</ele><time>2026-04-19T15:05:45.761Z</time></trkpt><trkpt lat="43.5035483" lon="13.0688983"><ele>407.3333333333333</ele><time>2026-04-19T15:05:46.761Z</time></trkpt><trkpt lat="43.5034433" lon="13.0686683"><ele>410.0</ele><time>2026-04-19T15:05:47.761Z</time></trkpt><trkpt lat="43.5033517" lon="13.0684667"><ele>410.0</ele><time>2026-04-19T15:05:48.767Z</time></trkpt><trkpt lat="43.503275" lon="13.068285"><ele>410.0</ele><time>2026-04-19T15:05:49.762Z</time></trkpt><trkpt lat="43.5032067" lon="13.0681067"><ele>410.0</ele><time>2026-04-19T15:05:50.761Z</time></trkpt><trkpt lat="43.5031433" lon="13.0679267"><ele>410.0</ele><time>2026-04-19T15:05:51.765Z</time></trkpt><trkpt lat="43.50308" lon="13.0677383"><ele>409.0</ele><time>2026-04-19T15:05:52.762Z</time></trkpt><trkpt lat="43.5030117" lon="13.0675283"><ele>408.0</ele><time>2026-04-19T15:05:53.764Z</time></trkpt><trkpt lat="43.5029433" lon="13.0673"><ele>407.0</ele><time>2026-04-19T15:05:54.76Z</time></trkpt><trkpt lat="43.50287" lon="13.067065"><ele>407.0</ele><time>2026-04-19T15:05:55.761Z</time></trkpt><trkpt lat="43.5027917" lon="13.0668167"><ele>407.0</ele><time>2026-04-19T15:05:56.761Z</time></trkpt><trkpt lat="43.502715" lon="13.066565"><ele>407.0</ele><time>2026-04-19T15:05:57.76Z</time></trkpt><trkpt lat="43.5026417" lon="13.0663217"><ele>406.3333333333333</ele><time>2026-04-19T15:05:58.761Z</time></trkpt><trkpt lat="43.5025717" lon="13.0660883"><ele>405.66666666666663</ele><time>2026-04-19T15:05:59.763Z</time></trkpt><trkpt lat="43.5025017" lon="13.0658667"><ele>405.0</ele><time>2026-04-19T15:06:00.763Z</time></trkpt><trkpt lat="43.502435" lon="13.0656567"><ele>404.5</ele><time>2026-04-19T15:06:01.761Z</time></trkpt><trkpt lat="43.5023733" lon="13.0654567"><ele>404.0</ele><time>2026-04-19T15:06:02.761Z</time></trkpt><trkpt lat="43.5023167" lon="13.065275"><ele>403.5</ele><time>2026-04-19T15:06:03.761Z</time></trkpt><trkpt lat="43.502265" lon="13.0651183"><ele>403.0</ele><time>2026-04-19T15:06:04.761Z</time></trkpt><trkpt lat="43.5022283" lon="13.06498"><ele>402.5</ele><time>2026-04-19T15:06:05.761Z</time></trkpt><trkpt lat="43.50222" lon="13.0648433"><ele>402.0</ele><time>2026-04-19T15:06:06.76Z</time></trkpt><trkpt lat="43.5022483" lon="13.0646967"><ele>401.5</ele><time>2026-04-19T15:06:07.767Z</time></trkpt><trkpt lat="43.502305" lon="13.064535"><ele>401.0</ele><time>2026-04-19T15:06:08.762Z</time></trkpt><trkpt lat="43.5023767" lon="13.0643483"><ele>401.0</ele><time>2026-04-19T15:06:09.76Z</time></trkpt><trkpt lat="43.5024567" lon="13.0641317"><ele>401.0</ele><time>2026-04-19T15:06:10.761Z</time></trkpt><trkpt lat="43.50254" lon="13.0639133"><ele>401.0</ele><time>2026-04-19T15:06:11.764Z</time></trkpt><trkpt lat="43.5026183" lon="13.06371"><ele>400.5</ele><time>2026-04-19T15:06:12.764Z</time></trkpt><trkpt lat="43.5026967" lon="13.06353"><ele>400.0</ele><time>2026-04-19T15:06:13.76Z</time></trkpt><trkpt lat="43.502775" lon="13.063365"><ele>399.5</ele><time>2026-04-19T15:06:14.762Z</time></trkpt><trkpt lat="43.5028483" lon="13.0632"><ele>399.0</ele><time>2026-04-19T15:06:15.762Z</time></trkpt><trkpt lat="43.50292" lon="13.06304"><ele>399.0</ele><time>2026-04-19T15:06:16.761Z</time></trkpt><trkpt lat="43.50297" lon="13.0628717"><ele>399.0</ele><time>2026-04-19T15:06:17.762Z</time></trkpt><trkpt lat="43.5029967" lon="13.0626783"><ele>399.0</ele><time>2026-04-19T15:06:18.761Z</time></trkpt><trkpt lat="43.5030083" lon="13.062465"><ele>399.0</ele><time>2026-04-19T15:06:19.76Z</time></trkpt><trkpt lat="43.50301" lon="13.0622267"><ele>399.66666666666663</ele><time>2026-04-19T15:06:20.765Z</time></trkpt><trkpt lat="43.5030133" lon="13.06197"><ele>400.3333333333333</ele><time>2026-04-19T15:06:21.762Z</time></trkpt><trkpt lat="43.5030267" lon="13.0617133"><ele>401.0</ele><time>2026-04-19T15:06:22.761Z</time></trkpt><trkpt lat="43.5030433" lon="13.061465"><ele>402.66666666666663</ele><time>2026-04-19T15:06:23.762Z</time></trkpt><trkpt lat="43.5030717" lon="13.0612233"><ele>404.33333333333337</ele><time>2026-04-19T15:06:24.764Z</time></trkpt><trkpt lat="43.5031183" lon="13.0609983"><ele>406.0</ele><time>2026-04-19T15:06:25.76Z</time></trkpt><trkpt lat="43.5031967" lon="13.06079"><ele>407.0</ele><time>2026-04-19T15:06:26.762Z</time></trkpt><trkpt lat="43.5033017" lon="13.0605883"><ele>408.0</ele><time>2026-04-19T15:06:27.761Z</time></trkpt><trkpt lat="43.5034183" lon="13.06038"><ele>409.0</ele><time>2026-04-19T15:06:28.761Z</time></trkpt><trkpt lat="43.5035383" lon="13.0601717"><ele>409.0</ele><time>2026-04-19T15:06:29.762Z</time></trkpt><trkpt lat="43.5036517" lon="13.059975"><ele>409.0</ele><time>2026-04-19T15:06:30.761Z</time></trkpt><trkpt lat="43.5037583" lon="13.0597883"><ele>409.0</ele><time>2026-04-19T15:06:31.761Z</time></trkpt><trkpt lat="43.503865" lon="13.0596033"><ele>408.6666666666667</ele><time>2026-04-19T15:06:32.761Z</time></trkpt><trkpt lat="43.50396" lon="13.05942"><ele>408.33333333333337</ele><time>2026-04-19T15:06:33.76Z</time></trkpt><trkpt lat="43.504035" lon="13.0592267"><ele>408.0</ele><time>2026-04-19T15:06:34.761Z</time></trkpt><trkpt lat="43.50408" lon="13.05902"><ele>408.0</ele><time>2026-04-19T15:06:35.763Z</time></trkpt><trkpt lat="43.5040933" lon="13.0587967"><ele>408.0</ele><time>2026-04-19T15:06:36.762Z</time></trkpt><trkpt lat="43.5040867" lon="13.0585617"><ele>408.0</ele><time>2026-04-19T15:06:37.761Z</time></trkpt><trkpt lat="43.5040683" lon="13.0583233"><ele>409.66666666666663</ele><time>2026-04-19T15:06:38.763Z</time></trkpt><trkpt lat="43.5040433" lon="13.0580833"><ele>411.3333333333333</ele><time>2026-04-19T15:06:39.761Z</time></trkpt><trkpt lat="43.5039983" lon="13.0578517"><ele>413.0</ele><time>2026-04-19T15:06:40.761Z</time></trkpt><trkpt lat="43.50392" lon="13.05762"><ele>414.3333333333333</ele><time>2026-04-19T15:06:41.761Z</time></trkpt><trkpt lat="43.503815" lon="13.0573883"><ele>415.66666666666663</ele><time>2026-04-19T15:06:42.762Z</time></trkpt><trkpt lat="43.5037017" lon="13.057155"><ele>417.0</ele><time>2026-04-19T15:06:43.76Z</time></trkpt><trkpt lat="43.5035817" lon="13.05691"><ele>417.0</ele><time>2026-04-19T15:06:44.76Z</time></trkpt><trkpt lat="43.503465" lon="13.0566533"><ele>417.0</ele><time>2026-04-19T15:06:45.76Z</time></trkpt><trkpt lat="43.5033567" lon="13.0563833"><ele>417.0</ele><time>2026-04-19T15:06:46.762Z</time></trkpt><trkpt lat="43.5032517" lon="13.05611"><ele>418.66666666666663</ele><time>2026-04-19T15:06:47.76Z</time></trkpt><trkpt lat="43.50315" lon="13.0558433"><ele>420.3333333333333</ele><time>2026-04-19T15:06:48.761Z</time></trkpt><trkpt lat="43.5030483" lon="13.0555817"><ele>422.0</ele><time>2026-04-19T15:06:49.76Z</time></trkpt><trkpt lat="43.5029533" lon="13.055335"><ele>422.0</ele><time>2026-04-19T15:06:50.76Z</time></trkpt><trkpt lat="43.5028667" lon="13.0550967"><ele>422.0</ele><time>2026-04-19T15:06:51.763Z</time></trkpt><trkpt lat="43.5027817" lon="13.0548617"><ele>422.0</ele><time>2026-04-19T15:06:52.761Z</time></trkpt><trkpt lat="43.5026967" lon="13.0546333"><ele>423.66666666666663</ele><time>2026-04-19T15:06:53.762Z</time></trkpt><trkpt lat="43.5026133" lon="13.054425"><ele>425.33333333333337</ele><time>2026-04-19T15:06:54.762Z</time></trkpt><trkpt lat="43.5025417" lon="13.0542367"><ele>427.0</ele><time>2026-04-19T15:06:55.762Z</time></trkpt><trkpt lat="43.50248" lon="13.054065"><ele>427.0</ele><time>2026-04-19T15:06:56.767Z</time></trkpt><trkpt lat="43.5024333" lon="13.0539133"><ele>427.00000000000006</ele><time>2026-04-19T15:06:57.761Z</time></trkpt><trkpt lat="43.5023967" lon="13.053785"><ele>427.00000000000006</ele><time>2026-04-19T15:06:58.76Z</time></trkpt><trkpt lat="43.5023667" lon="13.0536783"><ele>427.0</ele><time>2026-04-19T15:06:59.761Z</time></trkpt><trkpt lat="43.5023283" lon="13.0535867"><ele>427.0</ele><time>2026-04-19T15:07:00.764Z</time></trkpt><trkpt lat="43.5022683" lon="13.0535083"><ele>427.0</ele><time>2026-04-19T15:07:01.762Z</time></trkpt><trkpt lat="43.50219" lon="13.0534183"><ele>427.0</ele><time>2026-04-19T15:07:02.763Z</time></trkpt><trkpt lat="43.5021083" lon="13.053295"><ele>427.0</ele><time>2026-04-19T15:07:03.765Z</time></trkpt><trkpt lat="43.5020367" lon="13.053125"><ele>427.0</ele><time>2026-04-19T15:07:04.762Z</time></trkpt><trkpt lat="43.5019533" lon="13.0529417"><ele>430.0</ele><time>2026-04-19T15:07:05.762Z</time></trkpt><trkpt lat="43.5018483" lon="13.0527767"><ele>433.0</ele><time>2026-04-19T15:07:06.762Z</time></trkpt><trkpt lat="43.50171" lon="13.05264"><ele>436.0</ele><time>2026-04-19T15:07:07.762Z</time></trkpt><trkpt lat="43.5015733" lon="13.05252"><ele>437.5</ele><time>2026-04-19T15:07:08.763Z</time></trkpt><trkpt lat="43.5014417" lon="13.05241"><ele>439.0</ele><time>2026-04-19T15:07:09.765Z</time></trkpt><trkpt lat="43.5013183" lon="13.0522933"><ele>440.5</ele><time>2026-04-19T15:07:10.763Z</time></trkpt><trkpt lat="43.5012067" lon="13.0521683"><ele>442.0</ele><time>2026-04-19T15:07:11.763Z</time></trkpt><trkpt lat="43.5011217" lon="13.0520167"><ele>442.0</ele><time>2026-04-19T15:07:12.763Z</time></trkpt><trkpt lat="43.50106" lon="13.0518367"><ele>442.0</ele><time>2026-04-19T15:07:13.764Z</time></trkpt><trkpt lat="43.5010083" lon="13.05163"><ele>442.0</ele><time>2026-04-19T15:07:14.762Z</time></trkpt><trkpt lat="43.5009683" lon="13.0513967"><ele>442.0</ele><time>2026-04-19T15:07:15.763Z</time></trkpt><trkpt lat="43.500925" lon="13.0511533"><ele>442.0</ele><time>2026-04-19T15:07:16.762Z</time></trkpt><trkpt lat="43.5008733" lon="13.0509033"><ele>442.0</ele><time>2026-04-19T15:07:17.761Z</time></trkpt><trkpt lat="43.5008083" lon="13.0506467"><ele>442.0</ele><time>2026-04-19T15:07:18.761Z</time></trkpt><trkpt lat="43.5007483" lon="13.050395"><ele>442.0</ele><time>2026-04-19T15:07:19.761Z</time></trkpt><trkpt lat="43.5006883" lon="13.05015"><ele>442.0</ele><time>2026-04-19T15:07:20.761Z</time></trkpt><trkpt lat="43.500635" lon="13.0499133"><ele>442.33333333333337</ele><time>2026-04-19T15:07:21.763Z</time></trkpt><trkpt lat="43.500585" lon="13.0496833"><ele>442.66666666666663</ele><time>2026-04-19T15:07:22.766Z</time></trkpt><trkpt lat="43.50054" lon="13.0494583"><ele>443.0</ele><time>2026-04-19T15:07:23.763Z</time></trkpt><trkpt lat="43.5004917" lon="13.0492333"><ele>443.3333333333333</ele><time>2026-04-19T15:07:24.766Z</time></trkpt><trkpt lat="43.5004417" lon="13.049005"><ele>443.66666666666663</ele><time>2026-04-19T15:07:25.766Z</time></trkpt><trkpt lat="43.5003817" lon="13.0487783"><ele>444.0</ele><time>2026-04-19T15:07:26.764Z</time></trkpt><trkpt lat="43.5003083" lon="13.0485533"><ele>439.33333333333337</ele><time>2026-04-19T15:07:27.77Z</time></trkpt><trkpt lat="43.5002317" lon="13.0483233"><ele>434.6666666666667</ele><time>2026-04-19T15:07:28.763Z</time></trkpt><trkpt lat="43.5001533" lon="13.0480933"><ele>430.0</ele><time>2026-04-19T15:07:29.764Z</time></trkpt><trkpt lat="43.5000717" lon="13.0478617"><ele>430.0</ele><time>2026-04-19T15:07:30.763Z</time></trkpt><trkpt lat="43.4999767" lon="13.0476317"><ele>430.0</ele><time>2026-04-19T15:07:31.763Z</time></trkpt><trkpt lat="43.4998717" lon="13.0474083"><ele>430.0</ele><time>2026-04-19T15:07:32.765Z</time></trkpt><trkpt lat="43.4997533" lon="13.0471883"><ele>429.0</ele><time>2026-04-19T15:07:33.763Z</time></trkpt><trkpt lat="43.4996267" lon="13.0469617"><ele>428.0</ele><time>2026-04-19T15:07:34.762Z</time></trkpt><trkpt lat="43.4994883" lon="13.0467317"><ele>427.0</ele><time>2026-04-19T15:07:35.763Z</time></trkpt><trkpt lat="43.4993467" lon="13.0464933"><ele>427.0</ele><time>2026-04-19T15:07:36.762Z</time></trkpt><trkpt lat="43.4991967" lon="13.0462583"><ele>427.0</ele><time>2026-04-19T15:07:37.764Z</time></trkpt><trkpt lat="43.49903" lon="13.0460233"><ele>427.0</ele><time>2026-04-19T15:07:38.761Z</time></trkpt><trkpt lat="43.498855" lon="13.0457967"><ele>427.0</ele><time>2026-04-19T15:07:39.762Z</time></trkpt><trkpt lat="43.4986933" lon="13.0455833"><ele>425.0</ele><time>2026-04-19T15:07:40.76Z</time></trkpt><trkpt lat="43.4985433" lon="13.0453683"><ele>423.0</ele><time>2026-04-19T15:07:41.763Z</time></trkpt><trkpt lat="43.4983917" lon="13.04516"><ele>421.0</ele><time>2026-04-19T15:07:42.761Z</time></trkpt><trkpt lat="43.4982483" lon="13.04496"><ele>421.0</ele><time>2026-04-19T15:07:43.761Z</time></trkpt><trkpt lat="43.49812" lon="13.044775"><ele>421.0</ele><time>2026-04-19T15:07:44.762Z</time></trkpt><trkpt lat="43.4979983" lon="13.0446"><ele>421.0</ele><time>2026-04-19T15:07:45.761Z</time></trkpt><trkpt lat="43.4978683" lon="13.0444517"><ele>417.33333333333337</ele><time>2026-04-19T15:07:46.762Z</time></trkpt><trkpt lat="43.49772" lon="13.0443217"><ele>413.66666666666663</ele><time>2026-04-19T15:07:47.761Z</time></trkpt><trkpt lat="43.497555" lon="13.04422"><ele>410.0</ele><time>2026-04-19T15:07:48.761Z</time></trkpt><trkpt lat="43.49738" lon="13.0441267"><ele>408.3333333333333</ele><time>2026-04-19T15:07:49.761Z</time></trkpt><trkpt lat="43.4971983" lon="13.04405"><ele>406.66666666666663</ele><time>2026-04-19T15:07:50.761Z</time></trkpt><trkpt lat="43.4970183" lon="13.04397"><ele>405.0</ele><time>2026-04-19T15:07:51.76Z</time></trkpt><trkpt lat="43.4968483" lon="13.0438733"><ele>405.0</ele><time>2026-04-19T15:07:52.763Z</time></trkpt><trkpt lat="43.49669" lon="13.04375"><ele>405.0</ele><time>2026-04-19T15:07:53.761Z</time></trkpt><trkpt lat="43.496545" lon="13.0436067"><ele>405.0</ele><time>2026-04-19T15:07:54.762Z</time></trkpt><trkpt lat="43.4964083" lon="13.0434617"><ele>405.0</ele><time>2026-04-19T15:07:55.761Z</time></trkpt><trkpt lat="43.4962667" lon="13.0433317"><ele>405.0</ele><time>2026-04-19T15:07:56.761Z</time></trkpt><trkpt lat="43.4961183" lon="13.0432233"><ele>405.0</ele><time>2026-04-19T15:07:57.761Z</time></trkpt><trkpt lat="43.4959767" lon="13.0431267"><ele>406.66666666666663</ele><time>2026-04-19T15:07:58.762Z</time></trkpt><trkpt lat="43.4958433" lon="13.0430183"><ele>408.3333333333333</ele><time>2026-04-19T15:07:59.763Z</time></trkpt><trkpt lat="43.495715" lon="13.04288"><ele>410.0</ele><time>2026-04-19T15:08:00.761Z</time></trkpt><trkpt lat="43.4955967" lon="13.042715"><ele>410.0</ele><time>2026-04-19T15:08:01.761Z</time></trkpt><trkpt lat="43.495495" lon="13.0425217"><ele>410.0</ele><time>2026-04-19T15:08:02.761Z</time></trkpt><trkpt lat="43.4954067" lon="13.04231"><ele>410.0</ele><time>2026-04-19T15:08:03.762Z</time></trkpt><trkpt lat="43.4953317" lon="13.0420817"><ele>410.0</ele><time>2026-04-19T15:08:04.76Z</time></trkpt><trkpt lat="43.49527" lon="13.0418333"><ele>410.0</ele><time>2026-04-19T15:08:05.763Z</time></trkpt><trkpt lat="43.4952183" lon="13.04156"><ele>410.0</ele><time>2026-04-19T15:08:06.768Z</time></trkpt><trkpt lat="43.495165" lon="13.04127"><ele>410.0</ele><time>2026-04-19T15:08:07.766Z</time></trkpt><trkpt lat="43.4951" lon="13.040985"><ele>410.0</ele><time>2026-04-19T15:08:08.765Z</time></trkpt><trkpt lat="43.4950217" lon="13.040695"><ele>410.0</ele><time>2026-04-19T15:08:09.765Z</time></trkpt><trkpt lat="43.494935" lon="13.0404183"><ele>411.3333333333333</ele><time>2026-04-19T15:08:10.762Z</time></trkpt><trkpt lat="43.49486" lon="13.0401567"><ele>412.66666666666663</ele><time>2026-04-19T15:08:11.762Z</time></trkpt><trkpt lat="43.4948017" lon="13.039895"><ele>414.0</ele><time>2026-04-19T15:08:12.764Z</time></trkpt><trkpt lat="43.4947467" lon="13.0396417"><ele>414.0</ele><time>2026-04-19T15:08:13.763Z</time></trkpt><trkpt lat="43.49468" lon="13.0394033"><ele>414.0</ele><time>2026-04-19T15:08:14.762Z</time></trkpt><trkpt lat="43.4946083" lon="13.0391817"><ele>414.0</ele><time>2026-04-19T15:08:15.762Z</time></trkpt><trkpt lat="43.4945317" lon="13.0389617"><ele>411.0</ele><time>2026-04-19T15:08:16.761Z</time></trkpt><trkpt lat="43.494435" lon="13.0387383"><ele>408.0</ele><time>2026-04-19T15:08:17.763Z</time></trkpt><trkpt lat="43.4943317" lon="13.03854"><ele>405.0</ele><time>2026-04-19T15:08:18.764Z</time></trkpt><trkpt lat="43.4942283" lon="13.0383883"><ele>401.33333333333337</ele><time>2026-04-19T15:08:19.762Z</time></trkpt><trkpt lat="43.4941233" lon="13.0382567"><ele>397.6666666666667</ele><time>2026-04-19T15:08:20.762Z</time></trkpt><trkpt lat="43.4939933" lon="13.0381517"><ele>394.0</ele><time>2026-04-19T15:08:21.762Z</time></trkpt><trkpt lat="43.49384" lon="13.038065"><ele>397.0</ele><time>2026-04-19T15:08:22.763Z</time></trkpt><trkpt lat="43.4936633" lon="13.0379867"><ele>400.0</ele><time>2026-04-19T15:08:23.763Z</time></trkpt><trkpt lat="43.49348" lon="13.0379017"><ele>403.0</ele><time>2026-04-19T15:08:24.761Z</time></trkpt><trkpt lat="43.4932867" lon="13.0377967"><ele>403.0</ele><time>2026-04-19T15:08:25.762Z</time></trkpt><trkpt lat="43.4930867" lon="13.03767"><ele>403.0</ele><time>2026-04-19T15:08:26.763Z</time></trkpt><trkpt lat="43.4928883" lon="13.0375317"><ele>403.0</ele><time>2026-04-19T15:08:27.764Z</time></trkpt><trkpt lat="43.4926983" lon="13.0373917"><ele>402.0</ele><time>2026-04-19T15:08:28.761Z</time></trkpt><trkpt lat="43.4925183" lon="13.0372583"><ele>401.0</ele><time>2026-04-19T15:08:29.762Z</time></trkpt><trkpt lat="43.49235" lon="13.0371367"><ele>400.0</ele><time>2026-04-19T15:08:30.762Z</time></trkpt><trkpt lat="43.4921917" lon="13.037025"><ele>400.33333333333337</ele><time>2026-04-19T15:08:31.762Z</time></trkpt><trkpt lat="43.4920417" lon="13.0369233"><ele>400.66666666666663</ele><time>2026-04-19T15:08:32.762Z</time></trkpt><trkpt lat="43.4919017" lon="13.036845"><ele>401.0</ele><time>2026-04-19T15:08:33.761Z</time></trkpt><trkpt lat="43.4917583" lon="13.0367883"><ele>401.0</ele><time>2026-04-19T15:08:34.763Z</time></trkpt><trkpt lat="43.49161" lon="13.036755"><ele>401.0</ele><time>2026-04-19T15:08:35.761Z</time></trkpt><trkpt lat="43.4914583" lon="13.0367383"><ele>401.0</ele><time>2026-04-19T15:08:36.762Z</time></trkpt><trkpt lat="43.4913" lon="13.0367317"><ele>400.5</ele><time>2026-04-19T15:08:37.762Z</time></trkpt><trkpt lat="43.4911483" lon="13.0367367"><ele>400.0</ele><time>2026-04-19T15:08:38.763Z</time></trkpt><trkpt lat="43.491" lon="13.03675"><ele>399.5</ele><time>2026-04-19T15:08:39.764Z</time></trkpt><trkpt lat="43.4908583" lon="13.0367683"><ele>399.0</ele><time>2026-04-19T15:08:40.761Z</time></trkpt><trkpt lat="43.49073" lon="13.036785"><ele>399.0</ele><time>2026-04-19T15:08:41.76Z</time></trkpt><trkpt lat="43.49061" lon="13.0367933"><ele>399.0</ele><time>2026-04-19T15:08:42.761Z</time></trkpt><trkpt lat="43.490495" lon="13.0368067"><ele>399.0</ele><time>2026-04-19T15:08:43.762Z</time></trkpt><trkpt lat="43.4903817" lon="13.0368033"><ele>399.0</ele><time>2026-04-19T15:08:44.761Z</time></trkpt><trkpt lat="43.49027" lon="13.036795"><ele>399.2</ele><time>2026-04-19T15:08:45.762Z</time></trkpt><trkpt lat="43.4901633" lon="13.0367733"><ele>399.4</ele><time>2026-04-19T15:08:46.76Z</time></trkpt><trkpt lat="43.4900683" lon="13.036745"><ele>399.6</ele><time>2026-04-19T15:08:47.76Z</time></trkpt><trkpt lat="43.4899817" lon="13.0367133"><ele>399.8</ele><time>2026-04-19T15:08:48.761Z</time></trkpt><trkpt lat="43.4898983" lon="13.0366717"><ele>400.0</ele><time>2026-04-19T15:08:49.76Z</time></trkpt><trkpt lat="43.4898167" lon="13.0366183"><ele>399.1666666666667</ele><time>2026-04-19T15:08:50.761Z</time></trkpt><trkpt lat="43.4897317" lon="13.036555"><ele>398.33333333333337</ele><time>2026-04-19T15:08:51.761Z</time></trkpt><trkpt lat="43.4896467" lon="13.0364917"><ele>397.5</ele><time>2026-04-19T15:08:52.761Z</time></trkpt><trkpt lat="43.489575" lon="13.0364367"><ele>396.66666666666663</ele><time>2026-04-19T15:08:53.761Z</time></trkpt><trkpt lat="43.4894983" lon="13.036355"><ele>395.8333333333333</ele><time>2026-04-19T15:08:55.761Z</time></trkpt><trkpt lat="43.4895183" lon="13.0362583"><ele>395.0</ele><time>2026-04-19T15:08:57.764Z</time></trkpt><trkpt lat="43.4896183" lon="13.0361633"><ele>394.0</ele><time>2026-04-19T15:08:59.763Z</time></trkpt><trkpt lat="43.489705" lon="13.0361067"><ele>393.0</ele><time>2026-04-19T15:09:00.761Z</time></trkpt><trkpt lat="43.4898117" lon="13.0360417"><ele>392.0</ele><time>2026-04-19T15:09:01.763Z</time></trkpt><trkpt lat="43.489925" lon="13.0359667"><ele>391.0</ele><time>2026-04-19T15:09:02.763Z</time></trkpt><trkpt lat="43.4900483" lon="13.0358867"><ele>387.33333333333337</ele><time>2026-04-19T15:09:03.762Z</time></trkpt><trkpt lat="43.4901733" lon="13.0357917"><ele>383.6666666666667</ele><time>2026-04-19T15:09:04.759Z</time></trkpt><trkpt lat="43.4903083" lon="13.0356933"><ele>380.0</ele><time>2026-04-19T15:09:05.763Z</time></trkpt><trkpt lat="43.4904533" lon="13.0356"><ele>379.6666666666667</ele><time>2026-04-19T15:09:06.762Z</time></trkpt><trkpt lat="43.49061" lon="13.0354983"><ele>379.3333333333333</ele><time>2026-04-19T15:09:07.762Z</time></trkpt><trkpt lat="43.4907717" lon="13.0353917"><ele>379.0</ele><time>2026-04-19T15:09:08.76Z</time></trkpt><trkpt lat="43.4909333" lon="13.03528"><ele>379.0</ele><time>2026-04-19T15:09:09.761Z</time></trkpt><trkpt lat="43.4910933" lon="13.035175"><ele>379.0</ele><time>2026-04-19T15:09:10.76Z</time></trkpt><trkpt lat="43.4912467" lon="13.0350767"><ele>379.0</ele><time>2026-04-19T15:09:11.76Z</time></trkpt><trkpt lat="43.4913867" lon="13.03499"><ele>375.75</ele><time>2026-04-19T15:09:12.761Z</time></trkpt><trkpt lat="43.4915117" lon="13.0349217"><ele>372.5</ele><time>2026-04-19T15:09:13.76Z</time></trkpt><trkpt lat="43.4916283" lon="13.03487"><ele>369.25</ele><time>2026-04-19T15:09:14.76Z</time></trkpt><trkpt lat="43.4917483" lon="13.034845"><ele>366.0</ele><time>2026-04-19T15:09:15.759Z</time></trkpt><trkpt lat="43.4918733" lon="13.0348483"><ele>366.0</ele><time>2026-04-19T15:09:16.759Z</time></trkpt><trkpt lat="43.4920083" lon="13.0348767"><ele>366.0</ele><time>2026-04-19T15:09:17.765Z</time></trkpt><trkpt lat="43.492155" lon="13.034925"><ele>366.0</ele><time>2026-04-19T15:09:18.762Z</time></trkpt><trkpt lat="43.492305" lon="13.0349683"><ele>366.0</ele><time>2026-04-19T15:09:19.76Z</time></trkpt><trkpt lat="43.4924533" lon="13.0350067"><ele>367.25</ele><time>2026-04-19T15:09:20.76Z</time></trkpt><trkpt lat="43.49259" lon="13.0350417"><ele>368.5</ele><time>2026-04-19T15:09:21.762Z</time></trkpt><trkpt lat="43.49272" lon="13.0350717"><ele>369.75</ele><time>2026-04-19T15:09:22.76Z</time></trkpt><trkpt lat="43.4928533" lon="13.0350933"><ele>371.0</ele><time>2026-04-19T15:09:23.761Z</time></trkpt><trkpt lat="43.4929933" lon="13.0351017"><ele>368.5</ele><time>2026-04-19T15:09:24.76Z</time></trkpt><trkpt lat="43.4931317" lon="13.0351"><ele>366.0</ele><time>2026-04-19T15:09:25.761Z</time></trkpt><trkpt lat="43.4932667" lon="13.035095"><ele>363.5</ele><time>2026-04-19T15:09:26.762Z</time></trkpt><trkpt lat="43.4933983" lon="13.0350933"><ele>361.0</ele><time>2026-04-19T15:09:27.767Z</time></trkpt><trkpt lat="43.4935217" lon="13.035095"><ele>361.0</ele><time>2026-04-19T15:09:28.764Z</time></trkpt><trkpt lat="43.493635" lon="13.035095"><ele>361.0</ele><time>2026-04-19T15:09:29.763Z</time></trkpt><trkpt lat="43.493735" lon="13.0350883"><ele>361.0</ele><time>2026-04-19T15:09:30.764Z</time></trkpt><trkpt lat="43.4938233" lon="13.0350617"><ele>361.0</ele><time>2026-04-19T15:09:31.763Z</time></trkpt><trkpt lat="43.4939017" lon="13.0350183"><ele>361.0</ele><time>2026-04-19T15:09:32.763Z</time></trkpt><trkpt lat="43.493965" lon="13.0349533"><ele>357.66666666666663</ele><time>2026-04-19T15:09:33.762Z</time></trkpt><trkpt lat="43.4940183" lon="13.0348733"><ele>354.3333333333333</ele><time>2026-04-19T15:09:34.76Z</time></trkpt><trkpt lat="43.4940567" lon="13.034785"><ele>351.0</ele><time>2026-04-19T15:09:35.763Z</time></trkpt><trkpt lat="43.4940717" lon="13.03468"><ele>347.6666666666667</ele><time>2026-04-19T15:09:36.762Z</time></trkpt><trkpt lat="43.494065" lon="13.0345633"><ele>344.33333333333337</ele><time>2026-04-19T15:09:37.765Z</time></trkpt><trkpt lat="43.4940467" lon="13.0344333"><ele>341.0</ele><time>2026-04-19T15:09:38.763Z</time></trkpt><trkpt lat="43.4940117" lon="13.0343017"><ele>341.0</ele><time>2026-04-19T15:09:39.762Z</time></trkpt><trkpt lat="43.4939733" lon="13.03416"><ele>341.0</ele><time>2026-04-19T15:09:40.764Z</time></trkpt><trkpt lat="43.49393" lon="13.034015"><ele>341.0</ele><time>2026-04-19T15:09:41.761Z</time></trkpt><trkpt lat="43.493885" lon="13.0338833"><ele>341.0</ele><time>2026-04-19T15:09:42.767Z</time></trkpt><trkpt lat="43.4938233" lon="13.03376"><ele>341.0</ele><time>2026-04-19T15:09:43.761Z</time></trkpt><trkpt lat="43.493745" lon="13.0336417"><ele>342.5</ele><time>2026-04-19T15:09:44.762Z</time></trkpt><trkpt lat="43.4936467" lon="13.0335417"><ele>344.0</ele><time>2026-04-19T15:09:45.762Z</time></trkpt><trkpt lat="43.4935333" lon="13.0334567"><ele>345.5</ele><time>2026-04-19T15:09:46.761Z</time></trkpt><trkpt lat="43.493415" lon="13.03337"><ele>347.0</ele><time>2026-04-19T15:09:47.762Z</time></trkpt><trkpt lat="43.4932883" lon="13.033285"><ele>345.25</ele><time>2026-04-19T15:09:48.762Z</time></trkpt><trkpt lat="43.4931617" lon="13.0332083"><ele>343.5</ele><time>2026-04-19T15:09:49.768Z</time></trkpt><trkpt lat="43.4930383" lon="13.0331383"><ele>341.75</ele><time>2026-04-19T15:09:50.761Z</time></trkpt><trkpt lat="43.4929183" lon="13.0330567"><ele>340.0</ele><time>2026-04-19T15:09:51.761Z</time></trkpt><trkpt lat="43.4927967" lon="13.0329717"><ele>340.0</ele><time>2026-04-19T15:09:52.761Z</time></trkpt><trkpt lat="43.4926783" lon="13.0328883"><ele>340.0</ele><time>2026-04-19T15:09:53.759Z</time></trkpt><trkpt lat="43.4925567" lon="13.0328083"><ele>340.0</ele><time>2026-04-19T15:09:54.761Z</time></trkpt><trkpt lat="43.4924333" lon="13.032715"><ele>340.0</ele><time>2026-04-19T15:09:55.76Z</time></trkpt><trkpt lat="43.49231" lon="13.032625"><ele>340.0</ele><time>2026-04-19T15:09:56.76Z</time></trkpt><trkpt lat="43.4921983" lon="13.0325383"><ele>340.0</ele><time>2026-04-19T15:09:57.761Z</time></trkpt><trkpt lat="43.4920983" lon="13.03245"><ele>340.0</ele><time>2026-04-19T15:09:58.76Z</time></trkpt><trkpt lat="43.4920233" lon="13.032365"><ele>340.0</ele><time>2026-04-19T15:09:59.76Z</time></trkpt><trkpt lat="43.4919633" lon="13.0322867"><ele>340.0</ele><time>2026-04-19T15:10:00.762Z</time></trkpt><trkpt lat="43.49191" lon="13.0321967"><ele>339.4</ele><time>2026-04-19T15:10:01.76Z</time></trkpt><trkpt lat="43.4918633" lon="13.0321"><ele>338.8</ele><time>2026-04-19T15:10:02.761Z</time></trkpt><trkpt lat="43.4918217" lon="13.0319833"><ele>338.20000000000005</ele><time>2026-04-19T15:10:03.759Z</time></trkpt><trkpt lat="43.4918033" lon="13.0318233"><ele>337.6</ele><time>2026-04-19T15:10:04.759Z</time></trkpt><trkpt lat="43.4917867" lon="13.031645"><ele>337.0</ele><time>2026-04-19T15:10:05.764Z</time></trkpt><trkpt lat="43.4917667" lon="13.0314633"><ele>335.5</ele><time>2026-04-19T15:10:06.76Z</time></trkpt><trkpt lat="43.491755" lon="13.03128"><ele>334.0</ele><time>2026-04-19T15:10:07.761Z</time></trkpt><trkpt lat="43.491745" lon="13.0311017"><ele>332.5</ele><time>2026-04-19T15:10:08.76Z</time></trkpt><trkpt lat="43.4917367" lon="13.0309317"><ele>331.0</ele><time>2026-04-19T15:10:09.764Z</time></trkpt><trkpt lat="43.4917317" lon="13.030765"><ele>328.75</ele><time>2026-04-19T15:10:10.762Z</time></trkpt><trkpt lat="43.491725" lon="13.0306017"><ele>326.5</ele><time>2026-04-19T15:10:11.762Z</time></trkpt><trkpt lat="43.4917183" lon="13.0304367"><ele>324.25</ele><time>2026-04-19T15:10:12.761Z</time></trkpt><trkpt lat="43.49172" lon="13.030275"><ele>322.0</ele><time>2026-04-19T15:10:13.759Z</time></trkpt><trkpt lat="43.4917267" lon="13.0301183"><ele>321.5</ele><time>2026-04-19T15:10:14.763Z</time></trkpt><trkpt lat="43.49174" lon="13.029975"><ele>321.0</ele><time>2026-04-19T15:10:15.763Z</time></trkpt><trkpt lat="43.4917483" lon="13.029845"><ele>320.5</ele><time>2026-04-19T15:10:16.759Z</time></trkpt><trkpt lat="43.4917533" lon="13.02973"><ele>320.0</ele><time>2026-04-19T15:10:17.761Z</time></trkpt><trkpt lat="43.4917517" lon="13.0296267"><ele>319.5</ele><time>2026-04-19T15:10:18.762Z</time></trkpt><trkpt lat="43.49175" lon="13.0295283"><ele>319.0</ele><time>2026-04-19T15:10:19.76Z</time></trkpt><trkpt lat="43.4917483" lon="13.0294333"><ele>319.0</ele><time>2026-04-19T15:10:20.761Z</time></trkpt><trkpt lat="43.49175" lon="13.0293367"><ele>319.0</ele><time>2026-04-19T15:10:21.761Z</time></trkpt><trkpt lat="43.4917567" lon="13.0292383"><ele>319.0</ele><time>2026-04-19T15:10:22.761Z</time></trkpt><trkpt lat="43.491775" lon="13.0291383"><ele>319.0</ele><time>2026-04-19T15:10:23.761Z</time></trkpt><trkpt lat="43.4918133" lon="13.0290183"><ele>319.0</ele><time>2026-04-19T15:10:24.761Z</time></trkpt><trkpt lat="43.491875" lon="13.0288733"><ele>319.0</ele><time>2026-04-19T15:10:25.762Z</time></trkpt><trkpt lat="43.491955" lon="13.02871"><ele>319.66666666666663</ele><time>2026-04-19T15:10:26.764Z</time></trkpt><trkpt lat="43.49204" lon="13.0285367"><ele>320.3333333333333</ele><time>2026-04-19T15:10:27.761Z</time></trkpt><trkpt lat="43.49213" lon="13.0283583"><ele>321.0</ele><time>2026-04-19T15:10:28.763Z</time></trkpt><trkpt lat="43.4922183" lon="13.0281817"><ele>319.25</ele><time>2026-04-19T15:10:29.764Z</time></trkpt><trkpt lat="43.4923" lon="13.0280117"><ele>317.5</ele><time>2026-04-19T15:10:30.763Z</time></trkpt><trkpt lat="43.4923817" lon="13.027845"><ele>315.75</ele><time>2026-04-19T15:10:31.761Z</time></trkpt><trkpt lat="43.492465" lon="13.0276883"><ele>314.0</ele><time>2026-04-19T15:10:32.762Z</time></trkpt><trkpt lat="43.4925567" lon="13.0275367"><ele>314.0</ele><time>2026-04-19T15:10:33.762Z</time></trkpt><trkpt lat="43.4926583" lon="13.0273883"><ele>314.0</ele><time>2026-04-19T15:10:34.762Z</time></trkpt><trkpt lat="43.4927683" lon="13.02724"><ele>314.0</ele><time>2026-04-19T15:10:35.762Z</time></trkpt><trkpt lat="43.4928883" lon="13.0270867"><ele>311.0</ele><time>2026-04-19T15:10:36.763Z</time></trkpt><trkpt lat="43.4929983" lon="13.0269433"><ele>308.0</ele><time>2026-04-19T15:10:37.762Z</time></trkpt><trkpt lat="43.4931083" lon="13.0268017"><ele>305.0</ele><time>2026-04-19T15:10:38.762Z</time></trkpt><trkpt lat="43.4932183" lon="13.026645"><ele>304.6666666666667</ele><time>2026-04-19T15:10:39.762Z</time></trkpt><trkpt lat="43.4933283" lon="13.02648"><ele>304.3333333333333</ele><time>2026-04-19T15:10:40.762Z</time></trkpt><trkpt lat="43.493435" lon="13.0263183"><ele>304.0</ele><time>2026-04-19T15:10:41.761Z</time></trkpt><trkpt lat="43.4935283" lon="13.026165"><ele>304.0</ele><time>2026-04-19T15:10:42.763Z</time></trkpt><trkpt lat="43.493615" lon="13.0260183"><ele>304.0</ele><time>2026-04-19T15:10:43.762Z</time></trkpt><trkpt lat="43.4936933" lon="13.025875"><ele>304.0</ele><time>2026-04-19T15:10:44.768Z</time></trkpt><trkpt lat="43.4937817" lon="13.025745"><ele>304.0</ele><time>2026-04-19T15:10:45.761Z</time></trkpt><trkpt lat="43.49387" lon="13.025635"><ele>303.0</ele><time>2026-04-19T15:10:46.762Z</time></trkpt><trkpt lat="43.4939683" lon="13.0255517"><ele>302.0</ele><time>2026-04-19T15:10:47.76Z</time></trkpt><trkpt lat="43.49408" lon="13.025485"><ele>301.0</ele><time>2026-04-19T15:10:48.762Z</time></trkpt><trkpt lat="43.4942033" lon="13.0254383"><ele>300.0</ele><time>2026-04-19T15:10:49.76Z</time></trkpt><trkpt lat="43.4943333" lon="13.0254083"><ele>300.0</ele><time>2026-04-19T15:10:50.762Z</time></trkpt><trkpt lat="43.4944667" lon="13.0254"><ele>300.0</ele><time>2026-04-19T15:10:51.76Z</time></trkpt><trkpt lat="43.4945967" lon="13.0253983"><ele>300.0</ele><time>2026-04-19T15:10:52.761Z</time></trkpt><trkpt lat="43.4947233" lon="13.025395"><ele>300.0</ele><time>2026-04-19T15:10:53.76Z</time></trkpt><trkpt lat="43.4948467" lon="13.0253783"><ele>298.5</ele><time>2026-04-19T15:10:54.761Z</time></trkpt><trkpt lat="43.494965" lon="13.0253417"><ele>297.0</ele><time>2026-04-19T15:10:55.763Z</time></trkpt><trkpt lat="43.495075" lon="13.0252867"><ele>295.5</ele><time>2026-04-19T15:10:56.762Z</time></trkpt><trkpt lat="43.4951767" lon="13.025225"><ele>294.0</ele><time>2026-04-19T15:10:57.761Z</time></trkpt><trkpt lat="43.49527" lon="13.0251633"><ele>294.0</ele><time>2026-04-19T15:10:58.763Z</time></trkpt><trkpt lat="43.495355" lon="13.0251"><ele>294.0</ele><time>2026-04-19T15:10:59.766Z</time></trkpt><trkpt lat="43.4954333" lon="13.0250367"><ele>294.0</ele><time>2026-04-19T15:11:00.762Z</time></trkpt><trkpt lat="43.4955067" lon="13.0249717"><ele>294.0</ele><time>2026-04-19T15:11:01.762Z</time></trkpt><trkpt lat="43.4955733" lon="13.0249033"><ele>294.0</ele><time>2026-04-19T15:11:02.764Z</time></trkpt><trkpt lat="43.4956317" lon="13.0248333"><ele>294.0</ele><time>2026-04-19T15:11:03.761Z</time></trkpt><trkpt lat="43.4956867" lon="13.0247583"><ele>293.25</ele><time>2026-04-19T15:11:04.762Z</time></trkpt><trkpt lat="43.4957417" lon="13.02467"><ele>292.5</ele><time>2026-04-19T15:11:05.761Z</time></trkpt><trkpt lat="43.4958033" lon="13.0245533"><ele>291.75</ele><time>2026-04-19T15:11:06.762Z</time></trkpt><trkpt lat="43.4958683" lon="13.0244067"><ele>291.0</ele><time>2026-04-19T15:11:07.762Z</time></trkpt><trkpt lat="43.4959267" lon="13.0242317"><ele>291.3333333333333</ele><time>2026-04-19T15:11:08.761Z</time></trkpt><trkpt lat="43.4959817" lon="13.0240417"><ele>291.66666666666663</ele><time>2026-04-19T15:11:09.766Z</time></trkpt><trkpt lat="43.4960367" lon="13.0238467"><ele>292.0</ele><time>2026-04-19T15:11:10.761Z</time></trkpt><trkpt lat="43.4961033" lon="13.0236533"><ele>292.0</ele><time>2026-04-19T15:11:11.765Z</time></trkpt><trkpt lat="43.4961767" lon="13.0234567"><ele>292.0</ele><time>2026-04-19T15:11:12.762Z</time></trkpt><trkpt lat="43.4962533" lon="13.0232617"><ele>292.0</ele><time>2026-04-19T15:11:13.763Z</time></trkpt><trkpt lat="43.4963383" lon="13.0230717"><ele>288.75</ele><time>2026-04-19T15:11:14.763Z</time></trkpt><trkpt lat="43.49642" lon="13.02289"><ele>285.5</ele><time>2026-04-19T15:11:15.76Z</time></trkpt><trkpt lat="43.4964933" lon="13.0227167"><ele>282.25</ele><time>2026-04-19T15:11:16.763Z</time></trkpt><trkpt lat="43.49656" lon="13.02255"><ele>279.0</ele><time>2026-04-19T15:11:17.764Z</time></trkpt><trkpt lat="43.4966267" lon="13.0223867"><ele>278.75</ele><time>2026-04-19T15:11:18.764Z</time></trkpt><trkpt lat="43.4966967" lon="13.022235"><ele>278.5</ele><time>2026-04-19T15:11:19.763Z</time></trkpt><trkpt lat="43.49677" lon="13.0221033"><ele>278.25</ele><time>2026-04-19T15:11:20.762Z</time></trkpt><trkpt lat="43.4968617" lon="13.0219967"><ele>278.0</ele><time>2026-04-19T15:11:21.765Z</time></trkpt><trkpt lat="43.4969733" lon="13.0219167"><ele>277.0</ele><time>2026-04-19T15:11:22.762Z</time></trkpt><trkpt lat="43.4971067" lon="13.0218767"><ele>276.0</ele><time>2026-04-19T15:11:23.763Z</time></trkpt><trkpt lat="43.4972533" lon="13.0218683"><ele>275.0</ele><time>2026-04-19T15:11:24.763Z</time></trkpt><trkpt lat="43.49741" lon="13.0218683"><ele>274.0</ele><time>2026-04-19T15:11:25.762Z</time></trkpt><trkpt lat="43.4975717" lon="13.0218533"><ele>274.0</ele><time>2026-04-19T15:11:26.764Z</time></trkpt><trkpt lat="43.4977317" lon="13.0218167"><ele>274.0</ele><time>2026-04-19T15:11:27.762Z</time></trkpt><trkpt lat="43.4978867" lon="13.0217633"><ele>274.0</ele><time>2026-04-19T15:11:28.762Z</time></trkpt><trkpt lat="43.4980417" lon="13.0217033"><ele>271.3333333333333</ele><time>2026-04-19T15:11:29.763Z</time></trkpt><trkpt lat="43.4982" lon="13.021635"><ele>268.6666666666667</ele><time>2026-04-19T15:11:30.762Z</time></trkpt><trkpt lat="43.4983583" lon="13.021555"><ele>266.0</ele><time>2026-04-19T15:11:31.762Z</time></trkpt><trkpt lat="43.4985167" lon="13.0214583"><ele>266.0</ele><time>2026-04-19T15:11:32.762Z</time></trkpt><trkpt lat="43.4986767" lon="13.02135"><ele>266.0</ele><time>2026-04-19T15:11:33.762Z</time></trkpt><trkpt lat="43.4988367" lon="13.0212183"><ele>266.0</ele><time>2026-04-19T15:11:34.762Z</time></trkpt><trkpt lat="43.499005" lon="13.021045"><ele>265.6666666666667</ele><time>2026-04-19T15:11:35.763Z</time></trkpt><trkpt lat="43.4991633" lon="13.0208433"><ele>265.3333333333333</ele><time>2026-04-19T15:11:36.762Z</time></trkpt><trkpt lat="43.4992933" lon="13.0206483"><ele>265.0</ele><time>2026-04-19T15:11:37.762Z</time></trkpt><trkpt lat="43.49941" lon="13.0204583"><ele>265.0</ele><time>2026-04-19T15:11:38.761Z</time></trkpt><trkpt lat="43.499515" lon="13.0202883"><ele>265.0</ele><time>2026-04-19T15:11:39.761Z</time></trkpt><trkpt lat="43.49961" lon="13.020145"><ele>265.0</ele><time>2026-04-19T15:11:40.762Z</time></trkpt><trkpt lat="43.4997117" lon="13.020025"><ele>265.0</ele><time>2026-04-19T15:11:41.761Z</time></trkpt><trkpt lat="43.4998367" lon="13.0199233"><ele>263.66666666666663</ele><time>2026-04-19T15:11:42.763Z</time></trkpt><trkpt lat="43.5000033" lon="13.0198317"><ele>262.3333333333333</ele><time>2026-04-19T15:11:43.762Z</time></trkpt><trkpt lat="43.50019" lon="13.0197433"><ele>261.0</ele><time>2026-04-19T15:11:44.763Z</time></trkpt><trkpt lat="43.5003617" lon="13.0196617"><ele>262.0</ele><time>2026-04-19T15:11:45.767Z</time></trkpt><trkpt lat="43.5005217" lon="13.0195883"><ele>263.0</ele><time>2026-04-19T15:11:46.761Z</time></trkpt><trkpt lat="43.5006767" lon="13.01953"><ele>264.0</ele><time>2026-04-19T15:11:47.761Z</time></trkpt><trkpt lat="43.50083" lon="13.0194883"><ele>264.0</ele><time>2026-04-19T15:11:48.761Z</time></trkpt><trkpt lat="43.500985" lon="13.019465"><ele>264.0</ele><time>2026-04-19T15:11:49.762Z</time></trkpt><trkpt lat="43.5011467" lon="13.01946"><ele>264.0</ele><time>2026-04-19T15:11:50.764Z</time></trkpt><trkpt lat="43.501315" lon="13.0194617"><ele>261.6666666666667</ele><time>2026-04-19T15:11:51.764Z</time></trkpt><trkpt lat="43.50149" lon="13.0194633"><ele>259.33333333333337</ele><time>2026-04-19T15:11:52.763Z</time></trkpt><trkpt lat="43.5016717" lon="13.01946"><ele>257.0</ele><time>2026-04-19T15:11:53.76Z</time></trkpt><trkpt lat="43.501865" lon="13.0194567"><ele>257.0</ele><time>2026-04-19T15:11:54.763Z</time></trkpt><trkpt lat="43.5020633" lon="13.0194533"><ele>257.0</ele><time>2026-04-19T15:11:55.761Z</time></trkpt><trkpt lat="43.5022667" lon="13.0194467"><ele>257.0</ele><time>2026-04-19T15:11:56.766Z</time></trkpt><trkpt lat="43.5024667" lon="13.0194333"><ele>254.0</ele><time>2026-04-19T15:11:57.762Z</time></trkpt><trkpt lat="43.50266" lon="13.0194217"><ele>251.0</ele><time>2026-04-19T15:11:58.762Z</time></trkpt><trkpt lat="43.502845" lon="13.0194117"><ele>248.0</ele><time>2026-04-19T15:11:59.764Z</time></trkpt><trkpt lat="43.5030283" lon="13.0194067"><ele>245.33333333333334</ele><time>2026-04-19T15:12:00.763Z</time></trkpt><trkpt lat="43.503215" lon="13.0194"><ele>242.66666666666669</ele><time>2026-04-19T15:12:01.763Z</time></trkpt><trkpt lat="43.5034033" lon="13.0193967"><ele>240.0</ele><time>2026-04-19T15:12:02.763Z</time></trkpt><trkpt lat="43.5035933" lon="13.0194017"><ele>237.66666666666669</ele><time>2026-04-19T15:12:03.762Z</time></trkpt><trkpt lat="43.503785" lon="13.0194117"><ele>235.33333333333334</ele><time>2026-04-19T15:12:04.762Z</time></trkpt><trkpt lat="43.50397" lon="13.01942"><ele>233.0</ele><time>2026-04-19T15:12:05.762Z</time></trkpt><trkpt lat="43.5041517" lon="13.0194267"><ele>233.0</ele><time>2026-04-19T15:12:06.763Z</time></trkpt><trkpt lat="43.504335" lon="13.0194317"><ele>233.0</ele><time>2026-04-19T15:12:07.763Z</time></trkpt><trkpt lat="43.50451" lon="13.01943"><ele>233.0</ele><time>2026-04-19T15:12:08.763Z</time></trkpt><trkpt lat="43.504675" lon="13.01943"><ele>231.0</ele><time>2026-04-19T15:12:09.763Z</time></trkpt><trkpt lat="43.5048283" lon="13.0194267"><ele>229.0</ele><time>2026-04-19T15:12:10.762Z</time></trkpt><trkpt lat="43.5049717" lon="13.0194233"><ele>227.0</ele><time>2026-04-19T15:12:11.762Z</time></trkpt><trkpt lat="43.505105" lon="13.019425"><ele>225.0</ele><time>2026-04-19T15:12:12.764Z</time></trkpt><trkpt lat="43.5052317" lon="13.0194383"><ele>225.0</ele><time>2026-04-19T15:12:13.762Z</time></trkpt><trkpt lat="43.5053567" lon="13.01948"><ele>225.0</ele><time>2026-04-19T15:12:14.764Z</time></trkpt><trkpt lat="43.5054783" lon="13.0195567"><ele>225.0</ele><time>2026-04-19T15:12:15.762Z</time></trkpt><trkpt lat="43.5056033" lon="13.0196683"><ele>225.0</ele><time>2026-04-19T15:12:16.76Z</time></trkpt><trkpt lat="43.50572" lon="13.0197983"><ele>223.5</ele><time>2026-04-19T15:12:17.763Z</time></trkpt><trkpt lat="43.5058267" lon="13.0199317"><ele>222.0</ele><time>2026-04-19T15:12:18.761Z</time></trkpt><trkpt lat="43.50593" lon="13.0200583"><ele>220.5</ele><time>2026-04-19T15:12:19.762Z</time></trkpt><trkpt lat="43.50602" lon="13.020175"><ele>219.0</ele><time>2026-04-19T15:12:20.76Z</time></trkpt><trkpt lat="43.5061033" lon="13.0202733"><ele>217.5</ele><time>2026-04-19T15:12:21.763Z</time></trkpt><trkpt lat="43.5061833" lon="13.0203567"><ele>216.0</ele><time>2026-04-19T15:12:22.761Z</time></trkpt><trkpt lat="43.5062783" lon="13.0204083"><ele>214.5</ele><time>2026-04-19T15:12:23.764Z</time></trkpt><trkpt lat="43.5064017" lon="13.0204233"><ele>213.0</ele><time>2026-04-19T15:12:24.762Z</time></trkpt><trkpt lat="43.5065483" lon="13.02041"><ele>209.33333333333331</ele><time>2026-04-19T15:12:25.763Z</time></trkpt><trkpt lat="43.5067233" lon="13.0203817"><ele>205.66666666666666</ele><time>2026-04-19T15:12:26.762Z</time></trkpt><trkpt lat="43.50692" lon="13.020345"><ele>202.0</ele><time>2026-04-19T15:12:27.763Z</time></trkpt><trkpt lat="43.507125" lon="13.020305"><ele>199.66666666666666</ele><time>2026-04-19T15:12:28.763Z</time></trkpt><trkpt lat="43.5073283" lon="13.0202667"><ele>197.33333333333331</ele><time>2026-04-19T15:12:29.764Z</time></trkpt><trkpt lat="43.50752" lon="13.020225"><ele>195.0</ele><time>2026-04-19T15:12:30.763Z</time></trkpt><trkpt lat="43.5076983" lon="13.020185"><ele>195.0</ele><time>2026-04-19T15:12:31.764Z</time></trkpt><trkpt lat="43.50787" lon="13.02015"><ele>195.0</ele><time>2026-04-19T15:12:32.761Z</time></trkpt><trkpt lat="43.508035" lon="13.020125"><ele>195.0</ele><time>2026-04-19T15:12:33.761Z</time></trkpt><trkpt lat="43.5082033" lon="13.0201183"><ele>193.75</ele><time>2026-04-19T15:12:34.761Z</time></trkpt><trkpt lat="43.5083633" lon="13.020115"><ele>192.5</ele><time>2026-04-19T15:12:35.761Z</time></trkpt><trkpt lat="43.5085067" lon="13.02011"><ele>191.25</ele><time>2026-04-19T15:12:36.761Z</time></trkpt><trkpt lat="43.5086333" lon="13.0201067"><ele>190.0</ele><time>2026-04-19T15:12:37.762Z</time></trkpt><trkpt lat="43.5087467" lon="13.0201033"><ele>188.8</ele><time>2026-04-19T15:12:38.761Z</time></trkpt><trkpt lat="43.50885" lon="13.020085"><ele>187.6</ele><time>2026-04-19T15:12:39.762Z</time></trkpt><trkpt lat="43.508945" lon="13.02004"><ele>186.39999999999998</ele><time>2026-04-19T15:12:40.763Z</time></trkpt><trkpt lat="43.5090367" lon="13.019965"><ele>185.2</ele><time>2026-04-19T15:12:41.761Z</time></trkpt><trkpt lat="43.5091317" lon="13.0198667"><ele>184.0</ele><time>2026-04-19T15:12:42.765Z</time></trkpt><trkpt lat="43.509245" lon="13.0197467"><ele>184.0</ele><time>2026-04-19T15:12:43.762Z</time></trkpt><trkpt lat="43.5093683" lon="13.01962"><ele>184.0</ele><time>2026-04-19T15:12:44.763Z</time></trkpt><trkpt lat="43.5094933" lon="13.0194967"><ele>184.0</ele><time>2026-04-19T15:12:45.76Z</time></trkpt><trkpt lat="43.5096083" lon="13.0193867"><ele>184.0</ele><time>2026-04-19T15:12:46.76Z</time></trkpt><trkpt lat="43.50972" lon="13.0192933"><ele>183.0</ele><time>2026-04-19T15:12:47.761Z</time></trkpt><trkpt lat="43.5098417" lon="13.019225"><ele>182.0</ele><time>2026-04-19T15:12:48.763Z</time></trkpt><trkpt lat="43.509965" lon="13.0191817"><ele>181.0</ele><time>2026-04-19T15:12:49.761Z</time></trkpt><trkpt lat="43.5100767" lon="13.019155"><ele>180.0</ele><time>2026-04-19T15:12:50.76Z</time></trkpt><trkpt lat="43.5101733" lon="13.019125"><ele>179.8</ele><time>2026-04-19T15:12:51.761Z</time></trkpt><trkpt lat="43.5102583" lon="13.0190767"><ele>179.6</ele><time>2026-04-19T15:12:52.76Z</time></trkpt><trkpt lat="43.5103267" lon="13.018995"><ele>179.39999999999998</ele><time>2026-04-19T15:12:53.761Z</time></trkpt><trkpt lat="43.5103717" lon="13.0188767"><ele>179.2</ele><time>2026-04-19T15:12:54.762Z</time></trkpt><trkpt lat="43.5104017" lon="13.018735"><ele>179.0</ele><time>2026-04-19T15:12:55.761Z</time></trkpt><trkpt lat="43.5104167" lon="13.0185717"><ele>179.0</ele><time>2026-04-19T15:12:56.762Z</time></trkpt><trkpt lat="43.51043" lon="13.018415"><ele>179.0</ele><time>2026-04-19T15:12:57.761Z</time></trkpt><trkpt lat="43.5104417" lon="13.01827"><ele>179.0</ele><time>2026-04-19T15:12:58.763Z</time></trkpt><trkpt lat="43.5104483" lon="13.018135"><ele>179.0</ele><time>2026-04-19T15:12:59.762Z</time></trkpt><trkpt lat="43.51045" lon="13.01801"><ele>179.0</ele><time>2026-04-19T15:13:00.761Z</time></trkpt><trkpt lat="43.5104317" lon="13.0178867"><ele>178.5</ele><time>2026-04-19T15:13:01.762Z</time></trkpt><trkpt lat="43.5103783" lon="13.0177667"><ele>178.0</ele><time>2026-04-19T15:13:02.76Z</time></trkpt><trkpt lat="43.5102967" lon="13.0176683"><ele>177.5</ele><time>2026-04-19T15:13:03.761Z</time></trkpt><trkpt lat="43.5101933" lon="13.0175917"><ele>177.0</ele><time>2026-04-19T15:13:04.761Z</time></trkpt><trkpt lat="43.5100767" lon="13.0175333"><ele>176.5</ele><time>2026-04-19T15:13:05.761Z</time></trkpt><trkpt lat="43.50995" lon="13.01747"><ele>176.0</ele><time>2026-04-19T15:13:06.761Z</time></trkpt><trkpt lat="43.5098217" lon="13.01741"><ele>175.5</ele><time>2026-04-19T15:13:07.765Z</time></trkpt><trkpt lat="43.5096983" lon="13.0173533"><ele>175.0</ele><time>2026-04-19T15:13:08.761Z</time></trkpt><trkpt lat="43.509585" lon="13.0172917"><ele>173.8</ele><time>2026-04-19T15:13:09.761Z</time></trkpt><trkpt lat="43.5094933" lon="13.0172183"><ele>172.6</ele><time>2026-04-19T15:13:10.76Z</time></trkpt><trkpt lat="43.5094233" lon="13.0171283"><ele>171.39999999999998</ele><time>2026-04-19T15:13:11.764Z</time></trkpt><trkpt lat="43.509375" lon="13.0170167"><ele>170.2</ele><time>2026-04-19T15:13:12.764Z</time></trkpt><trkpt lat="43.5093467" lon="13.0168817"><ele>169.0</ele><time>2026-04-19T15:13:13.763Z</time></trkpt><trkpt lat="43.5093317" lon="13.0167217"><ele>168.5</ele><time>2026-04-19T15:13:14.763Z</time></trkpt><trkpt lat="43.5093267" lon="13.0165367"><ele>168.0</ele><time>2026-04-19T15:13:15.762Z</time></trkpt><trkpt lat="43.5093267" lon="13.01633"><ele>167.5</ele><time>2026-04-19T15:13:16.763Z</time></trkpt><trkpt lat="43.5093267" lon="13.0161117"><ele>167.0</ele><time>2026-04-19T15:13:17.761Z</time></trkpt><trkpt lat="43.5093217" lon="13.0158933"><ele>168.0</ele><time>2026-04-19T15:13:18.761Z</time></trkpt><trkpt lat="43.5093183" lon="13.0156733"><ele>169.0</ele><time>2026-04-19T15:13:19.763Z</time></trkpt><trkpt lat="43.509305" lon="13.01545"><ele>170.0</ele><time>2026-04-19T15:13:20.762Z</time></trkpt><trkpt lat="43.509295" lon="13.0152133"><ele>172.0</ele><time>2026-04-19T15:13:21.763Z</time></trkpt><trkpt lat="43.509275" lon="13.0149517"><ele>174.0</ele><time>2026-04-19T15:13:22.763Z</time></trkpt><trkpt lat="43.5092433" lon="13.0146767"><ele>176.0</ele><time>2026-04-19T15:13:23.766Z</time></trkpt><trkpt lat="43.5092033" lon="13.01441"><ele>176.0</ele><time>2026-04-19T15:13:24.762Z</time></trkpt><trkpt lat="43.509165" lon="13.0141633"><ele>176.0</ele><time>2026-04-19T15:13:25.761Z</time></trkpt><trkpt lat="43.5091333" lon="13.0139317"><ele>176.0</ele><time>2026-04-19T15:13:26.761Z</time></trkpt><trkpt lat="43.509105" lon="13.0137067"><ele>177.0</ele><time>2026-04-19T15:13:27.761Z</time></trkpt><trkpt lat="43.509085" lon="13.0135117"><ele>178.0</ele><time>2026-04-19T15:13:28.761Z</time></trkpt><trkpt lat="43.5090767" lon="13.01335"><ele>179.0</ele><time>2026-04-19T15:13:29.762Z</time></trkpt><trkpt lat="43.50909" lon="13.01321"><ele>180.0</ele><time>2026-04-19T15:13:30.762Z</time></trkpt><trkpt lat="43.509135" lon="13.0130917"><ele>182.0</ele><time>2026-04-19T15:13:31.761Z</time></trkpt><trkpt lat="43.5092017" lon="13.0129917"><ele>184.0</ele><time>2026-04-19T15:13:32.761Z</time></trkpt><trkpt lat="43.509295" lon="13.01291"><ele>186.0</ele><time>2026-04-19T15:13:33.762Z</time></trkpt><trkpt lat="43.509425" lon="13.012855"><ele>188.0</ele><time>2026-04-19T15:13:34.76Z</time></trkpt><trkpt lat="43.5095633" lon="13.0127883"><ele>188.66666666666666</ele><time>2026-04-19T15:13:35.762Z</time></trkpt><trkpt lat="43.509725" lon="13.01271"><ele>189.33333333333334</ele><time>2026-04-19T15:13:36.761Z</time></trkpt><trkpt lat="43.5099033" lon="13.01262"><ele>190.0</ele><time>2026-04-19T15:13:37.761Z</time></trkpt><trkpt lat="43.5100767" lon="13.01254"><ele>192.33333333333334</ele><time>2026-04-19T15:13:38.762Z</time></trkpt><trkpt lat="43.5102317" lon="13.0124633"><ele>194.66666666666669</ele><time>2026-04-19T15:13:39.763Z</time></trkpt><trkpt lat="43.510375" lon="13.01239"><ele>197.0</ele><time>2026-04-19T15:13:40.763Z</time></trkpt><trkpt lat="43.510505" lon="13.0123267"><ele>197.0</ele><time>2026-04-19T15:13:41.762Z</time></trkpt><trkpt lat="43.510615" lon="13.0122733"><ele>197.0</ele><time>2026-04-19T15:13:42.763Z</time></trkpt><trkpt lat="43.5107" lon="13.0122267"><ele>197.0</ele><time>2026-04-19T15:13:43.762Z</time></trkpt><trkpt lat="43.5107633" lon="13.01218"><ele>197.0</ele><time>2026-04-19T15:13:44.764Z</time></trkpt><trkpt lat="43.5108317" lon="13.0120633"><ele>197.0</ele><time>2026-04-19T15:13:46.76Z</time></trkpt><trkpt lat="43.5108433" lon="13.011975"><ele>197.0</ele><time>2026-04-19T15:13:48.76Z</time></trkpt><trkpt lat="43.5107967" lon="13.011875"><ele>197.0</ele><time>2026-04-19T15:13:51.761Z</time></trkpt><trkpt lat="43.5106667" lon="13.0118083"><ele>197.0</ele><time>2026-04-19T15:13:53.761Z</time></trkpt><trkpt lat="43.510585" lon="13.0117667"><ele>197.0</ele><time>2026-04-19T15:13:54.76Z</time></trkpt><trkpt lat="43.5104183" lon="13.0116567"><ele>198.25</ele><time>2026-04-19T15:13:56.761Z</time></trkpt><trkpt lat="43.510325" lon="13.011575"><ele>199.5</ele><time>2026-04-19T15:13:57.761Z</time></trkpt><trkpt lat="43.510225" lon="13.011485"><ele>200.75</ele><time>2026-04-19T15:13:58.76Z</time></trkpt><trkpt lat="43.5101133" lon="13.0114117"><ele>202.0</ele><time>2026-04-19T15:13:59.762Z</time></trkpt><trkpt lat="43.5099917" lon="13.0113467"><ele>202.0</ele><time>2026-04-19T15:14:00.761Z</time></trkpt><trkpt lat="43.5098583" lon="13.0112867"><ele>202.0</ele><time>2026-04-19T15:14:01.761Z</time></trkpt><trkpt lat="43.5097233" lon="13.011215"><ele>202.0</ele><time>2026-04-19T15:14:02.761Z</time></trkpt><trkpt lat="43.50959" lon="13.0111167"><ele>202.0</ele><time>2026-04-19T15:14:03.762Z</time></trkpt><trkpt lat="43.5094533" lon="13.0110017"><ele>203.25</ele><time>2026-04-19T15:14:04.761Z</time></trkpt><trkpt lat="43.509325" lon="13.01088"><ele>204.5</ele><time>2026-04-19T15:14:05.764Z</time></trkpt><trkpt lat="43.5092117" lon="13.0107717"><ele>205.75</ele><time>2026-04-19T15:14:06.761Z</time></trkpt><trkpt lat="43.5091117" lon="13.0106767"><ele>207.0</ele><time>2026-04-19T15:14:07.763Z</time></trkpt><trkpt lat="43.50902" lon="13.0105833"><ele>207.0</ele><time>2026-04-19T15:14:08.764Z</time></trkpt><trkpt lat="43.50893" lon="13.0104933"><ele>207.0</ele><time>2026-04-19T15:14:09.766Z</time></trkpt><trkpt lat="43.50884" lon="13.0104"><ele>207.0</ele><time>2026-04-19T15:14:10.765Z</time></trkpt><trkpt lat="43.5087517" lon="13.0103"><ele>207.0</ele><time>2026-04-19T15:14:11.766Z</time></trkpt><trkpt lat="43.5086617" lon="13.0101883"><ele>209.5</ele><time>2026-04-19T15:14:12.764Z</time></trkpt><trkpt lat="43.50858" lon="13.010065"><ele>212.0</ele><time>2026-04-19T15:14:13.77Z</time></trkpt><trkpt lat="43.508495" lon="13.0099433"><ele>214.5</ele><time>2026-04-19T15:14:14.763Z</time></trkpt><trkpt lat="43.5084083" lon="13.0098267"><ele>217.0</ele><time>2026-04-19T15:14:15.762Z</time></trkpt><trkpt lat="43.5083183" lon="13.00972"><ele>217.0</ele><time>2026-04-19T15:14:16.761Z</time></trkpt><trkpt lat="43.5082283" lon="13.0096133"><ele>217.0</ele><time>2026-04-19T15:14:17.76Z</time></trkpt><trkpt lat="43.5081383" lon="13.0095067"><ele>217.0</ele><time>2026-04-19T15:14:18.765Z</time></trkpt><trkpt lat="43.5080317" lon="13.0094183"><ele>217.0</ele><time>2026-04-19T15:14:19.762Z</time></trkpt><trkpt lat="43.5079067" lon="13.00934"><ele>217.0</ele><time>2026-04-19T15:14:20.762Z</time></trkpt><trkpt lat="43.5077683" lon="13.0092883"><ele>217.0</ele><time>2026-04-19T15:14:21.762Z</time></trkpt><trkpt lat="43.507645" lon="13.009245"><ele>217.0</ele><time>2026-04-19T15:14:22.762Z</time></trkpt><trkpt lat="43.5075367" lon="13.0092017"><ele>217.0</ele><time>2026-04-19T15:14:23.762Z</time></trkpt><trkpt lat="43.5074333" lon="13.0091467"><ele>217.0</ele><time>2026-04-19T15:14:24.762Z</time></trkpt><trkpt lat="43.50733" lon="13.009085"><ele>217.0</ele><time>2026-04-19T15:14:25.76Z</time></trkpt><trkpt lat="43.507215" lon="13.0090283"><ele>217.0</ele><time>2026-04-19T15:14:26.762Z</time></trkpt><trkpt lat="43.507095" lon="13.00898"><ele>217.0</ele><time>2026-04-19T15:14:27.76Z</time></trkpt><trkpt lat="43.5069717" lon="13.00893"><ele>221.25</ele><time>2026-04-19T15:14:28.762Z</time></trkpt><trkpt lat="43.5068483" lon="13.00887"><ele>225.5</ele><time>2026-04-19T15:14:29.761Z</time></trkpt><trkpt lat="43.5067333" lon="13.008805"><ele>229.75</ele><time>2026-04-19T15:14:30.761Z</time></trkpt><trkpt lat="43.50663" lon="13.008735"><ele>234.0</ele><time>2026-04-19T15:14:31.763Z</time></trkpt><trkpt lat="43.5065433" lon="13.0086583"><ele>234.0</ele><time>2026-04-19T15:14:32.762Z</time></trkpt><trkpt lat="43.5064717" lon="13.00858"><ele>233.99999999999997</ele><time>2026-04-19T15:14:33.762Z</time></trkpt><trkpt lat="43.5064083" lon="13.0084917"><ele>233.99999999999997</ele><time>2026-04-19T15:14:34.763Z</time></trkpt><trkpt lat="43.50635" lon="13.0083917"><ele>234.0</ele><time>2026-04-19T15:14:35.765Z</time></trkpt><trkpt lat="43.50629" lon="13.0082783"><ele>234.0</ele><time>2026-04-19T15:14:36.762Z</time></trkpt><trkpt lat="43.5062333" lon="13.0081633"><ele>234.66666666666666</ele><time>2026-04-19T15:14:37.764Z</time></trkpt><trkpt lat="43.5061833" lon="13.008055"><ele>235.33333333333331</ele><time>2026-04-19T15:14:38.761Z</time></trkpt><trkpt lat="43.5061417" lon="13.00796"><ele>236.0</ele><time>2026-04-19T15:14:39.762Z</time></trkpt><trkpt lat="43.5061117" lon="13.0078733"><ele>236.66666666666666</ele><time>2026-04-19T15:14:40.762Z</time></trkpt><trkpt lat="43.506065" lon="13.0077433"><ele>237.33333333333331</ele><time>2026-04-19T15:14:42.761Z</time></trkpt><trkpt lat="43.5060333" lon="13.007665"><ele>238.0</ele><time>2026-04-19T15:14:44.762Z</time></trkpt><trkpt lat="43.5060183" lon="13.0075667"><ele>237.16666666666666</ele><time>2026-04-19T15:14:49.761Z</time></trkpt><trkpt lat="43.5060783" lon="13.0074933"><ele>236.33333333333331</ele><time>2026-04-19T15:14:51.76Z</time></trkpt><trkpt lat="43.506135" lon="13.0074517"><ele>235.5</ele><time>2026-04-19T15:14:52.76Z</time></trkpt><trkpt lat="43.5062033" lon="13.0074017"><ele>234.66666666666669</ele><time>2026-04-19T15:14:53.761Z</time></trkpt><trkpt lat="43.506275" lon="13.007345"><ele>233.83333333333334</ele><time>2026-04-19T15:14:54.76Z</time></trkpt><trkpt lat="43.5063533" lon="13.0072883"><ele>233.0</ele><time>2026-04-19T15:14:55.764Z</time></trkpt><trkpt lat="43.5064283" lon="13.0072167"><ele>230.4</ele><time>2026-04-19T15:14:56.761Z</time></trkpt><trkpt lat="43.5065083" lon="13.0071417"><ele>227.8</ele><time>2026-04-19T15:14:57.761Z</time></trkpt><trkpt lat="43.5065833" lon="13.007055"><ele>225.2</ele><time>2026-04-19T15:14:58.76Z</time></trkpt><trkpt lat="43.5066583" lon="13.0069733"><ele>222.6</ele><time>2026-04-19T15:14:59.76Z</time></trkpt><trkpt lat="43.506725" lon="13.00689"><ele>220.0</ele><time>2026-04-19T15:15:00.76Z</time></trkpt><trkpt lat="43.5067917" lon="13.0068083"><ele>220.0</ele><time>2026-04-19T15:15:01.761Z</time></trkpt><trkpt lat="43.5068683" lon="13.0067233"><ele>220.0</ele><time>2026-04-19T15:15:02.761Z</time></trkpt><trkpt lat="43.506955" lon="13.00665"><ele>220.0</ele><time>2026-04-19T15:15:03.764Z</time></trkpt><trkpt lat="43.50705" lon="13.00659"><ele>220.0</ele><time>2026-04-19T15:15:04.763Z</time></trkpt><trkpt lat="43.5071483" lon="13.00655"><ele>220.0</ele><time>2026-04-19T15:15:05.764Z</time></trkpt><trkpt lat="43.5072483" lon="13.006515"><ele>216.6</ele><time>2026-04-19T15:15:06.761Z</time></trkpt><trkpt lat="43.5073483" lon="13.006475"><ele>213.2</ele><time>2026-04-19T15:15:07.761Z</time></trkpt><trkpt lat="43.5074483" lon="13.00643"><ele>209.8</ele><time>2026-04-19T15:15:08.765Z</time></trkpt><trkpt lat="43.5075467" lon="13.0063733"><ele>206.4</ele><time>2026-04-19T15:15:09.767Z</time></trkpt><trkpt lat="43.50764" lon="13.0063133"><ele>203.0</ele><time>2026-04-19T15:15:10.763Z</time></trkpt><trkpt lat="43.5077317" lon="13.0062567"><ele>203.0</ele><time>2026-04-19T15:15:11.763Z</time></trkpt><trkpt lat="43.5078217" lon="13.0061967"><ele>203.0</ele><time>2026-04-19T15:15:12.766Z</time></trkpt><trkpt lat="43.5079117" lon="13.0061233"><ele>203.0</ele><time>2026-04-19T15:15:13.763Z</time></trkpt><trkpt lat="43.5080017" lon="13.00604"><ele>203.0</ele><time>2026-04-19T15:15:14.765Z</time></trkpt><trkpt lat="43.5080917" lon="13.005955"><ele>203.0</ele><time>2026-04-19T15:15:15.762Z</time></trkpt><trkpt lat="43.508175" lon="13.0058583"><ele>200.0</ele><time>2026-04-19T15:15:16.763Z</time></trkpt><trkpt lat="43.5082567" lon="13.0057583"><ele>197.0</ele><time>2026-04-19T15:15:17.763Z</time></trkpt><trkpt lat="43.5083283" lon="13.005645"><ele>194.0</ele><time>2026-04-19T15:15:18.764Z</time></trkpt><trkpt lat="43.508405" lon="13.0055333"><ele>191.0</ele><time>2026-04-19T15:15:19.762Z</time></trkpt><trkpt lat="43.5084783" lon="13.0054183"><ele>188.0</ele><time>2026-04-19T15:15:20.762Z</time></trkpt><trkpt lat="43.5085483" lon="13.005305"><ele>188.0</ele><time>2026-04-19T15:15:21.762Z</time></trkpt><trkpt lat="43.5086183" lon="13.005195"><ele>188.0</ele><time>2026-04-19T15:15:22.761Z</time></trkpt><trkpt lat="43.5086883" lon="13.005095"><ele>188.0</ele><time>2026-04-19T15:15:23.762Z</time></trkpt><trkpt lat="43.5087567" lon="13.0050033"><ele>188.0</ele><time>2026-04-19T15:15:24.763Z</time></trkpt><trkpt lat="43.5088117" lon="13.0049183"><ele>188.0</ele><time>2026-04-19T15:15:25.765Z</time></trkpt><trkpt lat="43.508855" lon="13.004835"><ele>188.0</ele><time>2026-04-19T15:15:26.762Z</time></trkpt><trkpt lat="43.5088917" lon="13.00475"><ele>188.0</ele><time>2026-04-19T15:15:27.762Z</time></trkpt><trkpt lat="43.50891" lon="13.0046483"><ele>188.0</ele><time>2026-04-19T15:15:28.762Z</time></trkpt><trkpt lat="43.5089067" lon="13.0045217"><ele>188.0</ele><time>2026-04-19T15:15:29.762Z</time></trkpt><trkpt lat="43.5089" lon="13.0043833"><ele>188.0</ele><time>2026-04-19T15:15:30.76Z</time></trkpt><trkpt lat="43.5088983" lon="13.0042117"><ele>190.25</ele><time>2026-04-19T15:15:31.762Z</time></trkpt><trkpt lat="43.5089117" lon="13.00401"><ele>192.5</ele><time>2026-04-19T15:15:32.761Z</time></trkpt><trkpt lat="43.508945" lon="13.0038067"><ele>194.75</ele><time>2026-04-19T15:15:33.763Z</time></trkpt><trkpt lat="43.5089683" lon="13.0036183"><ele>197.0</ele><time>2026-04-19T15:15:34.761Z</time></trkpt><trkpt lat="43.5089817" lon="13.0034333"><ele>199.5</ele><time>2026-04-19T15:15:35.761Z</time></trkpt><trkpt lat="43.5089817" lon="13.003245"><ele>202.0</ele><time>2026-04-19T15:15:36.763Z</time></trkpt><trkpt lat="43.50897" lon="13.0030467"><ele>204.5</ele><time>2026-04-19T15:15:37.76Z</time></trkpt><trkpt lat="43.5089583" lon="13.0028517"><ele>207.0</ele><time>2026-04-19T15:15:38.762Z</time></trkpt><trkpt lat="43.508945" lon="13.00267"><ele>209.5</ele><time>2026-04-19T15:15:39.762Z</time></trkpt><trkpt lat="43.508945" lon="13.0024917"><ele>212.0</ele><time>2026-04-19T15:15:40.761Z</time></trkpt><trkpt lat="43.5089633" lon="13.0023167"><ele>214.5</ele><time>2026-04-19T15:15:41.76Z</time></trkpt><trkpt lat="43.50901" lon="13.002125"><ele>217.0</ele><time>2026-04-19T15:15:42.759Z</time></trkpt><trkpt lat="43.5090633" lon="13.0019283"><ele>217.0</ele><time>2026-04-19T15:15:43.768Z</time></trkpt><trkpt lat="43.5091283" lon="13.00175"><ele>217.0</ele><time>2026-04-19T15:15:44.762Z</time></trkpt><trkpt lat="43.5092017" lon="13.0015883"><ele>217.0</ele><time>2026-04-19T15:15:45.76Z</time></trkpt><trkpt lat="43.5092817" lon="13.0014317"><ele>217.0</ele><time>2026-04-19T15:15:46.761Z</time></trkpt><trkpt lat="43.5093633" lon="13.0012667"><ele>217.5</ele><time>2026-04-19T15:15:47.76Z</time></trkpt><trkpt lat="43.5094417" lon="13.0011033"><ele>218.0</ele><time>2026-04-19T15:15:48.761Z</time></trkpt><trkpt lat="43.509515" lon="13.0009467"><ele>218.5</ele><time>2026-04-19T15:15:49.762Z</time></trkpt><trkpt lat="43.5095983" lon="13.0008"><ele>219.0</ele><time>2026-04-19T15:15:50.761Z</time></trkpt><trkpt lat="43.5096917" lon="13.000665"><ele>223.0</ele><time>2026-04-19T15:15:51.762Z</time></trkpt><trkpt lat="43.5097833" lon="13.0005383"><ele>227.0</ele><time>2026-04-19T15:15:52.76Z</time></trkpt><trkpt lat="43.5098717" lon="13.00041"><ele>231.0</ele><time>2026-04-19T15:15:53.76Z</time></trkpt><trkpt lat="43.50994" lon="13.000265"><ele>235.0</ele><time>2026-04-19T15:15:54.761Z</time></trkpt><trkpt lat="43.509995" lon="13.0000983"><ele>235.0</ele><time>2026-04-19T15:15:55.762Z</time></trkpt><trkpt lat="43.510045" lon="12.999915"><ele>235.0</ele><time>2026-04-19T15:15:56.762Z</time></trkpt><trkpt lat="43.5101" lon="12.99973"><ele>235.0</ele><time>2026-04-19T15:15:57.762Z</time></trkpt><trkpt lat="43.510165" lon="12.9995433"><ele>235.0</ele><time>2026-04-19T15:15:58.761Z</time></trkpt><trkpt lat="43.5102433" lon="12.9993483"><ele>238.0</ele><time>2026-04-19T15:15:59.76Z</time></trkpt><trkpt lat="43.5103317" lon="12.9991433"><ele>241.0</ele><time>2026-04-19T15:16:00.761Z</time></trkpt><trkpt lat="43.51042" lon="12.99893"><ele>244.0</ele><time>2026-04-19T15:16:01.761Z</time></trkpt><trkpt lat="43.5105033" lon="12.99873"><ele>245.0</ele><time>2026-04-19T15:16:02.76Z</time></trkpt><trkpt lat="43.5105833" lon="12.9985467"><ele>246.0</ele><time>2026-04-19T15:16:03.76Z</time></trkpt><trkpt lat="43.5106517" lon="12.9983783"><ele>247.0</ele><time>2026-04-19T15:16:04.764Z</time></trkpt><trkpt lat="43.51072" lon="12.9982217"><ele>248.0</ele><time>2026-04-19T15:16:05.765Z</time></trkpt><trkpt lat="43.510795" lon="12.9980767"><ele>250.33333333333334</ele><time>2026-04-19T15:16:06.761Z</time></trkpt><trkpt lat="43.5108833" lon="12.9979367"><ele>252.66666666666669</ele><time>2026-04-19T15:16:07.76Z</time></trkpt><trkpt lat="43.5110033" lon="12.997795"><ele>255.0</ele><time>2026-04-19T15:16:08.763Z</time></trkpt><trkpt lat="43.511145" lon="12.99765"><ele>256.0</ele><time>2026-04-19T15:16:09.763Z</time></trkpt><trkpt lat="43.5112783" lon="12.99751"><ele>257.0</ele><time>2026-04-19T15:16:10.76Z</time></trkpt><trkpt lat="43.5113967" lon="12.9973733"><ele>258.0</ele><time>2026-04-19T15:16:11.76Z</time></trkpt><trkpt lat="43.5115017" lon="12.9972383"><ele>259.6</ele><time>2026-04-19T15:16:12.76Z</time></trkpt><trkpt lat="43.5115983" lon="12.99711"><ele>261.20000000000005</ele><time>2026-04-19T15:16:13.76Z</time></trkpt><trkpt lat="43.5116767" lon="12.9970017"><ele>262.8</ele><time>2026-04-19T15:16:14.762Z</time></trkpt><trkpt lat="43.5117433" lon="12.99692"><ele>264.40000000000003</ele><time>2026-04-19T15:16:15.762Z</time></trkpt><trkpt lat="43.511795" lon="12.996855"><ele>266.0</ele><time>2026-04-19T15:16:16.761Z</time></trkpt><trkpt lat="43.5118517" lon="12.9967983"><ele>266.0</ele><time>2026-04-19T15:16:18.761Z</time></trkpt><trkpt lat="43.511875" lon="12.9967033"><ele>266.0</ele><time>2026-04-19T15:16:21.762Z</time></trkpt><trkpt lat="43.5118267" lon="12.9965683"><ele>266.0</ele><time>2026-04-19T15:16:23.763Z</time></trkpt><trkpt lat="43.5117983" lon="12.9964667"><ele>266.0</ele><time>2026-04-19T15:16:24.765Z</time></trkpt><trkpt lat="43.5117933" lon="12.99634"><ele>266.0</ele><time>2026-04-19T15:16:25.764Z</time></trkpt><trkpt lat="43.5118233" lon="12.9961783"><ele>267.75</ele><time>2026-04-19T15:16:26.763Z</time></trkpt><trkpt lat="43.5118633" lon="12.9959967"><ele>269.5</ele><time>2026-04-19T15:16:27.762Z</time></trkpt><trkpt lat="43.511905" lon="12.9958017"><ele>271.25</ele><time>2026-04-19T15:16:28.762Z</time></trkpt><trkpt lat="43.5119433" lon="12.9956067"><ele>273.0</ele><time>2026-04-19T15:16:29.762Z</time></trkpt><trkpt lat="43.5119767" lon="12.9954217"><ele>274.25</ele><time>2026-04-19T15:16:30.761Z</time></trkpt><trkpt lat="43.5119917" lon="12.9952367"><ele>275.5</ele><time>2026-04-19T15:16:31.762Z</time></trkpt><trkpt lat="43.5119817" lon="12.995055"><ele>276.75</ele><time>2026-04-19T15:16:32.763Z</time></trkpt><trkpt lat="43.5119433" lon="12.9948883"><ele>278.0</ele><time>2026-04-19T15:16:33.762Z</time></trkpt><trkpt lat="43.5118733" lon="12.99473"><ele>279.0</ele><time>2026-04-19T15:16:34.76Z</time></trkpt><trkpt lat="43.5117783" lon="12.9945833"><ele>280.0</ele><time>2026-04-19T15:16:35.762Z</time></trkpt><trkpt lat="43.511675" lon="12.9944383"><ele>281.0</ele><time>2026-04-19T15:16:36.762Z</time></trkpt><trkpt lat="43.5115817" lon="12.9942983"><ele>282.0</ele><time>2026-04-19T15:16:37.761Z</time></trkpt><trkpt lat="43.5115133" lon="12.9941583"><ele>283.5</ele><time>2026-04-19T15:16:38.764Z</time></trkpt><trkpt lat="43.5114817" lon="12.994"><ele>285.0</ele><time>2026-04-19T15:16:39.761Z</time></trkpt><trkpt lat="43.51149" lon="12.9938333"><ele>286.5</ele><time>2026-04-19T15:16:40.761Z</time></trkpt><trkpt lat="43.5115333" lon="12.9936517"><ele>288.0</ele><time>2026-04-19T15:16:41.76Z</time></trkpt><trkpt lat="43.5116117" lon="12.9934467"><ele>289.3333333333333</ele><time>2026-04-19T15:16:42.759Z</time></trkpt><trkpt lat="43.5116983" lon="12.9932233"><ele>290.66666666666663</ele><time>2026-04-19T15:16:43.76Z</time></trkpt><trkpt lat="43.5117717" lon="12.9930133"><ele>292.0</ele><time>2026-04-19T15:16:44.761Z</time></trkpt><trkpt lat="43.51183" lon="12.9928183"><ele>292.0</ele><time>2026-04-19T15:16:45.761Z</time></trkpt><trkpt lat="43.5118683" lon="12.992625"><ele>292.0</ele><time>2026-04-19T15:16:46.76Z</time></trkpt><trkpt lat="43.51189" lon="12.9924383"><ele>292.0</ele><time>2026-04-19T15:16:47.76Z</time></trkpt><trkpt lat="43.5119017" lon="12.9922417"><ele>292.0</ele><time>2026-04-19T15:16:48.76Z</time></trkpt><trkpt lat="43.5119067" lon="12.9920333"><ele>293.25</ele><time>2026-04-19T15:16:49.76Z</time></trkpt><trkpt lat="43.511905" lon="12.9918317"><ele>294.5</ele><time>2026-04-19T15:16:50.764Z</time></trkpt><trkpt lat="43.511885" lon="12.9916433"><ele>295.75</ele><time>2026-04-19T15:16:51.76Z</time></trkpt><trkpt lat="43.51184" lon="12.991455"><ele>297.0</ele><time>2026-04-19T15:16:52.76Z</time></trkpt><trkpt lat="43.5117767" lon="12.991255"><ele>299.0</ele><time>2026-04-19T15:16:53.762Z</time></trkpt><trkpt lat="43.5117033" lon="12.99105"><ele>301.0</ele><time>2026-04-19T15:16:54.762Z</time></trkpt><trkpt lat="43.5116267" lon="12.9908367"><ele>303.0</ele><time>2026-04-19T15:16:55.761Z</time></trkpt><trkpt lat="43.5115467" lon="12.9906167"><ele>304.3333333333333</ele><time>2026-04-19T15:16:56.76Z</time></trkpt><trkpt lat="43.5114683" lon="12.9903933"><ele>305.66666666666663</ele><time>2026-04-19T15:16:57.84Z</time></trkpt><trkpt lat="43.511395" lon="12.9901767"><ele>307.0</ele><time>2026-04-19T15:16:58.76Z</time></trkpt><trkpt lat="43.511335" lon="12.9899617"><ele>307.0</ele><time>2026-04-19T15:16:59.763Z</time></trkpt><trkpt lat="43.5113017" lon="12.989745"><ele>307.0</ele><time>2026-04-19T15:17:00.765Z</time></trkpt><trkpt lat="43.5113" lon="12.9895133"><ele>307.0</ele><time>2026-04-19T15:17:01.76Z</time></trkpt><trkpt lat="43.5113217" lon="12.9892717"><ele>308.3333333333333</ele><time>2026-04-19T15:17:02.762Z</time></trkpt><trkpt lat="43.5113483" lon="12.9890233"><ele>309.6666666666667</ele><time>2026-04-19T15:17:03.762Z</time></trkpt><trkpt lat="43.51137" lon="12.988795"><ele>311.0</ele><time>2026-04-19T15:17:04.761Z</time></trkpt><trkpt lat="43.51139" lon="12.9886"><ele>311.0</ele><time>2026-04-19T15:17:05.76Z</time></trkpt><trkpt lat="43.5113983" lon="12.9884433"><ele>311.0</ele><time>2026-04-19T15:17:06.76Z</time></trkpt><trkpt lat="43.5113917" lon="12.9883233"><ele>311.0</ele><time>2026-04-19T15:17:07.759Z</time></trkpt><trkpt lat="43.511365" lon="12.988225"><ele>311.0</ele><time>2026-04-19T15:17:08.76Z</time></trkpt><trkpt lat="43.5113083" lon="12.98815"><ele>311.0</ele><time>2026-04-19T15:17:09.764Z</time></trkpt><trkpt lat="43.5112267" lon="12.98811"><ele>311.0</ele><time>2026-04-19T15:17:10.761Z</time></trkpt><trkpt lat="43.5111167" lon="12.98809"><ele>314.5</ele><time>2026-04-19T15:17:11.764Z</time></trkpt><trkpt lat="43.5109883" lon="12.9880867"><ele>318.0</ele><time>2026-04-19T15:17:12.763Z</time></trkpt><trkpt lat="43.5108583" lon="12.9880917"><ele>321.5</ele><time>2026-04-19T15:17:13.765Z</time></trkpt><trkpt lat="43.5107333" lon="12.988105"><ele>325.0</ele><time>2026-04-19T15:17:14.762Z</time></trkpt><trkpt lat="43.5106217" lon="12.9881183"><ele>325.0</ele><time>2026-04-19T15:17:15.76Z</time></trkpt><trkpt lat="43.51053" lon="12.9881183"><ele>325.0</ele><time>2026-04-19T15:17:16.763Z</time></trkpt><trkpt lat="43.5104533" lon="12.9881017"><ele>325.0</ele><time>2026-04-19T15:17:17.76Z</time></trkpt><trkpt lat="43.510365" lon="12.98801"><ele>325.0</ele><time>2026-04-19T15:17:19.765Z</time></trkpt><trkpt lat="43.5104067" lon="12.9878483"><ele>325.0</ele><time>2026-04-19T15:17:21.763Z</time></trkpt><trkpt lat="43.5104717" lon="12.9877683"><ele>325.0</ele><time>2026-04-19T15:17:22.763Z</time></trkpt><trkpt lat="43.5105317" lon="12.987675"><ele>325.0</ele><time>2026-04-19T15:17:23.763Z</time></trkpt><trkpt lat="43.5105783" lon="12.9875667"><ele>325.0</ele><time>2026-04-19T15:17:24.763Z</time></trkpt><trkpt lat="43.5106033" lon="12.9874467"><ele>325.0</ele><time>2026-04-19T15:17:25.763Z</time></trkpt><trkpt lat="43.510625" lon="12.9873317"><ele>325.0</ele><time>2026-04-19T15:17:26.762Z</time></trkpt><trkpt lat="43.5106367" lon="12.987245"><ele>325.0</ele><time>2026-04-19T15:17:27.762Z</time></trkpt><trkpt lat="43.510625" lon="12.9870833"><ele>326.4</ele><time>2026-04-19T15:17:29.76Z</time></trkpt><trkpt lat="43.510585" lon="12.98697"><ele>327.8</ele><time>2026-04-19T15:17:30.762Z</time></trkpt><trkpt lat="43.5105317" lon="12.9868417"><ele>329.20000000000005</ele><time>2026-04-19T15:17:31.76Z</time></trkpt><trkpt lat="43.5105" lon="12.9867"><ele>330.6</ele><time>2026-04-19T15:17:32.762Z</time></trkpt><trkpt lat="43.51049" lon="12.9865433"><ele>332.0</ele><time>2026-04-19T15:17:33.76Z</time></trkpt><trkpt lat="43.5105067" lon="12.9863833"><ele>332.5</ele><time>2026-04-19T15:17:34.762Z</time></trkpt><trkpt lat="43.5105417" lon="12.986215"><ele>333.0</ele><time>2026-04-19T15:17:35.763Z</time></trkpt><trkpt lat="43.51059" lon="12.9860433"><ele>333.5</ele><time>2026-04-19T15:17:36.762Z</time></trkpt><trkpt lat="43.5106383" lon="12.985875"><ele>334.0</ele><time>2026-04-19T15:17:37.76Z</time></trkpt><trkpt lat="43.5106833" lon="12.9857067"><ele>335.0</ele><time>2026-04-19T15:17:38.76Z</time></trkpt><trkpt lat="43.51072" lon="12.9855483"><ele>336.0</ele><time>2026-04-19T15:17:39.762Z</time></trkpt><trkpt lat="43.51073" lon="12.985405"><ele>337.0</ele><time>2026-04-19T15:17:40.761Z</time></trkpt><trkpt lat="43.5107267" lon="12.9852683"><ele>338.0</ele><time>2026-04-19T15:17:41.76Z</time></trkpt><trkpt lat="43.5106967" lon="12.9851367"><ele>339.0</ele><time>2026-04-19T15:17:42.761Z</time></trkpt><trkpt lat="43.5106483" lon="12.9850067"><ele>338.25</ele><time>2026-04-19T15:17:43.76Z</time></trkpt><trkpt lat="43.51058" lon="12.9848767"><ele>337.5</ele><time>2026-04-19T15:17:44.76Z</time></trkpt><trkpt lat="43.5105083" lon="12.9847333"><ele>336.75</ele><time>2026-04-19T15:17:45.761Z</time></trkpt><trkpt lat="43.5104417" lon="12.98457"><ele>336.0</ele><time>2026-04-19T15:17:46.761Z</time></trkpt><trkpt lat="43.5103833" lon="12.9843933"><ele>336.0</ele><time>2026-04-19T15:17:47.76Z</time></trkpt><trkpt lat="43.5103417" lon="12.9841967"><ele>336.0</ele><time>2026-04-19T15:17:48.761Z</time></trkpt><trkpt lat="43.510305" lon="12.9839983"><ele>336.0</ele><time>2026-04-19T15:17:49.761Z</time></trkpt><trkpt lat="43.510255" lon="12.983805"><ele>336.0</ele><time>2026-04-19T15:17:50.761Z</time></trkpt><trkpt lat="43.5101867" lon="12.9836267"><ele>338.0</ele><time>2026-04-19T15:17:51.761Z</time></trkpt><trkpt lat="43.5101083" lon="12.98347"><ele>340.0</ele><time>2026-04-19T15:17:52.761Z</time></trkpt><trkpt lat="43.5100333" lon="12.9833217"><ele>342.0</ele><time>2026-04-19T15:17:53.762Z</time></trkpt><trkpt lat="43.509965" lon="12.9831783"><ele>344.0</ele><time>2026-04-19T15:17:54.761Z</time></trkpt><trkpt lat="43.50991" lon="12.9830317"><ele>347.25</ele><time>2026-04-19T15:17:55.76Z</time></trkpt><trkpt lat="43.5098767" lon="12.98288"><ele>350.5</ele><time>2026-04-19T15:17:56.762Z</time></trkpt><trkpt lat="43.509865" lon="12.9827133"><ele>353.75</ele><time>2026-04-19T15:17:57.76Z</time></trkpt><trkpt lat="43.5098633" lon="12.9825317"><ele>357.0</ele><time>2026-04-19T15:17:58.761Z</time></trkpt><trkpt lat="43.5098633" lon="12.9823367"><ele>359.0</ele><time>2026-04-19T15:17:59.76Z</time></trkpt><trkpt lat="43.5098617" lon="12.98214"><ele>361.0</ele><time>2026-04-19T15:18:00.765Z</time></trkpt><trkpt lat="43.509865" lon="12.9819417"><ele>363.0</ele><time>2026-04-19T15:18:01.76Z</time></trkpt><trkpt lat="43.509865" lon="12.9817383"><ele>365.0</ele><time>2026-04-19T15:18:02.763Z</time></trkpt><trkpt lat="43.5098633" lon="12.98153"><ele>365.0</ele><time>2026-04-19T15:18:03.762Z</time></trkpt><trkpt lat="43.5098567" lon="12.98132"><ele>365.0</ele><time>2026-04-19T15:18:04.761Z</time></trkpt><trkpt lat="43.5098467" lon="12.9811233"><ele>365.0</ele><time>2026-04-19T15:18:05.763Z</time></trkpt><trkpt lat="43.5098283" lon="12.980945"><ele>365.0</ele><time>2026-04-19T15:18:06.761Z</time></trkpt><trkpt lat="43.5098017" lon="12.9807867"><ele>364.5</ele><time>2026-04-19T15:18:07.76Z</time></trkpt><trkpt lat="43.5097517" lon="12.9806333"><ele>364.0</ele><time>2026-04-19T15:18:08.763Z</time></trkpt><trkpt lat="43.50968" lon="12.980495"><ele>363.5</ele><time>2026-04-19T15:18:09.762Z</time></trkpt><trkpt lat="43.5095833" lon="12.980375"><ele>363.0</ele><time>2026-04-19T15:18:10.762Z</time></trkpt><trkpt lat="43.5094683" lon="12.9802533"><ele>363.0</ele><time>2026-04-19T15:18:11.763Z</time></trkpt><trkpt lat="43.5093467" lon="12.9801233"><ele>363.0</ele><time>2026-04-19T15:18:12.76Z</time></trkpt><trkpt lat="43.5092183" lon="12.979995"><ele>363.0</ele><time>2026-04-19T15:18:13.76Z</time></trkpt><trkpt lat="43.509105" lon="12.9798767"><ele>362.4</ele><time>2026-04-19T15:18:14.761Z</time></trkpt><trkpt lat="43.5090067" lon="12.979765"><ele>361.79999999999995</ele><time>2026-04-19T15:18:15.761Z</time></trkpt><trkpt lat="43.50891" lon="12.97968"><ele>361.2</ele><time>2026-04-19T15:18:16.761Z</time></trkpt><trkpt lat="43.5088183" lon="12.9796217"><ele>360.6</ele><time>2026-04-19T15:18:17.764Z</time></trkpt><trkpt lat="43.5087267" lon="12.9795767"><ele>360.0</ele><time>2026-04-19T15:18:18.762Z</time></trkpt><trkpt lat="43.5086367" lon="12.979545"><ele>359.2</ele><time>2026-04-19T15:18:19.762Z</time></trkpt><trkpt lat="43.5085483" lon="12.979505"><ele>358.4</ele><time>2026-04-19T15:18:20.764Z</time></trkpt><trkpt lat="43.5084533" lon="12.97945"><ele>357.6</ele><time>2026-04-19T15:18:21.761Z</time></trkpt><trkpt lat="43.5083717" lon="12.979365"><ele>356.8</ele><time>2026-04-19T15:18:22.761Z</time></trkpt><trkpt lat="43.50831" lon="12.979255"><ele>356.0</ele><time>2026-04-19T15:18:23.76Z</time></trkpt><trkpt lat="43.5082633" lon="12.9791317"><ele>355.0</ele><time>2026-04-19T15:18:24.762Z</time></trkpt><trkpt lat="43.508225" lon="12.979"><ele>354.0</ele><time>2026-04-19T15:18:25.762Z</time></trkpt><trkpt lat="43.50819" lon="12.97886"><ele>353.0</ele><time>2026-04-19T15:18:26.76Z</time></trkpt><trkpt lat="43.5081533" lon="12.97873"><ele>352.0</ele><time>2026-04-19T15:18:27.763Z</time></trkpt><trkpt lat="43.5081133" lon="12.97861"><ele>351.0</ele><time>2026-04-19T15:18:28.761Z</time></trkpt><trkpt lat="43.5080667" lon="12.9785"><ele>351.0</ele><time>2026-04-19T15:18:29.761Z</time></trkpt><trkpt lat="43.508005" lon="12.9783917"><ele>351.0</ele><time>2026-04-19T15:18:30.763Z</time></trkpt><trkpt lat="43.5079333" lon="12.978285"><ele>351.0</ele><time>2026-04-19T15:18:31.76Z</time></trkpt><trkpt lat="43.5078467" lon="12.978185"><ele>351.0</ele><time>2026-04-19T15:18:32.762Z</time></trkpt><trkpt lat="43.507745" lon="12.9780967"><ele>351.0</ele><time>2026-04-19T15:18:33.76Z</time></trkpt><trkpt lat="43.5076367" lon="12.9780067"><ele>350.0</ele><time>2026-04-19T15:18:34.763Z</time></trkpt><trkpt lat="43.507525" lon="12.977915"><ele>349.0</ele><time>2026-04-19T15:18:35.762Z</time></trkpt><trkpt lat="43.5074133" lon="12.97783"><ele>348.0</ele><time>2026-04-19T15:18:36.761Z</time></trkpt><trkpt lat="43.5073083" lon="12.9777483"><ele>347.0</ele><time>2026-04-19T15:18:37.761Z</time></trkpt><trkpt lat="43.5072067" lon="12.9776733"><ele>347.0</ele><time>2026-04-19T15:18:38.762Z</time></trkpt><trkpt lat="43.5071067" lon="12.9776067"><ele>347.0</ele><time>2026-04-19T15:18:39.761Z</time></trkpt><trkpt lat="43.507" lon="12.9775583"><ele>347.0</ele><time>2026-04-19T15:18:40.76Z</time></trkpt><trkpt lat="43.50688" lon="12.9775217"><ele>347.0</ele><time>2026-04-19T15:18:41.76Z</time></trkpt><trkpt lat="43.5067517" lon="12.977485"><ele>346.25</ele><time>2026-04-19T15:18:42.761Z</time></trkpt><trkpt lat="43.5066167" lon="12.9774567"><ele>345.5</ele><time>2026-04-19T15:18:43.76Z</time></trkpt><trkpt lat="43.5064783" lon="12.9774267"><ele>344.75</ele><time>2026-04-19T15:18:44.76Z</time></trkpt><trkpt lat="43.5063417" lon="12.9773983"><ele>344.0</ele><time>2026-04-19T15:18:45.761Z</time></trkpt><trkpt lat="43.5062017" lon="12.9773683"><ele>343.5</ele><time>2026-04-19T15:18:46.761Z</time></trkpt><trkpt lat="43.5060617" lon="12.977335"><ele>343.0</ele><time>2026-04-19T15:18:47.764Z</time></trkpt><trkpt lat="43.50592" lon="12.9773"><ele>342.5</ele><time>2026-04-19T15:18:48.761Z</time></trkpt><trkpt lat="43.5057783" lon="12.9772617"><ele>342.0</ele><time>2026-04-19T15:18:49.765Z</time></trkpt><trkpt lat="43.5056367" lon="12.977215"><ele>342.0</ele><time>2026-04-19T15:18:50.762Z</time></trkpt><trkpt lat="43.5054983" lon="12.9771583"><ele>342.0</ele><time>2026-04-19T15:18:51.761Z</time></trkpt><trkpt lat="43.5053633" lon="12.97709"><ele>342.0</ele><time>2026-04-19T15:18:52.761Z</time></trkpt><trkpt lat="43.50523" lon="12.9770133"><ele>342.0</ele><time>2026-04-19T15:18:53.76Z</time></trkpt><trkpt lat="43.5050967" lon="12.9769233"><ele>340.3333333333333</ele><time>2026-04-19T15:18:54.761Z</time></trkpt><trkpt lat="43.50496" lon="12.97682"><ele>338.66666666666663</ele><time>2026-04-19T15:18:55.76Z</time></trkpt><trkpt lat="43.5048217" lon="12.9766983"><ele>337.0</ele><time>2026-04-19T15:18:56.76Z</time></trkpt><trkpt lat="43.504695" lon="12.976555"><ele>336.3333333333333</ele><time>2026-04-19T15:18:57.768Z</time></trkpt><trkpt lat="43.50457" lon="12.9763983"><ele>335.6666666666667</ele><time>2026-04-19T15:18:58.761Z</time></trkpt><trkpt lat="43.504455" lon="12.9762267"><ele>335.0</ele><time>2026-04-19T15:18:59.761Z</time></trkpt><trkpt lat="43.5043467" lon="12.97605"><ele>335.0</ele><time>2026-04-19T15:19:00.761Z</time></trkpt><trkpt lat="43.504245" lon="12.9758733"><ele>335.0</ele><time>2026-04-19T15:19:01.762Z</time></trkpt><trkpt lat="43.504155" lon="12.9757067"><ele>335.0</ele><time>2026-04-19T15:19:02.761Z</time></trkpt><trkpt lat="43.50408" lon="12.975565"><ele>335.0</ele><time>2026-04-19T15:19:03.761Z</time></trkpt><trkpt lat="43.50402" lon="12.97545"><ele>335.83333333333337</ele><time>2026-04-19T15:19:04.762Z</time></trkpt><trkpt lat="43.5039683" lon="12.9753567"><ele>336.6666666666667</ele><time>2026-04-19T15:19:05.761Z</time></trkpt><trkpt lat="43.5039217" lon="12.97527"><ele>337.5</ele><time>2026-04-19T15:19:06.76Z</time></trkpt><trkpt lat="43.5038717" lon="12.9751867"><ele>338.3333333333333</ele><time>2026-04-19T15:19:07.762Z</time></trkpt><trkpt lat="43.50381" lon="12.9751067"><ele>339.16666666666663</ele><time>2026-04-19T15:19:08.765Z</time></trkpt><trkpt lat="43.5037367" lon="12.97502"><ele>340.0</ele><time>2026-04-19T15:19:09.761Z</time></trkpt><trkpt lat="43.50366" lon="12.97492"><ele>340.0</ele><time>2026-04-19T15:19:10.762Z</time></trkpt><trkpt lat="43.5035767" lon="12.9748117"><ele>340.0</ele><time>2026-04-19T15:19:11.761Z</time></trkpt><trkpt lat="43.50348" lon="12.9746883"><ele>340.0</ele><time>2026-04-19T15:19:12.761Z</time></trkpt><trkpt lat="43.5033733" lon="12.9745533"><ele>340.0</ele><time>2026-04-19T15:19:13.763Z</time></trkpt><trkpt lat="43.50326" lon="12.9744133"><ele>340.0</ele><time>2026-04-19T15:19:14.761Z</time></trkpt><trkpt lat="43.5031467" lon="12.9742767"><ele>340.0</ele><time>2026-04-19T15:19:15.763Z</time></trkpt><trkpt lat="43.5030383" lon="12.9741517"><ele>340.0</ele><time>2026-04-19T15:19:16.763Z</time></trkpt><trkpt lat="43.5029367" lon="12.974035"><ele>340.0</ele><time>2026-04-19T15:19:17.762Z</time></trkpt><trkpt lat="43.5028417" lon="12.9739233"><ele>338.6</ele><time>2026-04-19T15:19:18.761Z</time></trkpt><trkpt lat="43.5027517" lon="12.973815"><ele>337.2</ele><time>2026-04-19T15:19:19.761Z</time></trkpt><trkpt lat="43.502675" lon="12.9737067"><ele>335.79999999999995</ele><time>2026-04-19T15:19:20.761Z</time></trkpt><trkpt lat="43.5026117" lon="12.973595"><ele>334.4</ele><time>2026-04-19T15:19:21.762Z</time></trkpt><trkpt lat="43.502565" lon="12.9734633"><ele>333.0</ele><time>2026-04-19T15:19:22.76Z</time></trkpt><trkpt lat="43.50253" lon="12.9733133"><ele>332.4</ele><time>2026-04-19T15:19:23.76Z</time></trkpt><trkpt lat="43.502505" lon="12.9731583"><ele>331.79999999999995</ele><time>2026-04-19T15:19:24.763Z</time></trkpt><trkpt lat="43.5024833" lon="12.9730067"><ele>331.2</ele><time>2026-04-19T15:19:25.76Z</time></trkpt><trkpt lat="43.50246" lon="12.9728633"><ele>330.6</ele><time>2026-04-19T15:19:26.761Z</time></trkpt><trkpt lat="43.5024267" lon="12.972725"><ele>330.0</ele><time>2026-04-19T15:19:27.761Z</time></trkpt><trkpt lat="43.502385" lon="12.972595"><ele>328.5</ele><time>2026-04-19T15:19:28.76Z</time></trkpt><trkpt lat="43.502325" lon="12.97247"><ele>327.0</ele><time>2026-04-19T15:19:29.761Z</time></trkpt><trkpt lat="43.5022467" lon="12.9723483"><ele>325.5</ele><time>2026-04-19T15:19:30.763Z</time></trkpt><trkpt lat="43.50215" lon="12.972225"><ele>324.0</ele><time>2026-04-19T15:19:31.761Z</time></trkpt><trkpt lat="43.5020567" lon="12.9721017"><ele>324.0</ele><time>2026-04-19T15:19:32.763Z</time></trkpt><trkpt lat="43.5019633" lon="12.9719917"><ele>324.0</ele><time>2026-04-19T15:19:33.762Z</time></trkpt><trkpt lat="43.5018667" lon="12.9718767"><ele>324.0</ele><time>2026-04-19T15:19:34.761Z</time></trkpt><trkpt lat="43.5017917" lon="12.9717933"><ele>324.0</ele><time>2026-04-19T15:19:35.762Z</time></trkpt><trkpt lat="43.501705" lon="12.9717417"><ele>324.0</ele><time>2026-04-19T15:19:36.762Z</time></trkpt><trkpt lat="43.50161" lon="12.971705"><ele>324.0</ele><time>2026-04-19T15:19:37.76Z</time></trkpt><trkpt lat="43.5015" lon="12.9716733"><ele>324.0</ele><time>2026-04-19T15:19:38.761Z</time></trkpt><trkpt lat="43.5013883" lon="12.9716533"><ele>324.0</ele><time>2026-04-19T15:19:39.761Z</time></trkpt><trkpt lat="43.50128" lon="12.9716367"><ele>324.0</ele><time>2026-04-19T15:19:40.761Z</time></trkpt><trkpt lat="43.5011783" lon="12.9716217"><ele>324.0</ele><time>2026-04-19T15:19:41.76Z</time></trkpt><trkpt lat="43.5010733" lon="12.9716"><ele>324.0</ele><time>2026-04-19T15:19:42.762Z</time></trkpt><trkpt lat="43.5009717" lon="12.9715667"><ele>324.0</ele><time>2026-04-19T15:19:43.763Z</time></trkpt><trkpt lat="43.50087" lon="12.9715317"><ele>324.0</ele><time>2026-04-19T15:19:44.761Z</time></trkpt><trkpt lat="43.500775" lon="12.9714883"><ele>324.0</ele><time>2026-04-19T15:19:45.76Z</time></trkpt><trkpt lat="43.50068" lon="12.9714433"><ele>324.0</ele><time>2026-04-19T15:19:46.76Z</time></trkpt><trkpt lat="43.5005867" lon="12.9713983"><ele>324.0</ele><time>2026-04-19T15:19:47.761Z</time></trkpt><trkpt lat="43.5005017" lon="12.9713567"><ele>324.0</ele><time>2026-04-19T15:19:48.761Z</time></trkpt><trkpt lat="43.5004267" lon="12.9713267"><ele>324.0</ele><time>2026-04-19T15:19:49.76Z</time></trkpt><trkpt lat="43.50036" lon="12.9713"><ele>324.0</ele><time>2026-04-19T15:19:50.761Z</time></trkpt><trkpt lat="43.500295" lon="12.971275"><ele>324.0</ele><time>2026-04-19T15:19:51.761Z</time></trkpt><trkpt lat="43.5002283" lon="12.9712467"><ele>324.0</ele><time>2026-04-19T15:19:52.766Z</time></trkpt><trkpt lat="43.500165" lon="12.971215"><ele>324.0</ele><time>2026-04-19T15:19:53.76Z</time></trkpt><trkpt lat="43.5001017" lon="12.9711817"><ele>322.8</ele><time>2026-04-19T15:19:54.761Z</time></trkpt><trkpt lat="43.5000333" lon="12.97115"><ele>321.59999999999997</ele><time>2026-04-19T15:19:55.76Z</time></trkpt><trkpt lat="43.4999617" lon="12.97113"><ele>320.4</ele><time>2026-04-19T15:19:56.761Z</time></trkpt><trkpt lat="43.49988" lon="12.9711083"><ele>319.2</ele><time>2026-04-19T15:19:57.764Z</time></trkpt><trkpt lat="43.49978" lon="12.971075"><ele>318.0</ele><time>2026-04-19T15:19:58.761Z</time></trkpt><trkpt lat="43.4996617" lon="12.9710117"><ele>317.3333333333333</ele><time>2026-04-19T15:19:59.764Z</time></trkpt><trkpt lat="43.499535" lon="12.97092"><ele>316.66666666666663</ele><time>2026-04-19T15:20:00.761Z</time></trkpt><trkpt lat="43.49941" lon="12.9707933"><ele>316.0</ele><time>2026-04-19T15:20:01.762Z</time></trkpt><trkpt lat="43.4992817" lon="12.9706217"><ele>315.66666666666663</ele><time>2026-04-19T15:20:02.762Z</time></trkpt><trkpt lat="43.4991567" lon="12.9704217"><ele>315.3333333333333</ele><time>2026-04-19T15:20:03.761Z</time></trkpt><trkpt lat="43.499045" lon="12.9702283"><ele>315.0</ele><time>2026-04-19T15:20:04.76Z</time></trkpt><trkpt lat="43.4989417" lon="12.9700517"><ele>316.25</ele><time>2026-04-19T15:20:05.762Z</time></trkpt><trkpt lat="43.4988433" lon="12.96989"><ele>317.5</ele><time>2026-04-19T15:20:06.761Z</time></trkpt><trkpt lat="43.4987567" lon="12.9697317"><ele>318.75</ele><time>2026-04-19T15:20:07.762Z</time></trkpt><trkpt lat="43.498685" lon="12.9695667"><ele>320.0</ele><time>2026-04-19T15:20:08.76Z</time></trkpt><trkpt lat="43.498635" lon="12.969385"><ele>317.6666666666667</ele><time>2026-04-19T15:20:09.762Z</time></trkpt><trkpt lat="43.4986133" lon="12.9691783"><ele>315.3333333333333</ele><time>2026-04-19T15:20:10.761Z</time></trkpt><trkpt lat="43.4986233" lon="12.9689617"><ele>313.0</ele><time>2026-04-19T15:20:11.76Z</time></trkpt><trkpt lat="43.4986617" lon="12.96875"><ele>313.0</ele><time>2026-04-19T15:20:12.761Z</time></trkpt><trkpt lat="43.4987167" lon="12.968555"><ele>313.0</ele><time>2026-04-19T15:20:13.762Z</time></trkpt><trkpt lat="43.4987733" lon="12.9683733"><ele>313.0</ele><time>2026-04-19T15:20:14.764Z</time></trkpt><trkpt lat="43.4988383" lon="12.9681933"><ele>313.0</ele><time>2026-04-19T15:20:15.762Z</time></trkpt><trkpt lat="43.4989167" lon="12.9680233"><ele>308.5</ele><time>2026-04-19T15:20:16.761Z</time></trkpt><trkpt lat="43.4990067" lon="12.96787"><ele>304.0</ele><time>2026-04-19T15:20:17.76Z</time></trkpt><trkpt lat="43.499105" lon="12.9677417"><ele>299.5</ele><time>2026-04-19T15:20:18.762Z</time></trkpt><trkpt lat="43.4992033" lon="12.9676383"><ele>295.0</ele><time>2026-04-19T15:20:19.763Z</time></trkpt><trkpt lat="43.4992983" lon="12.96756"><ele>295.16666666666663</ele><time>2026-04-19T15:20:20.764Z</time></trkpt><trkpt lat="43.4993817" lon="12.9675067"><ele>295.3333333333333</ele><time>2026-04-19T15:20:21.762Z</time></trkpt><trkpt lat="43.4994483" lon="12.9674583"><ele>295.5</ele><time>2026-04-19T15:20:22.761Z</time></trkpt><trkpt lat="43.499495" lon="12.967385"><ele>295.6666666666667</ele><time>2026-04-19T15:20:23.762Z</time></trkpt><trkpt lat="43.4995067" lon="12.9672917"><ele>295.83333333333337</ele><time>2026-04-19T15:20:24.763Z</time></trkpt><trkpt lat="43.499485" lon="12.9671983"><ele>296.0</ele><time>2026-04-19T15:20:25.761Z</time></trkpt><trkpt lat="43.4994233" lon="12.967105"><ele>296.0</ele><time>2026-04-19T15:20:26.762Z</time></trkpt><trkpt lat="43.4993617" lon="12.9670383"><ele>296.0</ele><time>2026-04-19T15:20:27.763Z</time></trkpt><trkpt lat="43.4992267" lon="12.9669617"><ele>296.0</ele><time>2026-04-19T15:20:28.76Z</time></trkpt><trkpt lat="43.4990817" lon="12.96686"><ele>296.0</ele><time>2026-04-19T15:20:29.763Z</time></trkpt><trkpt lat="43.4989467" lon="12.9667483"><ele>296.0</ele><time>2026-04-19T15:20:30.763Z</time></trkpt><trkpt lat="43.4988283" lon="12.9666317"><ele>296.0</ele><time>2026-04-19T15:20:31.76Z</time></trkpt><trkpt lat="43.4987333" lon="12.9665183"><ele>296.0</ele><time>2026-04-19T15:20:32.76Z</time></trkpt><trkpt lat="43.4986583" lon="12.96639"><ele>296.0</ele><time>2026-04-19T15:20:33.761Z</time></trkpt><trkpt lat="43.498605" lon="12.9662383"><ele>296.0</ele><time>2026-04-19T15:20:34.761Z</time></trkpt><trkpt lat="43.498575" lon="12.9660617"><ele>296.0</ele><time>2026-04-19T15:20:35.761Z</time></trkpt><trkpt lat="43.4985567" lon="12.9658783"><ele>296.0</ele><time>2026-04-19T15:20:36.762Z</time></trkpt><trkpt lat="43.4985433" lon="12.9657033"><ele>296.0</ele><time>2026-04-19T15:20:37.76Z</time></trkpt><trkpt lat="43.4985217" lon="12.96554"><ele>294.5</ele><time>2026-04-19T15:20:38.762Z</time></trkpt><trkpt lat="43.49848" lon="12.9653867"><ele>293.0</ele><time>2026-04-19T15:20:39.76Z</time></trkpt><trkpt lat="43.4984117" lon="12.9652383"><ele>291.5</ele><time>2026-04-19T15:20:40.761Z</time></trkpt><trkpt lat="43.4983167" lon="12.9650917"><ele>290.0</ele><time>2026-04-19T15:20:41.76Z</time></trkpt><trkpt lat="43.4982133" lon="12.9649383"><ele>293.33333333333337</ele><time>2026-04-19T15:20:42.762Z</time></trkpt><trkpt lat="43.4981133" lon="12.964775"><ele>296.6666666666667</ele><time>2026-04-19T15:20:43.761Z</time></trkpt><trkpt lat="43.4980067" lon="12.9646033"><ele>300.0</ele><time>2026-04-19T15:20:44.762Z</time></trkpt><trkpt lat="43.4978983" lon="12.9644317"><ele>300.0</ele><time>2026-04-19T15:20:45.76Z</time></trkpt><trkpt lat="43.4977917" lon="12.9642483"><ele>300.0</ele><time>2026-04-19T15:20:46.76Z</time></trkpt><trkpt lat="43.4976733" lon="12.9640717"><ele>300.0</ele><time>2026-04-19T15:20:47.76Z</time></trkpt><trkpt lat="43.4975617" lon="12.9639017"><ele>293.3333333333333</ele><time>2026-04-19T15:20:48.76Z</time></trkpt><trkpt lat="43.497455" lon="12.963735"><ele>286.66666666666663</ele><time>2026-04-19T15:20:49.762Z</time></trkpt><trkpt lat="43.4973567" lon="12.9635767"><ele>280.0</ele><time>2026-04-19T15:20:50.763Z</time></trkpt><trkpt lat="43.4972583" lon="12.9634317"><ele>282.2</ele><time>2026-04-19T15:20:51.768Z</time></trkpt><trkpt lat="43.4971533" lon="12.9633083"><ele>284.4</ele><time>2026-04-19T15:20:52.762Z</time></trkpt><trkpt lat="43.497055" lon="12.9631983"><ele>286.6</ele><time>2026-04-19T15:20:53.762Z</time></trkpt><trkpt lat="43.4969783" lon="12.9631017"><ele>288.8</ele><time>2026-04-19T15:20:54.762Z</time></trkpt><trkpt lat="43.4969317" lon="12.9630117"><ele>291.0</ele><time>2026-04-19T15:20:55.762Z</time></trkpt><trkpt lat="43.4969183" lon="12.9629217"><ele>291.0</ele><time>2026-04-19T15:20:56.762Z</time></trkpt><trkpt lat="43.49702" lon="12.96282"><ele>291.0</ele><time>2026-04-19T15:20:58.762Z</time></trkpt><trkpt lat="43.4971033" lon="12.9628467"><ele>291.0</ele><time>2026-04-19T15:20:59.762Z</time></trkpt><trkpt lat="43.4971817" lon="12.9629033"><ele>291.0</ele><time>2026-04-19T15:21:00.762Z</time></trkpt><trkpt lat="43.4972683" lon="12.96301"><ele>291.0</ele><time>2026-04-19T15:21:01.762Z</time></trkpt><trkpt lat="43.4973633" lon="12.9631417"><ele>288.25</ele><time>2026-04-19T15:21:02.76Z</time></trkpt><trkpt lat="43.49747" lon="12.9632767"><ele>285.5</ele><time>2026-04-19T15:21:03.764Z</time></trkpt><trkpt lat="43.4975833" lon="12.963415"><ele>282.75</ele><time>2026-04-19T15:21:04.761Z</time></trkpt><trkpt lat="43.4976983" lon="12.9635417"><ele>280.0</ele><time>2026-04-19T15:21:05.764Z</time></trkpt><trkpt lat="43.497805" lon="12.96364"><ele>280.0</ele><time>2026-04-19T15:21:06.763Z</time></trkpt><trkpt lat="43.4979033" lon="12.9637033"><ele>280.0</ele><time>2026-04-19T15:21:07.763Z</time></trkpt><trkpt lat="43.498005" lon="12.9637233"><ele>280.0</ele><time>2026-04-19T15:21:08.761Z</time></trkpt><trkpt lat="43.4981167" lon="12.96369"><ele>280.0</ele><time>2026-04-19T15:21:09.763Z</time></trkpt><trkpt lat="43.4982417" lon="12.9635867"><ele>268.0</ele><time>2026-04-19T15:21:10.764Z</time></trkpt><trkpt lat="43.4984067" lon="12.9634217"><ele>256.0</ele><time>2026-04-19T15:21:11.764Z</time></trkpt><trkpt lat="43.49861" lon="12.9632267"><ele>252.0</ele><time>2026-04-19T15:21:12.761Z</time></trkpt><trkpt lat="43.498815" lon="12.9630433"><ele>248.0</ele><time>2026-04-19T15:21:13.764Z</time></trkpt><trkpt lat="43.4990033" lon="12.9628767"><ele>248.0</ele><time>2026-04-19T15:21:14.762Z</time></trkpt><trkpt lat="43.4991767" lon="12.9627233"><ele>248.0</ele><time>2026-04-19T15:21:15.764Z</time></trkpt><trkpt lat="43.4993267" lon="12.9625883"><ele>248.0</ele><time>2026-04-19T15:21:16.761Z</time></trkpt><trkpt lat="43.49945" lon="12.9624867"><ele>250.0</ele><time>2026-04-19T15:21:17.761Z</time></trkpt><trkpt lat="43.499555" lon="12.9623983"><ele>252.0</ele><time>2026-04-19T15:21:18.761Z</time></trkpt><trkpt lat="43.4996433" lon="12.962305"><ele>254.0</ele><time>2026-04-19T15:21:19.762Z</time></trkpt><trkpt lat="43.499705" lon="12.9621817"><ele>256.0</ele><time>2026-04-19T15:21:20.763Z</time></trkpt><trkpt lat="43.499735" lon="12.962025"><ele>256.0</ele><time>2026-04-19T15:21:21.76Z</time></trkpt><trkpt lat="43.4997417" lon="12.961865"><ele>256.0</ele><time>2026-04-19T15:21:22.761Z</time></trkpt><trkpt lat="43.4997417" lon="12.9617267"><ele>256.0</ele><time>2026-04-19T15:21:23.762Z</time></trkpt><trkpt lat="43.4997583" lon="12.9616017"><ele>256.0</ele><time>2026-04-19T15:21:24.762Z</time></trkpt><trkpt lat="43.4998033" lon="12.9615017"><ele>256.0</ele><time>2026-04-19T15:21:25.761Z</time></trkpt><trkpt lat="43.4998717" lon="12.9614317"><ele>255.99999999999997</ele><time>2026-04-19T15:21:26.761Z</time></trkpt><trkpt lat="43.4999533" lon="12.9613933"><ele>256.0</ele><time>2026-04-19T15:21:27.761Z</time></trkpt><trkpt lat="43.50004" lon="12.9613817"><ele>256.0</ele><time>2026-04-19T15:21:28.762Z</time></trkpt><trkpt lat="43.500115" lon="12.9614317"><ele>256.0</ele><time>2026-04-19T15:21:29.761Z</time></trkpt><trkpt lat="43.5001733" lon="12.9615167"><ele>255.99999999999997</ele><time>2026-04-19T15:21:30.761Z</time></trkpt><trkpt lat="43.5002133" lon="12.9616317"><ele>256.0</ele><time>2026-04-19T15:21:31.761Z</time></trkpt><trkpt lat="43.5002383" lon="12.961745"><ele>255.99999999999997</ele><time>2026-04-19T15:21:32.762Z</time></trkpt><trkpt lat="43.5002667" lon="12.9618383"><ele>256.0</ele><time>2026-04-19T15:21:33.761Z</time></trkpt><trkpt lat="43.5003333" lon="12.9618783"><ele>256.0</ele><time>2026-04-19T15:21:34.761Z</time></trkpt><trkpt lat="43.500405" lon="12.961865"><ele>256.0</ele><time>2026-04-19T15:21:35.761Z</time></trkpt><trkpt lat="43.5004567" lon="12.9617867"><ele>255.99999999999997</ele><time>2026-04-19T15:21:36.761Z</time></trkpt><trkpt lat="43.50048" lon="12.9616783"><ele>256.0</ele><time>2026-04-19T15:21:37.761Z</time></trkpt><trkpt lat="43.5004717" lon="12.9615417"><ele>258.0</ele><time>2026-04-19T15:21:38.763Z</time></trkpt><trkpt lat="43.500425" lon="12.96135"><ele>260.0</ele><time>2026-04-19T15:21:39.762Z</time></trkpt><trkpt lat="43.5003917" lon="12.961115"><ele>262.0</ele><time>2026-04-19T15:21:40.761Z</time></trkpt><trkpt lat="43.50037" lon="12.9608283"><ele>263.5</ele><time>2026-04-19T15:21:41.763Z</time></trkpt><trkpt lat="43.5003533" lon="12.9605033"><ele>265.0</ele><time>2026-04-19T15:21:42.762Z</time></trkpt><trkpt lat="43.50034" lon="12.960145"><ele>269.0</ele><time>2026-04-19T15:21:43.761Z</time></trkpt><trkpt lat="43.5003233" lon="12.9597917"><ele>273.0</ele><time>2026-04-19T15:21:44.764Z</time></trkpt><trkpt lat="43.500305" lon="12.9594817"><ele>273.0</ele><time>2026-04-19T15:21:45.761Z</time></trkpt><trkpt lat="43.5002917" lon="12.9592217"><ele>273.0</ele><time>2026-04-19T15:21:46.76Z</time></trkpt><trkpt lat="43.5002717" lon="12.959005"><ele>273.0</ele><time>2026-04-19T15:21:47.761Z</time></trkpt><trkpt lat="43.50025" lon="12.9588233"><ele>273.6</ele><time>2026-04-19T15:21:48.76Z</time></trkpt><trkpt lat="43.500195" lon="12.9586667"><ele>274.20000000000005</ele><time>2026-04-19T15:21:49.762Z</time></trkpt><trkpt lat="43.5001367" lon="12.9585417"><ele>274.8</ele><time>2026-04-19T15:21:50.761Z</time></trkpt><trkpt lat="43.5000983" lon="12.9584217"><ele>275.40000000000003</ele><time>2026-04-19T15:21:51.768Z</time></trkpt><trkpt lat="43.500075" lon="12.9582917"><ele>276.0</ele><time>2026-04-19T15:21:52.765Z</time></trkpt><trkpt lat="43.5000817" lon="12.9581417"><ele>277.0</ele><time>2026-04-19T15:21:53.761Z</time></trkpt><trkpt lat="43.5001083" lon="12.9579833"><ele>278.0</ele><time>2026-04-19T15:21:54.762Z</time></trkpt><trkpt lat="43.5001483" lon="12.9578333"><ele>279.0</ele><time>2026-04-19T15:21:55.761Z</time></trkpt><trkpt lat="43.5001917" lon="12.9577"><ele>280.0</ele><time>2026-04-19T15:21:56.761Z</time></trkpt><trkpt lat="43.5002167" lon="12.95755"><ele>281.5</ele><time>2026-04-19T15:21:57.762Z</time></trkpt><trkpt lat="43.5002083" lon="12.957385"><ele>283.0</ele><time>2026-04-19T15:21:58.761Z</time></trkpt><trkpt lat="43.50016" lon="12.9571883"><ele>284.5</ele><time>2026-04-19T15:21:59.762Z</time></trkpt><trkpt lat="43.5000933" lon="12.9569817"><ele>286.0</ele><time>2026-04-19T15:22:00.766Z</time></trkpt><trkpt lat="43.5000183" lon="12.9567617"><ele>288.66666666666663</ele><time>2026-04-19T15:22:01.761Z</time></trkpt><trkpt lat="43.4999417" lon="12.9565383"><ele>291.3333333333333</ele><time>2026-04-19T15:22:02.76Z</time></trkpt><trkpt lat="43.4998617" lon="12.9563133"><ele>294.0</ele><time>2026-04-19T15:22:03.762Z</time></trkpt><trkpt lat="43.499785" lon="12.9560917"><ele>294.0</ele><time>2026-04-19T15:22:04.763Z</time></trkpt><trkpt lat="43.499715" lon="12.9558767"><ele>294.0</ele><time>2026-04-19T15:22:05.761Z</time></trkpt><trkpt lat="43.4996467" lon="12.9556833"><ele>294.0</ele><time>2026-04-19T15:22:06.761Z</time></trkpt><trkpt lat="43.4995883" lon="12.955495"><ele>293.5</ele><time>2026-04-19T15:22:07.761Z</time></trkpt><trkpt lat="43.4995267" lon="12.95532"><ele>293.0</ele><time>2026-04-19T15:22:08.763Z</time></trkpt><trkpt lat="43.4994667" lon="12.95515"><ele>292.5</ele><time>2026-04-19T15:22:09.761Z</time></trkpt><trkpt lat="43.499405" lon="12.95499"><ele>292.0</ele><time>2026-04-19T15:22:10.762Z</time></trkpt><trkpt lat="43.4993483" lon="12.954825"><ele>293.75</ele><time>2026-04-19T15:22:11.761Z</time></trkpt><trkpt lat="43.49929" lon="12.9546567"><ele>295.5</ele><time>2026-04-19T15:22:12.763Z</time></trkpt><trkpt lat="43.4992333" lon="12.9544767"><ele>297.25</ele><time>2026-04-19T15:22:13.762Z</time></trkpt><trkpt lat="43.4991733" lon="12.9542883"><ele>299.0</ele><time>2026-04-19T15:22:14.763Z</time></trkpt><trkpt lat="43.4991133" lon="12.9540883"><ele>301.25</ele><time>2026-04-19T15:22:15.762Z</time></trkpt><trkpt lat="43.4990633" lon="12.953895"><ele>303.5</ele><time>2026-04-19T15:22:16.761Z</time></trkpt><trkpt lat="43.4990283" lon="12.9537133"><ele>305.75</ele><time>2026-04-19T15:22:17.76Z</time></trkpt><trkpt lat="43.4989967" lon="12.9535517"><ele>308.0</ele><time>2026-04-19T15:22:18.771Z</time></trkpt><trkpt lat="43.498965" lon="12.9534"><ele>310.2</ele><time>2026-04-19T15:22:19.76Z</time></trkpt><trkpt lat="43.498925" lon="12.9532533"><ele>312.4</ele><time>2026-04-19T15:22:20.761Z</time></trkpt><trkpt lat="43.4988867" lon="12.9531133"><ele>314.59999999999997</ele><time>2026-04-19T15:22:21.764Z</time></trkpt><trkpt lat="43.4988533" lon="12.9529767"><ele>316.8</ele><time>2026-04-19T15:22:22.763Z</time></trkpt><trkpt lat="43.49882" lon="12.9528583"><ele>319.0</ele><time>2026-04-19T15:22:23.76Z</time></trkpt><trkpt lat="43.4987933" lon="12.9527583"><ele>319.0</ele><time>2026-04-19T15:22:24.76Z</time></trkpt><trkpt lat="43.4987683" lon="12.9526733"><ele>319.0</ele><time>2026-04-19T15:22:25.76Z</time></trkpt><trkpt lat="43.4987317" lon="12.9525183"><ele>319.0</ele><time>2026-04-19T15:22:27.76Z</time></trkpt><trkpt lat="43.4987283" lon="12.9523917"><ele>319.0</ele><time>2026-04-19T15:22:29.76Z</time></trkpt><trkpt lat="43.4987533" lon="12.9523083"><ele>319.0</ele><time>2026-04-19T15:22:31.763Z</time></trkpt><trkpt lat="43.4988133" lon="12.9522633"><ele>319.0</ele><time>2026-04-19T15:22:34.761Z</time></trkpt><trkpt lat="43.4988883" lon="12.9522783"><ele>319.0</ele><time>2026-04-19T15:22:36.76Z</time></trkpt><trkpt lat="43.4989617" lon="12.9523833"><ele>319.0</ele><time>2026-04-19T15:22:38.761Z</time></trkpt><trkpt lat="43.4989917" lon="12.9525333"><ele>319.0</ele><time>2026-04-19T15:22:40.759Z</time></trkpt><trkpt lat="43.4990133" lon="12.95262"><ele>319.0</ele><time>2026-04-19T15:22:41.76Z</time></trkpt><trkpt lat="43.4990383" lon="12.95271"><ele>319.0</ele><time>2026-04-19T15:22:42.76Z</time></trkpt><trkpt lat="43.4990683" lon="12.952795"><ele>319.0</ele><time>2026-04-19T15:22:43.761Z</time></trkpt><trkpt lat="43.4991033" lon="12.95289"><ele>319.0</ele><time>2026-04-19T15:22:44.761Z</time></trkpt><trkpt lat="43.4991467" lon="12.9530167"><ele>319.0</ele><time>2026-04-19T15:22:45.761Z</time></trkpt><trkpt lat="43.4991967" lon="12.9531483"><ele>319.0</ele><time>2026-04-19T15:22:46.761Z</time></trkpt><trkpt lat="43.4992383" lon="12.9532633"><ele>319.0</ele><time>2026-04-19T15:22:47.763Z</time></trkpt><trkpt lat="43.4992767" lon="12.9533467"><ele>319.0</ele><time>2026-04-19T15:22:48.762Z</time></trkpt><trkpt lat="43.49931" lon="12.953505"><ele>319.0</ele><time>2026-04-19T15:23:04.762Z</time></trkpt><trkpt lat="43.4993717" lon="12.9535733"><ele>319.0</ele><time>2026-04-19T15:23:05.759Z</time></trkpt><trkpt lat="43.499445" lon="12.9536283"><ele>319.0</ele><time>2026-04-19T15:23:06.761Z</time></trkpt><trkpt lat="43.4995367" lon="12.9536617"><ele>319.0</ele><time>2026-04-19T15:23:07.762Z</time></trkpt><trkpt lat="43.49966" lon="12.9536683"><ele>319.0</ele><time>2026-04-19T15:23:08.763Z</time></trkpt><trkpt lat="43.4998017" lon="12.9536617"><ele>319.0</ele><time>2026-04-19T15:23:09.762Z</time></trkpt><trkpt lat="43.4999317" lon="12.9536617"><ele>319.0</ele><time>2026-04-19T15:23:10.761Z</time></trkpt><trkpt lat="43.50005" lon="12.95367"><ele>319.0</ele><time>2026-04-19T15:23:11.762Z</time></trkpt><trkpt lat="43.5001567" lon="12.9537033"><ele>319.0</ele><time>2026-04-19T15:23:12.761Z</time></trkpt><trkpt lat="43.500255" lon="12.9537733"><ele>319.0</ele><time>2026-04-19T15:23:13.763Z</time></trkpt><trkpt lat="43.5003467" lon="12.9538733"><ele>319.0</ele><time>2026-04-19T15:23:14.761Z</time></trkpt><trkpt lat="43.50044" lon="12.9540183"><ele>319.0</ele><time>2026-04-19T15:23:15.762Z</time></trkpt><trkpt lat="43.50053" lon="12.9541883"><ele>319.0</ele><time>2026-04-19T15:23:16.76Z</time></trkpt><trkpt lat="43.5006267" lon="12.9543683"><ele>322.66666666666663</ele><time>2026-04-19T15:23:17.763Z</time></trkpt><trkpt lat="43.5007233" lon="12.9545417"><ele>326.3333333333333</ele><time>2026-04-19T15:23:18.763Z</time></trkpt><trkpt lat="43.5008117" lon="12.954705"><ele>330.0</ele><time>2026-04-19T15:23:19.764Z</time></trkpt><trkpt lat="43.500885" lon="12.9548783"><ele>328.75</ele><time>2026-04-19T15:23:20.762Z</time></trkpt><trkpt lat="43.500935" lon="12.9550683"><ele>327.5</ele><time>2026-04-19T15:23:21.763Z</time></trkpt><trkpt lat="43.5009617" lon="12.9552617"><ele>326.25</ele><time>2026-04-19T15:23:22.763Z</time></trkpt><trkpt lat="43.5009767" lon="12.955425"><ele>325.0</ele><time>2026-04-19T15:23:23.762Z</time></trkpt><trkpt lat="43.501" lon="12.9555517"><ele>325.0</ele><time>2026-04-19T15:23:24.761Z</time></trkpt><trkpt lat="43.5010233" lon="12.955655"><ele>325.0</ele><time>2026-04-19T15:23:25.761Z</time></trkpt><trkpt lat="43.5010583" lon="12.9557367"><ele>325.0</ele><time>2026-04-19T15:23:26.762Z</time></trkpt><trkpt lat="43.5011783" lon="12.95576"><ele>325.0</ele><time>2026-04-19T15:23:28.762Z</time></trkpt><trkpt lat="43.501245" lon="12.9557283"><ele>325.0</ele><time>2026-04-19T15:23:29.761Z</time></trkpt><trkpt lat="43.50129" lon="12.9556483"><ele>325.0</ele><time>2026-04-19T15:23:30.762Z</time></trkpt><trkpt lat="43.501305" lon="12.955545"><ele>326.25</ele><time>2026-04-19T15:23:31.76Z</time></trkpt><trkpt lat="43.5012867" lon="12.9553967"><ele>327.5</ele><time>2026-04-19T15:23:32.761Z</time></trkpt><trkpt lat="43.5012583" lon="12.9552233"><ele>328.75</ele><time>2026-04-19T15:23:33.76Z</time></trkpt><trkpt lat="43.501235" lon="12.9550333"><ele>330.0</ele><time>2026-04-19T15:23:34.76Z</time></trkpt><trkpt lat="43.501215" lon="12.954825"><ele>330.0</ele><time>2026-04-19T15:23:35.76Z</time></trkpt><trkpt lat="43.5012017" lon="12.954605"><ele>330.0</ele><time>2026-04-19T15:23:36.76Z</time></trkpt><trkpt lat="43.5011933" lon="12.9543733"><ele>330.0</ele><time>2026-04-19T15:23:37.761Z</time></trkpt><trkpt lat="43.5011867" lon="12.9541433"><ele>331.6666666666667</ele><time>2026-04-19T15:23:38.76Z</time></trkpt><trkpt lat="43.5011717" lon="12.9539317"><ele>333.33333333333337</ele><time>2026-04-19T15:23:39.761Z</time></trkpt><trkpt lat="43.5011583" lon="12.9537267"><ele>335.0</ele><time>2026-04-19T15:23:40.76Z</time></trkpt><trkpt lat="43.5011467" lon="12.95352"><ele>336.5</ele><time>2026-04-19T15:23:41.759Z</time></trkpt><trkpt lat="43.5011433" lon="12.95333"><ele>338.0</ele><time>2026-04-19T15:23:42.761Z</time></trkpt><trkpt lat="43.5011467" lon="12.9531417"><ele>339.5</ele><time>2026-04-19T15:23:43.759Z</time></trkpt><trkpt lat="43.5011433" lon="12.9529517"><ele>341.0</ele><time>2026-04-19T15:23:44.76Z</time></trkpt><trkpt lat="43.501135" lon="12.9527633"><ele>341.0</ele><time>2026-04-19T15:23:45.759Z</time></trkpt><trkpt lat="43.501125" lon="12.9525867"><ele>341.0</ele><time>2026-04-19T15:23:46.761Z</time></trkpt><trkpt lat="43.5011217" lon="12.9524217"><ele>341.0</ele><time>2026-04-19T15:23:47.761Z</time></trkpt><trkpt lat="43.5011133" lon="12.9522667"><ele>341.0</ele><time>2026-04-19T15:23:48.762Z</time></trkpt><trkpt lat="43.5010967" lon="12.9521133"><ele>342.75</ele><time>2026-04-19T15:23:49.765Z</time></trkpt><trkpt lat="43.50107" lon="12.95196"><ele>344.5</ele><time>2026-04-19T15:23:50.762Z</time></trkpt><trkpt lat="43.5010383" lon="12.9518083"><ele>346.25</ele><time>2026-04-19T15:23:51.76Z</time></trkpt><trkpt lat="43.501005" lon="12.9516583"><ele>348.0</ele><time>2026-04-19T15:23:52.76Z</time></trkpt><trkpt lat="43.500975" lon="12.951505"><ele>348.75</ele><time>2026-04-19T15:23:53.761Z</time></trkpt><trkpt lat="43.5009533" lon="12.9513517"><ele>349.5</ele><time>2026-04-19T15:23:54.76Z</time></trkpt><trkpt lat="43.5009433" lon="12.9511833"><ele>350.25</ele><time>2026-04-19T15:23:55.76Z</time></trkpt><trkpt lat="43.5009567" lon="12.951005"><ele>351.0</ele><time>2026-04-19T15:23:56.761Z</time></trkpt><trkpt lat="43.5009933" lon="12.9508367"><ele>351.0</ele><time>2026-04-19T15:23:57.761Z</time></trkpt><trkpt lat="43.5010383" lon="12.9506817"><ele>351.0</ele><time>2026-04-19T15:23:58.76Z</time></trkpt><trkpt lat="43.5010817" lon="12.95054"><ele>351.0</ele><time>2026-04-19T15:23:59.761Z</time></trkpt><trkpt lat="43.5011033" lon="12.9504033"><ele>351.0</ele><time>2026-04-19T15:24:00.761Z</time></trkpt><trkpt lat="43.5010983" lon="12.9502717"><ele>351.0</ele><time>2026-04-19T15:24:01.762Z</time></trkpt><trkpt lat="43.50108" lon="12.950145"><ele>351.25</ele><time>2026-04-19T15:24:02.761Z</time></trkpt><trkpt lat="43.501035" lon="12.9500017"><ele>351.5</ele><time>2026-04-19T15:24:03.761Z</time></trkpt><trkpt lat="43.500985" lon="12.9498467"><ele>351.75</ele><time>2026-04-19T15:24:04.759Z</time></trkpt><trkpt lat="43.5009367" lon="12.9496833"><ele>352.0</ele><time>2026-04-19T15:24:05.761Z</time></trkpt><trkpt lat="43.5008867" lon="12.9495183"><ele>352.0</ele><time>2026-04-19T15:24:06.762Z</time></trkpt><trkpt lat="43.5008267" lon="12.9493517"><ele>352.0</ele><time>2026-04-19T15:24:07.76Z</time></trkpt><trkpt lat="43.5007533" lon="12.949185"><ele>352.0</ele><time>2026-04-19T15:24:08.763Z</time></trkpt><trkpt lat="43.5006683" lon="12.9490217"><ele>352.0</ele><time>2026-04-19T15:24:09.761Z</time></trkpt><trkpt lat="43.50057" lon="12.9488583"><ele>351.0</ele><time>2026-04-19T15:24:10.761Z</time></trkpt><trkpt lat="43.5004617" lon="12.948695"><ele>350.0</ele><time>2026-04-19T15:24:11.761Z</time></trkpt><trkpt lat="43.50035" lon="12.9485233"><ele>349.0</ele><time>2026-04-19T15:24:12.76Z</time></trkpt><trkpt lat="43.50024" lon="12.948355"><ele>353.0</ele><time>2026-04-19T15:24:13.761Z</time></trkpt><trkpt lat="43.50013" lon="12.94821"><ele>357.0</ele><time>2026-04-19T15:24:14.761Z</time></trkpt><trkpt lat="43.500045" lon="12.9480817"><ele>361.0</ele><time>2026-04-19T15:24:15.761Z</time></trkpt><trkpt lat="43.4999867" lon="12.9479633"><ele>365.0</ele><time>2026-04-19T15:24:16.761Z</time></trkpt><trkpt lat="43.4999617" lon="12.9478567"><ele>365.0</ele><time>2026-04-19T15:24:17.76Z</time></trkpt><trkpt lat="43.4999583" lon="12.9477683"><ele>365.0</ele><time>2026-04-19T15:24:18.76Z</time></trkpt><trkpt lat="43.4999983" lon="12.94764"><ele>365.0</ele><time>2026-04-19T15:24:20.761Z</time></trkpt><trkpt lat="43.500035" lon="12.947565"><ele>365.0</ele><time>2026-04-19T15:24:21.761Z</time></trkpt><trkpt lat="43.5000833" lon="12.9474933"><ele>365.0</ele><time>2026-04-19T15:24:22.762Z</time></trkpt><trkpt lat="43.5001283" lon="12.9474283"><ele>365.0</ele><time>2026-04-19T15:24:23.76Z</time></trkpt><trkpt lat="43.50019" lon="12.9473283"><ele>363.83333333333337</ele><time>2026-04-19T15:24:25.76Z</time></trkpt><trkpt lat="43.500155" lon="12.947215"><ele>362.6666666666667</ele><time>2026-04-19T15:24:28.76Z</time></trkpt><trkpt lat="43.50005" lon="12.947165"><ele>361.5</ele><time>2026-04-19T15:24:30.761Z</time></trkpt><trkpt lat="43.49999" lon="12.9471233"><ele>360.3333333333333</ele><time>2026-04-19T15:24:31.761Z</time></trkpt><trkpt lat="43.4999317" lon="12.9470567"><ele>359.16666666666663</ele><time>2026-04-19T15:24:32.76Z</time></trkpt><trkpt lat="43.4998783" lon="12.9469717"><ele>358.0</ele><time>2026-04-19T15:24:33.76Z</time></trkpt><trkpt lat="43.4998267" lon="12.94688"><ele>358.0</ele><time>2026-04-19T15:24:34.76Z</time></trkpt><trkpt lat="43.49978" lon="12.946795"><ele>358.0</ele><time>2026-04-19T15:24:35.76Z</time></trkpt><trkpt lat="43.4997417" lon="12.9467133"><ele>358.0</ele><time>2026-04-19T15:24:36.761Z</time></trkpt><trkpt lat="43.4997067" lon="12.9466217"><ele>358.0</ele><time>2026-04-19T15:24:37.76Z</time></trkpt><trkpt lat="43.499675" lon="12.946515"><ele>358.0</ele><time>2026-04-19T15:24:38.76Z</time></trkpt><trkpt lat="43.4996333" lon="12.9464"><ele>358.0</ele><time>2026-04-19T15:24:39.76Z</time></trkpt><trkpt lat="43.4995717" lon="12.9462833"><ele>363.0</ele><time>2026-04-19T15:24:40.761Z</time></trkpt><trkpt lat="43.49949" lon="12.9461617"><ele>368.0</ele><time>2026-04-19T15:24:41.76Z</time></trkpt><trkpt lat="43.4993917" lon="12.946035"><ele>373.0</ele><time>2026-04-19T15:24:42.761Z</time></trkpt><trkpt lat="43.49928" lon="12.9459167"><ele>378.0</ele><time>2026-04-19T15:24:43.76Z</time></trkpt><trkpt lat="43.4991817" lon="12.945805"><ele>378.0</ele><time>2026-04-19T15:24:44.761Z</time></trkpt><trkpt lat="43.49908" lon="12.9456867"><ele>378.0</ele><time>2026-04-19T15:24:45.761Z</time></trkpt><trkpt lat="43.4989783" lon="12.9455683"><ele>378.0</ele><time>2026-04-19T15:24:46.761Z</time></trkpt><trkpt lat="43.4988767" lon="12.945455"><ele>378.0</ele><time>2026-04-19T15:24:47.761Z</time></trkpt><trkpt lat="43.49879" lon="12.9453483"><ele>383.59999999999997</ele><time>2026-04-19T15:24:48.761Z</time></trkpt><trkpt lat="43.49872" lon="12.9452467"><ele>389.2</ele><time>2026-04-19T15:24:49.762Z</time></trkpt><trkpt lat="43.498665" lon="12.94513"><ele>394.8</ele><time>2026-04-19T15:24:50.76Z</time></trkpt><trkpt lat="43.4986333" lon="12.9449917"><ele>400.4</ele><time>2026-04-19T15:24:51.761Z</time></trkpt><trkpt lat="43.498625" lon="12.944845"><ele>406.0</ele><time>2026-04-19T15:24:52.761Z</time></trkpt><trkpt lat="43.4986467" lon="12.944685"><ele>406.0</ele><time>2026-04-19T15:24:53.761Z</time></trkpt><trkpt lat="43.4986733" lon="12.944525"><ele>406.0</ele><time>2026-04-19T15:24:54.762Z</time></trkpt><trkpt lat="43.4986917" lon="12.9443617"><ele>406.0</ele><time>2026-04-19T15:24:55.761Z</time></trkpt><trkpt lat="43.4987033" lon="12.9441867"><ele>406.0</ele><time>2026-04-19T15:24:56.763Z</time></trkpt><trkpt lat="43.498695" lon="12.9440183"><ele>406.6</ele><time>2026-04-19T15:24:57.761Z</time></trkpt><trkpt lat="43.49867" lon="12.9438633"><ele>407.20000000000005</ele><time>2026-04-19T15:24:58.761Z</time></trkpt><trkpt lat="43.49865" lon="12.9437183"><ele>407.79999999999995</ele><time>2026-04-19T15:24:59.764Z</time></trkpt><trkpt lat="43.4986417" lon="12.9436067"><ele>408.4</ele><time>2026-04-19T15:25:00.762Z</time></trkpt><trkpt lat="43.4986717" lon="12.943465"><ele>409.0</ele><time>2026-04-19T15:25:02.761Z</time></trkpt><trkpt lat="43.498735" lon="12.94342"><ele>408.0</ele><time>2026-04-19T15:25:04.76Z</time></trkpt><trkpt lat="43.4988383" lon="12.943585"><ele>407.0</ele><time>2026-04-19T15:25:06.763Z</time></trkpt><trkpt lat="43.4988967" lon="12.9437267"><ele>406.0</ele><time>2026-04-19T15:25:07.76Z</time></trkpt><trkpt lat="43.498955" lon="12.9438567"><ele>405.0</ele><time>2026-04-19T15:25:08.761Z</time></trkpt><trkpt lat="43.4990283" lon="12.9439567"><ele>405.0</ele><time>2026-04-19T15:25:09.762Z</time></trkpt><trkpt lat="43.4991133" lon="12.94403"><ele>405.0</ele><time>2026-04-19T15:25:10.763Z</time></trkpt><trkpt lat="43.49921" lon="12.9440733"><ele>405.0</ele><time>2026-04-19T15:25:11.761Z</time></trkpt><trkpt lat="43.499335" lon="12.9441"><ele>405.0</ele><time>2026-04-19T15:25:12.764Z</time></trkpt><trkpt lat="43.49946" lon="12.9441233"><ele>405.0</ele><time>2026-04-19T15:25:13.763Z</time></trkpt><trkpt lat="43.4995683" lon="12.9441417"><ele>405.0</ele><time>2026-04-19T15:25:14.763Z</time></trkpt><trkpt lat="43.4996633" lon="12.94415"><ele>405.0</ele><time>2026-04-19T15:25:15.761Z</time></trkpt><trkpt lat="43.4997483" lon="12.944155"><ele>405.0</ele><time>2026-04-19T15:25:16.761Z</time></trkpt><trkpt lat="43.4998317" lon="12.944155"><ele>405.0</ele><time>2026-04-19T15:25:17.761Z</time></trkpt><trkpt lat="43.4999183" lon="12.9441433"><ele>404.3333333333333</ele><time>2026-04-19T15:25:18.762Z</time></trkpt><trkpt lat="43.5" lon="12.9441267"><ele>403.66666666666663</ele><time>2026-04-19T15:25:19.762Z</time></trkpt><trkpt lat="43.5000767" lon="12.9441183"><ele>403.0</ele><time>2026-04-19T15:25:20.761Z</time></trkpt><trkpt lat="43.5001483" lon="12.9441433"><ele>402.3333333333333</ele><time>2026-04-19T15:25:21.764Z</time></trkpt><trkpt lat="43.5002283" lon="12.9441817"><ele>401.66666666666663</ele><time>2026-04-19T15:25:22.761Z</time></trkpt><trkpt lat="43.5003083" lon="12.94423"><ele>401.0</ele><time>2026-04-19T15:25:23.764Z</time></trkpt><trkpt lat="43.500385" lon="12.94428"><ele>403.99999999999994</ele><time>2026-04-19T15:25:24.763Z</time></trkpt><trkpt lat="43.5004567" lon="12.9443083"><ele>407.0</ele><time>2026-04-19T15:25:25.76Z</time></trkpt><trkpt lat="43.5005433" lon="12.94433"><ele>410.0</ele><time>2026-04-19T15:25:26.761Z</time></trkpt><trkpt lat="43.50064" lon="12.944335"><ele>413.0</ele><time>2026-04-19T15:25:27.761Z</time></trkpt><trkpt lat="43.5007217" lon="12.94434"><ele>415.99999999999994</ele><time>2026-04-19T15:25:28.76Z</time></trkpt><trkpt lat="43.5007867" lon="12.9443417"><ele>419.0</ele><time>2026-04-19T15:25:29.759Z</time></trkpt><trkpt lat="43.500855" lon="12.9443633"><ele>418.99999999999994</ele><time>2026-04-19T15:25:30.761Z</time></trkpt><trkpt lat="43.5009617" lon="12.9444317"><ele>419.0</ele><time>2026-04-19T15:25:32.761Z</time></trkpt><trkpt lat="43.5010233" lon="12.944525"><ele>419.0</ele><time>2026-04-19T15:25:34.76Z</time></trkpt><trkpt lat="43.501055" lon="12.9446317"><ele>419.0</ele><time>2026-04-19T15:25:36.76Z</time></trkpt><trkpt lat="43.5011067" lon="12.944695"><ele>418.99999999999994</ele><time>2026-04-19T15:25:38.763Z</time></trkpt><trkpt lat="43.50116" lon="12.9446433"><ele>419.0</ele><time>2026-04-19T15:25:40.761Z</time></trkpt><trkpt lat="43.5011867" lon="12.9445133"><ele>419.0</ele><time>2026-04-19T15:25:44.762Z</time></trkpt><trkpt lat="43.5011467" lon="12.9444433"><ele>419.0</ele><time>2026-04-19T15:25:46.76Z</time></trkpt><trkpt lat="43.501015" lon="12.944395"><ele>419.0</ele><time>2026-04-19T15:25:48.762Z</time></trkpt><trkpt lat="43.50092" lon="12.9443467"><ele>419.0</ele><time>2026-04-19T15:25:49.759Z</time></trkpt><trkpt lat="43.500815" lon="12.9442733"><ele>419.0</ele><time>2026-04-19T15:25:50.762Z</time></trkpt><trkpt lat="43.500705" lon="12.9441817"><ele>419.75</ele><time>2026-04-19T15:25:51.76Z</time></trkpt><trkpt lat="43.5005933" lon="12.9440583"><ele>420.5</ele><time>2026-04-19T15:25:52.76Z</time></trkpt><trkpt lat="43.500485" lon="12.9439283"><ele>421.25</ele><time>2026-04-19T15:25:53.76Z</time></trkpt><trkpt lat="43.50039" lon="12.94381"><ele>422.0</ele><time>2026-04-19T15:25:54.76Z</time></trkpt><trkpt lat="43.5003033" lon="12.9436983"><ele>421.99999999999994</ele><time>2026-04-19T15:25:55.761Z</time></trkpt><trkpt lat="43.5002233" lon="12.9436017"><ele>422.0</ele><time>2026-04-19T15:25:56.764Z</time></trkpt><trkpt lat="43.500165" lon="12.9435083"><ele>422.0</ele><time>2026-04-19T15:25:57.762Z</time></trkpt><trkpt lat="43.5001233" lon="12.9434317"><ele>422.0</ele><time>2026-04-19T15:25:58.76Z</time></trkpt><trkpt lat="43.500085" lon="12.9433483"><ele>421.99999999999994</ele><time>2026-04-19T15:25:59.762Z</time></trkpt><trkpt lat="43.5000383" lon="12.9432467"><ele>422.0</ele><time>2026-04-19T15:26:00.762Z</time></trkpt><trkpt lat="43.4999783" lon="12.943125"><ele>427.0</ele><time>2026-04-19T15:26:01.761Z</time></trkpt><trkpt lat="43.4999" lon="12.9429867"><ele>432.0</ele><time>2026-04-19T15:26:02.764Z</time></trkpt><trkpt lat="43.4998133" lon="12.942835"><ele>437.0</ele><time>2026-04-19T15:26:03.763Z</time></trkpt><trkpt lat="43.49972" lon="12.942685"><ele>442.0</ele><time>2026-04-19T15:26:04.762Z</time></trkpt><trkpt lat="43.4996333" lon="12.9425467"><ele>443.8</ele><time>2026-04-19T15:26:05.762Z</time></trkpt><trkpt lat="43.499555" lon="12.9424333"><ele>445.6</ele><time>2026-04-19T15:26:06.76Z</time></trkpt><trkpt lat="43.49948" lon="12.94235"><ele>447.40000000000003</ele><time>2026-04-19T15:26:07.761Z</time></trkpt><trkpt lat="43.4994133" lon="12.9422967"><ele>449.20000000000005</ele><time>2026-04-19T15:26:08.76Z</time></trkpt><trkpt lat="43.4993517" lon="12.9422683"><ele>451.0</ele><time>2026-04-19T15:26:09.762Z</time></trkpt><trkpt lat="43.4992533" lon="12.94225"><ele>451.0</ele><time>2026-04-19T15:26:11.763Z</time></trkpt><trkpt lat="43.4991717" lon="12.942255"><ele>451.0</ele><time>2026-04-19T15:26:14.761Z</time></trkpt><trkpt lat="43.499105" lon="12.94227"><ele>451.0</ele><time>2026-04-19T15:26:16.762Z</time></trkpt><trkpt lat="43.49902" lon="12.942235"><ele>451.0</ele><time>2026-04-19T15:26:18.761Z</time></trkpt><trkpt lat="43.4989717" lon="12.942175"><ele>451.0</ele><time>2026-04-19T15:26:19.762Z</time></trkpt><trkpt lat="43.4989233" lon="12.942105"><ele>451.0</ele><time>2026-04-19T15:26:20.762Z</time></trkpt><trkpt lat="43.4988767" lon="12.94204"><ele>451.0</ele><time>2026-04-19T15:26:21.762Z</time></trkpt><trkpt lat="43.4988333" lon="12.9419733"><ele>451.00000000000006</ele><time>2026-04-19T15:26:22.763Z</time></trkpt><trkpt lat="43.4987883" lon="12.94191"><ele>451.0</ele><time>2026-04-19T15:26:23.762Z</time></trkpt><trkpt lat="43.49874" lon="12.9418433"><ele>451.0</ele><time>2026-04-19T15:26:24.762Z</time></trkpt><trkpt lat="43.4986867" lon="12.9417717"><ele>451.0</ele><time>2026-04-19T15:26:25.762Z</time></trkpt><trkpt lat="43.4986267" lon="12.941695"><ele>451.00000000000006</ele><time>2026-04-19T15:26:26.761Z</time></trkpt><trkpt lat="43.498565" lon="12.9416133"><ele>451.0</ele><time>2026-04-19T15:26:27.762Z</time></trkpt><trkpt lat="43.4985067" lon="12.9415283"><ele>451.33333333333337</ele><time>2026-04-19T15:26:28.762Z</time></trkpt><trkpt lat="43.49845" lon="12.941445"><ele>451.6666666666667</ele><time>2026-04-19T15:26:29.762Z</time></trkpt><trkpt lat="43.4983883" lon="12.941375"><ele>452.0</ele><time>2026-04-19T15:26:30.76Z</time></trkpt><trkpt lat="43.4983167" lon="12.9413267"><ele>452.33333333333337</ele><time>2026-04-19T15:26:31.76Z</time></trkpt><trkpt lat="43.49824" lon="12.9412933"><ele>452.6666666666667</ele><time>2026-04-19T15:26:32.76Z</time></trkpt><trkpt lat="43.4981633" lon="12.94126"><ele>453.0</ele><time>2026-04-19T15:26:33.761Z</time></trkpt><trkpt lat="43.4980933" lon="12.9412467"><ele>453.0</ele><time>2026-04-19T15:26:34.761Z</time></trkpt><trkpt lat="43.49799" lon="12.941235"><ele>453.0</ele><time>2026-04-19T15:26:36.761Z</time></trkpt><trkpt lat="43.497915" lon="12.9411983"><ele>453.0</ele><time>2026-04-19T15:26:39.76Z</time></trkpt><trkpt lat="43.49785" lon="12.941135"><ele>453.0</ele><time>2026-04-19T15:26:43.763Z</time></trkpt><trkpt lat="43.4978267" lon="12.9412283"><ele>453.0</ele><time>2026-04-19T15:26:47.762Z</time></trkpt><trkpt lat="43.4978733" lon="12.9413"><ele>453.0</ele><time>2026-04-19T15:26:50.762Z</time></trkpt><trkpt lat="43.49794" lon="12.9412767"><ele>453.0</ele><time>2026-04-19T15:26:52.762Z</time></trkpt><trkpt lat="43.4980567" lon="12.9412533"><ele>453.0</ele><time>2026-04-19T15:26:54.763Z</time></trkpt><trkpt lat="43.498125" lon="12.941255"><ele>453.0</ele><time>2026-04-19T15:26:55.762Z</time></trkpt><trkpt lat="43.498195" lon="12.9412633"><ele>453.0</ele><time>2026-04-19T15:26:56.763Z</time></trkpt><trkpt lat="43.4982633" lon="12.9412817"><ele>453.0</ele><time>2026-04-19T15:26:57.762Z</time></trkpt><trkpt lat="43.4983317" lon="12.941315"><ele>453.0</ele><time>2026-04-19T15:26:58.762Z</time></trkpt><trkpt lat="43.4984" lon="12.94136"><ele>453.0</ele><time>2026-04-19T15:26:59.762Z</time></trkpt><trkpt lat="43.4984633" lon="12.9414183"><ele>453.0</ele><time>2026-04-19T15:27:00.762Z</time></trkpt><trkpt lat="43.4985183" lon="12.9414933"><ele>453.0</ele><time>2026-04-19T15:27:01.761Z</time></trkpt><trkpt lat="43.4985817" lon="12.9415783"><ele>453.0</ele><time>2026-04-19T15:27:02.76Z</time></trkpt><trkpt lat="43.4986467" lon="12.94167"><ele>453.0</ele><time>2026-04-19T15:27:03.761Z</time></trkpt><trkpt lat="43.4987133" lon="12.9417633"><ele>453.0</ele><time>2026-04-19T15:27:04.762Z</time></trkpt><trkpt lat="43.4987783" lon="12.9418533"><ele>452.6666666666667</ele><time>2026-04-19T15:27:05.762Z</time></trkpt><trkpt lat="43.49884" lon="12.9419433"><ele>452.33333333333337</ele><time>2026-04-19T15:27:06.764Z</time></trkpt><trkpt lat="43.4988983" lon="12.94203"><ele>452.0</ele><time>2026-04-19T15:27:07.761Z</time></trkpt><trkpt lat="43.4989467" lon="12.9421083"><ele>451.6666666666667</ele><time>2026-04-19T15:27:08.761Z</time></trkpt><trkpt lat="43.4990217" lon="12.942225"><ele>451.33333333333337</ele><time>2026-04-19T15:27:10.762Z</time></trkpt><trkpt lat="43.4990817" lon="12.9422917"><ele>451.0</ele><time>2026-04-19T15:27:12.763Z</time></trkpt><trkpt lat="43.4991567" lon="12.9422817"><ele>451.0</ele><time>2026-04-19T15:27:15.763Z</time></trkpt><trkpt lat="43.4992483" lon="12.942285"><ele>451.0</ele><time>2026-04-19T15:27:17.761Z</time></trkpt><trkpt lat="43.4993133" lon="12.942295"><ele>451.0</ele><time>2026-04-19T15:27:18.762Z</time></trkpt><trkpt lat="43.4994717" lon="12.942405"><ele>451.0</ele><time>2026-04-19T15:27:20.762Z</time></trkpt><trkpt lat="43.4995517" lon="12.9425017"><ele>451.0</ele><time>2026-04-19T15:27:21.762Z</time></trkpt><trkpt lat="43.499645" lon="12.9426483"><ele>449.20000000000005</ele><time>2026-04-19T15:27:22.76Z</time></trkpt><trkpt lat="43.4997283" lon="12.9427883"><ele>447.40000000000003</ele><time>2026-04-19T15:27:23.76Z</time></trkpt><trkpt lat="43.499805" lon="12.9429167"><ele>445.6</ele><time>2026-04-19T15:27:24.762Z</time></trkpt><trkpt lat="43.4998667" lon="12.9430267"><ele>443.8</ele><time>2026-04-19T15:27:25.762Z</time></trkpt><trkpt lat="43.499925" lon="12.9431133"><ele>442.0</ele><time>2026-04-19T15:27:26.761Z</time></trkpt><trkpt lat="43.4999717" lon="12.9431783"><ele>442.0</ele><time>2026-04-19T15:27:27.762Z</time></trkpt><trkpt lat="43.5000283" lon="12.94323"><ele>442.00000000000006</ele><time>2026-04-19T15:27:28.761Z</time></trkpt><trkpt lat="43.5001017" lon="12.943265"><ele>442.00000000000006</ele><time>2026-04-19T15:27:29.762Z</time></trkpt><trkpt lat="43.5001883" lon="12.9433017"><ele>442.0</ele><time>2026-04-19T15:27:30.764Z</time></trkpt><trkpt lat="43.500285" lon="12.9433567"><ele>442.0</ele><time>2026-04-19T15:27:31.76Z</time></trkpt><trkpt lat="43.500385" lon="12.94345"><ele>441.25</ele><time>2026-04-19T15:27:32.761Z</time></trkpt><trkpt lat="43.50048" lon="12.94356"><ele>440.5</ele><time>2026-04-19T15:27:33.76Z</time></trkpt><trkpt lat="43.50057" lon="12.94366"><ele>439.75</ele><time>2026-04-19T15:27:34.76Z</time></trkpt><trkpt lat="43.5006683" lon="12.94374"><ele>439.0</ele><time>2026-04-19T15:27:35.76Z</time></trkpt><trkpt lat="43.5007817" lon="12.9437867"><ele>439.0</ele><time>2026-04-19T15:27:36.76Z</time></trkpt><trkpt lat="43.500915" lon="12.9437933"><ele>439.0</ele><time>2026-04-19T15:27:37.76Z</time></trkpt><trkpt lat="43.501065" lon="12.94376"><ele>439.0</ele><time>2026-04-19T15:27:38.76Z</time></trkpt><trkpt lat="43.50121" lon="12.94371"><ele>439.0</ele><time>2026-04-19T15:27:39.76Z</time></trkpt><trkpt lat="43.5013267" lon="12.943655"><ele>439.2</ele><time>2026-04-19T15:27:40.76Z</time></trkpt><trkpt lat="43.5014367" lon="12.943625"><ele>439.4</ele><time>2026-04-19T15:27:41.762Z</time></trkpt><trkpt lat="43.501545" lon="12.9436367"><ele>439.6</ele><time>2026-04-19T15:27:42.76Z</time></trkpt><trkpt lat="43.5016517" lon="12.9436733"><ele>439.8</ele><time>2026-04-19T15:27:43.761Z</time></trkpt><trkpt lat="43.5017417" lon="12.9437083"><ele>440.0</ele><time>2026-04-19T15:27:44.762Z</time></trkpt><trkpt lat="43.501825" lon="12.943735"><ele>439.99999999999994</ele><time>2026-04-19T15:27:45.762Z</time></trkpt><trkpt lat="43.5019117" lon="12.9437433"><ele>440.0</ele><time>2026-04-19T15:27:46.765Z</time></trkpt><trkpt lat="43.50199" lon="12.943725"><ele>440.0</ele><time>2026-04-19T15:27:47.762Z</time></trkpt><trkpt lat="43.502045" lon="12.9436467"><ele>440.0</ele><time>2026-04-19T15:27:48.763Z</time></trkpt><trkpt lat="43.5020817" lon="12.94357"><ele>439.99999999999994</ele><time>2026-04-19T15:27:49.762Z</time></trkpt><trkpt lat="43.5020433" lon="12.9434617"><ele>440.0</ele><time>2026-04-19T15:27:50.761Z</time></trkpt><trkpt lat="43.5019967" lon="12.943375"><ele>445.0</ele><time>2026-04-19T15:27:51.761Z</time></trkpt><trkpt lat="43.5018867" lon="12.9433167"><ele>450.0</ele><time>2026-04-19T15:27:52.761Z</time></trkpt><trkpt lat="43.5017483" lon="12.9433"><ele>455.0</ele><time>2026-04-19T15:27:53.76Z</time></trkpt><trkpt lat="43.5016083" lon="12.9433067"><ele>460.0</ele><time>2026-04-19T15:27:54.763Z</time></trkpt><trkpt lat="43.5014567" lon="12.9433383"><ele>460.0</ele><time>2026-04-19T15:27:55.761Z</time></trkpt><trkpt lat="43.5013083" lon="12.9433667"><ele>460.0</ele><time>2026-04-19T15:27:56.764Z</time></trkpt><trkpt lat="43.5011667" lon="12.943395"><ele>460.0</ele><time>2026-04-19T15:27:57.761Z</time></trkpt><trkpt lat="43.501045" lon="12.9434183"><ele>460.0</ele><time>2026-04-19T15:27:58.764Z</time></trkpt><trkpt lat="43.50094" lon="12.9434233"><ele>460.0</ele><time>2026-04-19T15:27:59.76Z</time></trkpt><trkpt lat="43.500855" lon="12.9433917"><ele>460.0</ele><time>2026-04-19T15:28:00.763Z</time></trkpt><trkpt lat="43.5007733" lon="12.9433267"><ele>460.0</ele><time>2026-04-19T15:28:01.761Z</time></trkpt><trkpt lat="43.500705" lon="12.9432017"><ele>460.0</ele><time>2026-04-19T15:28:02.763Z</time></trkpt><trkpt lat="43.5006433" lon="12.94305"><ele>460.0</ele><time>2026-04-19T15:28:03.761Z</time></trkpt><trkpt lat="43.5005567" lon="12.9429033"><ele>460.0</ele><time>2026-04-19T15:28:04.762Z</time></trkpt><trkpt lat="43.5004533" lon="12.9427583"><ele>460.0</ele><time>2026-04-19T15:28:05.765Z</time></trkpt><trkpt lat="43.50033" lon="12.9426117"><ele>460.0</ele><time>2026-04-19T15:28:06.761Z</time></trkpt><trkpt lat="43.5001883" lon="12.942475"><ele>461.6666666666667</ele><time>2026-04-19T15:28:07.762Z</time></trkpt><trkpt lat="43.500045" lon="12.9423517"><ele>463.33333333333337</ele><time>2026-04-19T15:28:08.763Z</time></trkpt><trkpt lat="43.499915" lon="12.9422417"><ele>465.0</ele><time>2026-04-19T15:28:09.761Z</time></trkpt><trkpt lat="43.499795" lon="12.9421433"><ele>465.0</ele><time>2026-04-19T15:28:10.763Z</time></trkpt><trkpt lat="43.4996833" lon="12.9420567"><ele>465.0</ele><time>2026-04-19T15:28:11.761Z</time></trkpt><trkpt lat="43.4995833" lon="12.941965"><ele>465.0</ele><time>2026-04-19T15:28:12.761Z</time></trkpt><trkpt lat="43.49949" lon="12.9418533"><ele>465.0</ele><time>2026-04-19T15:28:13.763Z</time></trkpt><trkpt lat="43.4994" lon="12.9417317"><ele>468.25</ele><time>2026-04-19T15:28:14.762Z</time></trkpt><trkpt lat="43.4993117" lon="12.9415967"><ele>471.5</ele><time>2026-04-19T15:28:15.761Z</time></trkpt><trkpt lat="43.4992217" lon="12.9414567"><ele>474.75</ele><time>2026-04-19T15:28:16.763Z</time></trkpt><trkpt lat="43.4991267" lon="12.9413083"><ele>478.0</ele><time>2026-04-19T15:28:17.763Z</time></trkpt><trkpt lat="43.4990333" lon="12.941155"><ele>478.0</ele><time>2026-04-19T15:28:18.76Z</time></trkpt><trkpt lat="43.4989383" lon="12.9409983"><ele>478.0</ele><time>2026-04-19T15:28:19.763Z</time></trkpt><trkpt lat="43.4988383" lon="12.94084"><ele>478.0</ele><time>2026-04-19T15:28:20.761Z</time></trkpt><trkpt lat="43.4987383" lon="12.9406817"><ele>477.25</ele><time>2026-04-19T15:28:21.761Z</time></trkpt><trkpt lat="43.498645" lon="12.9405233"><ele>476.5</ele><time>2026-04-19T15:28:22.762Z</time></trkpt><trkpt lat="43.4985517" lon="12.9403717"><ele>475.75</ele><time>2026-04-19T15:28:23.76Z</time></trkpt><trkpt lat="43.4984583" lon="12.9402217"><ele>475.0</ele><time>2026-04-19T15:28:24.762Z</time></trkpt><trkpt lat="43.4983633" lon="12.9400767"><ele>479.0</ele><time>2026-04-19T15:28:25.763Z</time></trkpt><trkpt lat="43.4982767" lon="12.9399417"><ele>483.0</ele><time>2026-04-19T15:28:26.762Z</time></trkpt><trkpt lat="43.4982" lon="12.93982"><ele>487.0</ele><time>2026-04-19T15:28:27.763Z</time></trkpt><trkpt lat="43.4981333" lon="12.93971"><ele>491.0</ele><time>2026-04-19T15:28:28.762Z</time></trkpt><trkpt lat="43.4980767" lon="12.9396133"><ele>495.0</ele><time>2026-04-19T15:28:29.761Z</time></trkpt><trkpt lat="43.4980383" lon="12.9395217"><ele>495.0</ele><time>2026-04-19T15:28:30.762Z</time></trkpt><trkpt lat="43.4980217" lon="12.9394333"><ele>495.0</ele><time>2026-04-19T15:28:31.762Z</time></trkpt><trkpt lat="43.4980617" lon="12.9392817"><ele>495.0</ele><time>2026-04-19T15:28:33.761Z</time></trkpt><trkpt lat="43.498165" lon="12.9392117"><ele>495.0</ele><time>2026-04-19T15:28:35.762Z</time></trkpt><trkpt lat="43.4982367" lon="12.9392233"><ele>495.0</ele><time>2026-04-19T15:28:36.761Z</time></trkpt><trkpt lat="43.4983317" lon="12.9392933"><ele>495.0</ele><time>2026-04-19T15:28:37.761Z</time></trkpt><trkpt lat="43.4984433" lon="12.939415"><ele>495.0</ele><time>2026-04-19T15:28:38.762Z</time></trkpt><trkpt lat="43.4985783" lon="12.9395917"><ele>495.0</ele><time>2026-04-19T15:28:39.761Z</time></trkpt><trkpt lat="43.4987" lon="12.9397367"><ele>496.66666666666663</ele><time>2026-04-19T15:28:40.763Z</time></trkpt><trkpt lat="43.49882" lon="12.9398683"><ele>498.3333333333333</ele><time>2026-04-19T15:28:41.76Z</time></trkpt><trkpt lat="43.4989333" lon="12.9400283"><ele>500.0</ele><time>2026-04-19T15:28:42.763Z</time></trkpt><trkpt lat="43.499055" lon="12.9401733"><ele>500.0</ele><time>2026-04-19T15:28:43.759Z</time></trkpt><trkpt lat="43.49917" lon="12.9403033"><ele>500.0</ele><time>2026-04-19T15:28:44.76Z</time></trkpt><trkpt lat="43.4992817" lon="12.9404367"><ele>500.0</ele><time>2026-04-19T15:28:45.761Z</time></trkpt><trkpt lat="43.499395" lon="12.940565"><ele>500.0</ele><time>2026-04-19T15:28:46.76Z</time></trkpt><trkpt lat="43.499505" lon="12.940695"><ele>501.0</ele><time>2026-04-19T15:28:47.762Z</time></trkpt><trkpt lat="43.499605" lon="12.9408133"><ele>502.0</ele><time>2026-04-19T15:28:48.76Z</time></trkpt><trkpt lat="43.4996967" lon="12.94092"><ele>503.0</ele><time>2026-04-19T15:28:49.761Z</time></trkpt><trkpt lat="43.49979" lon="12.9410283"><ele>504.0</ele><time>2026-04-19T15:28:50.76Z</time></trkpt><trkpt lat="43.4998817" lon="12.9411433"><ele>504.0</ele><time>2026-04-19T15:28:51.762Z</time></trkpt><trkpt lat="43.4999733" lon="12.9412567"><ele>504.0</ele><time>2026-04-19T15:28:52.76Z</time></trkpt><trkpt lat="43.5000667" lon="12.9413717"><ele>504.0</ele><time>2026-04-19T15:28:53.761Z</time></trkpt><trkpt lat="43.5001567" lon="12.9414817"><ele>504.0</ele><time>2026-04-19T15:28:54.76Z</time></trkpt><trkpt lat="43.5002533" lon="12.941585"><ele>504.0</ele><time>2026-04-19T15:28:55.761Z</time></trkpt><trkpt lat="43.5003517" lon="12.94168"><ele>504.0</ele><time>2026-04-19T15:28:56.762Z</time></trkpt><trkpt lat="43.5004567" lon="12.9417567"><ele>504.0</ele><time>2026-04-19T15:28:57.76Z</time></trkpt><trkpt lat="43.5005583" lon="12.94182"><ele>504.0</ele><time>2026-04-19T15:28:58.761Z</time></trkpt><trkpt lat="43.5006467" lon="12.941865"><ele>504.0</ele><time>2026-04-19T15:28:59.76Z</time></trkpt><trkpt lat="43.50072" lon="12.941895"><ele>501.4</ele><time>2026-04-19T15:29:00.762Z</time></trkpt><trkpt lat="43.5007833" lon="12.9419067"><ele>498.79999999999995</ele><time>2026-04-19T15:29:01.761Z</time></trkpt><trkpt lat="43.5008867" lon="12.94185"><ele>496.20000000000005</ele><time>2026-04-19T15:29:03.765Z</time></trkpt><trkpt lat="43.5009617" lon="12.9417433"><ele>493.6</ele><time>2026-04-19T15:29:05.761Z</time></trkpt><trkpt lat="43.5009883" lon="12.94164"><ele>491.0</ele><time>2026-04-19T15:29:07.762Z</time></trkpt><trkpt lat="43.5009317" lon="12.9415167"><ele>497.3333333333333</ele><time>2026-04-19T15:29:09.761Z</time></trkpt><trkpt lat="43.5008783" lon="12.9414267"><ele>503.66666666666663</ele><time>2026-04-19T15:29:10.76Z</time></trkpt><trkpt lat="43.5008167" lon="12.941325"><ele>510.0</ele><time>2026-04-19T15:29:11.76Z</time></trkpt><trkpt lat="43.5007617" lon="12.9412317"><ele>516.3333333333334</ele><time>2026-04-19T15:29:12.763Z</time></trkpt><trkpt lat="43.5007117" lon="12.941135"><ele>522.6666666666667</ele><time>2026-04-19T15:29:13.76Z</time></trkpt><trkpt lat="43.5006633" lon="12.9410467"><ele>529.0</ele><time>2026-04-19T15:29:14.761Z</time></trkpt><trkpt lat="43.5006117" lon="12.940945"><ele>528.8</ele><time>2026-04-19T15:29:15.76Z</time></trkpt><trkpt lat="43.50056" lon="12.9408433"><ele>528.5999999999999</ele><time>2026-04-19T15:29:16.76Z</time></trkpt><trkpt lat="43.5004983" lon="12.9407433"><ele>528.4</ele><time>2026-04-19T15:29:17.761Z</time></trkpt><trkpt lat="43.500435" lon="12.9406417"><ele>528.1999999999999</ele><time>2026-04-19T15:29:18.76Z</time></trkpt><trkpt lat="43.500375" lon="12.9405317"><ele>528.0</ele><time>2026-04-19T15:29:19.761Z</time></trkpt><trkpt lat="43.5003217" lon="12.940415"><ele>528.0</ele><time>2026-04-19T15:29:20.763Z</time></trkpt><trkpt lat="43.5002617" lon="12.9403017"><ele>528.0</ele><time>2026-04-19T15:29:21.761Z</time></trkpt><trkpt lat="43.5002" lon="12.9401967"><ele>528.0</ele><time>2026-04-19T15:29:22.761Z</time></trkpt><trkpt lat="43.5001367" lon="12.94009"><ele>528.0</ele><time>2026-04-19T15:29:23.76Z</time></trkpt><trkpt lat="43.5000717" lon="12.939985"><ele>528.0</ele><time>2026-04-19T15:29:24.762Z</time></trkpt><trkpt lat="43.5000133" lon="12.9398917"><ele>529.5</ele><time>2026-04-19T15:29:25.761Z</time></trkpt><trkpt lat="43.4999533" lon="12.9398117"><ele>531.0</ele><time>2026-04-19T15:29:26.761Z</time></trkpt><trkpt lat="43.4999017" lon="12.9397267"><ele>532.5</ele><time>2026-04-19T15:29:27.76Z</time></trkpt><trkpt lat="43.4998467" lon="12.93965"><ele>534.0</ele><time>2026-04-19T15:29:28.761Z</time></trkpt><trkpt lat="43.499785" lon="12.9395733"><ele>535.5</ele><time>2026-04-19T15:29:29.76Z</time></trkpt><trkpt lat="43.4997183" lon="12.9394833"><ele>537.0</ele><time>2026-04-19T15:29:30.76Z</time></trkpt><trkpt lat="43.4996567" lon="12.939375"><ele>537.0</ele><time>2026-04-19T15:29:31.76Z</time></trkpt><trkpt lat="43.4995983" lon="12.9392767"><ele>537.0</ele><time>2026-04-19T15:29:32.761Z</time></trkpt><trkpt lat="43.4995383" lon="12.939175"><ele>537.0</ele><time>2026-04-19T15:29:33.76Z</time></trkpt><trkpt lat="43.4994783" lon="12.93907"><ele>537.0</ele><time>2026-04-19T15:29:34.762Z</time></trkpt><trkpt lat="43.49942" lon="12.9389683"><ele>537.0</ele><time>2026-04-19T15:29:35.761Z</time></trkpt><trkpt lat="43.4993717" lon="12.938865"><ele>537.3333333333334</ele><time>2026-04-19T15:29:36.761Z</time></trkpt><trkpt lat="43.499315" lon="12.9387667"><ele>537.6666666666666</ele><time>2026-04-19T15:29:37.76Z</time></trkpt><trkpt lat="43.4992633" lon="12.93867"><ele>538.0</ele><time>2026-04-19T15:29:38.761Z</time></trkpt><trkpt lat="43.4992083" lon="12.938585"><ele>538.3333333333333</ele><time>2026-04-19T15:29:39.76Z</time></trkpt><trkpt lat="43.4991467" lon="12.9385033"><ele>538.6666666666666</ele><time>2026-04-19T15:29:40.759Z</time></trkpt><trkpt lat="43.4990817" lon="12.93842"><ele>539.0</ele><time>2026-04-19T15:29:41.76Z</time></trkpt><trkpt lat="43.49901" lon="12.9383567"><ele>539.4</ele><time>2026-04-19T15:29:42.76Z</time></trkpt><trkpt lat="43.4989517" lon="12.9382633"><ele>539.8</ele><time>2026-04-19T15:29:43.762Z</time></trkpt><trkpt lat="43.4989033" lon="12.93818"><ele>540.2</ele><time>2026-04-19T15:29:44.761Z</time></trkpt><trkpt lat="43.498855" lon="12.9381117"><ele>540.6</ele><time>2026-04-19T15:29:45.759Z</time></trkpt><trkpt lat="43.498765" lon="12.938005"><ele>541.0</ele><time>2026-04-19T15:29:47.76Z</time></trkpt><trkpt lat="43.4986983" lon="12.9378867"><ele>541.0</ele><time>2026-04-19T15:29:49.762Z</time></trkpt><trkpt lat="43.4986667" lon="12.9377317"><ele>541.0</ele><time>2026-04-19T15:29:51.761Z</time></trkpt><trkpt lat="43.49865" lon="12.937645"><ele>541.0</ele><time>2026-04-19T15:29:52.764Z</time></trkpt><trkpt lat="43.4986367" lon="12.9375517"><ele>541.0</ele><time>2026-04-19T15:29:53.761Z</time></trkpt><trkpt lat="43.4986083" lon="12.93738"><ele>541.0</ele><time>2026-04-19T15:29:55.76Z</time></trkpt><trkpt lat="43.49858" lon="12.9372467"><ele>542.2</ele><time>2026-04-19T15:29:57.76Z</time></trkpt><trkpt lat="43.4985433" lon="12.93714"><ele>543.4000000000001</ele><time>2026-04-19T15:29:59.761Z</time></trkpt><trkpt lat="43.498465" lon="12.937015"><ele>544.6</ele><time>2026-04-19T15:30:01.761Z</time></trkpt><trkpt lat="43.4984067" lon="12.9369367"><ele>545.8000000000001</ele><time>2026-04-19T15:30:02.761Z</time></trkpt><trkpt lat="43.498325" lon="12.9368517"><ele>547.0</ele><time>2026-04-19T15:30:03.762Z</time></trkpt><trkpt lat="43.4982283" lon="12.9367417"><ele>549.0</ele><time>2026-04-19T15:30:04.761Z</time></trkpt><trkpt lat="43.4981183" lon="12.9366183"><ele>551.0</ele><time>2026-04-19T15:30:05.761Z</time></trkpt><trkpt lat="43.4980017" lon="12.9364867"><ele>553.0</ele><time>2026-04-19T15:30:06.761Z</time></trkpt><trkpt lat="43.4978767" lon="12.9363533"><ele>553.0</ele><time>2026-04-19T15:30:07.763Z</time></trkpt><trkpt lat="43.4977617" lon="12.9362217"><ele>553.0</ele><time>2026-04-19T15:30:08.76Z</time></trkpt><trkpt lat="43.4976583" lon="12.9360983"><ele>553.0</ele><time>2026-04-19T15:30:09.76Z</time></trkpt><trkpt lat="43.49757" lon="12.935995"><ele>553.0</ele><time>2026-04-19T15:30:10.76Z</time></trkpt><trkpt lat="43.4974867" lon="12.93591"><ele>550.8</ele><time>2026-04-19T15:30:11.761Z</time></trkpt><trkpt lat="43.497395" lon="12.9358517"><ele>548.5999999999999</ele><time>2026-04-19T15:30:12.768Z</time></trkpt><trkpt lat="43.4972967" lon="12.9358283"><ele>546.4000000000001</ele><time>2026-04-19T15:30:13.761Z</time></trkpt><trkpt lat="43.49719" lon="12.9358417"><ele>544.2</ele><time>2026-04-19T15:30:14.761Z</time></trkpt><trkpt lat="43.4970833" lon="12.9358967"><ele>542.0</ele><time>2026-04-19T15:30:15.76Z</time></trkpt><trkpt lat="43.4969717" lon="12.9359667"><ele>542.0</ele><time>2026-04-19T15:30:16.761Z</time></trkpt><trkpt lat="43.4968617" lon="12.9360467"><ele>542.0</ele><time>2026-04-19T15:30:17.759Z</time></trkpt><trkpt lat="43.4967533" lon="12.936135"><ele>542.0</ele><time>2026-04-19T15:30:18.761Z</time></trkpt><trkpt lat="43.496645" lon="12.9362167"><ele>542.0</ele><time>2026-04-19T15:30:19.76Z</time></trkpt><trkpt lat="43.4965517" lon="12.93629"><ele>542.0</ele><time>2026-04-19T15:30:20.761Z</time></trkpt><trkpt lat="43.4964733" lon="12.936355"><ele>542.0</ele><time>2026-04-19T15:30:21.761Z</time></trkpt><trkpt lat="43.4963917" lon="12.9364017"><ele>542.0</ele><time>2026-04-19T15:30:22.76Z</time></trkpt><trkpt lat="43.49631" lon="12.93643"><ele>542.0</ele><time>2026-04-19T15:30:23.762Z</time></trkpt><trkpt lat="43.4962217" lon="12.9364367"><ele>542.0</ele><time>2026-04-19T15:30:24.761Z</time></trkpt><trkpt lat="43.496125" lon="12.9364267"><ele>542.0</ele><time>2026-04-19T15:30:25.76Z</time></trkpt><trkpt lat="43.496025" lon="12.936385"><ele>544.25</ele><time>2026-04-19T15:30:26.762Z</time></trkpt><trkpt lat="43.49592" lon="12.9362983"><ele>546.5</ele><time>2026-04-19T15:30:27.762Z</time></trkpt><trkpt lat="43.4958117" lon="12.9362"><ele>548.75</ele><time>2026-04-19T15:30:28.761Z</time></trkpt><trkpt lat="43.4957033" lon="12.9360933"><ele>551.0</ele><time>2026-04-19T15:30:29.76Z</time></trkpt><trkpt lat="43.4955967" lon="12.9359783"><ele>553.75</ele><time>2026-04-19T15:30:30.76Z</time></trkpt><trkpt lat="43.4954933" lon="12.93584"><ele>556.5</ele><time>2026-04-19T15:30:31.76Z</time></trkpt><trkpt lat="43.495395" lon="12.9356883"><ele>559.25</ele><time>2026-04-19T15:30:32.76Z</time></trkpt><trkpt lat="43.4953017" lon="12.93552"><ele>562.0</ele><time>2026-04-19T15:30:33.761Z</time></trkpt><trkpt lat="43.4952167" lon="12.9353333"><ele>562.0</ele><time>2026-04-19T15:30:34.759Z</time></trkpt><trkpt lat="43.4951467" lon="12.93514"><ele>562.0</ele><time>2026-04-19T15:30:35.761Z</time></trkpt><trkpt lat="43.495095" lon="12.93495"><ele>562.0</ele><time>2026-04-19T15:30:36.761Z</time></trkpt><trkpt lat="43.4950717" lon="12.9347533"><ele>562.0</ele><time>2026-04-19T15:30:37.762Z</time></trkpt><trkpt lat="43.49507" lon="12.9345583"><ele>558.0</ele><time>2026-04-19T15:30:38.76Z</time></trkpt><trkpt lat="43.4951" lon="12.934365"><ele>554.0</ele><time>2026-04-19T15:30:39.761Z</time></trkpt><trkpt lat="43.495145" lon="12.9341783"><ele>550.0</ele><time>2026-04-19T15:30:40.762Z</time></trkpt><trkpt lat="43.4951917" lon="12.9339917"><ele>546.0</ele><time>2026-04-19T15:30:41.76Z</time></trkpt><trkpt lat="43.49523" lon="12.9337983"><ele>546.0</ele><time>2026-04-19T15:30:42.76Z</time></trkpt><trkpt lat="43.4952617" lon="12.9335967"><ele>546.0</ele><time>2026-04-19T15:30:43.761Z</time></trkpt><trkpt lat="43.4952967" lon="12.933395"><ele>546.0</ele><time>2026-04-19T15:30:44.76Z</time></trkpt><trkpt lat="43.49533" lon="12.933205"><ele>546.0</ele><time>2026-04-19T15:30:45.761Z</time></trkpt><trkpt lat="43.4953567" lon="12.93302"><ele>548.0</ele><time>2026-04-19T15:30:46.761Z</time></trkpt><trkpt lat="43.4953817" lon="12.93284"><ele>550.0</ele><time>2026-04-19T15:30:47.761Z</time></trkpt><trkpt lat="43.4953883" lon="12.9326567"><ele>552.0</ele><time>2026-04-19T15:30:48.762Z</time></trkpt><trkpt lat="43.49537" lon="12.9324767"><ele>554.0</ele><time>2026-04-19T15:30:49.76Z</time></trkpt><trkpt lat="43.4953267" lon="12.9322933"><ele>554.0</ele><time>2026-04-19T15:30:50.76Z</time></trkpt><trkpt lat="43.495275" lon="12.93211"><ele>554.0</ele><time>2026-04-19T15:30:51.761Z</time></trkpt><trkpt lat="43.4952183" lon="12.93193"><ele>554.0</ele><time>2026-04-19T15:30:52.76Z</time></trkpt><trkpt lat="43.4951633" lon="12.9317733"><ele>554.0</ele><time>2026-04-19T15:30:53.76Z</time></trkpt><trkpt lat="43.4951067" lon="12.93162"><ele>549.75</ele><time>2026-04-19T15:30:54.76Z</time></trkpt><trkpt lat="43.49505" lon="12.9314667"><ele>545.5</ele><time>2026-04-19T15:30:55.761Z</time></trkpt><trkpt lat="43.4949983" lon="12.93132"><ele>541.25</ele><time>2026-04-19T15:30:56.761Z</time></trkpt><trkpt lat="43.4949517" lon="12.931175"><ele>537.0</ele><time>2026-04-19T15:30:57.761Z</time></trkpt><trkpt lat="43.4949117" lon="12.93105"><ele>537.0</ele><time>2026-04-19T15:30:58.763Z</time></trkpt><trkpt lat="43.49487" lon="12.9309417"><ele>537.0</ele><time>2026-04-19T15:30:59.765Z</time></trkpt><trkpt lat="43.4948317" lon="12.9308383"><ele>537.0</ele><time>2026-04-19T15:31:00.762Z</time></trkpt><trkpt lat="43.49479" lon="12.93073"><ele>537.0</ele><time>2026-04-19T15:31:01.761Z</time></trkpt><trkpt lat="43.4947317" lon="12.93061"><ele>537.0</ele><time>2026-04-19T15:31:02.763Z</time></trkpt><trkpt lat="43.49466" lon="12.9304667"><ele>535.0</ele><time>2026-04-19T15:31:03.762Z</time></trkpt><trkpt lat="43.4945833" lon="12.93028"><ele>533.0</ele><time>2026-04-19T15:31:04.762Z</time></trkpt><trkpt lat="43.49451" lon="12.9300767"><ele>531.0</ele><time>2026-04-19T15:31:05.763Z</time></trkpt><trkpt lat="43.4944433" lon="12.9298817"><ele>531.0</ele><time>2026-04-19T15:31:06.763Z</time></trkpt><trkpt lat="43.494365" lon="12.9297117"><ele>531.0</ele><time>2026-04-19T15:31:07.761Z</time></trkpt><trkpt lat="43.49428" lon="12.9295667"><ele>531.0</ele><time>2026-04-19T15:31:08.761Z</time></trkpt><trkpt lat="43.49418" lon="12.9294483"><ele>531.0</ele><time>2026-04-19T15:31:09.764Z</time></trkpt><trkpt lat="43.4940783" lon="12.92937"><ele>531.0</ele><time>2026-04-19T15:31:10.762Z</time></trkpt><trkpt lat="43.4939617" lon="12.9293233"><ele>531.0</ele><time>2026-04-19T15:31:11.761Z</time></trkpt><trkpt lat="43.4938317" lon="12.9293283"><ele>531.0</ele><time>2026-04-19T15:31:12.761Z</time></trkpt><trkpt lat="43.4936917" lon="12.9293833"><ele>531.0</ele><time>2026-04-19T15:31:13.763Z</time></trkpt><trkpt lat="43.4935367" lon="12.9294967"><ele>529.3333333333334</ele><time>2026-04-19T15:31:14.762Z</time></trkpt><trkpt lat="43.493375" lon="12.92965"><ele>527.6666666666667</ele><time>2026-04-19T15:31:15.762Z</time></trkpt><trkpt lat="43.493225" lon="12.9298017"><ele>526.0</ele><time>2026-04-19T15:31:16.762Z</time></trkpt><trkpt lat="43.4930883" lon="12.9299517"><ele>526.3333333333334</ele><time>2026-04-19T15:31:17.765Z</time></trkpt><trkpt lat="43.492955" lon="12.9300983"><ele>526.6666666666666</ele><time>2026-04-19T15:31:18.761Z</time></trkpt><trkpt lat="43.4928217" lon="12.930255"><ele>527.0</ele><time>2026-04-19T15:31:19.762Z</time></trkpt><trkpt lat="43.4926683" lon="12.9303967"><ele>527.0</ele><time>2026-04-19T15:31:20.762Z</time></trkpt><trkpt lat="43.4925033" lon="12.930515"><ele>527.0</ele><time>2026-04-19T15:31:21.761Z</time></trkpt><trkpt lat="43.4923433" lon="12.9306"><ele>527.0</ele><time>2026-04-19T15:31:22.762Z</time></trkpt><trkpt lat="43.4921867" lon="12.9306583"><ele>521.5</ele><time>2026-04-19T15:31:23.761Z</time></trkpt><trkpt lat="43.4920367" lon="12.9306833"><ele>516.0</ele><time>2026-04-19T15:31:24.761Z</time></trkpt><trkpt lat="43.4918917" lon="12.9306867"><ele>510.5</ele><time>2026-04-19T15:31:25.761Z</time></trkpt><trkpt lat="43.4917633" lon="12.9306917"><ele>505.0</ele><time>2026-04-19T15:31:26.762Z</time></trkpt><trkpt lat="43.4916383" lon="12.93073"><ele>505.0</ele><time>2026-04-19T15:31:27.76Z</time></trkpt><trkpt lat="43.4915083" lon="12.9308133"><ele>505.0</ele><time>2026-04-19T15:31:28.76Z</time></trkpt><trkpt lat="43.4913867" lon="12.9309433"><ele>505.0</ele><time>2026-04-19T15:31:29.761Z</time></trkpt><trkpt lat="43.4912667" lon="12.9311083"><ele>498.6666666666667</ele><time>2026-04-19T15:31:30.76Z</time></trkpt><trkpt lat="43.49116" lon="12.93129"><ele>492.33333333333337</ele><time>2026-04-19T15:31:31.761Z</time></trkpt><trkpt lat="43.4910683" lon="12.9314783"><ele>486.0</ele><time>2026-04-19T15:31:32.762Z</time></trkpt><trkpt lat="43.4909967" lon="12.931675"><ele>490.0</ele><time>2026-04-19T15:31:33.762Z</time></trkpt><trkpt lat="43.4909283" lon="12.9318767"><ele>494.0</ele><time>2026-04-19T15:31:34.761Z</time></trkpt><trkpt lat="43.49087" lon="12.932085"><ele>498.0</ele><time>2026-04-19T15:31:35.761Z</time></trkpt><trkpt lat="43.4908183" lon="12.932295"><ele>498.0</ele><time>2026-04-19T15:31:36.762Z</time></trkpt><trkpt lat="43.4907733" lon="12.9325"><ele>498.0</ele><time>2026-04-19T15:31:37.762Z</time></trkpt><trkpt lat="43.4907167" lon="12.932695"><ele>498.0</ele><time>2026-04-19T15:31:38.763Z</time></trkpt><trkpt lat="43.4906433" lon="12.932885"><ele>499.0</ele><time>2026-04-19T15:31:39.762Z</time></trkpt><trkpt lat="43.4905617" lon="12.933065"><ele>500.0</ele><time>2026-04-19T15:31:40.762Z</time></trkpt><trkpt lat="43.4904767" lon="12.9332317"><ele>501.0</ele><time>2026-04-19T15:31:41.76Z</time></trkpt><trkpt lat="43.4903817" lon="12.933385"><ele>502.0</ele><time>2026-04-19T15:31:42.76Z</time></trkpt><trkpt lat="43.490265" lon="12.9335217"><ele>502.0</ele><time>2026-04-19T15:31:43.761Z</time></trkpt><trkpt lat="43.490135" lon="12.9336517"><ele>502.0</ele><time>2026-04-19T15:31:44.76Z</time></trkpt><trkpt lat="43.4900033" lon="12.9337717"><ele>502.0</ele><time>2026-04-19T15:31:45.761Z</time></trkpt><trkpt lat="43.4898817" lon="12.9338883"><ele>502.0</ele><time>2026-04-19T15:31:46.761Z</time></trkpt><trkpt lat="43.48977" lon="12.9339917"><ele>502.00000000000006</ele><time>2026-04-19T15:31:47.76Z</time></trkpt><trkpt lat="43.48967" lon="12.9340867"><ele>502.00000000000006</ele><time>2026-04-19T15:31:48.76Z</time></trkpt><trkpt lat="43.4895883" lon="12.9341633"><ele>502.0</ele><time>2026-04-19T15:31:49.765Z</time></trkpt><trkpt lat="43.48952" lon="12.9342117"><ele>502.0</ele><time>2026-04-19T15:31:50.76Z</time></trkpt><trkpt lat="43.4894083" lon="12.9342033"><ele>502.0</ele><time>2026-04-19T15:31:52.76Z</time></trkpt><trkpt lat="43.4893567" lon="12.9340467"><ele>502.00000000000006</ele><time>2026-04-19T15:31:54.76Z</time></trkpt><trkpt lat="43.48939" lon="12.93395"><ele>502.00000000000006</ele><time>2026-04-19T15:31:55.76Z</time></trkpt><trkpt lat="43.48945" lon="12.9338583"><ele>502.0</ele><time>2026-04-19T15:31:56.761Z</time></trkpt><trkpt lat="43.4895383" lon="12.933785"><ele>502.0</ele><time>2026-04-19T15:31:57.76Z</time></trkpt><trkpt lat="43.4896533" lon="12.9337283"><ele>502.0</ele><time>2026-04-19T15:31:58.761Z</time></trkpt><trkpt lat="43.4897867" lon="12.9336617"><ele>502.0</ele><time>2026-04-19T15:31:59.762Z</time></trkpt><trkpt lat="43.4899283" lon="12.9335633"><ele>502.0</ele><time>2026-04-19T15:32:00.76Z</time></trkpt><trkpt lat="43.4900617" lon="12.9334467"><ele>495.25</ele><time>2026-04-19T15:32:01.761Z</time></trkpt><trkpt lat="43.4901783" lon="12.9333183"><ele>488.5</ele><time>2026-04-19T15:32:02.764Z</time></trkpt><trkpt lat="43.4902883" lon="12.93318"><ele>481.75</ele><time>2026-04-19T15:32:03.76Z</time></trkpt><trkpt lat="43.4903667" lon="12.9330167"><ele>475.0</ele><time>2026-04-19T15:32:04.763Z</time></trkpt><trkpt lat="43.4904233" lon="12.932825"><ele>482.6666666666667</ele><time>2026-04-19T15:32:05.761Z</time></trkpt><trkpt lat="43.4904683" lon="12.9326133"><ele>490.33333333333337</ele><time>2026-04-19T15:32:06.762Z</time></trkpt><trkpt lat="43.4905067" lon="12.932405"><ele>498.0</ele><time>2026-04-19T15:32:07.761Z</time></trkpt><trkpt lat="43.4905417" lon="12.9322083"><ele>498.0</ele><time>2026-04-19T15:32:08.762Z</time></trkpt><trkpt lat="43.4905733" lon="12.932025"><ele>498.0</ele><time>2026-04-19T15:32:09.76Z</time></trkpt><trkpt lat="43.4906" lon="12.93185"><ele>498.0</ele><time>2026-04-19T15:32:10.763Z</time></trkpt><trkpt lat="43.490625" lon="12.931675"><ele>498.0</ele><time>2026-04-19T15:32:11.76Z</time></trkpt><trkpt lat="43.4906517" lon="12.93149"><ele>494.0</ele><time>2026-04-19T15:32:12.763Z</time></trkpt><trkpt lat="43.4906833" lon="12.93129"><ele>490.0</ele><time>2026-04-19T15:32:13.761Z</time></trkpt><trkpt lat="43.4907183" lon="12.9310617"><ele>486.0</ele><time>2026-04-19T15:32:14.763Z</time></trkpt><trkpt lat="43.490755" lon="12.93082"><ele>481.66666666666663</ele><time>2026-04-19T15:32:15.761Z</time></trkpt><trkpt lat="43.4907917" lon="12.930595"><ele>477.3333333333333</ele><time>2026-04-19T15:32:16.76Z</time></trkpt><trkpt lat="43.4908267" lon="12.9303867"><ele>473.0</ele><time>2026-04-19T15:32:17.76Z</time></trkpt><trkpt lat="43.49086" lon="12.9302"><ele>471.0</ele><time>2026-04-19T15:32:18.76Z</time></trkpt><trkpt lat="43.49089" lon="12.93003"><ele>468.99999999999994</ele><time>2026-04-19T15:32:19.762Z</time></trkpt><trkpt lat="43.490915" lon="12.92988"><ele>466.99999999999994</ele><time>2026-04-19T15:32:20.762Z</time></trkpt><trkpt lat="43.4909333" lon="12.929755"><ele>465.0</ele><time>2026-04-19T15:32:21.761Z</time></trkpt><trkpt lat="43.4909433" lon="12.929655"><ele>463.0</ele><time>2026-04-19T15:32:22.762Z</time></trkpt><trkpt lat="43.4909533" lon="12.9295083"><ele>463.00000000000006</ele><time>2026-04-19T15:32:24.76Z</time></trkpt><trkpt lat="43.4909283" lon="12.9294233"><ele>463.0</ele><time>2026-04-19T15:32:27.762Z</time></trkpt><trkpt lat="43.4908683" lon="12.929475"><ele>463.0</ele><time>2026-04-19T15:32:30.766Z</time></trkpt><trkpt lat="43.490865" lon="12.929625"><ele>463.0</ele><time>2026-04-19T15:32:32.762Z</time></trkpt><trkpt lat="43.4908583" lon="12.9297417"><ele>463.00000000000006</ele><time>2026-04-19T15:32:33.762Z</time></trkpt><trkpt lat="43.4908317" lon="12.929875"><ele>463.0</ele><time>2026-04-19T15:32:34.761Z</time></trkpt><trkpt lat="43.490785" lon="12.93004"><ele>466.33333333333337</ele><time>2026-04-19T15:32:35.761Z</time></trkpt><trkpt lat="43.4907283" lon="12.9302317"><ele>469.66666666666663</ele><time>2026-04-19T15:32:36.761Z</time></trkpt><trkpt lat="43.49066" lon="12.93044"><ele>473.0</ele><time>2026-04-19T15:32:37.762Z</time></trkpt><trkpt lat="43.490585" lon="12.9306683"><ele>477.3333333333333</ele><time>2026-04-19T15:32:38.761Z</time></trkpt><trkpt lat="43.4905067" lon="12.9309083"><ele>481.66666666666663</ele><time>2026-04-19T15:32:39.761Z</time></trkpt><trkpt lat="43.49043" lon="12.9311317"><ele>486.0</ele><time>2026-04-19T15:32:40.761Z</time></trkpt><trkpt lat="43.49036" lon="12.931335"><ele>477.5</ele><time>2026-04-19T15:32:41.761Z</time></trkpt><trkpt lat="43.4902983" lon="12.9315217"><ele>469.0</ele><time>2026-04-19T15:32:42.76Z</time></trkpt><trkpt lat="43.4902483" lon="12.9316833"><ele>460.5</ele><time>2026-04-19T15:32:43.763Z</time></trkpt><trkpt lat="43.4902067" lon="12.931825"><ele>452.0</ele><time>2026-04-19T15:32:44.761Z</time></trkpt><trkpt lat="43.490185" lon="12.9319617"><ele>452.0</ele><time>2026-04-19T15:32:45.762Z</time></trkpt><trkpt lat="43.49018" lon="12.9320917"><ele>452.00000000000006</ele><time>2026-04-19T15:32:46.76Z</time></trkpt><trkpt lat="43.49018" lon="12.9321883"><ele>452.00000000000006</ele><time>2026-04-19T15:32:47.76Z</time></trkpt><trkpt lat="43.4901417" lon="12.9323"><ele>452.0</ele><time>2026-04-19T15:32:49.762Z</time></trkpt><trkpt lat="43.49007" lon="12.93227"><ele>452.0</ele><time>2026-04-19T15:32:51.761Z</time></trkpt><trkpt lat="43.49006" lon="12.9321033"><ele>452.0</ele><time>2026-04-19T15:32:53.762Z</time></trkpt><trkpt lat="43.4900833" lon="12.9319533"><ele>452.0</ele><time>2026-04-19T15:32:54.762Z</time></trkpt><trkpt lat="43.4901217" lon="12.9317533"><ele>452.0</ele><time>2026-04-19T15:32:55.76Z</time></trkpt><trkpt lat="43.490155" lon="12.9315767"><ele>452.0</ele><time>2026-04-19T15:32:56.761Z</time></trkpt><trkpt lat="43.4901783" lon="12.9314333"><ele>449.6</ele><time>2026-04-19T15:32:57.767Z</time></trkpt><trkpt lat="43.4902033" lon="12.9313217"><ele>447.20000000000005</ele><time>2026-04-19T15:32:58.764Z</time></trkpt><trkpt lat="43.4902167" lon="12.9312317"><ele>444.8</ele><time>2026-04-19T15:32:59.764Z</time></trkpt><trkpt lat="43.49019" lon="12.93108"><ele>442.4</ele><time>2026-04-19T15:33:01.763Z</time></trkpt><trkpt lat="43.49007" lon="12.9310633"><ele>440.0</ele><time>2026-04-19T15:33:03.76Z</time></trkpt><trkpt lat="43.490015" lon="12.93113"><ele>440.0</ele><time>2026-04-19T15:33:04.761Z</time></trkpt><trkpt lat="43.4899683" lon="12.93125"><ele>440.0</ele><time>2026-04-19T15:33:05.761Z</time></trkpt><trkpt lat="43.48994" lon="12.9313817"><ele>440.0</ele><time>2026-04-19T15:33:06.761Z</time></trkpt><trkpt lat="43.4899083" lon="12.9315867"><ele>440.0</ele><time>2026-04-19T15:33:07.76Z</time></trkpt><trkpt lat="43.489855" lon="12.9318367"><ele>444.0</ele><time>2026-04-19T15:33:08.763Z</time></trkpt><trkpt lat="43.489785" lon="12.9320667"><ele>448.0</ele><time>2026-04-19T15:33:09.762Z</time></trkpt><trkpt lat="43.4897" lon="12.9322767"><ele>452.0</ele><time>2026-04-19T15:33:10.762Z</time></trkpt><trkpt lat="43.4896083" lon="12.9324567"><ele>448.3333333333333</ele><time>2026-04-19T15:33:11.76Z</time></trkpt><trkpt lat="43.48951" lon="12.9326017"><ele>444.66666666666663</ele><time>2026-04-19T15:33:12.761Z</time></trkpt><trkpt lat="43.4893833" lon="12.9327217"><ele>441.0</ele><time>2026-04-19T15:33:13.76Z</time></trkpt><trkpt lat="43.4892233" lon="12.9328367"><ele>441.0</ele><time>2026-04-19T15:33:14.764Z</time></trkpt><trkpt lat="43.4890417" lon="12.9329517"><ele>441.0</ele><time>2026-04-19T15:33:15.76Z</time></trkpt><trkpt lat="43.488855" lon="12.9330683"><ele>441.0</ele><time>2026-04-19T15:33:16.761Z</time></trkpt><trkpt lat="43.4886867" lon="12.9331917"><ele>440.0</ele><time>2026-04-19T15:33:17.76Z</time></trkpt><trkpt lat="43.48854" lon="12.9333217"><ele>439.0</ele><time>2026-04-19T15:33:18.761Z</time></trkpt><trkpt lat="43.4884167" lon="12.933455"><ele>438.0</ele><time>2026-04-19T15:33:19.761Z</time></trkpt><trkpt lat="43.48831" lon="12.9335717"><ele>438.0</ele><time>2026-04-19T15:33:20.76Z</time></trkpt><trkpt lat="43.4882017" lon="12.93367"><ele>438.0</ele><time>2026-04-19T15:33:21.761Z</time></trkpt><trkpt lat="43.4880733" lon="12.9337417"><ele>438.0</ele><time>2026-04-19T15:33:22.762Z</time></trkpt><trkpt lat="43.4879233" lon="12.9337867"><ele>438.0</ele><time>2026-04-19T15:33:23.841Z</time></trkpt><trkpt lat="43.4877667" lon="12.93381"><ele>432.66666666666663</ele><time>2026-04-19T15:33:24.761Z</time></trkpt><trkpt lat="43.48761" lon="12.93383"><ele>427.3333333333333</ele><time>2026-04-19T15:33:25.763Z</time></trkpt><trkpt lat="43.4874483" lon="12.93387"><ele>422.0</ele><time>2026-04-19T15:33:26.762Z</time></trkpt><trkpt lat="43.4872783" lon="12.9339333"><ele>422.0</ele><time>2026-04-19T15:33:27.761Z</time></trkpt><trkpt lat="43.4871017" lon="12.93401"><ele>422.0</ele><time>2026-04-19T15:33:28.761Z</time></trkpt><trkpt lat="43.48693" lon="12.9340983"><ele>422.0</ele><time>2026-04-19T15:33:29.762Z</time></trkpt><trkpt lat="43.48677" lon="12.9341933"><ele>421.3333333333333</ele><time>2026-04-19T15:33:30.762Z</time></trkpt><trkpt lat="43.4866217" lon="12.9342983"><ele>420.66666666666663</ele><time>2026-04-19T15:33:31.762Z</time></trkpt><trkpt lat="43.486485" lon="12.9344217"><ele>420.0</ele><time>2026-04-19T15:33:32.764Z</time></trkpt><trkpt lat="43.48636" lon="12.934555"><ele>410.33333333333337</ele><time>2026-04-19T15:33:33.762Z</time></trkpt><trkpt lat="43.48624" lon="12.9346817"><ele>400.6666666666667</ele><time>2026-04-19T15:33:34.761Z</time></trkpt><trkpt lat="43.486105" lon="12.934785"><ele>391.0</ele><time>2026-04-19T15:33:35.762Z</time></trkpt><trkpt lat="43.4859517" lon="12.9348567"><ele>391.0</ele><time>2026-04-19T15:33:36.764Z</time></trkpt><trkpt lat="43.4858017" lon="12.93492"><ele>391.0</ele><time>2026-04-19T15:33:37.762Z</time></trkpt><trkpt lat="43.4856617" lon="12.9349983"><ele>391.0</ele><time>2026-04-19T15:33:38.761Z</time></trkpt><trkpt lat="43.4855267" lon="12.935115"><ele>390.33333333333337</ele><time>2026-04-19T15:33:39.761Z</time></trkpt><trkpt lat="43.4853967" lon="12.93525"><ele>389.66666666666663</ele><time>2026-04-19T15:33:40.761Z</time></trkpt><trkpt lat="43.4852617" lon="12.9353783"><ele>389.0</ele><time>2026-04-19T15:33:41.8Z</time></trkpt><trkpt lat="43.485105" lon="12.9354917"><ele>389.0</ele><time>2026-04-19T15:33:42.761Z</time></trkpt><trkpt lat="43.4849383" lon="12.9355767"><ele>389.0</ele><time>2026-04-19T15:33:43.762Z</time></trkpt><trkpt lat="43.48478" lon="12.9356517"><ele>389.0</ele><time>2026-04-19T15:33:44.763Z</time></trkpt><trkpt lat="43.4846317" lon="12.9357417"><ele>386.3333333333333</ele><time>2026-04-19T15:33:45.76Z</time></trkpt><trkpt lat="43.484495" lon="12.9358767"><ele>383.66666666666663</ele><time>2026-04-19T15:33:46.762Z</time></trkpt><trkpt lat="43.4843583" lon="12.93603"><ele>381.0</ele><time>2026-04-19T15:33:47.762Z</time></trkpt><trkpt lat="43.4842317" lon="12.9361633"><ele>381.0</ele><time>2026-04-19T15:33:48.763Z</time></trkpt><trkpt lat="43.484115" lon="12.9362733"><ele>381.0</ele><time>2026-04-19T15:33:49.765Z</time></trkpt><trkpt lat="43.4840183" lon="12.93637"><ele>381.0</ele><time>2026-04-19T15:33:50.763Z</time></trkpt><trkpt lat="43.4839433" lon="12.9364667"><ele>381.0</ele><time>2026-04-19T15:33:51.762Z</time></trkpt><trkpt lat="43.4838933" lon="12.9365683"><ele>381.0</ele><time>2026-04-19T15:33:52.761Z</time></trkpt><trkpt lat="43.4838617" lon="12.936665"><ele>381.0</ele><time>2026-04-19T15:33:53.763Z</time></trkpt><trkpt lat="43.4837967" lon="12.9367517"><ele>381.0</ele><time>2026-04-19T15:33:55.764Z</time></trkpt><trkpt lat="43.4837233" lon="12.9366883"><ele>381.0</ele><time>2026-04-19T15:33:57.761Z</time></trkpt><trkpt lat="43.4837417" lon="12.9365167"><ele>381.0</ele><time>2026-04-19T15:33:59.761Z</time></trkpt><trkpt lat="43.4837717" lon="12.9364283"><ele>381.0</ele><time>2026-04-19T15:34:00.762Z</time></trkpt><trkpt lat="43.48386" lon="12.9363"><ele>381.0</ele><time>2026-04-19T15:34:01.761Z</time></trkpt><trkpt lat="43.4839817" lon="12.936145"><ele>381.0</ele><time>2026-04-19T15:34:02.762Z</time></trkpt><trkpt lat="43.4840833" lon="12.9359933"><ele>381.0</ele><time>2026-04-19T15:34:03.76Z</time></trkpt><trkpt lat="43.48415" lon="12.935845"><ele>376.8</ele><time>2026-04-19T15:34:04.761Z</time></trkpt><trkpt lat="43.48421" lon="12.9357083"><ele>372.6</ele><time>2026-04-19T15:34:05.761Z</time></trkpt><trkpt lat="43.4842633" lon="12.935585"><ele>368.4</ele><time>2026-04-19T15:34:06.761Z</time></trkpt><trkpt lat="43.4842967" lon="12.93548"><ele>364.2</ele><time>2026-04-19T15:34:07.761Z</time></trkpt><trkpt lat="43.4843083" lon="12.9353917"><ele>360.0</ele><time>2026-04-19T15:34:08.761Z</time></trkpt><trkpt lat="43.4842383" lon="12.9352767"><ele>360.0</ele><time>2026-04-19T15:34:10.762Z</time></trkpt><trkpt lat="43.4841717" lon="12.9352683"><ele>360.0</ele><time>2026-04-19T15:34:11.762Z</time></trkpt><trkpt lat="43.4841" lon="12.9353133"><ele>360.0</ele><time>2026-04-19T15:34:12.761Z</time></trkpt><trkpt lat="43.484045" lon="12.935425"><ele>360.0</ele><time>2026-04-19T15:34:13.764Z</time></trkpt><trkpt lat="43.48399" lon="12.93557"><ele>360.0</ele><time>2026-04-19T15:34:14.762Z</time></trkpt><trkpt lat="43.483905" lon="12.93572"><ele>360.0</ele><time>2026-04-19T15:34:15.761Z</time></trkpt><trkpt lat="43.4838017" lon="12.93584"><ele>360.0</ele><time>2026-04-19T15:34:16.76Z</time></trkpt><trkpt lat="43.483665" lon="12.9359683"><ele>360.0</ele><time>2026-04-19T15:34:17.763Z</time></trkpt><trkpt lat="43.4835017" lon="12.93608"><ele>355.6666666666667</ele><time>2026-04-19T15:34:18.762Z</time></trkpt><trkpt lat="43.4833383" lon="12.93617"><ele>351.33333333333337</ele><time>2026-04-19T15:34:19.76Z</time></trkpt><trkpt lat="43.483195" lon="12.9362483"><ele>347.0</ele><time>2026-04-19T15:34:20.764Z</time></trkpt><trkpt lat="43.4830733" lon="12.9363317"><ele>347.0</ele><time>2026-04-19T15:34:21.76Z</time></trkpt><trkpt lat="43.4829617" lon="12.93643"><ele>347.0</ele><time>2026-04-19T15:34:22.761Z</time></trkpt><trkpt lat="43.482865" lon="12.9365667"><ele>347.0</ele><time>2026-04-19T15:34:23.761Z</time></trkpt><trkpt lat="43.4827667" lon="12.936745"><ele>347.0</ele><time>2026-04-19T15:34:24.762Z</time></trkpt><trkpt lat="43.4826683" lon="12.9369217"><ele>342.5</ele><time>2026-04-19T15:34:25.762Z</time></trkpt><trkpt lat="43.4825717" lon="12.9370683"><ele>338.0</ele><time>2026-04-19T15:34:26.762Z</time></trkpt><trkpt lat="43.4824833" lon="12.9372"><ele>333.5</ele><time>2026-04-19T15:34:27.761Z</time></trkpt><trkpt lat="43.4824083" lon="12.9373517"><ele>329.0</ele><time>2026-04-19T15:34:28.761Z</time></trkpt><trkpt lat="43.4823583" lon="12.9375333"><ele>330.25</ele><time>2026-04-19T15:34:29.76Z</time></trkpt><trkpt lat="43.4823217" lon="12.937725"><ele>331.5</ele><time>2026-04-19T15:34:30.763Z</time></trkpt><trkpt lat="43.482305" lon="12.937915"><ele>332.75</ele><time>2026-04-19T15:34:31.763Z</time></trkpt><trkpt lat="43.4822883" lon="12.9380917"><ele>334.0</ele><time>2026-04-19T15:34:32.763Z</time></trkpt><trkpt lat="43.4822733" lon="12.938265"><ele>333.5</ele><time>2026-04-19T15:34:33.764Z</time></trkpt><trkpt lat="43.4822467" lon="12.9384333"><ele>333.0</ele><time>2026-04-19T15:34:34.761Z</time></trkpt><trkpt lat="43.4822117" lon="12.938595"><ele>332.5</ele><time>2026-04-19T15:34:35.763Z</time></trkpt><trkpt lat="43.4821733" lon="12.9387483"><ele>332.0</ele><time>2026-04-19T15:34:36.764Z</time></trkpt><trkpt lat="43.4821367" lon="12.9388933"><ele>332.0</ele><time>2026-04-19T15:34:37.763Z</time></trkpt><trkpt lat="43.482115" lon="12.9390333"><ele>332.0</ele><time>2026-04-19T15:34:38.765Z</time></trkpt><trkpt lat="43.482105" lon="12.93917"><ele>332.0</ele><time>2026-04-19T15:34:39.763Z</time></trkpt><trkpt lat="43.4821117" lon="12.9393033"><ele>332.0</ele><time>2026-04-19T15:34:40.763Z</time></trkpt><trkpt lat="43.4821417" lon="12.9394333"><ele>332.0</ele><time>2026-04-19T15:34:41.763Z</time></trkpt><trkpt lat="43.4821733" lon="12.93955"><ele>330.33333333333337</ele><time>2026-04-19T15:34:42.761Z</time></trkpt><trkpt lat="43.4822017" lon="12.9396617"><ele>328.6666666666667</ele><time>2026-04-19T15:34:43.761Z</time></trkpt><trkpt lat="43.4822167" lon="12.9397667"><ele>327.0</ele><time>2026-04-19T15:34:44.761Z</time></trkpt><trkpt lat="43.4822067" lon="12.93987"><ele>325.3333333333333</ele><time>2026-04-19T15:34:45.761Z</time></trkpt><trkpt lat="43.48217" lon="12.9399733"><ele>323.66666666666663</ele><time>2026-04-19T15:34:46.761Z</time></trkpt><trkpt lat="43.482115" lon="12.9400733"><ele>322.0</ele><time>2026-04-19T15:34:47.762Z</time></trkpt><trkpt lat="43.48206" lon="12.940155"><ele>320.40000000000003</ele><time>2026-04-19T15:34:48.762Z</time></trkpt><trkpt lat="43.4819567" lon="12.9402033"><ele>318.8</ele><time>2026-04-19T15:34:50.763Z</time></trkpt><trkpt lat="43.481845" lon="12.9401083"><ele>317.2</ele><time>2026-04-19T15:34:52.762Z</time></trkpt><trkpt lat="43.4817817" lon="12.9400283"><ele>315.6</ele><time>2026-04-19T15:34:53.765Z</time></trkpt><trkpt lat="43.4817017" lon="12.9399417"><ele>314.0</ele><time>2026-04-19T15:34:54.763Z</time></trkpt><trkpt lat="43.481595" lon="12.9398567"><ele>315.0</ele><time>2026-04-19T15:34:55.763Z</time></trkpt><trkpt lat="43.4814733" lon="12.9397967"><ele>316.0</ele><time>2026-04-19T15:34:56.762Z</time></trkpt><trkpt lat="43.4813633" lon="12.93976"><ele>317.0</ele><time>2026-04-19T15:34:57.763Z</time></trkpt><trkpt lat="43.4812617" lon="12.939745"><ele>318.0</ele><time>2026-04-19T15:34:58.766Z</time></trkpt><trkpt lat="43.481155" lon="12.9397483"><ele>318.0</ele><time>2026-04-19T15:34:59.764Z</time></trkpt><trkpt lat="43.4810433" lon="12.939775"><ele>318.0</ele><time>2026-04-19T15:35:00.763Z</time></trkpt><trkpt lat="43.4809267" lon="12.939825"><ele>318.0</ele><time>2026-04-19T15:35:01.765Z</time></trkpt><trkpt lat="43.4808233" lon="12.9398983"><ele>318.0</ele><time>2026-04-19T15:35:02.762Z</time></trkpt><trkpt lat="43.4807333" lon="12.9399817"><ele>319.2</ele><time>2026-04-19T15:35:03.762Z</time></trkpt><trkpt lat="43.4806483" lon="12.940075"><ele>320.4</ele><time>2026-04-19T15:35:04.763Z</time></trkpt><trkpt lat="43.4805717" lon="12.9401717"><ele>321.59999999999997</ele><time>2026-04-19T15:35:05.763Z</time></trkpt><trkpt lat="43.4805067" lon="12.9402617"><ele>322.8</ele><time>2026-04-19T15:35:06.761Z</time></trkpt><trkpt lat="43.4804517" lon="12.9403533"><ele>324.0</ele><time>2026-04-19T15:35:07.762Z</time></trkpt><trkpt lat="43.4804033" lon="12.94045"><ele>324.14285714285717</ele><time>2026-04-19T15:35:08.762Z</time></trkpt><trkpt lat="43.480365" lon="12.9405383"><ele>324.2857142857143</ele><time>2026-04-19T15:35:09.762Z</time></trkpt><trkpt lat="43.4803433" lon="12.940635"><ele>324.42857142857144</ele><time>2026-04-19T15:35:10.761Z</time></trkpt><trkpt lat="43.480355" lon="12.94074"><ele>324.57142857142856</ele><time>2026-04-19T15:35:11.761Z</time></trkpt><trkpt lat="43.480355" lon="12.9408483"><ele>324.7142857142857</ele><time>2026-04-19T15:35:12.764Z</time></trkpt><trkpt lat="43.4803483" lon="12.9409517"><ele>324.85714285714283</ele><time>2026-04-19T15:35:13.761Z</time></trkpt><trkpt lat="43.48033" lon="12.9410417"><ele>325.0</ele><time>2026-04-19T15:35:14.763Z</time></trkpt><trkpt lat="43.4803017" lon="12.9411283"><ele>327.0</ele><time>2026-04-19T15:35:15.766Z</time></trkpt><trkpt lat="43.4802533" lon="12.941205"><ele>329.0</ele><time>2026-04-19T15:35:16.767Z</time></trkpt><trkpt lat="43.4801883" lon="12.9412567"><ele>331.0</ele><time>2026-04-19T15:35:17.762Z</time></trkpt><trkpt lat="43.4800983" lon="12.9412783"><ele>333.0</ele><time>2026-04-19T15:35:18.763Z</time></trkpt><trkpt lat="43.4800117" lon="12.9413167"><ele>335.0</ele><time>2026-04-19T15:35:19.762Z</time></trkpt><trkpt lat="43.4798983" lon="12.9413783"><ele>335.0</ele><time>2026-04-19T15:35:20.761Z</time></trkpt><trkpt lat="43.4797717" lon="12.9414583"><ele>335.0</ele><time>2026-04-19T15:35:21.762Z</time></trkpt><trkpt lat="43.4796383" lon="12.94155"><ele>335.0</ele><time>2026-04-19T15:35:22.763Z</time></trkpt><trkpt lat="43.4795083" lon="12.9416383"><ele>335.0</ele><time>2026-04-19T15:35:23.761Z</time></trkpt><trkpt lat="43.4793967" lon="12.9417167"><ele>337.6</ele><time>2026-04-19T15:35:24.761Z</time></trkpt><trkpt lat="43.479295" lon="12.9417817"><ele>340.2</ele><time>2026-04-19T15:35:25.762Z</time></trkpt><trkpt lat="43.4791967" lon="12.9418267"><ele>342.79999999999995</ele><time>2026-04-19T15:35:26.763Z</time></trkpt><trkpt lat="43.4791067" lon="12.9418367"><ele>345.4</ele><time>2026-04-19T15:35:27.764Z</time></trkpt><trkpt lat="43.479025" lon="12.9418083"><ele>348.0</ele><time>2026-04-19T15:35:28.762Z</time></trkpt><trkpt lat="43.4789517" lon="12.94173"><ele>345.5</ele><time>2026-04-19T15:35:29.764Z</time></trkpt><trkpt lat="43.47889" lon="12.9416133"><ele>343.0</ele><time>2026-04-19T15:35:30.763Z</time></trkpt><trkpt lat="43.4788367" lon="12.9414633"><ele>340.5</ele><time>2026-04-19T15:35:31.761Z</time></trkpt><trkpt lat="43.4787833" lon="12.9412767"><ele>338.0</ele><time>2026-04-19T15:35:32.762Z</time></trkpt><trkpt lat="43.478725" lon="12.9410933"><ele>341.0</ele><time>2026-04-19T15:35:33.761Z</time></trkpt><trkpt lat="43.4786567" lon="12.9409417"><ele>344.0</ele><time>2026-04-19T15:35:34.76Z</time></trkpt><trkpt lat="43.4785867" lon="12.9408"><ele>347.0</ele><time>2026-04-19T15:35:35.762Z</time></trkpt><trkpt lat="43.478495" lon="12.9406767"><ele>350.0</ele><time>2026-04-19T15:35:36.761Z</time></trkpt><trkpt lat="43.4783867" lon="12.9405667"><ele>350.0</ele><time>2026-04-19T15:35:37.762Z</time></trkpt><trkpt lat="43.4782767" lon="12.94047"><ele>350.0</ele><time>2026-04-19T15:35:38.761Z</time></trkpt><trkpt lat="43.4781767" lon="12.9403933"><ele>350.0</ele><time>2026-04-19T15:35:39.762Z</time></trkpt><trkpt lat="43.4780783" lon="12.9403433"><ele>350.0</ele><time>2026-04-19T15:35:40.761Z</time></trkpt><trkpt lat="43.4779767" lon="12.9403117"><ele>352.25</ele><time>2026-04-19T15:35:41.76Z</time></trkpt><trkpt lat="43.4778767" lon="12.9403083"><ele>354.5</ele><time>2026-04-19T15:35:42.763Z</time></trkpt><trkpt lat="43.477765" lon="12.94033"><ele>356.75</ele><time>2026-04-19T15:35:43.76Z</time></trkpt><trkpt lat="43.4776533" lon="12.9403817"><ele>359.0</ele><time>2026-04-19T15:35:44.761Z</time></trkpt><trkpt lat="43.4775417" lon="12.9404517"><ele>359.0</ele><time>2026-04-19T15:35:45.762Z</time></trkpt><trkpt lat="43.4774283" lon="12.9405317"><ele>359.0</ele><time>2026-04-19T15:35:46.76Z</time></trkpt><trkpt lat="43.4773333" lon="12.9406083"><ele>359.0</ele><time>2026-04-19T15:35:47.768Z</time></trkpt><trkpt lat="43.4772383" lon="12.940675"><ele>359.0</ele><time>2026-04-19T15:35:48.763Z</time></trkpt><trkpt lat="43.4771383" lon="12.9407267"><ele>358.75</ele><time>2026-04-19T15:35:49.764Z</time></trkpt><trkpt lat="43.4770267" lon="12.94076"><ele>358.5</ele><time>2026-04-19T15:35:50.763Z</time></trkpt><trkpt lat="43.4769" lon="12.940785"><ele>358.25</ele><time>2026-04-19T15:35:51.761Z</time></trkpt><trkpt lat="43.476765" lon="12.9407933"><ele>358.0</ele><time>2026-04-19T15:35:52.761Z</time></trkpt><trkpt lat="43.4766333" lon="12.940805"><ele>358.0</ele><time>2026-04-19T15:35:53.762Z</time></trkpt><trkpt lat="43.476515" lon="12.9408133"><ele>358.0</ele><time>2026-04-19T15:35:54.762Z</time></trkpt><trkpt lat="43.4763867" lon="12.9408417"><ele>358.0</ele><time>2026-04-19T15:35:55.762Z</time></trkpt><trkpt lat="43.47626" lon="12.9408883"><ele>358.0</ele><time>2026-04-19T15:35:56.761Z</time></trkpt><trkpt lat="43.4761283" lon="12.94095"><ele>362.25</ele><time>2026-04-19T15:35:57.762Z</time></trkpt><trkpt lat="43.4760033" lon="12.941015"><ele>366.5</ele><time>2026-04-19T15:35:58.762Z</time></trkpt><trkpt lat="43.4758883" lon="12.94106"><ele>370.75</ele><time>2026-04-19T15:35:59.761Z</time></trkpt><trkpt lat="43.4757583" lon="12.9410783"><ele>375.0</ele><time>2026-04-19T15:36:00.76Z</time></trkpt><trkpt lat="43.4756267" lon="12.9410833"><ele>375.0</ele><time>2026-04-19T15:36:01.761Z</time></trkpt><trkpt lat="43.475485" lon="12.9411"><ele>375.0</ele><time>2026-04-19T15:36:02.762Z</time></trkpt><trkpt lat="43.4753383" lon="12.94115"><ele>375.0</ele><time>2026-04-19T15:36:03.761Z</time></trkpt><trkpt lat="43.4751867" lon="12.9412167"><ele>374.0</ele><time>2026-04-19T15:36:04.76Z</time></trkpt><trkpt lat="43.4750317" lon="12.94131"><ele>373.0</ele><time>2026-04-19T15:36:05.762Z</time></trkpt><trkpt lat="43.4748667" lon="12.9414117"><ele>372.0</ele><time>2026-04-19T15:36:06.761Z</time></trkpt><trkpt lat="43.4747017" lon="12.9415217"><ele>371.0</ele><time>2026-04-19T15:36:07.76Z</time></trkpt><trkpt lat="43.4745533" lon="12.9416433"><ele>370.0</ele><time>2026-04-19T15:36:08.761Z</time></trkpt><trkpt lat="43.4744217" lon="12.9417617"><ele>369.0</ele><time>2026-04-19T15:36:09.766Z</time></trkpt><trkpt lat="43.4743067" lon="12.9418783"><ele>371.4</ele><time>2026-04-19T15:36:10.76Z</time></trkpt><trkpt lat="43.4742167" lon="12.941985"><ele>373.79999999999995</ele><time>2026-04-19T15:36:11.762Z</time></trkpt><trkpt lat="43.4741483" lon="12.9420967"><ele>376.20000000000005</ele><time>2026-04-19T15:36:12.761Z</time></trkpt><trkpt lat="43.4740967" lon="12.9422217"><ele>378.6</ele><time>2026-04-19T15:36:13.762Z</time></trkpt><trkpt lat="43.474065" lon="12.94236"><ele>381.0</ele><time>2026-04-19T15:36:14.762Z</time></trkpt><trkpt lat="43.47406" lon="12.9425317"><ele>383.0</ele><time>2026-04-19T15:36:15.761Z</time></trkpt><trkpt lat="43.4740633" lon="12.9427117"><ele>385.0</ele><time>2026-04-19T15:36:16.76Z</time></trkpt><trkpt lat="43.4740417" lon="12.942885"><ele>387.0</ele><time>2026-04-19T15:36:17.761Z</time></trkpt><trkpt lat="43.474" lon="12.94306"><ele>389.0</ele><time>2026-04-19T15:36:18.763Z</time></trkpt><trkpt lat="43.4739467" lon="12.9432217"><ele>389.0</ele><time>2026-04-19T15:36:19.761Z</time></trkpt><trkpt lat="43.4739" lon="12.9433717"><ele>389.0</ele><time>2026-04-19T15:36:20.76Z</time></trkpt><trkpt lat="43.4738717" lon="12.9435117"><ele>389.0</ele><time>2026-04-19T15:36:21.761Z</time></trkpt><trkpt lat="43.473855" lon="12.9436517"><ele>389.0</ele><time>2026-04-19T15:36:22.762Z</time></trkpt><trkpt lat="43.47385" lon="12.9437883"><ele>389.0</ele><time>2026-04-19T15:36:23.762Z</time></trkpt><trkpt lat="43.47386" lon="12.9439267"><ele>390.6</ele><time>2026-04-19T15:36:24.759Z</time></trkpt><trkpt lat="43.4738833" lon="12.9440683"><ele>392.2</ele><time>2026-04-19T15:36:25.76Z</time></trkpt><trkpt lat="43.4739217" lon="12.944215"><ele>393.8</ele><time>2026-04-19T15:36:26.76Z</time></trkpt><trkpt lat="43.4739633" lon="12.9443617"><ele>395.40000000000003</ele><time>2026-04-19T15:36:27.76Z</time></trkpt><trkpt lat="43.4740017" lon="12.944495"><ele>397.0</ele><time>2026-04-19T15:36:28.761Z</time></trkpt><trkpt lat="43.4740383" lon="12.9446133"><ele>397.5</ele><time>2026-04-19T15:36:29.76Z</time></trkpt><trkpt lat="43.474085" lon="12.9447267"><ele>398.0</ele><time>2026-04-19T15:36:30.761Z</time></trkpt><trkpt lat="43.47416" lon="12.94484"><ele>398.5</ele><time>2026-04-19T15:36:31.761Z</time></trkpt><trkpt lat="43.474265" lon="12.944955"><ele>399.0</ele><time>2026-04-19T15:36:32.761Z</time></trkpt><trkpt lat="43.474385" lon="12.945055"><ele>399.75</ele><time>2026-04-19T15:36:33.76Z</time></trkpt><trkpt lat="43.474495" lon="12.9451433"><ele>400.5</ele><time>2026-04-19T15:36:34.76Z</time></trkpt><trkpt lat="43.4745917" lon="12.9452283"><ele>401.25</ele><time>2026-04-19T15:36:35.761Z</time></trkpt><trkpt lat="43.474685" lon="12.94531"><ele>402.0</ele><time>2026-04-19T15:36:36.762Z</time></trkpt><trkpt lat="43.4747567" lon="12.94541"><ele>404.1666666666667</ele><time>2026-04-19T15:36:37.763Z</time></trkpt><trkpt lat="43.4748" lon="12.9455167"><ele>406.33333333333337</ele><time>2026-04-19T15:36:38.76Z</time></trkpt><trkpt lat="43.4748217" lon="12.9456267"><ele>408.5</ele><time>2026-04-19T15:36:39.76Z</time></trkpt><trkpt lat="43.4748183" lon="12.94574"><ele>410.6666666666667</ele><time>2026-04-19T15:36:40.76Z</time></trkpt><trkpt lat="43.4747883" lon="12.9458483"><ele>412.83333333333337</ele><time>2026-04-19T15:36:41.759Z</time></trkpt><trkpt lat="43.474725" lon="12.945935"><ele>415.0</ele><time>2026-04-19T15:36:42.76Z</time></trkpt><trkpt lat="43.4746483" lon="12.9460083"><ele>415.5</ele><time>2026-04-19T15:36:43.76Z</time></trkpt><trkpt lat="43.4745417" lon="12.9460617"><ele>416.0</ele><time>2026-04-19T15:36:44.761Z</time></trkpt><trkpt lat="43.4744183" lon="12.9461217"><ele>416.5</ele><time>2026-04-19T15:36:45.761Z</time></trkpt><trkpt lat="43.4743033" lon="12.94622"><ele>417.0</ele><time>2026-04-19T15:36:46.76Z</time></trkpt><trkpt lat="43.4741867" lon="12.9463467"><ele>417.0</ele><time>2026-04-19T15:36:47.76Z</time></trkpt><trkpt lat="43.47408" lon="12.9464817"><ele>417.0</ele><time>2026-04-19T15:36:48.76Z</time></trkpt><trkpt lat="43.4739883" lon="12.9465933"><ele>417.0</ele><time>2026-04-19T15:36:49.76Z</time></trkpt><trkpt lat="43.47391" lon="12.9466883"><ele>417.0</ele><time>2026-04-19T15:36:50.762Z</time></trkpt><trkpt lat="43.47383" lon="12.9467517"><ele>421.40000000000003</ele><time>2026-04-19T15:36:51.763Z</time></trkpt><trkpt lat="43.4737483" lon="12.94679"><ele>425.8</ele><time>2026-04-19T15:36:52.759Z</time></trkpt><trkpt lat="43.4736583" lon="12.9467983"><ele>430.2</ele><time>2026-04-19T15:36:53.761Z</time></trkpt><trkpt lat="43.4735517" lon="12.946785"><ele>434.6</ele><time>2026-04-19T15:36:54.759Z</time></trkpt><trkpt lat="43.4734317" lon="12.94677"><ele>439.0</ele><time>2026-04-19T15:36:55.76Z</time></trkpt><trkpt lat="43.4733233" lon="12.9467583"><ele>439.0</ele><time>2026-04-19T15:36:56.762Z</time></trkpt><trkpt lat="43.47322" lon="12.9467317"><ele>439.0</ele><time>2026-04-19T15:36:57.762Z</time></trkpt><trkpt lat="43.4731233" lon="12.9466767"><ele>439.0</ele><time>2026-04-19T15:36:58.76Z</time></trkpt><trkpt lat="43.4730433" lon="12.9465867"><ele>439.0</ele><time>2026-04-19T15:36:59.761Z</time></trkpt><trkpt lat="43.4729683" lon="12.9464917"><ele>439.0</ele><time>2026-04-19T15:37:00.762Z</time></trkpt><trkpt lat="43.47289" lon="12.9464133"><ele>437.0</ele><time>2026-04-19T15:37:01.764Z</time></trkpt><trkpt lat="43.4727983" lon="12.9463583"><ele>435.0</ele><time>2026-04-19T15:37:02.763Z</time></trkpt><trkpt lat="43.472695" lon="12.9463317"><ele>433.0</ele><time>2026-04-19T15:37:03.761Z</time></trkpt><trkpt lat="43.47257" lon="12.946355"><ele>431.0</ele><time>2026-04-19T15:37:04.761Z</time></trkpt><trkpt lat="43.4724433" lon="12.9464067"><ele>431.0</ele><time>2026-04-19T15:37:05.764Z</time></trkpt><trkpt lat="43.4723233" lon="12.9464517"><ele>431.0</ele><time>2026-04-19T15:37:06.764Z</time></trkpt><trkpt lat="43.4722083" lon="12.946485"><ele>431.0</ele><time>2026-04-19T15:37:07.761Z</time></trkpt><trkpt lat="43.4720967" lon="12.9464967"><ele>431.0</ele><time>2026-04-19T15:37:08.762Z</time></trkpt><trkpt lat="43.471985" lon="12.9464883"><ele>432.0</ele><time>2026-04-19T15:37:09.763Z</time></trkpt><trkpt lat="43.4718717" lon="12.9464517"><ele>433.0</ele><time>2026-04-19T15:37:10.762Z</time></trkpt><trkpt lat="43.4717633" lon="12.9464067"><ele>434.0</ele><time>2026-04-19T15:37:11.761Z</time></trkpt><trkpt lat="43.471665" lon="12.9463583"><ele>435.0</ele><time>2026-04-19T15:37:12.761Z</time></trkpt><trkpt lat="43.4715683" lon="12.9463167"><ele>436.0</ele><time>2026-04-19T15:37:13.761Z</time></trkpt><trkpt lat="43.4714683" lon="12.946305"><ele>436.0</ele><time>2026-04-19T15:37:14.761Z</time></trkpt><trkpt lat="43.471365" lon="12.946325"><ele>436.0</ele><time>2026-04-19T15:37:15.764Z</time></trkpt><trkpt lat="43.4712583" lon="12.9463833"><ele>436.0</ele><time>2026-04-19T15:37:16.763Z</time></trkpt><trkpt lat="43.47115" lon="12.9464633"><ele>436.0</ele><time>2026-04-19T15:37:17.762Z</time></trkpt><trkpt lat="43.4710317" lon="12.9465533"><ele>435.25</ele><time>2026-04-19T15:37:18.762Z</time></trkpt><trkpt lat="43.4709067" lon="12.9466517"><ele>434.5</ele><time>2026-04-19T15:37:19.766Z</time></trkpt><trkpt lat="43.470775" lon="12.946755"><ele>433.75</ele><time>2026-04-19T15:37:20.761Z</time></trkpt><trkpt lat="43.470645" lon="12.9468617"><ele>433.0</ele><time>2026-04-19T15:37:21.767Z</time></trkpt><trkpt lat="43.470515" lon="12.946995"><ele>435.25</ele><time>2026-04-19T15:37:22.761Z</time></trkpt><trkpt lat="43.4703983" lon="12.947135"><ele>437.5</ele><time>2026-04-19T15:37:23.761Z</time></trkpt><trkpt lat="43.4702883" lon="12.9472717"><ele>439.75</ele><time>2026-04-19T15:37:24.762Z</time></trkpt><trkpt lat="43.4701867" lon="12.94739"><ele>442.0</ele><time>2026-04-19T15:37:25.76Z</time></trkpt><trkpt lat="43.4700817" lon="12.947505"><ele>444.0</ele><time>2026-04-19T15:37:26.76Z</time></trkpt><trkpt lat="43.4699767" lon="12.947605"><ele>446.0</ele><time>2026-04-19T15:37:27.761Z</time></trkpt><trkpt lat="43.46985" lon="12.9476867"><ele>448.0</ele><time>2026-04-19T15:37:28.762Z</time></trkpt><trkpt lat="43.4697133" lon="12.947755"><ele>450.0</ele><time>2026-04-19T15:37:29.761Z</time></trkpt><trkpt lat="43.4695833" lon="12.94782"><ele>450.0</ele><time>2026-04-19T15:37:30.764Z</time></trkpt><trkpt lat="43.46947" lon="12.9478717"><ele>450.0</ele><time>2026-04-19T15:37:31.76Z</time></trkpt><trkpt lat="43.46937" lon="12.9479367"><ele>450.0</ele><time>2026-04-19T15:37:32.763Z</time></trkpt><trkpt lat="43.46929" lon="12.94802"><ele>450.0</ele><time>2026-04-19T15:37:33.762Z</time></trkpt><trkpt lat="43.4692283" lon="12.9481333"><ele>450.0</ele><time>2026-04-19T15:37:34.761Z</time></trkpt><trkpt lat="43.4691983" lon="12.9482733"><ele>452.2</ele><time>2026-04-19T15:37:35.762Z</time></trkpt><trkpt lat="43.4691867" lon="12.9484417"><ele>454.4</ele><time>2026-04-19T15:37:36.763Z</time></trkpt><trkpt lat="43.4691883" lon="12.9486133"><ele>456.6</ele><time>2026-04-19T15:37:37.763Z</time></trkpt><trkpt lat="43.4691917" lon="12.9487533"><ele>458.8</ele><time>2026-04-19T15:37:38.762Z</time></trkpt><trkpt lat="43.4691883" lon="12.9488717"><ele>461.0</ele><time>2026-04-19T15:37:39.763Z</time></trkpt><trkpt lat="43.469175" lon="12.9489733"><ele>461.0</ele><time>2026-04-19T15:37:40.762Z</time></trkpt><trkpt lat="43.4691433" lon="12.9490533"><ele>461.0</ele><time>2026-04-19T15:37:41.764Z</time></trkpt><trkpt lat="43.4690817" lon="12.9490917"><ele>461.0</ele><time>2026-04-19T15:37:42.763Z</time></trkpt><trkpt lat="43.4689933" lon="12.94909"><ele>461.0</ele><time>2026-04-19T15:37:43.763Z</time></trkpt><trkpt lat="43.4688717" lon="12.9490517"><ele>461.0</ele><time>2026-04-19T15:37:44.763Z</time></trkpt><trkpt lat="43.4687367" lon="12.9489817"><ele>462.75</ele><time>2026-04-19T15:37:45.761Z</time></trkpt><trkpt lat="43.4686067" lon="12.9489017"><ele>464.5</ele><time>2026-04-19T15:37:46.762Z</time></trkpt><trkpt lat="43.4684933" lon="12.9488183"><ele>466.25</ele><time>2026-04-19T15:37:47.761Z</time></trkpt><trkpt lat="43.4683833" lon="12.9487333"><ele>468.0</ele><time>2026-04-19T15:37:48.76Z</time></trkpt><trkpt lat="43.46828" lon="12.948665"><ele>468.0</ele><time>2026-04-19T15:37:49.761Z</time></trkpt><trkpt lat="43.4681783" lon="12.948625"><ele>467.99999999999994</ele><time>2026-04-19T15:37:50.761Z</time></trkpt><trkpt lat="43.4680767" lon="12.9486083"><ele>467.99999999999994</ele><time>2026-04-19T15:37:51.761Z</time></trkpt><trkpt lat="43.4679767" lon="12.9486167"><ele>468.0</ele><time>2026-04-19T15:37:52.761Z</time></trkpt><trkpt lat="43.467875" lon="12.948665"><ele>468.0</ele><time>2026-04-19T15:37:53.76Z</time></trkpt><trkpt lat="43.4677867" lon="12.94874"><ele>469.79999999999995</ele><time>2026-04-19T15:37:54.762Z</time></trkpt><trkpt lat="43.4677017" lon="12.948815"><ele>471.59999999999997</ele><time>2026-04-19T15:37:55.761Z</time></trkpt><trkpt lat="43.4676083" lon="12.948865"><ele>473.40000000000003</ele><time>2026-04-19T15:37:56.761Z</time></trkpt><trkpt lat="43.4675017" lon="12.9489067"><ele>475.20000000000005</ele><time>2026-04-19T15:37:57.761Z</time></trkpt><trkpt lat="43.4673883" lon="12.9489167"><ele>477.0</ele><time>2026-04-19T15:37:58.76Z</time></trkpt><trkpt lat="43.4672683" lon="12.9489133"><ele>477.0</ele><time>2026-04-19T15:37:59.76Z</time></trkpt><trkpt lat="43.467145" lon="12.9489117"><ele>477.00000000000006</ele><time>2026-04-19T15:38:00.762Z</time></trkpt><trkpt lat="43.4670333" lon="12.9489083"><ele>477.00000000000006</ele><time>2026-04-19T15:38:01.762Z</time></trkpt><trkpt lat="43.4669367" lon="12.9489083"><ele>477.0</ele><time>2026-04-19T15:38:02.762Z</time></trkpt><trkpt lat="43.4668567" lon="12.948905"><ele>477.0</ele><time>2026-04-19T15:38:03.76Z</time></trkpt><trkpt lat="43.4667883" lon="12.9489017"><ele>477.8</ele><time>2026-04-19T15:38:04.761Z</time></trkpt><trkpt lat="43.4666783" lon="12.9489583"><ele>478.6</ele><time>2026-04-19T15:38:06.761Z</time></trkpt><trkpt lat="43.4666133" lon="12.9490567"><ele>479.40000000000003</ele><time>2026-04-19T15:38:08.761Z</time></trkpt><trkpt lat="43.4666467" lon="12.9491783"><ele>480.20000000000005</ele><time>2026-04-19T15:38:10.764Z</time></trkpt><trkpt lat="43.4667283" lon="12.949225"><ele>481.0</ele><time>2026-04-19T15:38:11.76Z</time></trkpt><trkpt lat="43.4668" lon="12.949255"><ele>485.25</ele><time>2026-04-19T15:38:12.76Z</time></trkpt><trkpt lat="43.46695" lon="12.9492567"><ele>489.5</ele><time>2026-04-19T15:38:13.761Z</time></trkpt><trkpt lat="43.4670917" lon="12.9492567"><ele>493.75</ele><time>2026-04-19T15:38:14.761Z</time></trkpt><trkpt lat="43.467215" lon="12.94927"><ele>498.0</ele><time>2026-04-19T15:38:15.76Z</time></trkpt><trkpt lat="43.4673067" lon="12.94929"><ele>498.0</ele><time>2026-04-19T15:38:16.762Z</time></trkpt><trkpt lat="43.4673883" lon="12.9493767"><ele>497.99999999999994</ele><time>2026-04-19T15:38:18.76Z</time></trkpt><trkpt lat="43.4673533" lon="12.949485"><ele>497.99999999999994</ele><time>2026-04-19T15:38:20.761Z</time></trkpt><trkpt lat="43.4672333" lon="12.949515"><ele>498.0</ele><time>2026-04-19T15:38:22.761Z</time></trkpt><trkpt lat="43.4671517" lon="12.949495"><ele>498.0</ele><time>2026-04-19T15:38:23.766Z</time></trkpt><trkpt lat="43.467065" lon="12.9494733"><ele>498.0</ele><time>2026-04-19T15:38:24.763Z</time></trkpt><trkpt lat="43.46697" lon="12.9494583"><ele>497.99999999999994</ele><time>2026-04-19T15:38:25.761Z</time></trkpt><trkpt lat="43.4668717" lon="12.949455"><ele>497.99999999999994</ele><time>2026-04-19T15:38:26.764Z</time></trkpt><trkpt lat="43.4667717" lon="12.94946"><ele>498.0</ele><time>2026-04-19T15:38:27.761Z</time></trkpt><trkpt lat="43.4666683" lon="12.94947"><ele>498.0</ele><time>2026-04-19T15:38:28.762Z</time></trkpt><trkpt lat="43.466565" lon="12.949485"><ele>498.0</ele><time>2026-04-19T15:38:29.763Z</time></trkpt><trkpt lat="43.4664583" lon="12.9494967"><ele>497.99999999999994</ele><time>2026-04-19T15:38:30.763Z</time></trkpt><trkpt lat="43.466355" lon="12.94951"><ele>497.99999999999994</ele><time>2026-04-19T15:38:31.769Z</time></trkpt><trkpt lat="43.4662583" lon="12.949515"><ele>498.0</ele><time>2026-04-19T15:38:32.762Z</time></trkpt><trkpt lat="43.4661667" lon="12.9495183"><ele>498.0</ele><time>2026-04-19T15:38:33.763Z</time></trkpt><trkpt lat="43.4660767" lon="12.94952"><ele>496.6666666666667</ele><time>2026-04-19T15:38:34.761Z</time></trkpt><trkpt lat="43.4659933" lon="12.9495233"><ele>495.33333333333337</ele><time>2026-04-19T15:38:35.762Z</time></trkpt><trkpt lat="43.4659133" lon="12.9495317"><ele>494.0</ele><time>2026-04-19T15:38:36.76Z</time></trkpt><trkpt lat="43.46584" lon="12.9495383"><ele>492.6666666666667</ele><time>2026-04-19T15:38:37.762Z</time></trkpt><trkpt lat="43.4657767" lon="12.9495417"><ele>491.33333333333337</ele><time>2026-04-19T15:38:38.764Z</time></trkpt><trkpt lat="43.4657" lon="12.9495433"><ele>490.0</ele><time>2026-04-19T15:38:40.76Z</time></trkpt><trkpt lat="43.4655983" lon="12.9495267"><ele>490.0</ele><time>2026-04-19T15:38:42.761Z</time></trkpt><trkpt lat="43.4655267" lon="12.9495017"><ele>490.0</ele><time>2026-04-19T15:38:43.761Z</time></trkpt><trkpt lat="43.4654417" lon="12.9494583"><ele>490.0</ele><time>2026-04-19T15:38:44.761Z</time></trkpt><trkpt lat="43.465335" lon="12.9493333"><ele>490.0</ele><time>2026-04-19T15:38:45.761Z</time></trkpt><trkpt lat="43.46521" lon="12.94916"><ele>490.33333333333337</ele><time>2026-04-19T15:38:46.761Z</time></trkpt><trkpt lat="43.46506" lon="12.948995"><ele>490.66666666666663</ele><time>2026-04-19T15:38:47.76Z</time></trkpt><trkpt lat="43.4648983" lon="12.94885"><ele>491.0</ele><time>2026-04-19T15:38:48.769Z</time></trkpt><trkpt lat="43.464745" lon="12.948735"><ele>492.5</ele><time>2026-04-19T15:38:49.76Z</time></trkpt><trkpt lat="43.4646033" lon="12.9486433"><ele>494.0</ele><time>2026-04-19T15:38:50.76Z</time></trkpt><trkpt lat="43.46447" lon="12.948565"><ele>495.5</ele><time>2026-04-19T15:38:51.761Z</time></trkpt><trkpt lat="43.4643483" lon="12.9484783"><ele>497.0</ele><time>2026-04-19T15:38:52.76Z</time></trkpt><trkpt lat="43.464225" lon="12.9483733"><ele>497.0</ele><time>2026-04-19T15:38:53.764Z</time></trkpt><trkpt lat="43.4641083" lon="12.9482633"><ele>497.0</ele><time>2026-04-19T15:38:54.761Z</time></trkpt><trkpt lat="43.4639933" lon="12.9481633"><ele>497.0</ele><time>2026-04-19T15:38:55.764Z</time></trkpt><trkpt lat="43.4638833" lon="12.9480683"><ele>497.0</ele><time>2026-04-19T15:38:56.76Z</time></trkpt><trkpt lat="43.463775" lon="12.9479617"><ele>495.75</ele><time>2026-04-19T15:38:57.761Z</time></trkpt><trkpt lat="43.4636683" lon="12.9478333"><ele>494.5</ele><time>2026-04-19T15:38:58.76Z</time></trkpt><trkpt lat="43.4635633" lon="12.94769"><ele>493.25</ele><time>2026-04-19T15:38:59.76Z</time></trkpt><trkpt lat="43.4634517" lon="12.9475517"><ele>492.0</ele><time>2026-04-19T15:39:00.763Z</time></trkpt><trkpt lat="43.46333" lon="12.9474367"><ele>492.0</ele><time>2026-04-19T15:39:01.761Z</time></trkpt><trkpt lat="43.463205" lon="12.947355"><ele>492.0</ele><time>2026-04-19T15:39:02.762Z</time></trkpt><trkpt lat="43.4630867" lon="12.9472817"><ele>492.0</ele><time>2026-04-19T15:39:03.764Z</time></trkpt><trkpt lat="43.462975" lon="12.947195"><ele>492.0</ele><time>2026-04-19T15:39:04.763Z</time></trkpt><trkpt lat="43.462865" lon="12.9470783"><ele>489.66666666666663</ele><time>2026-04-19T15:39:05.761Z</time></trkpt><trkpt lat="43.4627533" lon="12.94694"><ele>487.3333333333333</ele><time>2026-04-19T15:39:06.763Z</time></trkpt><trkpt lat="43.4626283" lon="12.946795"><ele>485.0</ele><time>2026-04-19T15:39:07.76Z</time></trkpt><trkpt lat="43.4624967" lon="12.9466633"><ele>485.0</ele><time>2026-04-19T15:39:08.76Z</time></trkpt><trkpt lat="43.4623683" lon="12.9465467"><ele>485.0</ele><time>2026-04-19T15:39:09.765Z</time></trkpt><trkpt lat="43.4622517" lon="12.9464267"><ele>485.0</ele><time>2026-04-19T15:39:10.763Z</time></trkpt><trkpt lat="43.4621467" lon="12.9462933"><ele>485.0</ele><time>2026-04-19T15:39:11.762Z</time></trkpt><trkpt lat="43.462055" lon="12.9461683"><ele>485.4</ele><time>2026-04-19T15:39:12.761Z</time></trkpt><trkpt lat="43.461975" lon="12.9460517"><ele>485.8</ele><time>2026-04-19T15:39:13.76Z</time></trkpt><trkpt lat="43.4618933" lon="12.9459533"><ele>486.20000000000005</ele><time>2026-04-19T15:39:14.761Z</time></trkpt><trkpt lat="43.4618067" lon="12.9458767"><ele>486.6</ele><time>2026-04-19T15:39:15.767Z</time></trkpt><trkpt lat="43.461715" lon="12.9458333"><ele>487.0</ele><time>2026-04-19T15:39:16.76Z</time></trkpt><trkpt lat="43.46162" lon="12.9458417"><ele>485.25</ele><time>2026-04-19T15:39:17.761Z</time></trkpt><trkpt lat="43.46153" lon="12.945895"><ele>483.5</ele><time>2026-04-19T15:39:18.762Z</time></trkpt><trkpt lat="43.4614383" lon="12.946005"><ele>481.75</ele><time>2026-04-19T15:39:19.765Z</time></trkpt><trkpt lat="43.4613517" lon="12.94614"><ele>480.0</ele><time>2026-04-19T15:39:20.761Z</time></trkpt><trkpt lat="43.4612733" lon="12.9462867"><ele>480.0</ele><time>2026-04-19T15:39:21.763Z</time></trkpt><trkpt lat="43.4612067" lon="12.9464267"><ele>480.0</ele><time>2026-04-19T15:39:22.761Z</time></trkpt><trkpt lat="43.4611533" lon="12.94656"><ele>480.0</ele><time>2026-04-19T15:39:23.761Z</time></trkpt><trkpt lat="43.4611017" lon="12.9466783"><ele>480.0</ele><time>2026-04-19T15:39:24.761Z</time></trkpt><trkpt lat="43.461035" lon="12.9467767"><ele>480.0</ele><time>2026-04-19T15:39:25.763Z</time></trkpt><trkpt lat="43.460955" lon="12.946845"><ele>473.5</ele><time>2026-04-19T15:39:26.762Z</time></trkpt><trkpt lat="43.4608633" lon="12.94689"><ele>467.0</ele><time>2026-04-19T15:39:27.762Z</time></trkpt><trkpt lat="43.4607533" lon="12.9468967"><ele>460.5</ele><time>2026-04-19T15:39:28.761Z</time></trkpt><trkpt lat="43.46063" lon="12.9468667"><ele>454.0</ele><time>2026-04-19T15:39:29.764Z</time></trkpt><trkpt lat="43.460495" lon="12.9468283"><ele>453.25</ele><time>2026-04-19T15:39:30.761Z</time></trkpt><trkpt lat="43.4603617" lon="12.9467833"><ele>452.5</ele><time>2026-04-19T15:39:31.763Z</time></trkpt><trkpt lat="43.46023" lon="12.9467383"><ele>451.75</ele><time>2026-04-19T15:39:32.762Z</time></trkpt><trkpt lat="43.460105" lon="12.9467217"><ele>451.0</ele><time>2026-04-19T15:39:33.762Z</time></trkpt><trkpt lat="43.45998" lon="12.9467367"><ele>451.0</ele><time>2026-04-19T15:39:34.76Z</time></trkpt><trkpt lat="43.4598617" lon="12.9467633"><ele>451.0</ele><time>2026-04-19T15:39:35.761Z</time></trkpt><trkpt lat="43.45975" lon="12.9468033"><ele>451.0</ele><time>2026-04-19T15:39:36.761Z</time></trkpt><trkpt lat="43.459645" lon="12.9468633"><ele>451.0</ele><time>2026-04-19T15:39:37.762Z</time></trkpt><trkpt lat="43.4595417" lon="12.9469267"><ele>452.6</ele><time>2026-04-19T15:39:38.761Z</time></trkpt><trkpt lat="43.4594417" lon="12.94697"><ele>454.20000000000005</ele><time>2026-04-19T15:39:39.764Z</time></trkpt><trkpt lat="43.4593467" lon="12.9469933"><ele>455.79999999999995</ele><time>2026-04-19T15:39:40.76Z</time></trkpt><trkpt lat="43.4592517" lon="12.947005"><ele>457.4</ele><time>2026-04-19T15:39:41.761Z</time></trkpt><trkpt lat="43.4591517" lon="12.9470233"><ele>459.0</ele><time>2026-04-19T15:39:42.762Z</time></trkpt><trkpt lat="43.4590417" lon="12.9470533"><ele>459.0</ele><time>2026-04-19T15:39:43.762Z</time></trkpt><trkpt lat="43.458915" lon="12.9470883"><ele>459.0</ele><time>2026-04-19T15:39:44.76Z</time></trkpt><trkpt lat="43.4587917" lon="12.9471183"><ele>459.0</ele><time>2026-04-19T15:39:45.761Z</time></trkpt><trkpt lat="43.45868" lon="12.9471483"><ele>459.0</ele><time>2026-04-19T15:39:46.761Z</time></trkpt><trkpt lat="43.4585733" lon="12.94717"><ele>460.0</ele><time>2026-04-19T15:39:47.76Z</time></trkpt><trkpt lat="43.4584667" lon="12.947185"><ele>461.0</ele><time>2026-04-19T15:39:48.763Z</time></trkpt><trkpt lat="43.45837" lon="12.9471983"><ele>462.0</ele><time>2026-04-19T15:39:49.767Z</time></trkpt><trkpt lat="43.45828" lon="12.947205"><ele>463.0</ele><time>2026-04-19T15:39:50.765Z</time></trkpt><trkpt lat="43.458195" lon="12.947195"><ele>464.0</ele><time>2026-04-19T15:39:51.762Z</time></trkpt><trkpt lat="43.4581117" lon="12.9471633"><ele>464.0</ele><time>2026-04-19T15:39:52.762Z</time></trkpt><trkpt lat="43.4580267" lon="12.9471033"><ele>464.0</ele><time>2026-04-19T15:39:53.762Z</time></trkpt><trkpt lat="43.4579417" lon="12.9470117"><ele>464.0</ele><time>2026-04-19T15:39:54.763Z</time></trkpt><trkpt lat="43.45786" lon="12.9468917"><ele>464.0</ele><time>2026-04-19T15:39:55.762Z</time></trkpt><trkpt lat="43.4577833" lon="12.9467483"><ele>462.5</ele><time>2026-04-19T15:39:56.762Z</time></trkpt><trkpt lat="43.4577" lon="12.9465933"><ele>461.0</ele><time>2026-04-19T15:39:57.767Z</time></trkpt><trkpt lat="43.4576" lon="12.946435"><ele>459.5</ele><time>2026-04-19T15:39:58.762Z</time></trkpt><trkpt lat="43.4574917" lon="12.946285"><ele>458.0</ele><time>2026-04-19T15:39:59.762Z</time></trkpt><trkpt lat="43.4573817" lon="12.9461567"><ele>458.0</ele><time>2026-04-19T15:40:00.762Z</time></trkpt><trkpt lat="43.4572717" lon="12.9460467"><ele>457.99999999999994</ele><time>2026-04-19T15:40:01.761Z</time></trkpt><trkpt lat="43.4571717" lon="12.9459533"><ele>457.99999999999994</ele><time>2026-04-19T15:40:02.762Z</time></trkpt><trkpt lat="43.45709" lon="12.9458767"><ele>458.0</ele><time>2026-04-19T15:40:03.76Z</time></trkpt><trkpt lat="43.4570183" lon="12.9458133"><ele>458.0</ele><time>2026-04-19T15:40:04.763Z</time></trkpt><trkpt lat="43.4569517" lon="12.9457683"><ele>457.25</ele><time>2026-04-19T15:40:05.76Z</time></trkpt><trkpt lat="43.4568383" lon="12.9457683"><ele>456.5</ele><time>2026-04-19T15:40:07.762Z</time></trkpt><trkpt lat="43.4567867" lon="12.9459133"><ele>455.75</ele><time>2026-04-19T15:40:09.764Z</time></trkpt><trkpt lat="43.4568333" lon="12.9460867"><ele>455.0</ele><time>2026-04-19T15:40:11.764Z</time></trkpt><trkpt lat="43.4569133" lon="12.9462033"><ele>453.99999999999994</ele><time>2026-04-19T15:40:12.762Z</time></trkpt><trkpt lat="43.4569667" lon="12.9463033"><ele>453.0</ele><time>2026-04-19T15:40:13.763Z</time></trkpt><trkpt lat="43.457015" lon="12.9463983"><ele>452.0</ele><time>2026-04-19T15:40:14.764Z</time></trkpt><trkpt lat="43.4570517" lon="12.9464967"><ele>451.0</ele><time>2026-04-19T15:40:15.761Z</time></trkpt><trkpt lat="43.457075" lon="12.9465917"><ele>449.99999999999994</ele><time>2026-04-19T15:40:16.764Z</time></trkpt><trkpt lat="43.4570683" lon="12.9466917"><ele>449.0</ele><time>2026-04-19T15:40:17.761Z</time></trkpt><trkpt lat="43.4570383" lon="12.9467817"><ele>448.99999999999994</ele><time>2026-04-19T15:40:18.761Z</time></trkpt><trkpt lat="43.4569883" lon="12.94685"><ele>449.0</ele><time>2026-04-19T15:40:19.767Z</time></trkpt><trkpt lat="43.45692" lon="12.9468917"><ele>449.0</ele><time>2026-04-19T15:40:20.762Z</time></trkpt><trkpt lat="43.4568433" lon="12.9468833"><ele>449.0</ele><time>2026-04-19T15:40:21.763Z</time></trkpt><trkpt lat="43.45676" lon="12.9468233"><ele>448.99999999999994</ele><time>2026-04-19T15:40:22.762Z</time></trkpt><trkpt lat="43.45669" lon="12.9467317"><ele>449.0</ele><time>2026-04-19T15:40:23.761Z</time></trkpt><trkpt lat="43.4566317" lon="12.9466133"><ele>447.75</ele><time>2026-04-19T15:40:24.762Z</time></trkpt><trkpt lat="43.456575" lon="12.9464917"><ele>446.5</ele><time>2026-04-19T15:40:25.764Z</time></trkpt><trkpt lat="43.4565017" lon="12.9463783"><ele>445.25</ele><time>2026-04-19T15:40:26.763Z</time></trkpt><trkpt lat="43.45641" lon="12.9462767"><ele>444.0</ele><time>2026-04-19T15:40:27.76Z</time></trkpt><trkpt lat="43.4562917" lon="12.9461983"><ele>440.0</ele><time>2026-04-19T15:40:28.76Z</time></trkpt><trkpt lat="43.45615" lon="12.946145"><ele>436.0</ele><time>2026-04-19T15:40:29.763Z</time></trkpt><trkpt lat="43.45599" lon="12.9461017"><ele>432.0</ele><time>2026-04-19T15:40:30.763Z</time></trkpt><trkpt lat="43.4558233" lon="12.94605"><ele>432.0</ele><time>2026-04-19T15:40:31.76Z</time></trkpt><trkpt lat="43.455665" lon="12.9459967"><ele>432.0</ele><time>2026-04-19T15:40:32.764Z</time></trkpt><trkpt lat="43.4555133" lon="12.9459467"><ele>432.0</ele><time>2026-04-19T15:40:33.761Z</time></trkpt><trkpt lat="43.45536" lon="12.945895"><ele>430.66666666666663</ele><time>2026-04-19T15:40:34.761Z</time></trkpt><trkpt lat="43.4552067" lon="12.945845"><ele>429.3333333333333</ele><time>2026-04-19T15:40:35.76Z</time></trkpt><trkpt lat="43.4550533" lon="12.9457883"><ele>428.0</ele><time>2026-04-19T15:40:36.762Z</time></trkpt><trkpt lat="43.45491" lon="12.9457267"><ele>428.0</ele><time>2026-04-19T15:40:37.764Z</time></trkpt><trkpt lat="43.454775" lon="12.9456667"><ele>428.0</ele><time>2026-04-19T15:40:38.762Z</time></trkpt><trkpt lat="43.45466" lon="12.9456033"><ele>428.0</ele><time>2026-04-19T15:40:39.762Z</time></trkpt><trkpt lat="43.4545533" lon="12.9455217"><ele>428.0</ele><time>2026-04-19T15:40:40.761Z</time></trkpt><trkpt lat="43.4544517" lon="12.9454033"><ele>426.25</ele><time>2026-04-19T15:40:41.763Z</time></trkpt><trkpt lat="43.4543533" lon="12.9452617"><ele>424.5</ele><time>2026-04-19T15:40:42.762Z</time></trkpt><trkpt lat="43.454255" lon="12.945125"><ele>422.75</ele><time>2026-04-19T15:40:43.761Z</time></trkpt><trkpt lat="43.4541533" lon="12.945005"><ele>421.0</ele><time>2026-04-19T15:40:44.762Z</time></trkpt><trkpt lat="43.4540533" lon="12.9448767"><ele>421.0</ele><time>2026-04-19T15:40:45.762Z</time></trkpt><trkpt lat="43.4539583" lon="12.94473"><ele>421.0</ele><time>2026-04-19T15:40:46.761Z</time></trkpt><trkpt lat="43.453875" lon="12.9445733"><ele>421.0</ele><time>2026-04-19T15:40:47.762Z</time></trkpt><trkpt lat="43.4537983" lon="12.9444233"><ele>421.0</ele><time>2026-04-19T15:40:48.761Z</time></trkpt><trkpt lat="43.453715" lon="12.944275"><ele>418.0</ele><time>2026-04-19T15:40:49.762Z</time></trkpt><trkpt lat="43.4536233" lon="12.9441433"><ele>415.0</ele><time>2026-04-19T15:40:50.761Z</time></trkpt><trkpt lat="43.453525" lon="12.9440433"><ele>412.0</ele><time>2026-04-19T15:40:51.76Z</time></trkpt><trkpt lat="43.4534267" lon="12.9439717"><ele>409.0</ele><time>2026-04-19T15:40:52.76Z</time></trkpt><trkpt lat="43.453335" lon="12.943925"><ele>409.0</ele><time>2026-04-19T15:40:53.761Z</time></trkpt><trkpt lat="43.4532417" lon="12.9439117"><ele>409.0</ele><time>2026-04-19T15:40:54.762Z</time></trkpt><trkpt lat="43.453145" lon="12.9439433"><ele>409.0</ele><time>2026-04-19T15:40:55.761Z</time></trkpt><trkpt lat="43.4530467" lon="12.9440133"><ele>409.0</ele><time>2026-04-19T15:40:56.761Z</time></trkpt><trkpt lat="43.45295" lon="12.9440933"><ele>409.0</ele><time>2026-04-19T15:40:57.762Z</time></trkpt><trkpt lat="43.452855" lon="12.9441683"><ele>407.2</ele><time>2026-04-19T15:40:58.76Z</time></trkpt><trkpt lat="43.452765" lon="12.9442117"><ele>405.4</ele><time>2026-04-19T15:40:59.761Z</time></trkpt><trkpt lat="43.4526733" lon="12.944215"><ele>403.6</ele><time>2026-04-19T15:41:00.763Z</time></trkpt><trkpt lat="43.4525733" lon="12.9441783"><ele>401.8</ele><time>2026-04-19T15:41:01.762Z</time></trkpt><trkpt lat="43.452465" lon="12.9441"><ele>400.0</ele><time>2026-04-19T15:41:02.761Z</time></trkpt><trkpt lat="43.4523617" lon="12.9440067"><ele>400.0</ele><time>2026-04-19T15:41:03.76Z</time></trkpt><trkpt lat="43.4522667" lon="12.94393"><ele>400.0</ele><time>2026-04-19T15:41:04.76Z</time></trkpt><trkpt lat="43.4521733" lon="12.94388"><ele>400.0</ele><time>2026-04-19T15:41:05.76Z</time></trkpt><trkpt lat="43.4520683" lon="12.94387"><ele>400.0</ele><time>2026-04-19T15:41:06.761Z</time></trkpt><trkpt lat="43.45195" lon="12.9439067"><ele>400.0</ele><time>2026-04-19T15:41:07.761Z</time></trkpt><trkpt lat="43.4518267" lon="12.943985"><ele>398.5</ele><time>2026-04-19T15:41:08.762Z</time></trkpt><trkpt lat="43.4517083" lon="12.9440783"><ele>397.0</ele><time>2026-04-19T15:41:09.761Z</time></trkpt><trkpt lat="43.4516" lon="12.944165"><ele>395.5</ele><time>2026-04-19T15:41:10.762Z</time></trkpt><trkpt lat="43.4515" lon="12.94424"><ele>394.0</ele><time>2026-04-19T15:41:11.761Z</time></trkpt><trkpt lat="43.451405" lon="12.9443017"><ele>390.5</ele><time>2026-04-19T15:41:12.761Z</time></trkpt><trkpt lat="43.4513083" lon="12.944345"><ele>387.0</ele><time>2026-04-19T15:41:13.767Z</time></trkpt><trkpt lat="43.4512033" lon="12.9443633"><ele>383.5</ele><time>2026-04-19T15:41:14.762Z</time></trkpt><trkpt lat="43.4510883" lon="12.9443633"><ele>380.0</ele><time>2026-04-19T15:41:15.763Z</time></trkpt><trkpt lat="43.4509567" lon="12.9443483"><ele>379.25</ele><time>2026-04-19T15:41:16.761Z</time></trkpt><trkpt lat="43.4508133" lon="12.94433"><ele>378.5</ele><time>2026-04-19T15:41:17.761Z</time></trkpt><trkpt lat="43.450665" lon="12.9443317"><ele>377.75</ele><time>2026-04-19T15:41:18.761Z</time></trkpt><trkpt lat="43.4505233" lon="12.944335"><ele>377.0</ele><time>2026-04-19T15:41:19.761Z</time></trkpt><trkpt lat="43.4503917" lon="12.9443283"><ele>378.5</ele><time>2026-04-19T15:41:20.761Z</time></trkpt><trkpt lat="43.4502667" lon="12.94431"><ele>380.0</ele><time>2026-04-19T15:41:21.762Z</time></trkpt><trkpt lat="43.4501483" lon="12.9442683"><ele>381.5</ele><time>2026-04-19T15:41:22.762Z</time></trkpt><trkpt lat="43.4500317" lon="12.9442067"><ele>383.0</ele><time>2026-04-19T15:41:23.762Z</time></trkpt><trkpt lat="43.4499233" lon="12.9441133"><ele>383.0</ele><time>2026-04-19T15:41:24.76Z</time></trkpt><trkpt lat="43.4498117" lon="12.9439967"><ele>383.0</ele><time>2026-04-19T15:41:25.761Z</time></trkpt><trkpt lat="43.4496917" lon="12.9438617"><ele>383.0</ele><time>2026-04-19T15:41:26.763Z</time></trkpt><trkpt lat="43.4495733" lon="12.943715"><ele>382.0</ele><time>2026-04-19T15:41:27.763Z</time></trkpt><trkpt lat="43.4494567" lon="12.9435867"><ele>381.0</ele><time>2026-04-19T15:41:28.762Z</time></trkpt><trkpt lat="43.4493517" lon="12.9434567"><ele>380.0</ele><time>2026-04-19T15:41:29.762Z</time></trkpt><trkpt lat="43.4492583" lon="12.943325"><ele>379.0</ele><time>2026-04-19T15:41:30.762Z</time></trkpt><trkpt lat="43.4491733" lon="12.943185"><ele>379.0</ele><time>2026-04-19T15:41:31.761Z</time></trkpt><trkpt lat="43.4491017" lon="12.9430317"><ele>379.0</ele><time>2026-04-19T15:41:32.761Z</time></trkpt><trkpt lat="43.4490417" lon="12.94287"><ele>379.0</ele><time>2026-04-19T15:41:33.761Z</time></trkpt><trkpt lat="43.4489817" lon="12.94272"><ele>379.0</ele><time>2026-04-19T15:41:34.761Z</time></trkpt><trkpt lat="43.4489283" lon="12.9425717"><ele>378.0</ele><time>2026-04-19T15:41:35.761Z</time></trkpt><trkpt lat="43.4488783" lon="12.942425"><ele>377.0</ele><time>2026-04-19T15:41:36.761Z</time></trkpt><trkpt lat="43.44883" lon="12.94227"><ele>376.0</ele><time>2026-04-19T15:41:37.762Z</time></trkpt><trkpt lat="43.44878" lon="12.9421117"><ele>375.0</ele><time>2026-04-19T15:41:38.761Z</time></trkpt><trkpt lat="43.4487267" lon="12.9419683"><ele>375.0</ele><time>2026-04-19T15:41:39.764Z</time></trkpt><trkpt lat="43.4486617" lon="12.941835"><ele>375.0</ele><time>2026-04-19T15:41:40.762Z</time></trkpt><trkpt lat="43.4485917" lon="12.9417117"><ele>375.0</ele><time>2026-04-19T15:41:41.763Z</time></trkpt><trkpt lat="43.4485217" lon="12.9415933"><ele>375.0</ele><time>2026-04-19T15:41:42.763Z</time></trkpt><trkpt lat="43.4484517" lon="12.9414917"><ele>375.0</ele><time>2026-04-19T15:41:43.761Z</time></trkpt><trkpt lat="43.448385" lon="12.9414117"><ele>376.3333333333333</ele><time>2026-04-19T15:41:44.762Z</time></trkpt><trkpt lat="43.4483183" lon="12.94136"><ele>377.6666666666667</ele><time>2026-04-19T15:41:45.761Z</time></trkpt><trkpt lat="43.4482517" lon="12.9413367"><ele>379.0</ele><time>2026-04-19T15:41:46.76Z</time></trkpt><trkpt lat="43.4481783" lon="12.9413433"><ele>380.33333333333337</ele><time>2026-04-19T15:41:47.762Z</time></trkpt><trkpt lat="43.44812" lon="12.9414067"><ele>381.6666666666667</ele><time>2026-04-19T15:41:48.761Z</time></trkpt><trkpt lat="43.4480633" lon="12.9415017"><ele>383.0</ele><time>2026-04-19T15:41:49.766Z</time></trkpt><trkpt lat="43.4480283" lon="12.9416817"><ele>380.33333333333337</ele><time>2026-04-19T15:41:50.761Z</time></trkpt><trkpt lat="43.448005" lon="12.9418833"><ele>377.6666666666667</ele><time>2026-04-19T15:41:51.762Z</time></trkpt><trkpt lat="43.4479867" lon="12.942095"><ele>375.0</ele><time>2026-04-19T15:41:52.76Z</time></trkpt><trkpt lat="43.447995" lon="12.94231"><ele>375.0</ele><time>2026-04-19T15:41:53.761Z</time></trkpt><trkpt lat="43.448005" lon="12.94251"><ele>375.0</ele><time>2026-04-19T15:41:54.761Z</time></trkpt><trkpt lat="43.4480167" lon="12.9426783"><ele>375.0</ele><time>2026-04-19T15:41:55.76Z</time></trkpt><trkpt lat="43.4480083" lon="12.94283"><ele>375.0</ele><time>2026-04-19T15:41:56.762Z</time></trkpt><trkpt lat="43.447975" lon="12.94298"><ele>381.25</ele><time>2026-04-19T15:41:57.761Z</time></trkpt><trkpt lat="43.44793" lon="12.9431483"><ele>387.5</ele><time>2026-04-19T15:41:58.764Z</time></trkpt><trkpt lat="43.4478733" lon="12.94333"><ele>393.75</ele><time>2026-04-19T15:41:59.763Z</time></trkpt><trkpt lat="43.4478183" lon="12.9435067"><ele>400.0</ele><time>2026-04-19T15:42:00.763Z</time></trkpt><trkpt lat="43.4477683" lon="12.94367"><ele>400.0</ele><time>2026-04-19T15:42:01.763Z</time></trkpt><trkpt lat="43.4477317" lon="12.94382"><ele>400.0</ele><time>2026-04-19T15:42:02.762Z</time></trkpt><trkpt lat="43.447725" lon="12.9439717"><ele>400.0</ele><time>2026-04-19T15:42:03.762Z</time></trkpt><trkpt lat="43.4477467" lon="12.94412"><ele>400.0</ele><time>2026-04-19T15:42:04.762Z</time></trkpt><trkpt lat="43.4477883" lon="12.9442617"><ele>400.0</ele><time>2026-04-19T15:42:05.763Z</time></trkpt><trkpt lat="43.44785" lon="12.9444083"><ele>399.0</ele><time>2026-04-19T15:42:06.762Z</time></trkpt><trkpt lat="43.4479217" lon="12.9445567"><ele>398.0</ele><time>2026-04-19T15:42:07.761Z</time></trkpt><trkpt lat="43.44799" lon="12.94469"><ele>397.0</ele><time>2026-04-19T15:42:08.76Z</time></trkpt><trkpt lat="43.4480433" lon="12.9448017"><ele>396.0</ele><time>2026-04-19T15:42:09.76Z</time></trkpt><trkpt lat="43.448085" lon="12.9448933"><ele>395.0</ele><time>2026-04-19T15:42:10.761Z</time></trkpt><trkpt lat="43.448115" lon="12.9449883"><ele>393.16666666666663</ele><time>2026-04-19T15:42:11.762Z</time></trkpt><trkpt lat="43.4481233" lon="12.9450917"><ele>391.3333333333333</ele><time>2026-04-19T15:42:12.761Z</time></trkpt><trkpt lat="43.4481083" lon="12.9451917"><ele>389.5</ele><time>2026-04-19T15:42:13.76Z</time></trkpt><trkpt lat="43.4480667" lon="12.945285"><ele>387.66666666666663</ele><time>2026-04-19T15:42:14.762Z</time></trkpt><trkpt lat="43.4480133" lon="12.9453567"><ele>385.8333333333333</ele><time>2026-04-19T15:42:15.761Z</time></trkpt><trkpt lat="43.4479333" lon="12.94539"><ele>384.0</ele><time>2026-04-19T15:42:16.761Z</time></trkpt><trkpt lat="43.4478483" lon="12.9453833"><ele>384.0</ele><time>2026-04-19T15:42:17.763Z</time></trkpt><trkpt lat="43.447765" lon="12.9453433"><ele>384.0</ele><time>2026-04-19T15:42:18.761Z</time></trkpt><trkpt lat="43.44769" lon="12.9452667"><ele>384.0</ele><time>2026-04-19T15:42:19.76Z</time></trkpt><trkpt lat="43.4476233" lon="12.9451583"><ele>384.0</ele><time>2026-04-19T15:42:20.762Z</time></trkpt><trkpt lat="43.447565" lon="12.9450067"><ele>384.0</ele><time>2026-04-19T15:42:21.761Z</time></trkpt><trkpt lat="43.4475117" lon="12.94484"><ele>386.2</ele><time>2026-04-19T15:42:22.761Z</time></trkpt><trkpt lat="43.4474717" lon="12.94468"><ele>388.4</ele><time>2026-04-19T15:42:23.761Z</time></trkpt><trkpt lat="43.4474383" lon="12.9445483"><ele>390.6</ele><time>2026-04-19T15:42:24.76Z</time></trkpt><trkpt lat="43.4474083" lon="12.944435"><ele>392.8</ele><time>2026-04-19T15:42:25.762Z</time></trkpt><trkpt lat="43.4473783" lon="12.9443333"><ele>395.0</ele><time>2026-04-19T15:42:26.761Z</time></trkpt><trkpt lat="43.4473483" lon="12.9442483"><ele>395.0</ele><time>2026-04-19T15:42:27.763Z</time></trkpt><trkpt lat="43.4473" lon="12.9441333"><ele>395.0</ele><time>2026-04-19T15:42:29.763Z</time></trkpt><trkpt lat="43.4472317" lon="12.9440983"><ele>395.0</ele><time>2026-04-19T15:42:33.762Z</time></trkpt><trkpt lat="43.44723" lon="12.94419"><ele>395.0</ele><time>2026-04-19T15:42:35.761Z</time></trkpt><trkpt lat="43.447285" lon="12.9443633"><ele>395.0</ele><time>2026-04-19T15:42:37.762Z</time></trkpt><trkpt lat="43.4473167" lon="12.9444883"><ele>395.0</ele><time>2026-04-19T15:42:38.763Z</time></trkpt><trkpt lat="43.447345" lon="12.9446417"><ele>395.0</ele><time>2026-04-19T15:42:39.761Z</time></trkpt><trkpt lat="43.4473783" lon="12.944805"><ele>395.0</ele><time>2026-04-19T15:42:40.761Z</time></trkpt><trkpt lat="43.4474117" lon="12.9449717"><ele>395.0</ele><time>2026-04-19T15:42:41.761Z</time></trkpt><trkpt lat="43.4474433" lon="12.9451383"><ele>392.25</ele><time>2026-04-19T15:42:42.763Z</time></trkpt><trkpt lat="43.447465" lon="12.9452967"><ele>389.5</ele><time>2026-04-19T15:42:43.761Z</time></trkpt><trkpt lat="43.4474833" lon="12.94545"><ele>386.75</ele><time>2026-04-19T15:42:44.761Z</time></trkpt><trkpt lat="43.4475067" lon="12.9455967"><ele>384.0</ele><time>2026-04-19T15:42:45.76Z</time></trkpt><trkpt lat="43.447535" lon="12.945745"><ele>381.0</ele><time>2026-04-19T15:42:46.764Z</time></trkpt><trkpt lat="43.4475783" lon="12.9458933"><ele>378.0</ele><time>2026-04-19T15:42:47.762Z</time></trkpt><trkpt lat="43.4476283" lon="12.94603"><ele>375.0</ele><time>2026-04-19T15:42:48.763Z</time></trkpt><trkpt lat="43.4476983" lon="12.9461533"><ele>372.0</ele><time>2026-04-19T15:42:49.761Z</time></trkpt><trkpt lat="43.4477817" lon="12.94627"><ele>372.0</ele><time>2026-04-19T15:42:50.764Z</time></trkpt><trkpt lat="43.4478667" lon="12.9463867"><ele>372.0</ele><time>2026-04-19T15:42:51.761Z</time></trkpt><trkpt lat="43.4479467" lon="12.946515"><ele>372.0</ele><time>2026-04-19T15:42:52.763Z</time></trkpt><trkpt lat="43.4480267" lon="12.94665"><ele>372.0</ele><time>2026-04-19T15:42:53.762Z</time></trkpt><trkpt lat="43.4481033" lon="12.9467867"><ele>368.6</ele><time>2026-04-19T15:42:54.763Z</time></trkpt><trkpt lat="43.44818" lon="12.9469067"><ele>365.20000000000005</ele><time>2026-04-19T15:42:55.763Z</time></trkpt><trkpt lat="43.448245" lon="12.9470083"><ele>361.8</ele><time>2026-04-19T15:42:56.763Z</time></trkpt><trkpt lat="43.4483067" lon="12.947105"><ele>358.4</ele><time>2026-04-19T15:42:57.765Z</time></trkpt><trkpt lat="43.4483733" lon="12.94718"><ele>355.0</ele><time>2026-04-19T15:42:58.763Z</time></trkpt><trkpt lat="43.44844" lon="12.9472267"><ele>355.0</ele><time>2026-04-19T15:42:59.763Z</time></trkpt><trkpt lat="43.4485533" lon="12.9472317"><ele>355.0</ele><time>2026-04-19T15:43:01.762Z</time></trkpt><trkpt lat="43.4486267" lon="12.9472583"><ele>355.0</ele><time>2026-04-19T15:43:03.764Z</time></trkpt><trkpt lat="43.4486583" lon="12.9473467"><ele>355.0</ele><time>2026-04-19T15:43:05.764Z</time></trkpt><trkpt lat="43.4486617" lon="12.9475233"><ele>355.0</ele><time>2026-04-19T15:43:07.764Z</time></trkpt><trkpt lat="43.4486517" lon="12.9476517"><ele>352.8</ele><time>2026-04-19T15:43:08.762Z</time></trkpt><trkpt lat="43.448655" lon="12.94779"><ele>350.6</ele><time>2026-04-19T15:43:09.764Z</time></trkpt><trkpt lat="43.44867" lon="12.947935"><ele>348.4</ele><time>2026-04-19T15:43:10.763Z</time></trkpt><trkpt lat="43.4487" lon="12.94808"><ele>346.2</ele><time>2026-04-19T15:43:11.762Z</time></trkpt><trkpt lat="43.44874" lon="12.9482167"><ele>344.0</ele><time>2026-04-19T15:43:12.764Z</time></trkpt><trkpt lat="43.44878" lon="12.9483433"><ele>342.6</ele><time>2026-04-19T15:43:13.764Z</time></trkpt><trkpt lat="43.4488117" lon="12.9484717"><ele>341.2</ele><time>2026-04-19T15:43:14.761Z</time></trkpt><trkpt lat="43.4488283" lon="12.9485983"><ele>339.8</ele><time>2026-04-19T15:43:15.761Z</time></trkpt><trkpt lat="43.4488383" lon="12.9487167"><ele>338.40000000000003</ele><time>2026-04-19T15:43:16.76Z</time></trkpt><trkpt lat="43.44884" lon="12.948815"><ele>337.0</ele><time>2026-04-19T15:43:17.761Z</time></trkpt><trkpt lat="43.44887" lon="12.9489567"><ele>337.0</ele><time>2026-04-19T15:43:19.76Z</time></trkpt><trkpt lat="43.4489383" lon="12.9489967"><ele>337.0</ele><time>2026-04-19T15:43:21.76Z</time></trkpt><trkpt lat="43.449025" lon="12.948905"><ele>337.0</ele><time>2026-04-19T15:43:23.76Z</time></trkpt><trkpt lat="43.449055" lon="12.9487967"><ele>337.0</ele><time>2026-04-19T15:43:24.762Z</time></trkpt><trkpt lat="43.4490683" lon="12.94866"><ele>337.0</ele><time>2026-04-19T15:43:25.762Z</time></trkpt><trkpt lat="43.44908" lon="12.9485483"><ele>337.0</ele><time>2026-04-19T15:43:26.762Z</time></trkpt><trkpt lat="43.449095" lon="12.9484567"><ele>337.0</ele><time>2026-04-19T15:43:27.759Z</time></trkpt><trkpt lat="43.449155" lon="12.9483617"><ele>337.0</ele><time>2026-04-19T15:43:29.764Z</time></trkpt><trkpt lat="43.4492167" lon="12.94843"><ele>337.0</ele><time>2026-04-19T15:43:31.762Z</time></trkpt><trkpt lat="43.4492517" lon="12.94851"><ele>337.0</ele><time>2026-04-19T15:43:32.762Z</time></trkpt><trkpt lat="43.4492783" lon="12.94862"><ele>337.0</ele><time>2026-04-19T15:43:33.762Z</time></trkpt><trkpt lat="43.4493083" lon="12.94873"><ele>337.0</ele><time>2026-04-19T15:43:34.76Z</time></trkpt><trkpt lat="43.4493383" lon="12.9488517"><ele>337.0</ele><time>2026-04-19T15:43:35.759Z</time></trkpt><trkpt lat="43.4493767" lon="12.9489867"><ele>337.0</ele><time>2026-04-19T15:43:36.76Z</time></trkpt><trkpt lat="43.44942" lon="12.9491333"><ele>337.0</ele><time>2026-04-19T15:43:37.764Z</time></trkpt><trkpt lat="43.4494683" lon="12.9492883"><ele>337.0</ele><time>2026-04-19T15:43:38.761Z</time></trkpt><trkpt lat="43.4495067" lon="12.9494383"><ele>337.3333333333333</ele><time>2026-04-19T15:43:39.76Z</time></trkpt><trkpt lat="43.4495317" lon="12.9495667"><ele>337.66666666666663</ele><time>2026-04-19T15:43:40.76Z</time></trkpt><trkpt lat="43.4495417" lon="12.94968"><ele>338.0</ele><time>2026-04-19T15:43:41.76Z</time></trkpt><trkpt lat="43.4495417" lon="12.949795"><ele>338.3333333333333</ele><time>2026-04-19T15:43:42.759Z</time></trkpt><trkpt lat="43.4495317" lon="12.9499083"><ele>338.6666666666667</ele><time>2026-04-19T15:43:43.76Z</time></trkpt><trkpt lat="43.449505" lon="12.9500083"><ele>339.0</ele><time>2026-04-19T15:43:44.759Z</time></trkpt><trkpt lat="43.4494567" lon="12.9501"><ele>339.2</ele><time>2026-04-19T15:43:45.763Z</time></trkpt><trkpt lat="43.4494033" lon="12.950205"><ele>339.4</ele><time>2026-04-19T15:43:46.761Z</time></trkpt><trkpt lat="43.44936" lon="12.9503383"><ele>339.6</ele><time>2026-04-19T15:43:47.76Z</time></trkpt><trkpt lat="43.449325" lon="12.950475"><ele>339.8</ele><time>2026-04-19T15:43:48.76Z</time></trkpt><trkpt lat="43.449295" lon="12.950605"><ele>340.0</ele><time>2026-04-19T15:43:49.762Z</time></trkpt><trkpt lat="43.4492583" lon="12.95072"><ele>340.0</ele><time>2026-04-19T15:43:50.762Z</time></trkpt><trkpt lat="43.4491967" lon="12.95083"><ele>340.0</ele><time>2026-04-19T15:43:51.76Z</time></trkpt><trkpt lat="43.449135" lon="12.9509567"><ele>340.0</ele><time>2026-04-19T15:43:52.76Z</time></trkpt><trkpt lat="43.4490817" lon="12.9510967"><ele>340.0</ele><time>2026-04-19T15:43:53.76Z</time></trkpt><trkpt lat="43.4490383" lon="12.9512517"><ele>340.0</ele><time>2026-04-19T15:43:54.759Z</time></trkpt><trkpt lat="43.4490017" lon="12.9513917"><ele>340.4</ele><time>2026-04-19T15:43:55.76Z</time></trkpt><trkpt lat="43.448955" lon="12.9515117"><ele>340.8</ele><time>2026-04-19T15:43:56.761Z</time></trkpt><trkpt lat="43.4488967" lon="12.9516117"><ele>341.20000000000005</ele><time>2026-04-19T15:43:57.765Z</time></trkpt><trkpt lat="43.4488283" lon="12.9517017"><ele>341.6</ele><time>2026-04-19T15:43:58.762Z</time></trkpt><trkpt lat="43.4487583" lon="12.95179"><ele>342.0</ele><time>2026-04-19T15:43:59.762Z</time></trkpt><trkpt lat="43.4487033" lon="12.9518783"><ele>340.8</ele><time>2026-04-19T15:44:00.761Z</time></trkpt><trkpt lat="43.4486617" lon="12.9519683"><ele>339.6</ele><time>2026-04-19T15:44:01.76Z</time></trkpt><trkpt lat="43.4486267" lon="12.952085"><ele>338.40000000000003</ele><time>2026-04-19T15:44:02.761Z</time></trkpt><trkpt lat="43.4486167" lon="12.9522167"><ele>337.20000000000005</ele><time>2026-04-19T15:44:03.76Z</time></trkpt><trkpt lat="43.4486117" lon="12.9523683"><ele>336.0</ele><time>2026-04-19T15:44:04.76Z</time></trkpt><trkpt lat="43.4486483" lon="12.9525617"><ele>336.0</ele><time>2026-04-19T15:44:05.759Z</time></trkpt><trkpt lat="43.4486883" lon="12.9527433"><ele>336.0</ele><time>2026-04-19T15:44:06.759Z</time></trkpt><trkpt lat="43.4487333" lon="12.952905"><ele>336.0</ele><time>2026-04-19T15:44:07.761Z</time></trkpt><trkpt lat="43.4487917" lon="12.953045"><ele>336.0</ele><time>2026-04-19T15:44:08.759Z</time></trkpt><trkpt lat="43.4488417" lon="12.9531517"><ele>335.5</ele><time>2026-04-19T15:44:09.76Z</time></trkpt><trkpt lat="43.4488883" lon="12.9532333"><ele>335.0</ele><time>2026-04-19T15:44:10.762Z</time></trkpt><trkpt lat="43.4489483" lon="12.953295"><ele>334.5</ele><time>2026-04-19T15:44:11.763Z</time></trkpt><trkpt lat="43.4490133" lon="12.95335"><ele>334.0</ele><time>2026-04-19T15:44:12.759Z</time></trkpt><trkpt lat="43.449095" lon="12.9534083"><ele>333.5</ele><time>2026-04-19T15:44:13.759Z</time></trkpt><trkpt lat="43.4491933" lon="12.9534783"><ele>333.0</ele><time>2026-04-19T15:44:14.761Z</time></trkpt><trkpt lat="43.449305" lon="12.95355"><ele>333.0</ele><time>2026-04-19T15:44:15.76Z</time></trkpt><trkpt lat="43.449415" lon="12.9536183"><ele>333.0</ele><time>2026-04-19T15:44:16.761Z</time></trkpt><trkpt lat="43.44951" lon="12.9536833"><ele>333.0</ele><time>2026-04-19T15:44:17.76Z</time></trkpt><trkpt lat="43.4495983" lon="12.953755"><ele>333.0</ele><time>2026-04-19T15:44:18.762Z</time></trkpt><trkpt lat="43.4496783" lon="12.9538317"><ele>333.0</ele><time>2026-04-19T15:44:19.762Z</time></trkpt><trkpt lat="43.4497533" lon="12.9539033"><ele>334.59999999999997</ele><time>2026-04-19T15:44:20.762Z</time></trkpt><trkpt lat="43.4498233" lon="12.9539767"><ele>336.2</ele><time>2026-04-19T15:44:21.76Z</time></trkpt><trkpt lat="43.4498883" lon="12.95406"><ele>337.8</ele><time>2026-04-19T15:44:22.762Z</time></trkpt><trkpt lat="43.449945" lon="12.954165"><ele>339.4</ele><time>2026-04-19T15:44:23.76Z</time></trkpt><trkpt lat="43.449985" lon="12.954285"><ele>341.0</ele><time>2026-04-19T15:44:24.763Z</time></trkpt><trkpt lat="43.4500067" lon="12.95441"><ele>341.0</ele><time>2026-04-19T15:44:25.761Z</time></trkpt><trkpt lat="43.4500217" lon="12.9545217"><ele>341.0</ele><time>2026-04-19T15:44:26.761Z</time></trkpt><trkpt lat="43.4500283" lon="12.9546167"><ele>341.0</ele><time>2026-04-19T15:44:27.76Z</time></trkpt><trkpt lat="43.4500117" lon="12.9547117"><ele>341.0</ele><time>2026-04-19T15:44:28.76Z</time></trkpt><trkpt lat="43.44998" lon="12.9548"><ele>341.0</ele><time>2026-04-19T15:44:29.759Z</time></trkpt><trkpt lat="43.4499367" lon="12.954875"><ele>341.0</ele><time>2026-04-19T15:44:30.76Z</time></trkpt><trkpt lat="43.4498867" lon="12.95493"><ele>341.0</ele><time>2026-04-19T15:44:31.759Z</time></trkpt><trkpt lat="43.44978" lon="12.9549367"><ele>341.0</ele><time>2026-04-19T15:44:33.76Z</time></trkpt><trkpt lat="43.4496867" lon="12.9548217"><ele>341.0</ele><time>2026-04-19T15:44:35.76Z</time></trkpt><trkpt lat="43.44963" lon="12.9547633"><ele>341.0</ele><time>2026-04-19T15:44:36.76Z</time></trkpt><trkpt lat="43.4495567" lon="12.95473"><ele>341.0</ele><time>2026-04-19T15:44:37.76Z</time></trkpt><trkpt lat="43.4494783" lon="12.9547233"><ele>341.0</ele><time>2026-04-19T15:44:38.761Z</time></trkpt><trkpt lat="43.4494033" lon="12.9547383"><ele>341.0</ele><time>2026-04-19T15:44:39.76Z</time></trkpt><trkpt lat="43.4493317" lon="12.9547667"><ele>340.4</ele><time>2026-04-19T15:44:40.761Z</time></trkpt><trkpt lat="43.4492617" lon="12.9548033"><ele>339.8</ele><time>2026-04-19T15:44:41.759Z</time></trkpt><trkpt lat="43.4491883" lon="12.95485"><ele>339.2</ele><time>2026-04-19T15:44:42.76Z</time></trkpt><trkpt lat="43.4491033" lon="12.954905"><ele>338.59999999999997</ele><time>2026-04-19T15:44:43.76Z</time></trkpt><trkpt lat="43.44901" lon="12.9549633"><ele>338.0</ele><time>2026-04-19T15:44:44.761Z</time></trkpt><trkpt lat="43.4489117" lon="12.95503"><ele>340.5</ele><time>2026-04-19T15:44:45.764Z</time></trkpt><trkpt lat="43.448815" lon="12.955115"><ele>343.0</ele><time>2026-04-19T15:44:46.761Z</time></trkpt><trkpt lat="43.448715" lon="12.95521"><ele>345.5</ele><time>2026-04-19T15:44:47.76Z</time></trkpt><trkpt lat="43.4486033" lon="12.9552967"><ele>348.0</ele><time>2026-04-19T15:44:48.761Z</time></trkpt><trkpt lat="43.44849" lon="12.9553717"><ele>348.0</ele><time>2026-04-19T15:44:49.761Z</time></trkpt><trkpt lat="43.4483883" lon="12.9554433"><ele>348.0</ele><time>2026-04-19T15:44:50.76Z</time></trkpt><trkpt lat="43.448295" lon="12.9555183"><ele>348.0</ele><time>2026-04-19T15:44:51.762Z</time></trkpt><trkpt lat="43.448215" lon="12.9555783"><ele>348.0</ele><time>2026-04-19T15:44:52.76Z</time></trkpt><trkpt lat="43.4481467" lon="12.9556133"><ele>348.0</ele><time>2026-04-19T15:44:53.76Z</time></trkpt><trkpt lat="43.448075" lon="12.9556167"><ele>348.0</ele><time>2026-04-19T15:44:54.762Z</time></trkpt><trkpt lat="43.4479983" lon="12.955585"><ele>348.0</ele><time>2026-04-19T15:44:55.761Z</time></trkpt><trkpt lat="43.4479017" lon="12.9555333"><ele>348.0</ele><time>2026-04-19T15:44:56.761Z</time></trkpt><trkpt lat="43.44778" lon="12.9554833"><ele>348.0</ele><time>2026-04-19T15:44:57.762Z</time></trkpt><trkpt lat="43.4476433" lon="12.955435"><ele>348.0</ele><time>2026-04-19T15:44:58.762Z</time></trkpt><trkpt lat="43.4474967" lon="12.9553867"><ele>348.0</ele><time>2026-04-19T15:44:59.764Z</time></trkpt><trkpt lat="43.4473467" lon="12.9553383"><ele>348.0</ele><time>2026-04-19T15:45:00.76Z</time></trkpt><trkpt lat="43.447195" lon="12.9552933"><ele>346.5</ele><time>2026-04-19T15:45:01.761Z</time></trkpt><trkpt lat="43.4470567" lon="12.955255"><ele>345.0</ele><time>2026-04-19T15:45:02.761Z</time></trkpt><trkpt lat="43.44693" lon="12.955235"><ele>343.5</ele><time>2026-04-19T15:45:03.761Z</time></trkpt><trkpt lat="43.4468033" lon="12.9552133"><ele>342.0</ele><time>2026-04-19T15:45:04.761Z</time></trkpt><trkpt lat="43.44668" lon="12.9552117"><ele>342.0</ele><time>2026-04-19T15:45:05.76Z</time></trkpt><trkpt lat="43.4465517" lon="12.9552183"><ele>342.0</ele><time>2026-04-19T15:45:06.761Z</time></trkpt><trkpt lat="43.446415" lon="12.9552383"><ele>342.0</ele><time>2026-04-19T15:45:07.761Z</time></trkpt><trkpt lat="43.446285" lon="12.955275"><ele>342.0</ele><time>2026-04-19T15:45:08.761Z</time></trkpt><trkpt lat="43.446165" lon="12.95532"><ele>339.75</ele><time>2026-04-19T15:45:09.76Z</time></trkpt><trkpt lat="43.4460467" lon="12.9553667"><ele>337.5</ele><time>2026-04-19T15:45:10.766Z</time></trkpt><trkpt lat="43.445935" lon="12.9554067"><ele>335.25</ele><time>2026-04-19T15:45:11.759Z</time></trkpt><trkpt lat="43.445825" lon="12.95543"><ele>333.0</ele><time>2026-04-19T15:45:12.762Z</time></trkpt><trkpt lat="43.4457167" lon="12.9554367"><ele>333.0</ele><time>2026-04-19T15:45:13.761Z</time></trkpt><trkpt lat="43.4456183" lon="12.9554333"><ele>333.0</ele><time>2026-04-19T15:45:14.761Z</time></trkpt><trkpt lat="43.44553" lon="12.95543"><ele>333.0</ele><time>2026-04-19T15:45:15.761Z</time></trkpt><trkpt lat="43.445455" lon="12.9554333"><ele>333.0</ele><time>2026-04-19T15:45:16.761Z</time></trkpt><trkpt lat="43.4453833" lon="12.9554233"><ele>333.0</ele><time>2026-04-19T15:45:17.763Z</time></trkpt><trkpt lat="43.4453133" lon="12.9553933"><ele>333.0</ele><time>2026-04-19T15:45:18.761Z</time></trkpt><trkpt lat="43.4451733" lon="12.9552683"><ele>332.2</ele><time>2026-04-19T15:45:20.76Z</time></trkpt><trkpt lat="43.4451267" lon="12.9551267"><ele>331.4</ele><time>2026-04-19T15:45:21.761Z</time></trkpt><trkpt lat="43.4450917" lon="12.9549967"><ele>330.59999999999997</ele><time>2026-04-19T15:45:22.759Z</time></trkpt><trkpt lat="43.4450683" lon="12.954875"><ele>329.79999999999995</ele><time>2026-04-19T15:45:23.76Z</time></trkpt><trkpt lat="43.4450383" lon="12.954755"><ele>329.0</ele><time>2026-04-19T15:45:24.76Z</time></trkpt><trkpt lat="43.444995" lon="12.954655"><ele>327.0</ele><time>2026-04-19T15:45:25.761Z</time></trkpt><trkpt lat="43.44494" lon="12.9545633"><ele>325.0</ele><time>2026-04-19T15:45:26.761Z</time></trkpt><trkpt lat="43.4448717" lon="12.9544767"><ele>323.0</ele><time>2026-04-19T15:45:27.76Z</time></trkpt><trkpt lat="43.4447933" lon="12.9544067"><ele>321.0</ele><time>2026-04-19T15:45:28.76Z</time></trkpt><trkpt lat="43.4446967" lon="12.95437"><ele>319.0</ele><time>2026-04-19T15:45:29.761Z</time></trkpt><trkpt lat="43.4446033" lon="12.9543467"><ele>318.0</ele><time>2026-04-19T15:45:30.762Z</time></trkpt><trkpt lat="43.4445017" lon="12.95435"><ele>317.0</ele><time>2026-04-19T15:45:31.76Z</time></trkpt><trkpt lat="43.4443867" lon="12.9543883"><ele>316.0</ele><time>2026-04-19T15:45:32.761Z</time></trkpt><trkpt lat="43.4442783" lon="12.9544067"><ele>315.0</ele><time>2026-04-19T15:45:33.761Z</time></trkpt><trkpt lat="43.444165" lon="12.95441"><ele>314.0</ele><time>2026-04-19T15:45:34.764Z</time></trkpt><trkpt lat="43.44406" lon="12.95438"><ele>314.0</ele><time>2026-04-19T15:45:35.76Z</time></trkpt><trkpt lat="43.4439717" lon="12.9543267"><ele>314.0</ele><time>2026-04-19T15:45:36.76Z</time></trkpt><trkpt lat="43.4438883" lon="12.9542533"><ele>314.0</ele><time>2026-04-19T15:45:37.76Z</time></trkpt><trkpt lat="43.443795" lon="12.9541817"><ele>314.0</ele><time>2026-04-19T15:45:38.76Z</time></trkpt><trkpt lat="43.4436883" lon="12.9541167"><ele>314.0</ele><time>2026-04-19T15:45:39.762Z</time></trkpt><trkpt lat="43.4435717" lon="12.9540483"><ele>311.33333333333337</ele><time>2026-04-19T15:45:40.761Z</time></trkpt><trkpt lat="43.4434367" lon="12.9539667"><ele>308.6666666666667</ele><time>2026-04-19T15:45:41.76Z</time></trkpt><trkpt lat="43.44329" lon="12.9538867"><ele>306.0</ele><time>2026-04-19T15:45:42.761Z</time></trkpt><trkpt lat="43.4431317" lon="12.95382"><ele>306.0</ele><time>2026-04-19T15:45:43.761Z</time></trkpt><trkpt lat="43.442975" lon="12.95377"><ele>306.0</ele><time>2026-04-19T15:45:44.765Z</time></trkpt><trkpt lat="43.4428083" lon="12.9537217"><ele>306.0</ele><time>2026-04-19T15:45:45.762Z</time></trkpt><trkpt lat="43.4426183" lon="12.9536617"><ele>306.3333333333333</ele><time>2026-04-19T15:45:46.761Z</time></trkpt><trkpt lat="43.442415" lon="12.9535933"><ele>306.66666666666663</ele><time>2026-04-19T15:45:47.76Z</time></trkpt><trkpt lat="43.4422267" lon="12.9535333"><ele>307.0</ele><time>2026-04-19T15:45:48.761Z</time></trkpt><trkpt lat="43.4420617" lon="12.9534833"><ele>306.5</ele><time>2026-04-19T15:45:49.762Z</time></trkpt><trkpt lat="43.441925" lon="12.95345"><ele>306.0</ele><time>2026-04-19T15:45:50.762Z</time></trkpt><trkpt lat="43.4418017" lon="12.9534333"><ele>305.5</ele><time>2026-04-19T15:45:51.761Z</time></trkpt><trkpt lat="43.441685" lon="12.953445"><ele>305.0</ele><time>2026-04-19T15:45:52.761Z</time></trkpt><trkpt lat="43.441575" lon="12.95346"><ele>305.0</ele><time>2026-04-19T15:45:53.761Z</time></trkpt><trkpt lat="43.4414717" lon="12.95345"><ele>305.0</ele><time>2026-04-19T15:45:54.761Z</time></trkpt><trkpt lat="43.441355" lon="12.9534083"><ele>305.0</ele><time>2026-04-19T15:45:55.761Z</time></trkpt><trkpt lat="43.4412217" lon="12.95336"><ele>305.0</ele><time>2026-04-19T15:45:56.762Z</time></trkpt><trkpt lat="43.4410633" lon="12.9532867"><ele>304.0</ele><time>2026-04-19T15:45:57.763Z</time></trkpt><trkpt lat="43.4408633" lon="12.95319"><ele>303.0</ele><time>2026-04-19T15:45:58.76Z</time></trkpt><trkpt lat="43.4406417" lon="12.95309"><ele>302.0</ele><time>2026-04-19T15:45:59.761Z</time></trkpt><trkpt lat="43.4404317" lon="12.952995"><ele>300.6666666666667</ele><time>2026-04-19T15:46:00.76Z</time></trkpt><trkpt lat="43.4402383" lon="12.9529117"><ele>299.3333333333333</ele><time>2026-04-19T15:46:01.761Z</time></trkpt><trkpt lat="43.44005" lon="12.95283"><ele>298.0</ele><time>2026-04-19T15:46:02.76Z</time></trkpt><trkpt lat="43.4398617" lon="12.95275"><ele>298.0</ele><time>2026-04-19T15:46:03.761Z</time></trkpt><trkpt lat="43.43968" lon="12.9526633"><ele>298.0</ele><time>2026-04-19T15:46:04.761Z</time></trkpt><trkpt lat="43.4395033" lon="12.9525817"><ele>298.0</ele><time>2026-04-19T15:46:05.763Z</time></trkpt><trkpt lat="43.43933" lon="12.9525083"><ele>295.66666666666663</ele><time>2026-04-19T15:46:06.762Z</time></trkpt><trkpt lat="43.439165" lon="12.9524417"><ele>293.3333333333333</ele><time>2026-04-19T15:46:07.762Z</time></trkpt><trkpt lat="43.4390167" lon="12.9523833"><ele>291.0</ele><time>2026-04-19T15:46:08.765Z</time></trkpt><trkpt lat="43.43889" lon="12.9523183"><ele>292.5</ele><time>2026-04-19T15:46:09.762Z</time></trkpt><trkpt lat="43.4387667" lon="12.9522483"><ele>294.0</ele><time>2026-04-19T15:46:10.761Z</time></trkpt><trkpt lat="43.438635" lon="12.9521817"><ele>295.5</ele><time>2026-04-19T15:46:11.76Z</time></trkpt><trkpt lat="43.4385" lon="12.952115"><ele>297.0</ele><time>2026-04-19T15:46:12.762Z</time></trkpt><trkpt lat="43.43838" lon="12.9520433"><ele>297.0</ele><time>2026-04-19T15:46:13.76Z</time></trkpt><trkpt lat="43.4382717" lon="12.9519583"><ele>297.0</ele><time>2026-04-19T15:46:14.76Z</time></trkpt><trkpt lat="43.4381633" lon="12.9518483"><ele>297.0</ele><time>2026-04-19T15:46:15.762Z</time></trkpt><trkpt lat="43.4380367" lon="12.951705"><ele>297.0</ele><time>2026-04-19T15:46:16.762Z</time></trkpt><trkpt lat="43.4378867" lon="12.9515283"><ele>295.6666666666667</ele><time>2026-04-19T15:46:17.76Z</time></trkpt><trkpt lat="43.4377167" lon="12.9513333"><ele>294.33333333333337</ele><time>2026-04-19T15:46:18.761Z</time></trkpt><trkpt lat="43.437565" lon="12.95115"><ele>293.0</ele><time>2026-04-19T15:46:19.76Z</time></trkpt><trkpt lat="43.437435" lon="12.9509967"><ele>293.0</ele><time>2026-04-19T15:46:20.76Z</time></trkpt><trkpt lat="43.4373117" lon="12.9508767"><ele>293.0</ele><time>2026-04-19T15:46:21.76Z</time></trkpt><trkpt lat="43.4371867" lon="12.9507683"><ele>293.0</ele><time>2026-04-19T15:46:22.76Z</time></trkpt><trkpt lat="43.4370383" lon="12.950665"><ele>291.33333333333337</ele><time>2026-04-19T15:46:23.766Z</time></trkpt><trkpt lat="43.4368717" lon="12.9505617"><ele>289.6666666666667</ele><time>2026-04-19T15:46:24.76Z</time></trkpt><trkpt lat="43.43669" lon="12.9504533"><ele>288.0</ele><time>2026-04-19T15:46:25.764Z</time></trkpt><trkpt lat="43.4365233" lon="12.9503283"><ele>288.0</ele><time>2026-04-19T15:46:26.763Z</time></trkpt><trkpt lat="43.4363633" lon="12.950215"><ele>288.0</ele><time>2026-04-19T15:46:27.76Z</time></trkpt><trkpt lat="43.4362033" lon="12.9501"><ele>288.0</ele><time>2026-04-19T15:46:28.761Z</time></trkpt><trkpt lat="43.4360417" lon="12.9499783"><ele>287.0</ele><time>2026-04-19T15:46:29.763Z</time></trkpt><trkpt lat="43.4358717" lon="12.9498533"><ele>286.0</ele><time>2026-04-19T15:46:30.762Z</time></trkpt><trkpt lat="43.435695" lon="12.9497367"><ele>285.0</ele><time>2026-04-19T15:46:31.76Z</time></trkpt><trkpt lat="43.4355133" lon="12.94963"><ele>285.0</ele><time>2026-04-19T15:46:32.76Z</time></trkpt><trkpt lat="43.4353383" lon="12.94953"><ele>285.0</ele><time>2026-04-19T15:46:33.76Z</time></trkpt><trkpt lat="43.43516" lon="12.9494317"><ele>285.0</ele><time>2026-04-19T15:46:34.761Z</time></trkpt><trkpt lat="43.4349867" lon="12.9493317"><ele>285.0</ele><time>2026-04-19T15:46:35.761Z</time></trkpt><trkpt lat="43.4348333" lon="12.9492217"><ele>285.0</ele><time>2026-04-19T15:46:36.763Z</time></trkpt><trkpt lat="43.434705" lon="12.949115"><ele>285.0</ele><time>2026-04-19T15:46:37.761Z</time></trkpt><trkpt lat="43.434595" lon="12.94902"><ele>283.75</ele><time>2026-04-19T15:46:38.762Z</time></trkpt><trkpt lat="43.4344833" lon="12.9489267"><ele>282.5</ele><time>2026-04-19T15:46:39.761Z</time></trkpt><trkpt lat="43.4343633" lon="12.94885"><ele>281.25</ele><time>2026-04-19T15:46:40.761Z</time></trkpt><trkpt lat="43.4342367" lon="12.948795"><ele>280.0</ele><time>2026-04-19T15:46:41.762Z</time></trkpt><trkpt lat="43.4341133" lon="12.9487317"><ele>280.0</ele><time>2026-04-19T15:46:42.762Z</time></trkpt><trkpt lat="43.4340017" lon="12.9486367"><ele>280.0</ele><time>2026-04-19T15:46:43.761Z</time></trkpt><trkpt lat="43.433905" lon="12.948535"><ele>280.0</ele><time>2026-04-19T15:46:44.76Z</time></trkpt><trkpt lat="43.4338117" lon="12.9484367"><ele>280.0</ele><time>2026-04-19T15:46:45.766Z</time></trkpt><trkpt lat="43.43371" lon="12.948355"><ele>279.4</ele><time>2026-04-19T15:46:46.761Z</time></trkpt><trkpt lat="43.433605" lon="12.9482883"><ele>278.8</ele><time>2026-04-19T15:46:47.764Z</time></trkpt><trkpt lat="43.4335117" lon="12.9482317"><ele>278.2</ele><time>2026-04-19T15:46:48.762Z</time></trkpt><trkpt lat="43.4334267" lon="12.9481783"><ele>277.6</ele><time>2026-04-19T15:46:49.761Z</time></trkpt><trkpt lat="43.4333533" lon="12.9481217"><ele>277.0</ele><time>2026-04-19T15:46:50.762Z</time></trkpt><trkpt lat="43.433285" lon="12.9480667"><ele>277.0</ele><time>2026-04-19T15:46:51.766Z</time></trkpt><trkpt lat="43.4332217" lon="12.947995"><ele>277.0</ele><time>2026-04-19T15:46:52.763Z</time></trkpt><trkpt lat="43.43316" lon="12.9478917"><ele>277.0</ele><time>2026-04-19T15:46:53.762Z</time></trkpt><trkpt lat="43.4331017" lon="12.9477617"><ele>277.0</ele><time>2026-04-19T15:46:54.762Z</time></trkpt><trkpt lat="43.4330333" lon="12.9476133"><ele>277.0</ele><time>2026-04-19T15:46:55.763Z</time></trkpt><trkpt lat="43.4329633" lon="12.9474483"><ele>277.5</ele><time>2026-04-19T15:46:56.762Z</time></trkpt><trkpt lat="43.4328933" lon="12.94728"><ele>278.0</ele><time>2026-04-19T15:46:57.762Z</time></trkpt><trkpt lat="43.4328183" lon="12.94712"><ele>278.5</ele><time>2026-04-19T15:46:58.762Z</time></trkpt><trkpt lat="43.432735" lon="12.9469633"><ele>279.0</ele><time>2026-04-19T15:46:59.762Z</time></trkpt><trkpt lat="43.4326367" lon="12.9468167"><ele>277.75</ele><time>2026-04-19T15:47:00.762Z</time></trkpt><trkpt lat="43.43252" lon="12.9466833"><ele>276.5</ele><time>2026-04-19T15:47:01.762Z</time></trkpt><trkpt lat="43.4323983" lon="12.9465667"><ele>275.25</ele><time>2026-04-19T15:47:02.763Z</time></trkpt><trkpt lat="43.4322817" lon="12.9464717"><ele>274.0</ele><time>2026-04-19T15:47:03.762Z</time></trkpt><trkpt lat="43.4321667" lon="12.9463983"><ele>274.2</ele><time>2026-04-19T15:47:04.763Z</time></trkpt><trkpt lat="43.4320567" lon="12.9463417"><ele>274.4</ele><time>2026-04-19T15:47:05.762Z</time></trkpt><trkpt lat="43.431945" lon="12.9463"><ele>274.6</ele><time>2026-04-19T15:47:06.762Z</time></trkpt><trkpt lat="43.4318383" lon="12.9462717"><ele>274.8</ele><time>2026-04-19T15:47:07.763Z</time></trkpt><trkpt lat="43.4317483" lon="12.9462517"><ele>275.0</ele><time>2026-04-19T15:47:08.762Z</time></trkpt><trkpt lat="43.431685" lon="12.9462333"><ele>275.0</ele><time>2026-04-19T15:47:09.763Z</time></trkpt><trkpt lat="43.4316033" lon="12.9462067"><ele>275.0</ele><time>2026-04-19T15:47:11.762Z</time></trkpt><trkpt lat="43.4314767" lon="12.946125"><ele>275.0</ele><time>2026-04-19T15:47:13.763Z</time></trkpt><trkpt lat="43.4314" lon="12.9460333"><ele>275.0</ele><time>2026-04-19T15:47:14.762Z</time></trkpt><trkpt lat="43.4313083" lon="12.94593"><ele>275.0</ele><time>2026-04-19T15:47:15.763Z</time></trkpt><trkpt lat="43.4312017" lon="12.945835"><ele>273.75</ele><time>2026-04-19T15:47:16.761Z</time></trkpt><trkpt lat="43.4310867" lon="12.9457583"><ele>272.5</ele><time>2026-04-19T15:47:17.761Z</time></trkpt><trkpt lat="43.430975" lon="12.945675"><ele>271.25</ele><time>2026-04-19T15:47:18.761Z</time></trkpt><trkpt lat="43.4308633" lon="12.94557"><ele>270.0</ele><time>2026-04-19T15:47:19.763Z</time></trkpt><trkpt lat="43.430745" lon="12.9454367"><ele>270.0</ele><time>2026-04-19T15:47:20.761Z</time></trkpt><trkpt lat="43.4306083" lon="12.9452617"><ele>270.0</ele><time>2026-04-19T15:47:21.761Z</time></trkpt><trkpt lat="43.4304667" lon="12.94506"><ele>270.0</ele><time>2026-04-19T15:47:22.761Z</time></trkpt><trkpt lat="43.43034" lon="12.9448467"><ele>269.3333333333333</ele><time>2026-04-19T15:47:23.761Z</time></trkpt><trkpt lat="43.43023" lon="12.944645"><ele>268.66666666666663</ele><time>2026-04-19T15:47:24.763Z</time></trkpt><trkpt lat="43.43013" lon="12.9444533"><ele>268.0</ele><time>2026-04-19T15:47:25.761Z</time></trkpt><trkpt lat="43.43004" lon="12.9442683"><ele>269.0</ele><time>2026-04-19T15:47:26.76Z</time></trkpt><trkpt lat="43.4299567" lon="12.944095"><ele>270.0</ele><time>2026-04-19T15:47:27.759Z</time></trkpt><trkpt lat="43.4298883" lon="12.94391"><ele>271.0</ele><time>2026-04-19T15:47:28.763Z</time></trkpt><trkpt lat="43.4298317" lon="12.9437"><ele>271.0</ele><time>2026-04-19T15:47:29.76Z</time></trkpt><trkpt lat="43.4297933" lon="12.94345"><ele>271.0</ele><time>2026-04-19T15:47:30.762Z</time></trkpt><trkpt lat="43.4297633" lon="12.9431633"><ele>271.0</ele><time>2026-04-19T15:47:31.762Z</time></trkpt><trkpt lat="43.429735" lon="12.9428733"><ele>273.66666666666663</ele><time>2026-04-19T15:47:32.764Z</time></trkpt><trkpt lat="43.429705" lon="12.9425917"><ele>276.3333333333333</ele><time>2026-04-19T15:47:33.763Z</time></trkpt><trkpt lat="43.4296667" lon="12.9423117"><ele>279.0</ele><time>2026-04-19T15:47:34.763Z</time></trkpt><trkpt lat="43.4296133" lon="12.9420367"><ele>273.0</ele><time>2026-04-19T15:47:35.763Z</time></trkpt><trkpt lat="43.4295383" lon="12.94177"><ele>267.0</ele><time>2026-04-19T15:47:36.76Z</time></trkpt><trkpt lat="43.4294483" lon="12.9415267"><ele>261.0</ele><time>2026-04-19T15:47:37.76Z</time></trkpt><trkpt lat="43.429365" lon="12.9413"><ele>261.3333333333333</ele><time>2026-04-19T15:47:38.76Z</time></trkpt><trkpt lat="43.429305" lon="12.9410667"><ele>261.66666666666663</ele><time>2026-04-19T15:47:39.76Z</time></trkpt><trkpt lat="43.42926" lon="12.94081"><ele>262.0</ele><time>2026-04-19T15:47:40.761Z</time></trkpt><trkpt lat="43.429215" lon="12.9405433"><ele>262.0</ele><time>2026-04-19T15:47:41.761Z</time></trkpt><trkpt lat="43.429165" lon="12.9402833"><ele>262.0</ele><time>2026-04-19T15:47:42.762Z</time></trkpt><trkpt lat="43.4291133" lon="12.9400333"><ele>262.0</ele><time>2026-04-19T15:47:43.762Z</time></trkpt><trkpt lat="43.4290483" lon="12.939785"><ele>264.0</ele><time>2026-04-19T15:47:44.761Z</time></trkpt><trkpt lat="43.428975" lon="12.9395367"><ele>266.0</ele><time>2026-04-19T15:47:45.762Z</time></trkpt><trkpt lat="43.4288867" lon="12.93929"><ele>268.0</ele><time>2026-04-19T15:47:46.761Z</time></trkpt><trkpt lat="43.4288083" lon="12.939065"><ele>264.0</ele><time>2026-04-19T15:47:47.761Z</time></trkpt><trkpt lat="43.428735" lon="12.9388617"><ele>260.0</ele><time>2026-04-19T15:47:48.762Z</time></trkpt><trkpt lat="43.4286617" lon="12.9386817"><ele>256.0</ele><time>2026-04-19T15:47:49.762Z</time></trkpt><trkpt lat="43.42857" lon="12.938515"><ele>258.0</ele><time>2026-04-19T15:47:50.763Z</time></trkpt><trkpt lat="43.42845" lon="12.9383583"><ele>260.0</ele><time>2026-04-19T15:47:51.764Z</time></trkpt><trkpt lat="43.4283033" lon="12.9382133"><ele>262.0</ele><time>2026-04-19T15:47:52.764Z</time></trkpt><trkpt lat="43.4281367" lon="12.938065"><ele>258.3333333333333</ele><time>2026-04-19T15:47:53.762Z</time></trkpt><trkpt lat="43.4279733" lon="12.9379117"><ele>254.66666666666669</ele><time>2026-04-19T15:47:54.762Z</time></trkpt><trkpt lat="43.4278167" lon="12.9377567"><ele>251.0</ele><time>2026-04-19T15:47:55.762Z</time></trkpt><trkpt lat="43.42767" lon="12.9376067"><ele>252.0</ele><time>2026-04-19T15:47:56.761Z</time></trkpt><trkpt lat="43.4275333" lon="12.937465"><ele>253.0</ele><time>2026-04-19T15:47:57.761Z</time></trkpt><trkpt lat="43.4274033" lon="12.9373483"><ele>254.0</ele><time>2026-04-19T15:47:58.761Z</time></trkpt><trkpt lat="43.4272817" lon="12.937245"><ele>254.0</ele><time>2026-04-19T15:47:59.76Z</time></trkpt><trkpt lat="43.427165" lon="12.937165"><ele>254.0</ele><time>2026-04-19T15:48:00.761Z</time></trkpt><trkpt lat="43.4270533" lon="12.9371067"><ele>254.0</ele><time>2026-04-19T15:48:01.761Z</time></trkpt><trkpt lat="43.426935" lon="12.937075"><ele>254.0</ele><time>2026-04-19T15:48:02.761Z</time></trkpt><trkpt lat="43.4268217" lon="12.9370417"><ele>254.0</ele><time>2026-04-19T15:48:03.761Z</time></trkpt><trkpt lat="43.4267133" lon="12.9369967"><ele>253.99999999999997</ele><time>2026-04-19T15:48:04.76Z</time></trkpt><trkpt lat="43.42661" lon="12.9369433"><ele>253.99999999999997</ele><time>2026-04-19T15:48:05.762Z</time></trkpt><trkpt lat="43.42652" lon="12.93687"><ele>254.0</ele><time>2026-04-19T15:48:06.764Z</time></trkpt><trkpt lat="43.4264433" lon="12.9367917"><ele>254.0</ele><time>2026-04-19T15:48:07.762Z</time></trkpt><trkpt lat="43.4263883" lon="12.9367"><ele>254.00000000000003</ele><time>2026-04-19T15:48:08.764Z</time></trkpt><trkpt lat="43.4263483" lon="12.9365983"><ele>254.0</ele><time>2026-04-19T15:48:09.761Z</time></trkpt><trkpt lat="43.4263183" lon="12.936495"><ele>254.0</ele><time>2026-04-19T15:48:10.762Z</time></trkpt><trkpt lat="43.426305" lon="12.93637"><ele>254.0</ele><time>2026-04-19T15:48:11.764Z</time></trkpt><trkpt lat="43.4263167" lon="12.936245"><ele>254.00000000000003</ele><time>2026-04-19T15:48:12.764Z</time></trkpt><trkpt lat="43.426355" lon="12.9361367"><ele>254.0</ele><time>2026-04-19T15:48:13.763Z</time></trkpt><trkpt lat="43.4264083" lon="12.9360333"><ele>254.0</ele><time>2026-04-19T15:48:14.764Z</time></trkpt><trkpt lat="43.426475" lon="12.9359283"><ele>254.0</ele><time>2026-04-19T15:48:15.761Z</time></trkpt><trkpt lat="43.4265517" lon="12.9358183"><ele>254.0</ele><time>2026-04-19T15:48:16.761Z</time></trkpt><trkpt lat="43.426635" lon="12.935695"><ele>254.0</ele><time>2026-04-19T15:48:17.761Z</time></trkpt><trkpt lat="43.426715" lon="12.9355633"><ele>252.75</ele><time>2026-04-19T15:48:18.763Z</time></trkpt><trkpt lat="43.4267967" lon="12.9354067"><ele>251.5</ele><time>2026-04-19T15:48:19.761Z</time></trkpt><trkpt lat="43.4268717" lon="12.935235"><ele>250.25</ele><time>2026-04-19T15:48:20.762Z</time></trkpt><trkpt lat="43.426945" lon="12.9350633"><ele>249.0</ele><time>2026-04-19T15:48:21.762Z</time></trkpt><trkpt lat="43.4270133" lon="12.934905"><ele>247.25</ele><time>2026-04-19T15:48:22.761Z</time></trkpt><trkpt lat="43.4270733" lon="12.9347483"><ele>245.5</ele><time>2026-04-19T15:48:23.761Z</time></trkpt><trkpt lat="43.4271367" lon="12.934605"><ele>243.75</ele><time>2026-04-19T15:48:24.76Z</time></trkpt><trkpt lat="43.4271933" lon="12.9344667"><ele>242.0</ele><time>2026-04-19T15:48:25.761Z</time></trkpt><trkpt lat="43.4272467" lon="12.9343317"><ele>242.8</ele><time>2026-04-19T15:48:26.765Z</time></trkpt><trkpt lat="43.4273" lon="12.9341917"><ele>243.6</ele><time>2026-04-19T15:48:27.761Z</time></trkpt><trkpt lat="43.4273533" lon="12.9340567"><ele>244.40000000000003</ele><time>2026-04-19T15:48:28.76Z</time></trkpt><trkpt lat="43.4274" lon="12.9339233"><ele>245.20000000000002</ele><time>2026-04-19T15:48:29.761Z</time></trkpt><trkpt lat="43.427445" lon="12.933795"><ele>246.0</ele><time>2026-04-19T15:48:30.762Z</time></trkpt><trkpt lat="43.4274767" lon="12.9336583"><ele>246.0</ele><time>2026-04-19T15:48:31.761Z</time></trkpt><trkpt lat="43.4275083" lon="12.9335167"><ele>246.00000000000003</ele><time>2026-04-19T15:48:32.76Z</time></trkpt><trkpt lat="43.4275333" lon="12.9333717"><ele>246.00000000000003</ele><time>2026-04-19T15:48:33.762Z</time></trkpt><trkpt lat="43.4275583" lon="12.933235"><ele>246.0</ele><time>2026-04-19T15:48:34.76Z</time></trkpt><trkpt lat="43.427585" lon="12.933115"><ele>246.0</ele><time>2026-04-19T15:48:35.763Z</time></trkpt><trkpt lat="43.42761" lon="12.93301"><ele>245.33333333333334</ele><time>2026-04-19T15:48:36.76Z</time></trkpt><trkpt lat="43.42763" lon="12.9329267"><ele>244.66666666666669</ele><time>2026-04-19T15:48:37.76Z</time></trkpt><trkpt lat="43.4276667" lon="12.9328183"><ele>244.0</ele><time>2026-04-19T15:48:39.764Z</time></trkpt><trkpt lat="43.427705" lon="12.93272"><ele>243.33333333333334</ele><time>2026-04-19T15:48:41.761Z</time></trkpt><trkpt lat="43.4277417" lon="12.9325983"><ele>242.66666666666669</ele><time>2026-04-19T15:48:43.762Z</time></trkpt><trkpt lat="43.4277383" lon="12.9324783"><ele>242.0</ele><time>2026-04-19T15:48:45.763Z</time></trkpt><trkpt lat="43.4276983" lon="12.932405"><ele>242.00000000000003</ele><time>2026-04-19T15:48:47.761Z</time></trkpt><trkpt lat="43.4276333" lon="12.9324017"><ele>242.0</ele><time>2026-04-19T15:48:49.761Z</time></trkpt><trkpt lat="43.427605" lon="12.93252"><ele>242.0</ele><time>2026-04-19T15:48:51.762Z</time></trkpt><trkpt lat="43.4276117" lon="12.9326067"><ele>242.0</ele><time>2026-04-19T15:48:52.761Z</time></trkpt><trkpt lat="43.4276183" lon="12.9327117"><ele>242.00000000000003</ele><time>2026-04-19T15:48:53.762Z</time></trkpt><trkpt lat="43.4276233" lon="12.9328333"><ele>242.0</ele><time>2026-04-19T15:48:54.761Z</time></trkpt><trkpt lat="43.42761" lon="12.9329717"><ele>242.0</ele><time>2026-04-19T15:48:55.762Z</time></trkpt><trkpt lat="43.4275683" lon="12.9331233"><ele>242.0</ele><time>2026-04-19T15:48:56.761Z</time></trkpt><trkpt lat="43.4275317" lon="12.93328"><ele>242.0</ele><time>2026-04-19T15:48:57.761Z</time></trkpt><trkpt lat="43.4274983" lon="12.9334417"><ele>242.0</ele><time>2026-04-19T15:48:58.762Z</time></trkpt><trkpt lat="43.4274633" lon="12.933605"><ele>243.0</ele><time>2026-04-19T15:48:59.76Z</time></trkpt><trkpt lat="43.4274233" lon="12.9337733"><ele>244.0</ele><time>2026-04-19T15:49:00.761Z</time></trkpt><trkpt lat="43.4273683" lon="12.9339517"><ele>245.0</ele><time>2026-04-19T15:49:01.764Z</time></trkpt><trkpt lat="43.4272967" lon="12.9341333"><ele>246.0</ele><time>2026-04-19T15:49:02.76Z</time></trkpt><trkpt lat="43.4272183" lon="12.9343283"><ele>244.66666666666669</ele><time>2026-04-19T15:49:03.762Z</time></trkpt><trkpt lat="43.4271333" lon="12.934535"><ele>243.33333333333334</ele><time>2026-04-19T15:49:04.762Z</time></trkpt><trkpt lat="43.42705" lon="12.9347367"><ele>242.0</ele><time>2026-04-19T15:49:05.762Z</time></trkpt><trkpt lat="43.4269717" lon="12.9349217"><ele>243.75</ele><time>2026-04-19T15:49:06.762Z</time></trkpt><trkpt lat="43.4269017" lon="12.9350917"><ele>245.5</ele><time>2026-04-19T15:49:07.765Z</time></trkpt><trkpt lat="43.4268367" lon="12.9352467"><ele>247.25</ele><time>2026-04-19T15:49:08.762Z</time></trkpt><trkpt lat="43.42677" lon="12.9353917"><ele>249.0</ele><time>2026-04-19T15:49:09.763Z</time></trkpt><trkpt lat="43.4266967" lon="12.93554"><ele>249.0</ele><time>2026-04-19T15:49:10.764Z</time></trkpt><trkpt lat="43.4266183" lon="12.9356783"><ele>249.0</ele><time>2026-04-19T15:49:11.762Z</time></trkpt><trkpt lat="43.42654" lon="12.9358017"><ele>249.0</ele><time>2026-04-19T15:49:12.764Z</time></trkpt><trkpt lat="43.4264633" lon="12.9359117"><ele>249.0</ele><time>2026-04-19T15:49:13.763Z</time></trkpt><trkpt lat="43.426395" lon="12.936015"><ele>250.0</ele><time>2026-04-19T15:49:14.762Z</time></trkpt><trkpt lat="43.4263433" lon="12.936115"><ele>250.99999999999997</ele><time>2026-04-19T15:49:15.764Z</time></trkpt><trkpt lat="43.4263067" lon="12.9362133"><ele>251.99999999999997</ele><time>2026-04-19T15:49:16.761Z</time></trkpt><trkpt lat="43.4262933" lon="12.9363317"><ele>253.0</ele><time>2026-04-19T15:49:17.761Z</time></trkpt><trkpt lat="43.4263167" lon="12.9364767"><ele>254.0</ele><time>2026-04-19T15:49:18.762Z</time></trkpt><trkpt lat="43.4263617" lon="12.9366183"><ele>252.39999999999998</ele><time>2026-04-19T15:49:19.763Z</time></trkpt><trkpt lat="43.4264217" lon="12.9367383"><ele>250.79999999999998</ele><time>2026-04-19T15:49:20.761Z</time></trkpt><trkpt lat="43.426495" lon="12.9368433"><ele>249.20000000000002</ele><time>2026-04-19T15:49:21.76Z</time></trkpt><trkpt lat="43.4265867" lon="12.9369317"><ele>247.60000000000002</ele><time>2026-04-19T15:49:22.762Z</time></trkpt><trkpt lat="43.4266983" lon="12.937005"><ele>246.0</ele><time>2026-04-19T15:49:23.761Z</time></trkpt><trkpt lat="43.4268383" lon="12.937055"><ele>246.0</ele><time>2026-04-19T15:49:24.76Z</time></trkpt><trkpt lat="43.4269817" lon="12.937095"><ele>246.0</ele><time>2026-04-19T15:49:25.761Z</time></trkpt><trkpt lat="43.4271183" lon="12.9371467"><ele>246.0</ele><time>2026-04-19T15:49:26.761Z</time></trkpt><trkpt lat="43.4272533" lon="12.9372317"><ele>246.0</ele><time>2026-04-19T15:49:27.76Z</time></trkpt><trkpt lat="43.427405" lon="12.937345"><ele>247.66666666666669</ele><time>2026-04-19T15:49:28.761Z</time></trkpt><trkpt lat="43.427555" lon="12.9374683"><ele>249.33333333333334</ele><time>2026-04-19T15:49:29.762Z</time></trkpt><trkpt lat="43.4276917" lon="12.9375917"><ele>251.0</ele><time>2026-04-19T15:49:30.761Z</time></trkpt><trkpt lat="43.4278167" lon="12.9377133"><ele>251.0</ele><time>2026-04-19T15:49:31.762Z</time></trkpt><trkpt lat="43.4279333" lon="12.9378367"><ele>251.0</ele><time>2026-04-19T15:49:32.761Z</time></trkpt><trkpt lat="43.4280533" lon="12.9379683"><ele>251.0</ele><time>2026-04-19T15:49:33.761Z</time></trkpt><trkpt lat="43.4281783" lon="12.938095"><ele>252.25</ele><time>2026-04-19T15:49:34.761Z</time></trkpt><trkpt lat="43.4283067" lon="12.9382183"><ele>253.5</ele><time>2026-04-19T15:49:35.762Z</time></trkpt><trkpt lat="43.4284283" lon="12.9383367"><ele>254.75</ele><time>2026-04-19T15:49:36.763Z</time></trkpt><trkpt lat="43.4285367" lon="12.9384633"><ele>256.0</ele><time>2026-04-19T15:49:37.76Z</time></trkpt><trkpt lat="43.4286367" lon="12.9386117"><ele>256.0</ele><time>2026-04-19T15:49:38.763Z</time></trkpt><trkpt lat="43.4287333" lon="12.9387867"><ele>256.0</ele><time>2026-04-19T15:49:39.763Z</time></trkpt><trkpt lat="43.4288233" lon="12.9390017"><ele>256.0</ele><time>2026-04-19T15:49:40.761Z</time></trkpt><trkpt lat="43.4289067" lon="12.939255"><ele>260.0</ele><time>2026-04-19T15:49:41.762Z</time></trkpt><trkpt lat="43.428985" lon="12.9395133"><ele>264.0</ele><time>2026-04-19T15:49:42.763Z</time></trkpt><trkpt lat="43.42906" lon="12.9397583"><ele>268.0</ele><time>2026-04-19T15:49:43.764Z</time></trkpt><trkpt lat="43.4291233" lon="12.9399917"><ele>266.0</ele><time>2026-04-19T15:49:44.765Z</time></trkpt><trkpt lat="43.4291667" lon="12.9402383"><ele>264.0</ele><time>2026-04-19T15:49:45.761Z</time></trkpt><trkpt lat="43.4292017" lon="12.9404767"><ele>262.0</ele><time>2026-04-19T15:49:46.762Z</time></trkpt><trkpt lat="43.4292267" lon="12.940695"><ele>260.3333333333333</ele><time>2026-04-19T15:49:47.761Z</time></trkpt><trkpt lat="43.4292533" lon="12.9409117"><ele>258.6666666666667</ele><time>2026-04-19T15:49:48.763Z</time></trkpt><trkpt lat="43.4292867" lon="12.9411367"><ele>257.0</ele><time>2026-04-19T15:49:49.762Z</time></trkpt><trkpt lat="43.4293483" lon="12.941375"><ele>257.0</ele><time>2026-04-19T15:49:50.761Z</time></trkpt><trkpt lat="43.429435" lon="12.9416117"><ele>257.0</ele><time>2026-04-19T15:49:51.762Z</time></trkpt><trkpt lat="43.429515" lon="12.94183"><ele>257.0</ele><time>2026-04-19T15:49:52.762Z</time></trkpt><trkpt lat="43.4295817" lon="12.942055"><ele>258.33333333333337</ele><time>2026-04-19T15:49:53.761Z</time></trkpt><trkpt lat="43.42964" lon="12.94231"><ele>259.6666666666667</ele><time>2026-04-19T15:49:54.761Z</time></trkpt><trkpt lat="43.42969" lon="12.9425817"><ele>261.0</ele><time>2026-04-19T15:49:55.761Z</time></trkpt><trkpt lat="43.42973" lon="12.94285"><ele>264.3333333333333</ele><time>2026-04-19T15:49:56.761Z</time></trkpt><trkpt lat="43.4297583" lon="12.9431"><ele>267.66666666666663</ele><time>2026-04-19T15:49:57.761Z</time></trkpt><trkpt lat="43.4297817" lon="12.9433283"><ele>271.0</ele><time>2026-04-19T15:49:58.761Z</time></trkpt><trkpt lat="43.429805" lon="12.9435367"><ele>271.0</ele><time>2026-04-19T15:49:59.76Z</time></trkpt><trkpt lat="43.4298317" lon="12.943725"><ele>271.0</ele><time>2026-04-19T15:50:00.76Z</time></trkpt><trkpt lat="43.4298717" lon="12.9439017"><ele>271.0</ele><time>2026-04-19T15:50:01.761Z</time></trkpt><trkpt lat="43.4299283" lon="12.944065"><ele>271.0</ele><time>2026-04-19T15:50:02.761Z</time></trkpt><trkpt lat="43.4300017" lon="12.944225"><ele>270.0</ele><time>2026-04-19T15:50:03.76Z</time></trkpt><trkpt lat="43.43009" lon="12.9443883"><ele>269.0</ele><time>2026-04-19T15:50:04.761Z</time></trkpt><trkpt lat="43.4301817" lon="12.9445683"><ele>268.0</ele><time>2026-04-19T15:50:05.761Z</time></trkpt><trkpt lat="43.43028" lon="12.9447617"><ele>268.0</ele><time>2026-04-19T15:50:06.764Z</time></trkpt><trkpt lat="43.4303883" lon="12.9449467"><ele>268.0</ele><time>2026-04-19T15:50:07.761Z</time></trkpt><trkpt lat="43.4304983" lon="12.945115"><ele>268.0</ele><time>2026-04-19T15:50:08.76Z</time></trkpt><trkpt lat="43.4306067" lon="12.945265"><ele>268.5</ele><time>2026-04-19T15:50:09.761Z</time></trkpt><trkpt lat="43.43071" lon="12.9453983"><ele>269.0</ele><time>2026-04-19T15:50:10.762Z</time></trkpt><trkpt lat="43.430805" lon="12.945515"><ele>269.5</ele><time>2026-04-19T15:50:11.761Z</time></trkpt><trkpt lat="43.4308933" lon="12.9456183"><ele>270.0</ele><time>2026-04-19T15:50:12.762Z</time></trkpt><trkpt lat="43.4309683" lon="12.9457017"><ele>270.0</ele><time>2026-04-19T15:50:13.761Z</time></trkpt><trkpt lat="43.4310467" lon="12.9457683"><ele>270.0</ele><time>2026-04-19T15:50:14.761Z</time></trkpt><trkpt lat="43.431125" lon="12.9458167"><ele>270.0</ele><time>2026-04-19T15:50:15.76Z</time></trkpt><trkpt lat="43.4312067" lon="12.9458533"><ele>270.0</ele><time>2026-04-19T15:50:16.76Z</time></trkpt><trkpt lat="43.43128" lon="12.945895"><ele>270.0</ele><time>2026-04-19T15:50:17.761Z</time></trkpt><trkpt lat="43.43135" lon="12.9459483"><ele>270.0</ele><time>2026-04-19T15:50:18.761Z</time></trkpt><trkpt lat="43.4314133" lon="12.9460333"><ele>271.25</ele><time>2026-04-19T15:50:19.762Z</time></trkpt><trkpt lat="43.431485" lon="12.9461333"><ele>272.5</ele><time>2026-04-19T15:50:20.76Z</time></trkpt><trkpt lat="43.4315683" lon="12.9462383"><ele>273.75</ele><time>2026-04-19T15:50:21.76Z</time></trkpt><trkpt lat="43.4316633" lon="12.946345"><ele>275.0</ele><time>2026-04-19T15:50:22.76Z</time></trkpt><trkpt lat="43.4317633" lon="12.94645"><ele>275.0</ele><time>2026-04-19T15:50:23.761Z</time></trkpt><trkpt lat="43.431865" lon="12.9465483"><ele>275.0</ele><time>2026-04-19T15:50:24.762Z</time></trkpt><trkpt lat="43.4319567" lon="12.9466417"><ele>275.0</ele><time>2026-04-19T15:50:25.76Z</time></trkpt><trkpt lat="43.43204" lon="12.9467383"><ele>275.0</ele><time>2026-04-19T15:50:26.761Z</time></trkpt><trkpt lat="43.4321133" lon="12.9468583"><ele>276.0</ele><time>2026-04-19T15:50:27.759Z</time></trkpt><trkpt lat="43.4321783" lon="12.9470117"><ele>277.0</ele><time>2026-04-19T15:50:28.763Z</time></trkpt><trkpt lat="43.4322317" lon="12.94719"><ele>278.0</ele><time>2026-04-19T15:50:29.76Z</time></trkpt><trkpt lat="43.4322667" lon="12.9473817"><ele>279.0</ele><time>2026-04-19T15:50:30.759Z</time></trkpt><trkpt lat="43.4322867" lon="12.947595"><ele>281.3333333333333</ele><time>2026-04-19T15:50:31.76Z</time></trkpt><trkpt lat="43.4322933" lon="12.9478267"><ele>283.66666666666663</ele><time>2026-04-19T15:50:32.76Z</time></trkpt><trkpt lat="43.4322883" lon="12.9480817"><ele>286.0</ele><time>2026-04-19T15:50:33.761Z</time></trkpt><trkpt lat="43.4322817" lon="12.9483483"><ele>287.0</ele><time>2026-04-19T15:50:34.762Z</time></trkpt><trkpt lat="43.432275" lon="12.9486217"><ele>288.0</ele><time>2026-04-19T15:50:35.762Z</time></trkpt><trkpt lat="43.4322683" lon="12.9488967"><ele>289.0</ele><time>2026-04-19T15:50:36.761Z</time></trkpt><trkpt lat="43.4322617" lon="12.94916"><ele>290.0</ele><time>2026-04-19T15:50:37.761Z</time></trkpt><trkpt lat="43.432255" lon="12.9494"><ele>291.0</ele><time>2026-04-19T15:50:38.763Z</time></trkpt><trkpt lat="43.4322533" lon="12.9496117"><ele>292.0</ele><time>2026-04-19T15:50:39.761Z</time></trkpt><trkpt lat="43.4322533" lon="12.9498017"><ele>292.0</ele><time>2026-04-19T15:50:40.76Z</time></trkpt><trkpt lat="43.432255" lon="12.9499717"><ele>292.0</ele><time>2026-04-19T15:50:41.76Z</time></trkpt><trkpt lat="43.4322517" lon="12.9501317"><ele>292.0</ele><time>2026-04-19T15:50:42.761Z</time></trkpt><trkpt lat="43.4322317" lon="12.9502883"><ele>292.0</ele><time>2026-04-19T15:50:43.76Z</time></trkpt><trkpt lat="43.432195" lon="12.9504317"><ele>293.0</ele><time>2026-04-19T15:50:44.762Z</time></trkpt><trkpt lat="43.4321433" lon="12.95056"><ele>294.0</ele><time>2026-04-19T15:50:45.76Z</time></trkpt><trkpt lat="43.4320783" lon="12.9506767"><ele>295.0</ele><time>2026-04-19T15:50:46.759Z</time></trkpt><trkpt lat="43.431985" lon="12.950775"><ele>296.0</ele><time>2026-04-19T15:50:47.762Z</time></trkpt><trkpt lat="43.4318617" lon="12.950855"><ele>301.25</ele><time>2026-04-19T15:50:48.76Z</time></trkpt><trkpt lat="43.4317133" lon="12.9509133"><ele>306.5</ele><time>2026-04-19T15:50:49.764Z</time></trkpt><trkpt lat="43.431565" lon="12.950955"><ele>311.75</ele><time>2026-04-19T15:50:50.762Z</time></trkpt><trkpt lat="43.43143" lon="12.951"><ele>317.0</ele><time>2026-04-19T15:50:51.763Z</time></trkpt><trkpt lat="43.4313067" lon="12.95107"><ele>319.6</ele><time>2026-04-19T15:50:52.762Z</time></trkpt><trkpt lat="43.4312033" lon="12.9511633"><ele>322.2</ele><time>2026-04-19T15:50:53.761Z</time></trkpt><trkpt lat="43.43112" lon="12.95127"><ele>324.8</ele><time>2026-04-19T15:50:54.765Z</time></trkpt><trkpt lat="43.431065" lon="12.9513733"><ele>327.4</ele><time>2026-04-19T15:50:55.76Z</time></trkpt><trkpt lat="43.4310333" lon="12.9514767"><ele>330.0</ele><time>2026-04-19T15:50:56.76Z</time></trkpt><trkpt lat="43.4310183" lon="12.9515783"><ele>330.0</ele><time>2026-04-19T15:50:57.76Z</time></trkpt><trkpt lat="43.4310233" lon="12.95167"><ele>330.0</ele><time>2026-04-19T15:50:58.763Z</time></trkpt><trkpt lat="43.4310583" lon="12.9517617"><ele>330.0</ele><time>2026-04-19T15:50:59.761Z</time></trkpt><trkpt lat="43.4311167" lon="12.95185"><ele>330.0</ele><time>2026-04-19T15:51:00.761Z</time></trkpt><trkpt lat="43.4311883" lon="12.9519283"><ele>330.0</ele><time>2026-04-19T15:51:01.763Z</time></trkpt><trkpt lat="43.4312517" lon="12.9520533"><ele>330.0</ele><time>2026-04-19T15:51:03.761Z</time></trkpt><trkpt lat="43.4312267" lon="12.9521517"><ele>332.25</ele><time>2026-04-19T15:51:05.76Z</time></trkpt><trkpt lat="43.4310783" lon="12.9521433"><ele>334.5</ele><time>2026-04-19T15:51:07.76Z</time></trkpt><trkpt lat="43.4309717" lon="12.95209"><ele>336.75</ele><time>2026-04-19T15:51:08.76Z</time></trkpt><trkpt lat="43.4308383" lon="12.9519533"><ele>339.0</ele><time>2026-04-19T15:51:09.76Z</time></trkpt><trkpt lat="43.43072" lon="12.9518283"><ele>336.75</ele><time>2026-04-19T15:51:10.761Z</time></trkpt><trkpt lat="43.4306033" lon="12.9516833"><ele>334.5</ele><time>2026-04-19T15:51:11.761Z</time></trkpt><trkpt lat="43.430505" lon="12.9515383"><ele>332.25</ele><time>2026-04-19T15:51:12.761Z</time></trkpt><trkpt lat="43.43043" lon="12.9514117"><ele>330.0</ele><time>2026-04-19T15:51:13.761Z</time></trkpt><trkpt lat="43.43037" lon="12.9513017"><ele>333.8333333333333</ele><time>2026-04-19T15:51:14.761Z</time></trkpt><trkpt lat="43.4303133" lon="12.9512183"><ele>337.6666666666667</ele><time>2026-04-19T15:51:15.761Z</time></trkpt><trkpt lat="43.43026" lon="12.9511617"><ele>341.5</ele><time>2026-04-19T15:51:16.761Z</time></trkpt><trkpt lat="43.4301933" lon="12.951135"><ele>345.33333333333337</ele><time>2026-04-19T15:51:17.76Z</time></trkpt><trkpt lat="43.43013" lon="12.9511267"><ele>349.1666666666667</ele><time>2026-04-19T15:51:18.761Z</time></trkpt><trkpt lat="43.43006" lon="12.9512033"><ele>353.0</ele><time>2026-04-19T15:51:19.765Z</time></trkpt><trkpt lat="43.43001" lon="12.9513517"><ele>353.0</ele><time>2026-04-19T15:51:20.761Z</time></trkpt><trkpt lat="43.4299783" lon="12.9515133"><ele>353.0</ele><time>2026-04-19T15:51:21.768Z</time></trkpt><trkpt lat="43.429975" lon="12.9516717"><ele>353.0</ele><time>2026-04-19T15:51:22.76Z</time></trkpt><trkpt lat="43.4299983" lon="12.951825"><ele>353.0</ele><time>2026-04-19T15:51:23.763Z</time></trkpt><trkpt lat="43.43004" lon="12.95198"><ele>356.25</ele><time>2026-04-19T15:51:24.76Z</time></trkpt><trkpt lat="43.4300933" lon="12.9521483"><ele>359.5</ele><time>2026-04-19T15:51:25.761Z</time></trkpt><trkpt lat="43.4301483" lon="12.952305"><ele>362.75</ele><time>2026-04-19T15:51:26.761Z</time></trkpt><trkpt lat="43.43019" lon="12.9524333"><ele>366.0</ele><time>2026-04-19T15:51:27.762Z</time></trkpt><trkpt lat="43.4302367" lon="12.9525617"><ele>366.8</ele><time>2026-04-19T15:51:28.761Z</time></trkpt><trkpt lat="43.43027" lon="12.9526883"><ele>367.6</ele><time>2026-04-19T15:51:29.761Z</time></trkpt><trkpt lat="43.4302833" lon="12.95283"><ele>368.4</ele><time>2026-04-19T15:51:30.761Z</time></trkpt><trkpt lat="43.4302683" lon="12.9529817"><ele>369.2</ele><time>2026-04-19T15:51:31.76Z</time></trkpt><trkpt lat="43.430235" lon="12.9531333"><ele>370.0</ele><time>2026-04-19T15:51:32.76Z</time></trkpt><trkpt lat="43.4301917" lon="12.9532817"><ele>370.0</ele><time>2026-04-19T15:51:33.761Z</time></trkpt><trkpt lat="43.430155" lon="12.953425"><ele>370.0</ele><time>2026-04-19T15:51:34.76Z</time></trkpt><trkpt lat="43.4301283" lon="12.953565"><ele>370.0</ele><time>2026-04-19T15:51:35.763Z</time></trkpt><trkpt lat="43.4301033" lon="12.9536933"><ele>370.0</ele><time>2026-04-19T15:51:36.761Z</time></trkpt><trkpt lat="43.43009" lon="12.953825"><ele>370.0</ele><time>2026-04-19T15:51:37.761Z</time></trkpt><trkpt lat="43.4300783" lon="12.9539567"><ele>370.0</ele><time>2026-04-19T15:51:38.761Z</time></trkpt><trkpt lat="43.4300633" lon="12.95409"><ele>370.0</ele><time>2026-04-19T15:51:39.762Z</time></trkpt><trkpt lat="43.430045" lon="12.954245"><ele>370.0</ele><time>2026-04-19T15:51:40.76Z</time></trkpt><trkpt lat="43.4300167" lon="12.9544033"><ele>370.0</ele><time>2026-04-19T15:51:41.761Z</time></trkpt><trkpt lat="43.4299683" lon="12.954555"><ele>369.0</ele><time>2026-04-19T15:51:42.76Z</time></trkpt><trkpt lat="43.429905" lon="12.9547017"><ele>368.0</ele><time>2026-04-19T15:51:43.765Z</time></trkpt><trkpt lat="43.429845" lon="12.9548367"><ele>367.0</ele><time>2026-04-19T15:51:44.761Z</time></trkpt><trkpt lat="43.429805" lon="12.9549867"><ele>366.0</ele><time>2026-04-19T15:51:45.767Z</time></trkpt><trkpt lat="43.4297883" lon="12.9551683"><ele>365.75</ele><time>2026-04-19T15:51:46.762Z</time></trkpt><trkpt lat="43.42979" lon="12.955345"><ele>365.5</ele><time>2026-04-19T15:51:47.766Z</time></trkpt><trkpt lat="43.4297967" lon="12.9555167"><ele>365.25</ele><time>2026-04-19T15:51:48.761Z</time></trkpt><trkpt lat="43.4297933" lon="12.9556833"><ele>365.0</ele><time>2026-04-19T15:51:49.762Z</time></trkpt><trkpt lat="43.4297683" lon="12.9558317"><ele>364.25</ele><time>2026-04-19T15:51:50.761Z</time></trkpt><trkpt lat="43.4297233" lon="12.9559733"><ele>363.5</ele><time>2026-04-19T15:51:51.76Z</time></trkpt><trkpt lat="43.429655" lon="12.95612"><ele>362.75</ele><time>2026-04-19T15:51:52.764Z</time></trkpt><trkpt lat="43.429575" lon="12.9562717"><ele>362.0</ele><time>2026-04-19T15:51:53.76Z</time></trkpt><trkpt lat="43.4294917" lon="12.9564267"><ele>370.5</ele><time>2026-04-19T15:51:54.761Z</time></trkpt><trkpt lat="43.42941" lon="12.9565683"><ele>379.0</ele><time>2026-04-19T15:51:55.762Z</time></trkpt><trkpt lat="43.4293367" lon="12.9566967"><ele>387.5</ele><time>2026-04-19T15:51:56.763Z</time></trkpt><trkpt lat="43.42927" lon="12.9568283"><ele>396.0</ele><time>2026-04-19T15:51:57.76Z</time></trkpt><trkpt lat="43.429215" lon="12.9569783"><ele>396.0</ele><time>2026-04-19T15:51:58.761Z</time></trkpt><trkpt lat="43.4291767" lon="12.9571583"><ele>396.0</ele><time>2026-04-19T15:51:59.763Z</time></trkpt><trkpt lat="43.429155" lon="12.957355"><ele>396.0</ele><time>2026-04-19T15:52:00.761Z</time></trkpt><trkpt lat="43.4291433" lon="12.957535"><ele>396.0</ele><time>2026-04-19T15:52:01.762Z</time></trkpt><trkpt lat="43.4291267" lon="12.9576933"><ele>394.25</ele><time>2026-04-19T15:52:02.76Z</time></trkpt><trkpt lat="43.4291" lon="12.957845"><ele>392.5</ele><time>2026-04-19T15:52:03.76Z</time></trkpt><trkpt lat="43.4290683" lon="12.958"><ele>390.75</ele><time>2026-04-19T15:52:04.76Z</time></trkpt><trkpt lat="43.4290233" lon="12.9581617"><ele>389.0</ele><time>2026-04-19T15:52:05.762Z</time></trkpt><trkpt lat="43.4289633" lon="12.9583267"><ele>385.0</ele><time>2026-04-19T15:52:06.762Z</time></trkpt><trkpt lat="43.4288967" lon="12.9584833"><ele>381.0</ele><time>2026-04-19T15:52:07.76Z</time></trkpt><trkpt lat="43.4288283" lon="12.9586217"><ele>377.0</ele><time>2026-04-19T15:52:08.762Z</time></trkpt><trkpt lat="43.4287583" lon="12.95876"><ele>373.0</ele><time>2026-04-19T15:52:09.761Z</time></trkpt><trkpt lat="43.42869" lon="12.958895"><ele>376.25</ele><time>2026-04-19T15:52:10.761Z</time></trkpt><trkpt lat="43.428615" lon="12.9590083"><ele>379.5</ele><time>2026-04-19T15:52:11.76Z</time></trkpt><trkpt lat="43.428535" lon="12.9591033"><ele>382.75</ele><time>2026-04-19T15:52:12.761Z</time></trkpt><trkpt lat="43.42844" lon="12.9591917"><ele>386.0</ele><time>2026-04-19T15:52:13.76Z</time></trkpt><trkpt lat="43.4283283" lon="12.9592933"><ele>386.0</ele><time>2026-04-19T15:52:14.76Z</time></trkpt><trkpt lat="43.4281933" lon="12.95939"><ele>386.0</ele><time>2026-04-19T15:52:15.76Z</time></trkpt><trkpt lat="43.4280583" lon="12.95948"><ele>386.0</ele><time>2026-04-19T15:52:16.76Z</time></trkpt><trkpt lat="43.427925" lon="12.95956"><ele>386.0</ele><time>2026-04-19T15:52:17.76Z</time></trkpt><trkpt lat="43.42779" lon="12.9596233"><ele>392.0</ele><time>2026-04-19T15:52:18.762Z</time></trkpt><trkpt lat="43.4276533" lon="12.9596783"><ele>398.0</ele><time>2026-04-19T15:52:19.762Z</time></trkpt><trkpt lat="43.4275317" lon="12.959715"><ele>404.0</ele><time>2026-04-19T15:52:20.761Z</time></trkpt><trkpt lat="43.427425" lon="12.9597517"><ele>410.0</ele><time>2026-04-19T15:52:21.76Z</time></trkpt><trkpt lat="43.4273267" lon="12.9598233"><ele>410.0</ele><time>2026-04-19T15:52:22.761Z</time></trkpt><trkpt lat="43.4272383" lon="12.95994"><ele>410.0</ele><time>2026-04-19T15:52:23.761Z</time></trkpt><trkpt lat="43.4271683" lon="12.96007"><ele>410.0</ele><time>2026-04-19T15:52:24.761Z</time></trkpt><trkpt lat="43.4271133" lon="12.9601817"><ele>410.0</ele><time>2026-04-19T15:52:25.761Z</time></trkpt><trkpt lat="43.427055" lon="12.9602767"><ele>410.0</ele><time>2026-04-19T15:52:26.762Z</time></trkpt><trkpt lat="43.4269867" lon="12.960365"><ele>412.75</ele><time>2026-04-19T15:52:27.76Z</time></trkpt><trkpt lat="43.4269017" lon="12.96044"><ele>415.5</ele><time>2026-04-19T15:52:28.761Z</time></trkpt><trkpt lat="43.4267933" lon="12.9604967"><ele>418.25</ele><time>2026-04-19T15:52:29.765Z</time></trkpt><trkpt lat="43.4266733" lon="12.9605383"><ele>421.0</ele><time>2026-04-19T15:52:30.763Z</time></trkpt><trkpt lat="43.4265433" lon="12.9605717"><ele>421.0</ele><time>2026-04-19T15:52:31.764Z</time></trkpt><trkpt lat="43.4263967" lon="12.96059"><ele>421.0</ele><time>2026-04-19T15:52:32.76Z</time></trkpt><trkpt lat="43.42624" lon="12.9606"><ele>421.0</ele><time>2026-04-19T15:52:33.761Z</time></trkpt><trkpt lat="43.4260817" lon="12.9606233"><ele>423.75</ele><time>2026-04-19T15:52:34.761Z</time></trkpt><trkpt lat="43.4259367" lon="12.9606717"><ele>426.5</ele><time>2026-04-19T15:52:35.764Z</time></trkpt><trkpt lat="43.4258017" lon="12.9607333"><ele>429.25</ele><time>2026-04-19T15:52:36.762Z</time></trkpt><trkpt lat="43.42568" lon="12.9607933"><ele>432.0</ele><time>2026-04-19T15:52:37.764Z</time></trkpt><trkpt lat="43.4255717" lon="12.960865"><ele>432.5</ele><time>2026-04-19T15:52:38.766Z</time></trkpt><trkpt lat="43.4254717" lon="12.9609533"><ele>433.0</ele><time>2026-04-19T15:52:39.761Z</time></trkpt><trkpt lat="43.4253767" lon="12.9610617"><ele>433.5</ele><time>2026-04-19T15:52:40.76Z</time></trkpt><trkpt lat="43.42528" lon="12.9611667"><ele>434.0</ele><time>2026-04-19T15:52:41.762Z</time></trkpt><trkpt lat="43.4251733" lon="12.9612733"><ele>434.0</ele><time>2026-04-19T15:52:42.761Z</time></trkpt><trkpt lat="43.4250367" lon="12.96138"><ele>434.0</ele><time>2026-04-19T15:52:43.76Z</time></trkpt><trkpt lat="43.42487" lon="12.9615117"><ele>434.0</ele><time>2026-04-19T15:52:44.764Z</time></trkpt><trkpt lat="43.4246917" lon="12.9616533"><ele>436.0</ele><time>2026-04-19T15:52:45.761Z</time></trkpt><trkpt lat="43.4245167" lon="12.9617933"><ele>438.0</ele><time>2026-04-19T15:52:46.761Z</time></trkpt><trkpt lat="43.4243417" lon="12.9619183"><ele>440.0</ele><time>2026-04-19T15:52:47.761Z</time></trkpt><trkpt lat="43.4241667" lon="12.962045"><ele>440.0</ele><time>2026-04-19T15:52:48.76Z</time></trkpt><trkpt lat="43.4239933" lon="12.9621817"><ele>440.0</ele><time>2026-04-19T15:52:49.761Z</time></trkpt><trkpt lat="43.4238317" lon="12.9623"><ele>440.0</ele><time>2026-04-19T15:52:50.763Z</time></trkpt><trkpt lat="43.42368" lon="12.962415"><ele>443.3333333333333</ele><time>2026-04-19T15:52:51.76Z</time></trkpt><trkpt lat="43.4235333" lon="12.96253"><ele>446.66666666666663</ele><time>2026-04-19T15:52:52.761Z</time></trkpt><trkpt lat="43.4233983" lon="12.96264"><ele>450.0</ele><time>2026-04-19T15:52:53.76Z</time></trkpt><trkpt lat="43.4232767" lon="12.9627483"><ele>450.0</ele><time>2026-04-19T15:52:54.761Z</time></trkpt><trkpt lat="43.4231683" lon="12.9628667"><ele>450.0</ele><time>2026-04-19T15:52:55.763Z</time></trkpt><trkpt lat="43.4230683" lon="12.9629833"><ele>450.0</ele><time>2026-04-19T15:52:56.762Z</time></trkpt><trkpt lat="43.4229817" lon="12.9631117"><ele>450.0</ele><time>2026-04-19T15:52:57.762Z</time></trkpt><trkpt lat="43.42291" lon="12.9632667"><ele>456.0</ele><time>2026-04-19T15:52:58.761Z</time></trkpt><trkpt lat="43.4228417" lon="12.9634417"><ele>462.0</ele><time>2026-04-19T15:52:59.761Z</time></trkpt><trkpt lat="43.4227633" lon="12.9636333"><ele>468.0</ele><time>2026-04-19T15:53:00.762Z</time></trkpt><trkpt lat="43.4226817" lon="12.9638333"><ele>468.0</ele><time>2026-04-19T15:53:01.763Z</time></trkpt><trkpt lat="43.4226083" lon="12.9640267"><ele>468.0</ele><time>2026-04-19T15:53:02.765Z</time></trkpt><trkpt lat="43.4225433" lon="12.9642033"><ele>468.0</ele><time>2026-04-19T15:53:03.763Z</time></trkpt><trkpt lat="43.4224883" lon="12.9643683"><ele>468.0</ele><time>2026-04-19T15:53:04.76Z</time></trkpt><trkpt lat="43.422445" lon="12.9645267"><ele>468.0</ele><time>2026-04-19T15:53:05.761Z</time></trkpt><trkpt lat="43.42241" lon="12.964675"><ele>467.99999999999994</ele><time>2026-04-19T15:53:06.765Z</time></trkpt><trkpt lat="43.422395" lon="12.96481"><ele>467.99999999999994</ele><time>2026-04-19T15:53:07.761Z</time></trkpt><trkpt lat="43.422385" lon="12.9649167"><ele>468.0</ele><time>2026-04-19T15:53:08.761Z</time></trkpt><trkpt lat="43.4223817" lon="12.9650267"><ele>468.0</ele><time>2026-04-19T15:53:10.761Z</time></trkpt><trkpt lat="43.4223567" lon="12.96513"><ele>468.0</ele><time>2026-04-19T15:53:14.76Z</time></trkpt><trkpt lat="43.42231" lon="12.96521"><ele>467.99999999999994</ele><time>2026-04-19T15:53:16.761Z</time></trkpt><trkpt lat="43.422185" lon="12.9652467"><ele>467.99999999999994</ele><time>2026-04-19T15:53:19.762Z</time></trkpt><trkpt lat="43.422085" lon="12.96523"><ele>468.0</ele><time>2026-04-19T15:53:21.762Z</time></trkpt><trkpt lat="43.4220217" lon="12.9651933"><ele>468.0</ele><time>2026-04-19T15:53:22.762Z</time></trkpt><trkpt lat="43.42195" lon="12.965135"><ele>468.0</ele><time>2026-04-19T15:53:23.762Z</time></trkpt><trkpt lat="43.4218667" lon="12.9650617"><ele>468.0</ele><time>2026-04-19T15:53:24.762Z</time></trkpt><trkpt lat="43.421765" lon="12.964985"><ele>468.0</ele><time>2026-04-19T15:53:25.76Z</time></trkpt><trkpt lat="43.4216417" lon="12.96492"><ele>468.0</ele><time>2026-04-19T15:53:26.763Z</time></trkpt><trkpt lat="43.4215083" lon="12.9648967"><ele>468.0</ele><time>2026-04-19T15:53:27.761Z</time></trkpt><trkpt lat="43.4213583" lon="12.9648967"><ele>468.0</ele><time>2026-04-19T15:53:28.76Z</time></trkpt><trkpt lat="43.4212033" lon="12.9649083"><ele>468.0</ele><time>2026-04-19T15:53:29.76Z</time></trkpt><trkpt lat="43.4210467" lon="12.9649283"><ele>467.0</ele><time>2026-04-19T15:53:30.761Z</time></trkpt><trkpt lat="43.420885" lon="12.9649783"><ele>466.0</ele><time>2026-04-19T15:53:31.76Z</time></trkpt><trkpt lat="43.4207317" lon="12.9650383"><ele>465.0</ele><time>2026-04-19T15:53:32.761Z</time></trkpt><trkpt lat="43.420595" lon="12.9650917"><ele>456.5</ele><time>2026-04-19T15:53:33.76Z</time></trkpt><trkpt lat="43.4204717" lon="12.9651317"><ele>448.0</ele><time>2026-04-19T15:53:34.761Z</time></trkpt><trkpt lat="43.420355" lon="12.9651633"><ele>439.5</ele><time>2026-04-19T15:53:35.761Z</time></trkpt><trkpt lat="43.4202383" lon="12.965185"><ele>431.0</ele><time>2026-04-19T15:53:36.76Z</time></trkpt><trkpt lat="43.42012" lon="12.965205"><ele>431.0</ele><time>2026-04-19T15:53:37.76Z</time></trkpt><trkpt lat="43.42" lon="12.9652167"><ele>431.0</ele><time>2026-04-19T15:53:38.763Z</time></trkpt><trkpt lat="43.4198833" lon="12.9652183"><ele>431.0</ele><time>2026-04-19T15:53:39.76Z</time></trkpt><trkpt lat="43.4197667" lon="12.9652133"><ele>431.0</ele><time>2026-04-19T15:53:40.76Z</time></trkpt><trkpt lat="43.419645" lon="12.9652067"><ele>429.5</ele><time>2026-04-19T15:53:41.761Z</time></trkpt><trkpt lat="43.419515" lon="12.9652067"><ele>428.0</ele><time>2026-04-19T15:53:42.76Z</time></trkpt><trkpt lat="43.4193817" lon="12.9652067"><ele>426.5</ele><time>2026-04-19T15:53:43.762Z</time></trkpt><trkpt lat="43.419245" lon="12.9652083"><ele>425.0</ele><time>2026-04-19T15:53:44.761Z</time></trkpt><trkpt lat="43.4191083" lon="12.9652067"><ele>425.0</ele><time>2026-04-19T15:53:45.76Z</time></trkpt><trkpt lat="43.41898" lon="12.96519"><ele>425.0</ele><time>2026-04-19T15:53:46.76Z</time></trkpt><trkpt lat="43.4188667" lon="12.965145"><ele>425.0</ele><time>2026-04-19T15:53:47.766Z</time></trkpt><trkpt lat="43.4187667" lon="12.965075"><ele>425.0</ele><time>2026-04-19T15:53:48.763Z</time></trkpt><trkpt lat="43.418665" lon="12.964975"><ele>428.5</ele><time>2026-04-19T15:53:49.765Z</time></trkpt><trkpt lat="43.4185683" lon="12.9648567"><ele>432.0</ele><time>2026-04-19T15:53:50.762Z</time></trkpt><trkpt lat="43.4184783" lon="12.9647483"><ele>435.5</ele><time>2026-04-19T15:53:51.763Z</time></trkpt><trkpt lat="43.4183817" lon="12.96467"><ele>439.0</ele><time>2026-04-19T15:53:52.762Z</time></trkpt><trkpt lat="43.4182783" lon="12.964625"><ele>439.0</ele><time>2026-04-19T15:53:53.762Z</time></trkpt><trkpt lat="43.4181733" lon="12.9646267"><ele>439.0</ele><time>2026-04-19T15:53:54.761Z</time></trkpt><trkpt lat="43.4180633" lon="12.96467"><ele>439.0</ele><time>2026-04-19T15:53:55.76Z</time></trkpt><trkpt lat="43.41795" lon="12.9647483"><ele>439.0</ele><time>2026-04-19T15:53:56.762Z</time></trkpt><trkpt lat="43.4178233" lon="12.9648433"><ele>440.33333333333337</ele><time>2026-04-19T15:53:57.762Z</time></trkpt><trkpt lat="43.4176833" lon="12.9649333"><ele>441.66666666666663</ele><time>2026-04-19T15:53:58.76Z</time></trkpt><trkpt lat="43.4175233" lon="12.9650067"><ele>443.0</ele><time>2026-04-19T15:53:59.76Z</time></trkpt><trkpt lat="43.4173583" lon="12.9650567"><ele>434.75</ele><time>2026-04-19T15:54:00.76Z</time></trkpt><trkpt lat="43.4172083" lon="12.9651"><ele>426.5</ele><time>2026-04-19T15:54:01.762Z</time></trkpt><trkpt lat="43.4170783" lon="12.96514"><ele>418.25</ele><time>2026-04-19T15:54:02.761Z</time></trkpt><trkpt lat="43.4169733" lon="12.9651783"><ele>410.0</ele><time>2026-04-19T15:54:03.76Z</time></trkpt><trkpt lat="43.41688" lon="12.96518"><ele>409.5</ele><time>2026-04-19T15:54:04.762Z</time></trkpt><trkpt lat="43.4167817" lon="12.96514"><ele>409.0</ele><time>2026-04-19T15:54:05.76Z</time></trkpt><trkpt lat="43.4166917" lon="12.9650417"><ele>408.5</ele><time>2026-04-19T15:54:06.76Z</time></trkpt><trkpt lat="43.4166183" lon="12.9648967"><ele>408.0</ele><time>2026-04-19T15:54:07.762Z</time></trkpt><trkpt lat="43.4165567" lon="12.9647083"><ele>408.25</ele><time>2026-04-19T15:54:08.762Z</time></trkpt><trkpt lat="43.4165017" lon="12.9645067"><ele>408.5</ele><time>2026-04-19T15:54:09.761Z</time></trkpt><trkpt lat="43.4164383" lon="12.9643217"><ele>408.75</ele><time>2026-04-19T15:54:10.761Z</time></trkpt><trkpt lat="43.41638" lon="12.9641533"><ele>409.0</ele><time>2026-04-19T15:54:11.761Z</time></trkpt><trkpt lat="43.4163133" lon="12.9639983"><ele>409.0</ele><time>2026-04-19T15:54:12.76Z</time></trkpt><trkpt lat="43.4162367" lon="12.96386"><ele>409.0</ele><time>2026-04-19T15:54:13.762Z</time></trkpt><trkpt lat="43.4161267" lon="12.9637367"><ele>409.0</ele><time>2026-04-19T15:54:14.76Z</time></trkpt><trkpt lat="43.415975" lon="12.9636367"><ele>409.0</ele><time>2026-04-19T15:54:15.761Z</time></trkpt><trkpt lat="43.4158" lon="12.9635417"><ele>409.0</ele><time>2026-04-19T15:54:16.761Z</time></trkpt><trkpt lat="43.4156283" lon="12.9634517"><ele>409.0</ele><time>2026-04-19T15:54:17.76Z</time></trkpt><trkpt lat="43.415465" lon="12.9633833"><ele>409.0</ele><time>2026-04-19T15:54:18.76Z</time></trkpt><trkpt lat="43.4153167" lon="12.9633283"><ele>406.5</ele><time>2026-04-19T15:54:19.761Z</time></trkpt><trkpt lat="43.41518" lon="12.9633017"><ele>404.0</ele><time>2026-04-19T15:54:20.763Z</time></trkpt><trkpt lat="43.415045" lon="12.9633033"><ele>401.5</ele><time>2026-04-19T15:54:21.76Z</time></trkpt><trkpt lat="43.4149083" lon="12.96335"><ele>399.0</ele><time>2026-04-19T15:54:22.76Z</time></trkpt><trkpt lat="43.4147783" lon="12.9634217"><ele>399.0</ele><time>2026-04-19T15:54:23.76Z</time></trkpt><trkpt lat="43.4146683" lon="12.9635267"><ele>399.0</ele><time>2026-04-19T15:54:24.76Z</time></trkpt><trkpt lat="43.4145783" lon="12.9636583"><ele>399.0</ele><time>2026-04-19T15:54:25.762Z</time></trkpt><trkpt lat="43.4145133" lon="12.963805"><ele>399.0</ele><time>2026-04-19T15:54:26.761Z</time></trkpt><trkpt lat="43.4144533" lon="12.9639417"><ele>400.5</ele><time>2026-04-19T15:54:27.761Z</time></trkpt><trkpt lat="43.4143767" lon="12.9640583"><ele>402.0</ele><time>2026-04-19T15:54:28.76Z</time></trkpt><trkpt lat="43.4142717" lon="12.9641467"><ele>403.5</ele><time>2026-04-19T15:54:29.761Z</time></trkpt><trkpt lat="43.4141633" lon="12.9642183"><ele>405.0</ele><time>2026-04-19T15:54:30.763Z</time></trkpt><trkpt lat="43.4140633" lon="12.964285"><ele>405.0</ele><time>2026-04-19T15:54:31.761Z</time></trkpt><trkpt lat="43.4139817" lon="12.9643783"><ele>405.0</ele><time>2026-04-19T15:54:32.76Z</time></trkpt><trkpt lat="43.4139133" lon="12.964495"><ele>405.0</ele><time>2026-04-19T15:54:33.763Z</time></trkpt><trkpt lat="43.4138583" lon="12.9646483"><ele>405.0</ele><time>2026-04-19T15:54:34.762Z</time></trkpt><trkpt lat="43.4138117" lon="12.9648383"><ele>413.0</ele><time>2026-04-19T15:54:35.761Z</time></trkpt><trkpt lat="43.4137683" lon="12.965045"><ele>421.0</ele><time>2026-04-19T15:54:36.761Z</time></trkpt><trkpt lat="43.4137233" lon="12.965255"><ele>429.0</ele><time>2026-04-19T15:54:37.76Z</time></trkpt><trkpt lat="43.4136833" lon="12.9654517"><ele>429.0</ele><time>2026-04-19T15:54:38.76Z</time></trkpt><trkpt lat="43.41364" lon="12.9656333"><ele>429.0</ele><time>2026-04-19T15:54:39.763Z</time></trkpt><trkpt lat="43.4135867" lon="12.9658067"><ele>429.0</ele><time>2026-04-19T15:54:40.762Z</time></trkpt><trkpt lat="43.4135217" lon="12.9659767"><ele>429.0</ele><time>2026-04-19T15:54:41.76Z</time></trkpt><trkpt lat="43.413445" lon="12.9661383"><ele>424.25</ele><time>2026-04-19T15:54:42.761Z</time></trkpt><trkpt lat="43.4133583" lon="12.9662883"><ele>419.5</ele><time>2026-04-19T15:54:43.762Z</time></trkpt><trkpt lat="43.413265" lon="12.9664267"><ele>414.75</ele><time>2026-04-19T15:54:44.762Z</time></trkpt><trkpt lat="43.4131733" lon="12.966555"><ele>410.0</ele><time>2026-04-19T15:54:45.761Z</time></trkpt><trkpt lat="43.4130833" lon="12.9666833"><ele>409.75</ele><time>2026-04-19T15:54:46.76Z</time></trkpt><trkpt lat="43.4130033" lon="12.9668183"><ele>409.5</ele><time>2026-04-19T15:54:47.76Z</time></trkpt><trkpt lat="43.41294" lon="12.9669633"><ele>409.25</ele><time>2026-04-19T15:54:48.761Z</time></trkpt><trkpt lat="43.412895" lon="12.9671117"><ele>409.0</ele><time>2026-04-19T15:54:49.76Z</time></trkpt><trkpt lat="43.4128583" lon="12.9672617"><ele>409.00000000000006</ele><time>2026-04-19T15:54:50.761Z</time></trkpt><trkpt lat="43.4128367" lon="12.967395"><ele>409.0</ele><time>2026-04-19T15:54:51.761Z</time></trkpt><trkpt lat="43.4128217" lon="12.9675067"><ele>409.0</ele><time>2026-04-19T15:54:52.76Z</time></trkpt><trkpt lat="43.4128083" lon="12.9676"><ele>409.0</ele><time>2026-04-19T15:54:53.761Z</time></trkpt><trkpt lat="43.4127483" lon="12.96774"><ele>409.00000000000006</ele><time>2026-04-19T15:54:55.76Z</time></trkpt><trkpt lat="43.4126867" lon="12.9677883"><ele>409.0</ele><time>2026-04-19T15:54:56.761Z</time></trkpt><trkpt lat="43.41259" lon="12.96781"><ele>402.75</ele><time>2026-04-19T15:54:57.76Z</time></trkpt><trkpt lat="43.412455" lon="12.9678133"><ele>396.5</ele><time>2026-04-19T15:54:58.76Z</time></trkpt><trkpt lat="43.4123067" lon="12.9678133"><ele>390.25</ele><time>2026-04-19T15:54:59.761Z</time></trkpt><trkpt lat="43.4121633" lon="12.96781"><ele>384.0</ele><time>2026-04-19T15:55:00.761Z</time></trkpt><trkpt lat="43.4120333" lon="12.9678"><ele>382.6666666666667</ele><time>2026-04-19T15:55:01.761Z</time></trkpt><trkpt lat="43.4119183" lon="12.96778"><ele>381.3333333333333</ele><time>2026-04-19T15:55:02.762Z</time></trkpt><trkpt lat="43.4118217" lon="12.967745"><ele>380.0</ele><time>2026-04-19T15:55:03.761Z</time></trkpt><trkpt lat="43.4117467" lon="12.967715"><ele>378.66666666666663</ele><time>2026-04-19T15:55:04.761Z</time></trkpt><trkpt lat="43.4116833" lon="12.9677017"><ele>377.3333333333333</ele><time>2026-04-19T15:55:05.76Z</time></trkpt><trkpt lat="43.4116183" lon="12.9677817"><ele>376.0</ele><time>2026-04-19T15:55:07.761Z</time></trkpt><trkpt lat="43.411665" lon="12.9679017"><ele>376.0</ele><time>2026-04-19T15:55:09.76Z</time></trkpt><trkpt lat="43.4117283" lon="12.9679483"><ele>376.0</ele><time>2026-04-19T15:55:10.761Z</time></trkpt><trkpt lat="43.4118433" lon="12.967975"><ele>376.0</ele><time>2026-04-19T15:55:11.76Z</time></trkpt><trkpt lat="43.4119683" lon="12.9680067"><ele>376.0</ele><time>2026-04-19T15:55:12.761Z</time></trkpt><trkpt lat="43.4121033" lon="12.9680583"><ele>378.0</ele><time>2026-04-19T15:55:13.761Z</time></trkpt><trkpt lat="43.4122383" lon="12.9681367"><ele>380.0</ele><time>2026-04-19T15:55:14.76Z</time></trkpt><trkpt lat="43.4123667" lon="12.968225"><ele>382.0</ele><time>2026-04-19T15:55:15.76Z</time></trkpt><trkpt lat="43.41249" lon="12.96831"><ele>384.0</ele><time>2026-04-19T15:55:16.761Z</time></trkpt><trkpt lat="43.4126" lon="12.9683883"><ele>380.3333333333333</ele><time>2026-04-19T15:55:17.762Z</time></trkpt><trkpt lat="43.4127" lon="12.9684483"><ele>376.6666666666667</ele><time>2026-04-19T15:55:18.763Z</time></trkpt><trkpt lat="43.412775" lon="12.9685"><ele>373.0</ele><time>2026-04-19T15:55:19.761Z</time></trkpt><trkpt lat="43.4128267" lon="12.9685533"><ele>369.33333333333337</ele><time>2026-04-19T15:55:20.76Z</time></trkpt><trkpt lat="43.4128633" lon="12.9686717"><ele>365.6666666666667</ele><time>2026-04-19T15:55:22.76Z</time></trkpt><trkpt lat="43.4128017" lon="12.9687517"><ele>362.0</ele><time>2026-04-19T15:55:24.761Z</time></trkpt><trkpt lat="43.4126733" lon="12.9687283"><ele>362.0</ele><time>2026-04-19T15:55:26.761Z</time></trkpt><trkpt lat="43.412575" lon="12.9686667"><ele>362.0</ele><time>2026-04-19T15:55:27.762Z</time></trkpt><trkpt lat="43.41244" lon="12.9685817"><ele>362.0</ele><time>2026-04-19T15:55:28.76Z</time></trkpt><trkpt lat="43.4123183" lon="12.9685133"><ele>362.0</ele><time>2026-04-19T15:55:29.761Z</time></trkpt><trkpt lat="43.4121983" lon="12.9684633"><ele>359.6</ele><time>2026-04-19T15:55:30.763Z</time></trkpt><trkpt lat="43.41209" lon="12.9684433"><ele>357.20000000000005</ele><time>2026-04-19T15:55:31.761Z</time></trkpt><trkpt lat="43.4119833" lon="12.9684483"><ele>354.8</ele><time>2026-04-19T15:55:32.761Z</time></trkpt><trkpt lat="43.41188" lon="12.9684667"><ele>352.4</ele><time>2026-04-19T15:55:33.761Z</time></trkpt><trkpt lat="43.4117767" lon="12.96849"><ele>350.0</ele><time>2026-04-19T15:55:34.76Z</time></trkpt><trkpt lat="43.4116767" lon="12.9685117"><ele>350.0</ele><time>2026-04-19T15:55:35.76Z</time></trkpt><trkpt lat="43.4115817" lon="12.9685417"><ele>350.0</ele><time>2026-04-19T15:55:36.76Z</time></trkpt><trkpt lat="43.4114867" lon="12.968575"><ele>350.0</ele><time>2026-04-19T15:55:37.76Z</time></trkpt><trkpt lat="43.411395" lon="12.968615"><ele>350.0</ele><time>2026-04-19T15:55:38.763Z</time></trkpt><trkpt lat="43.411305" lon="12.968675"><ele>350.0</ele><time>2026-04-19T15:55:39.761Z</time></trkpt><trkpt lat="43.4112183" lon="12.9687483"><ele>350.33333333333337</ele><time>2026-04-19T15:55:40.762Z</time></trkpt><trkpt lat="43.41114" lon="12.9688267"><ele>350.6666666666667</ele><time>2026-04-19T15:55:41.762Z</time></trkpt><trkpt lat="43.41107" lon="12.968915"><ele>351.0</ele><time>2026-04-19T15:55:42.76Z</time></trkpt><trkpt lat="43.4110117" lon="12.9690083"><ele>351.3333333333333</ele><time>2026-04-19T15:55:43.761Z</time></trkpt><trkpt lat="43.4109617" lon="12.9691017"><ele>351.66666666666663</ele><time>2026-04-19T15:55:44.761Z</time></trkpt><trkpt lat="43.4109183" lon="12.9692"><ele>352.0</ele><time>2026-04-19T15:55:45.76Z</time></trkpt><trkpt lat="43.4108783" lon="12.9692983"><ele>352.0</ele><time>2026-04-19T15:55:46.76Z</time></trkpt><trkpt lat="43.41084" lon="12.96939"><ele>352.0</ele><time>2026-04-19T15:55:47.76Z</time></trkpt><trkpt lat="43.4107983" lon="12.9694767"><ele>352.0</ele><time>2026-04-19T15:55:48.761Z</time></trkpt><trkpt lat="43.4107517" lon="12.9695583"><ele>352.0</ele><time>2026-04-19T15:55:49.761Z</time></trkpt><trkpt lat="43.4106983" lon="12.9696367"><ele>352.0</ele><time>2026-04-19T15:55:50.761Z</time></trkpt><trkpt lat="43.4106383" lon="12.969715"><ele>352.0</ele><time>2026-04-19T15:55:51.761Z</time></trkpt><trkpt lat="43.4105783" lon="12.9697917"><ele>352.0</ele><time>2026-04-19T15:55:52.76Z</time></trkpt><trkpt lat="43.4105233" lon="12.9698767"><ele>352.0</ele><time>2026-04-19T15:55:53.761Z</time></trkpt><trkpt lat="43.4104717" lon="12.9699567"><ele>352.0</ele><time>2026-04-19T15:55:54.764Z</time></trkpt><trkpt lat="43.410425" lon="12.970025"><ele>352.0</ele><time>2026-04-19T15:55:55.76Z</time></trkpt><trkpt lat="43.4103333" lon="12.9701433"><ele>352.0</ele><time>2026-04-19T15:55:57.764Z</time></trkpt><trkpt lat="43.4102467" lon="12.9702533"><ele>355.6</ele><time>2026-04-19T15:55:59.762Z</time></trkpt><trkpt lat="43.4101933" lon="12.970405"><ele>359.20000000000005</ele><time>2026-04-19T15:56:01.761Z</time></trkpt><trkpt lat="43.4101567" lon="12.9705533"><ele>362.8</ele><time>2026-04-19T15:56:03.762Z</time></trkpt><trkpt lat="43.410075" lon="12.970645"><ele>366.4</ele><time>2026-04-19T15:56:05.762Z</time></trkpt><trkpt lat="43.4100067" lon="12.9706733"><ele>370.0</ele><time>2026-04-19T15:56:06.761Z</time></trkpt><trkpt lat="43.40993" lon="12.9707033"><ele>370.0</ele><time>2026-04-19T15:56:07.761Z</time></trkpt><trkpt lat="43.4098433" lon="12.9707283"><ele>370.0</ele><time>2026-04-19T15:56:08.761Z</time></trkpt><trkpt lat="43.4097467" lon="12.970795"><ele>370.0</ele><time>2026-04-19T15:56:09.762Z</time></trkpt><trkpt lat="43.409645" lon="12.9708733"><ele>370.0</ele><time>2026-04-19T15:56:10.762Z</time></trkpt><trkpt lat="43.4095417" lon="12.9709483"><ele>370.0</ele><time>2026-04-19T15:56:11.764Z</time></trkpt><trkpt lat="43.4094333" lon="12.97102"><ele>371.66666666666663</ele><time>2026-04-19T15:56:12.763Z</time></trkpt><trkpt lat="43.4092967" lon="12.9710883"><ele>373.3333333333333</ele><time>2026-04-19T15:56:13.762Z</time></trkpt><trkpt lat="43.4091167" lon="12.97115"><ele>375.0</ele><time>2026-04-19T15:56:14.764Z</time></trkpt><trkpt lat="43.40892" lon="12.9712067"><ele>369.3333333333333</ele><time>2026-04-19T15:56:15.761Z</time></trkpt><trkpt lat="43.4087317" lon="12.9712617"><ele>363.66666666666663</ele><time>2026-04-19T15:56:16.761Z</time></trkpt><trkpt lat="43.40855" lon="12.97132"><ele>358.0</ele><time>2026-04-19T15:56:17.76Z</time></trkpt><trkpt lat="43.40838" lon="12.9713733"><ele>358.0</ele><time>2026-04-19T15:56:18.76Z</time></trkpt><trkpt lat="43.4082167" lon="12.9714317"><ele>358.0</ele><time>2026-04-19T15:56:19.76Z</time></trkpt><trkpt lat="43.4080617" lon="12.971495"><ele>358.0</ele><time>2026-04-19T15:56:20.762Z</time></trkpt><trkpt lat="43.40791" lon="12.971565"><ele>358.75</ele><time>2026-04-19T15:56:21.761Z</time></trkpt><trkpt lat="43.4077633" lon="12.9716367"><ele>359.5</ele><time>2026-04-19T15:56:22.762Z</time></trkpt><trkpt lat="43.4076267" lon="12.9717033"><ele>360.25</ele><time>2026-04-19T15:56:23.762Z</time></trkpt><trkpt lat="43.4074967" lon="12.9717883"><ele>361.0</ele><time>2026-04-19T15:56:24.761Z</time></trkpt><trkpt lat="43.4073717" lon="12.9718867"><ele>361.0</ele><time>2026-04-19T15:56:25.762Z</time></trkpt><trkpt lat="43.4072467" lon="12.9720017"><ele>361.0</ele><time>2026-04-19T15:56:26.761Z</time></trkpt><trkpt lat="43.4071167" lon="12.9721317"><ele>361.0</ele><time>2026-04-19T15:56:27.762Z</time></trkpt><trkpt lat="43.4069817" lon="12.9722667"><ele>358.3333333333333</ele><time>2026-04-19T15:56:28.76Z</time></trkpt><trkpt lat="43.4068483" lon="12.9723967"><ele>355.6666666666667</ele><time>2026-04-19T15:56:29.763Z</time></trkpt><trkpt lat="43.406725" lon="12.9725233"><ele>353.0</ele><time>2026-04-19T15:56:30.763Z</time></trkpt><trkpt lat="43.406605" lon="12.9726533"><ele>353.0</ele><time>2026-04-19T15:56:31.761Z</time></trkpt><trkpt lat="43.4064817" lon="12.9727867"><ele>353.0</ele><time>2026-04-19T15:56:32.762Z</time></trkpt><trkpt lat="43.40635" lon="12.9729133"><ele>353.0</ele><time>2026-04-19T15:56:33.762Z</time></trkpt><trkpt lat="43.4062183" lon="12.9730183"><ele>348.25</ele><time>2026-04-19T15:56:34.761Z</time></trkpt><trkpt lat="43.4060933" lon="12.9731083"><ele>343.5</ele><time>2026-04-19T15:56:35.762Z</time></trkpt><trkpt lat="43.4059783" lon="12.9731883"><ele>338.75</ele><time>2026-04-19T15:56:36.763Z</time></trkpt><trkpt lat="43.405875" lon="12.9732667"><ele>334.0</ele><time>2026-04-19T15:56:37.761Z</time></trkpt><trkpt lat="43.4057817" lon="12.9733417"><ele>333.0</ele><time>2026-04-19T15:56:38.761Z</time></trkpt><trkpt lat="43.405705" lon="12.9734167"><ele>332.0</ele><time>2026-04-19T15:56:39.761Z</time></trkpt><trkpt lat="43.4056333" lon="12.9734867"><ele>331.0</ele><time>2026-04-19T15:56:40.761Z</time></trkpt><trkpt lat="43.405575" lon="12.9735417"><ele>330.0</ele><time>2026-04-19T15:56:41.763Z</time></trkpt><trkpt lat="43.4054917" lon="12.9735833"><ele>329.0</ele><time>2026-04-19T15:56:43.76Z</time></trkpt><trkpt lat="43.40547" lon="12.97348"><ele>328.0</ele><time>2026-04-19T15:56:46.762Z</time></trkpt><trkpt lat="43.4055667" lon="12.97337"><ele>329.5</ele><time>2026-04-19T15:56:48.761Z</time></trkpt><trkpt lat="43.4056333" lon="12.9732967"><ele>331.0</ele><time>2026-04-19T15:56:49.76Z</time></trkpt><trkpt lat="43.4057117" lon="12.9732167"><ele>332.5</ele><time>2026-04-19T15:56:50.76Z</time></trkpt><trkpt lat="43.4058183" lon="12.973125"><ele>334.0</ele><time>2026-04-19T15:56:51.761Z</time></trkpt><trkpt lat="43.4059383" lon="12.9730117"><ele>334.0</ele><time>2026-04-19T15:56:52.762Z</time></trkpt><trkpt lat="43.406055" lon="12.97289"><ele>334.0</ele><time>2026-04-19T15:56:53.76Z</time></trkpt><trkpt lat="43.4061767" lon="12.972755"><ele>334.0</ele><time>2026-04-19T15:56:54.761Z</time></trkpt><trkpt lat="43.4063083" lon="12.9725917"><ele>335.3333333333333</ele><time>2026-04-19T15:56:55.762Z</time></trkpt><trkpt lat="43.40644" lon="12.9724117"><ele>336.6666666666667</ele><time>2026-04-19T15:56:56.762Z</time></trkpt><trkpt lat="43.4065617" lon="12.972235"><ele>338.0</ele><time>2026-04-19T15:56:57.761Z</time></trkpt><trkpt lat="43.40667" lon="12.97206"><ele>338.0</ele><time>2026-04-19T15:56:58.761Z</time></trkpt><trkpt lat="43.4067733" lon="12.9718983"><ele>338.0</ele><time>2026-04-19T15:56:59.762Z</time></trkpt><trkpt lat="43.4068633" lon="12.9717433"><ele>338.0</ele><time>2026-04-19T15:57:00.762Z</time></trkpt><trkpt lat="43.4069433" lon="12.9715917"><ele>338.0</ele><time>2026-04-19T15:57:01.762Z</time></trkpt><trkpt lat="43.4070183" lon="12.9714483"><ele>338.0</ele><time>2026-04-19T15:57:02.762Z</time></trkpt><trkpt lat="43.4070883" lon="12.9713117"><ele>338.0</ele><time>2026-04-19T15:57:03.761Z</time></trkpt><trkpt lat="43.40716" lon="12.97118"><ele>338.0</ele><time>2026-04-19T15:57:04.762Z</time></trkpt><trkpt lat="43.4072417" lon="12.9710567"><ele>338.0</ele><time>2026-04-19T15:57:05.762Z</time></trkpt><trkpt lat="43.4073333" lon="12.9709417"><ele>330.25</ele><time>2026-04-19T15:57:06.766Z</time></trkpt><trkpt lat="43.40744" lon="12.9708367"><ele>322.5</ele><time>2026-04-19T15:57:07.763Z</time></trkpt><trkpt lat="43.4075683" lon="12.97074"><ele>314.75</ele><time>2026-04-19T15:57:08.764Z</time></trkpt><trkpt lat="43.4077083" lon="12.9706383"><ele>307.0</ele><time>2026-04-19T15:57:09.762Z</time></trkpt><trkpt lat="43.40785" lon="12.9705383"><ele>307.0</ele><time>2026-04-19T15:57:10.761Z</time></trkpt><trkpt lat="43.4079883" lon="12.97045"><ele>307.0</ele><time>2026-04-19T15:57:11.761Z</time></trkpt><trkpt lat="43.4081217" lon="12.9703717"><ele>307.0</ele><time>2026-04-19T15:57:12.761Z</time></trkpt><trkpt lat="43.40825" lon="12.9703167"><ele>307.0</ele><time>2026-04-19T15:57:13.762Z</time></trkpt><trkpt lat="43.4083667" lon="12.9702817"><ele>305.5</ele><time>2026-04-19T15:57:14.762Z</time></trkpt><trkpt lat="43.4084683" lon="12.9702533"><ele>304.0</ele><time>2026-04-19T15:57:15.761Z</time></trkpt><trkpt lat="43.4085517" lon="12.97022"><ele>302.5</ele><time>2026-04-19T15:57:16.761Z</time></trkpt><trkpt lat="43.4086233" lon="12.9701817"><ele>301.0</ele><time>2026-04-19T15:57:17.761Z</time></trkpt><trkpt lat="43.4086783" lon="12.9701333"><ele>299.5</ele><time>2026-04-19T15:57:18.761Z</time></trkpt><trkpt lat="43.408715" lon="12.9700183"><ele>298.0</ele><time>2026-04-19T15:57:20.761Z</time></trkpt><trkpt lat="43.40866" lon="12.9699417"><ele>298.0</ele><time>2026-04-19T15:57:21.761Z</time></trkpt><trkpt lat="43.4085833" lon="12.9699067"><ele>298.0</ele><time>2026-04-19T15:57:22.762Z</time></trkpt><trkpt lat="43.40852" lon="12.9698933"><ele>298.0</ele><time>2026-04-19T15:57:23.762Z</time></trkpt><trkpt lat="43.4084217" lon="12.96994"><ele>298.0</ele><time>2026-04-19T15:57:24.762Z</time></trkpt><trkpt lat="43.4082983" lon="12.970005"><ele>298.0</ele><time>2026-04-19T15:57:25.762Z</time></trkpt><trkpt lat="43.4081217" lon="12.9701167"><ele>301.0</ele><time>2026-04-19T15:57:26.763Z</time></trkpt><trkpt lat="43.4079217" lon="12.9702083"><ele>304.0</ele><time>2026-04-19T15:57:27.762Z</time></trkpt><trkpt lat="43.40773" lon="12.9702733"><ele>307.0</ele><time>2026-04-19T15:57:28.762Z</time></trkpt><trkpt lat="43.40755" lon="12.9703367"><ele>307.0</ele><time>2026-04-19T15:57:29.763Z</time></trkpt><trkpt lat="43.40738" lon="12.9703867"><ele>307.0</ele><time>2026-04-19T15:57:30.763Z</time></trkpt><trkpt lat="43.4072233" lon="12.97042"><ele>307.0</ele><time>2026-04-19T15:57:31.762Z</time></trkpt><trkpt lat="43.4070817" lon="12.970445"><ele>302.0</ele><time>2026-04-19T15:57:32.764Z</time></trkpt><trkpt lat="43.406955" lon="12.9704717"><ele>297.0</ele><time>2026-04-19T15:57:33.762Z</time></trkpt><trkpt lat="43.4068333" lon="12.9705117"><ele>292.0</ele><time>2026-04-19T15:57:34.765Z</time></trkpt><trkpt lat="43.4067083" lon="12.9705917"><ele>287.0</ele><time>2026-04-19T15:57:35.763Z</time></trkpt><trkpt lat="43.4065817" lon="12.9707067"><ele>287.0</ele><time>2026-04-19T15:57:36.761Z</time></trkpt><trkpt lat="43.4064533" lon="12.9708533"><ele>287.0</ele><time>2026-04-19T15:57:37.76Z</time></trkpt><trkpt lat="43.406335" lon="12.9710217"><ele>287.0</ele><time>2026-04-19T15:57:38.76Z</time></trkpt><trkpt lat="43.4062217" lon="12.9711867"><ele>282.33333333333337</ele><time>2026-04-19T15:57:39.761Z</time></trkpt><trkpt lat="43.4061017" lon="12.97135"><ele>277.6666666666667</ele><time>2026-04-19T15:57:40.76Z</time></trkpt><trkpt lat="43.40598" lon="12.9715083"><ele>273.0</ele><time>2026-04-19T15:57:41.761Z</time></trkpt><trkpt lat="43.4058583" lon="12.971655"><ele>272.0</ele><time>2026-04-19T15:57:42.761Z</time></trkpt><trkpt lat="43.4057317" lon="12.9718"><ele>271.0</ele><time>2026-04-19T15:57:43.759Z</time></trkpt><trkpt lat="43.4055967" lon="12.9719417"><ele>270.0</ele><time>2026-04-19T15:57:44.762Z</time></trkpt><trkpt lat="43.4054517" lon="12.97207"><ele>270.0</ele><time>2026-04-19T15:57:45.759Z</time></trkpt><trkpt lat="43.405305" lon="12.9721817"><ele>270.0</ele><time>2026-04-19T15:57:46.761Z</time></trkpt><trkpt lat="43.4051617" lon="12.972285"><ele>270.0</ele><time>2026-04-19T15:57:47.759Z</time></trkpt><trkpt lat="43.40502" lon="12.972385"><ele>270.0</ele><time>2026-04-19T15:57:48.76Z</time></trkpt><trkpt lat="43.40488" lon="12.9724683"><ele>270.0</ele><time>2026-04-19T15:57:49.759Z</time></trkpt><trkpt lat="43.4047333" lon="12.9725367"><ele>270.0</ele><time>2026-04-19T15:57:50.761Z</time></trkpt><trkpt lat="43.4045833" lon="12.9725883"><ele>273.0</ele><time>2026-04-19T15:57:51.759Z</time></trkpt><trkpt lat="43.404435" lon="12.9726333"><ele>276.0</ele><time>2026-04-19T15:57:52.761Z</time></trkpt><trkpt lat="43.4042867" lon="12.97268"><ele>279.0</ele><time>2026-04-19T15:57:53.76Z</time></trkpt><trkpt lat="43.4041383" lon="12.9726933"><ele>279.0</ele><time>2026-04-19T15:57:54.759Z</time></trkpt><trkpt lat="43.4040033" lon="12.9726833"><ele>279.0</ele><time>2026-04-19T15:57:55.759Z</time></trkpt><trkpt lat="43.40388" lon="12.972665"><ele>279.0</ele><time>2026-04-19T15:57:56.761Z</time></trkpt><trkpt lat="43.403765" lon="12.9726633"><ele>279.0</ele><time>2026-04-19T15:57:57.761Z</time></trkpt><trkpt lat="43.4036567" lon="12.9726883"><ele>272.0</ele><time>2026-04-19T15:57:58.761Z</time></trkpt><trkpt lat="43.4035433" lon="12.9727433"><ele>265.0</ele><time>2026-04-19T15:57:59.761Z</time></trkpt><trkpt lat="43.4034183" lon="12.9728417"><ele>258.0</ele><time>2026-04-19T15:58:00.762Z</time></trkpt><trkpt lat="43.4033" lon="12.972965"><ele>251.0</ele><time>2026-04-19T15:58:01.761Z</time></trkpt><trkpt lat="43.4031917" lon="12.9730883"><ele>251.0</ele><time>2026-04-19T15:58:02.76Z</time></trkpt><trkpt lat="43.4030983" lon="12.9731983"><ele>251.00000000000003</ele><time>2026-04-19T15:58:03.76Z</time></trkpt><trkpt lat="43.4030233" lon="12.9733033"><ele>251.00000000000003</ele><time>2026-04-19T15:58:04.76Z</time></trkpt><trkpt lat="43.4029617" lon="12.9734083"><ele>251.0</ele><time>2026-04-19T15:58:05.76Z</time></trkpt><trkpt lat="43.4029167" lon="12.9735167"><ele>251.0</ele><time>2026-04-19T15:58:06.762Z</time></trkpt><trkpt lat="43.4028833" lon="12.973615"><ele>245.83333333333334</ele><time>2026-04-19T15:58:07.761Z</time></trkpt><trkpt lat="43.4028517" lon="12.973695"><ele>240.66666666666669</ele><time>2026-04-19T15:58:08.761Z</time></trkpt><trkpt lat="43.4027733" lon="12.9737917"><ele>235.5</ele><time>2026-04-19T15:58:10.76Z</time></trkpt><trkpt lat="43.402715" lon="12.9737333"><ele>230.33333333333331</ele><time>2026-04-19T15:58:12.76Z</time></trkpt><trkpt lat="43.4027367" lon="12.9735783"><ele>225.16666666666666</ele><time>2026-04-19T15:58:14.762Z</time></trkpt><trkpt lat="43.4027833" lon="12.9734783"><ele>220.0</ele><time>2026-04-19T15:58:15.759Z</time></trkpt><trkpt lat="43.40285" lon="12.9733717"><ele>219.25</ele><time>2026-04-19T15:58:16.76Z</time></trkpt><trkpt lat="43.4029217" lon="12.97322"><ele>218.5</ele><time>2026-04-19T15:58:17.761Z</time></trkpt><trkpt lat="43.4030033" lon="12.9730583"><ele>217.75</ele><time>2026-04-19T15:58:18.76Z</time></trkpt><trkpt lat="43.4030883" lon="12.97291"><ele>217.0</ele><time>2026-04-19T15:58:19.759Z</time></trkpt><trkpt lat="43.4031633" lon="12.9727717"><ele>220.5</ele><time>2026-04-19T15:58:20.76Z</time></trkpt><trkpt lat="43.403235" lon="12.9726417"><ele>224.0</ele><time>2026-04-19T15:58:21.76Z</time></trkpt><trkpt lat="43.40331" lon="12.9725117"><ele>227.5</ele><time>2026-04-19T15:58:22.761Z</time></trkpt><trkpt lat="43.4034017" lon="12.97238"><ele>231.0</ele><time>2026-04-19T15:58:23.76Z</time></trkpt><trkpt lat="43.4035033" lon="12.97225"><ele>231.0</ele><time>2026-04-19T15:58:24.76Z</time></trkpt><trkpt lat="43.4036033" lon="12.972125"><ele>231.0</ele><time>2026-04-19T15:58:25.761Z</time></trkpt><trkpt lat="43.4036983" lon="12.9720033"><ele>231.0</ele><time>2026-04-19T15:58:26.762Z</time></trkpt><trkpt lat="43.403785" lon="12.97188"><ele>231.0</ele><time>2026-04-19T15:58:27.761Z</time></trkpt><trkpt lat="43.403865" lon="12.9717517"><ele>231.20000000000002</ele><time>2026-04-19T15:58:28.761Z</time></trkpt><trkpt lat="43.4039367" lon="12.9716233"><ele>231.40000000000003</ele><time>2026-04-19T15:58:29.76Z</time></trkpt><trkpt lat="43.4040017" lon="12.9714983"><ele>231.6</ele><time>2026-04-19T15:58:30.761Z</time></trkpt><trkpt lat="43.40405" lon="12.9713683"><ele>231.8</ele><time>2026-04-19T15:58:31.76Z</time></trkpt><trkpt lat="43.4040783" lon="12.971225"><ele>232.0</ele><time>2026-04-19T15:58:32.761Z</time></trkpt><trkpt lat="43.404095" lon="12.9710717"><ele>232.0</ele><time>2026-04-19T15:58:33.76Z</time></trkpt><trkpt lat="43.4041017" lon="12.9709167"><ele>232.0</ele><time>2026-04-19T15:58:34.762Z</time></trkpt><trkpt lat="43.4041017" lon="12.97076"><ele>232.0</ele><time>2026-04-19T15:58:35.761Z</time></trkpt><trkpt lat="43.4041" lon="12.9706067"><ele>232.0</ele><time>2026-04-19T15:58:36.762Z</time></trkpt><trkpt lat="43.4041" lon="12.9704717"><ele>232.0</ele><time>2026-04-19T15:58:37.762Z</time></trkpt><trkpt lat="43.4041017" lon="12.970355"><ele>229.8</ele><time>2026-04-19T15:58:38.762Z</time></trkpt><trkpt lat="43.4041017" lon="12.970255"><ele>227.6</ele><time>2026-04-19T15:58:39.76Z</time></trkpt><trkpt lat="43.4040733" lon="12.9701083"><ele>225.40000000000003</ele><time>2026-04-19T15:58:41.761Z</time></trkpt><trkpt lat="43.4039933" lon="12.9700217"><ele>223.20000000000002</ele><time>2026-04-19T15:58:43.76Z</time></trkpt><trkpt lat="43.40387" lon="12.9701"><ele>221.0</ele><time>2026-04-19T15:58:45.76Z</time></trkpt><trkpt lat="43.4038133" lon="12.9701783"><ele>220.0</ele><time>2026-04-19T15:58:46.759Z</time></trkpt><trkpt lat="43.4037633" lon="12.9703033"><ele>219.00000000000003</ele><time>2026-04-19T15:58:47.76Z</time></trkpt><trkpt lat="43.4037183" lon="12.9704583"><ele>218.00000000000003</ele><time>2026-04-19T15:58:48.761Z</time></trkpt><trkpt lat="43.4036767" lon="12.9705967"><ele>217.0</ele><time>2026-04-19T15:58:49.761Z</time></trkpt><trkpt lat="43.4036383" lon="12.970745"><ele>216.0</ele><time>2026-04-19T15:58:50.761Z</time></trkpt><trkpt lat="43.403585" lon="12.9708717"><ele>216.0</ele><time>2026-04-19T15:58:51.761Z</time></trkpt><trkpt lat="43.4035117" lon="12.9709667"><ele>216.00000000000003</ele><time>2026-04-19T15:58:52.76Z</time></trkpt><trkpt lat="43.4034267" lon="12.9710383"><ele>216.00000000000003</ele><time>2026-04-19T15:58:53.761Z</time></trkpt><trkpt lat="43.4033417" lon="12.9710867"><ele>216.0</ele><time>2026-04-19T15:58:54.761Z</time></trkpt><trkpt lat="43.4032633" lon="12.9711183"><ele>216.0</ele><time>2026-04-19T15:58:55.76Z</time></trkpt><trkpt lat="43.403185" lon="12.9711417"><ele>216.0</ele><time>2026-04-19T15:58:56.761Z</time></trkpt><trkpt lat="43.403115" lon="12.9711517"><ele>216.0</ele><time>2026-04-19T15:58:57.76Z</time></trkpt><trkpt lat="43.4030117" lon="12.9711517"><ele>216.0</ele><time>2026-04-19T15:58:59.762Z</time></trkpt><trkpt lat="43.4029433" lon="12.9711517"><ele>216.0</ele><time>2026-04-19T15:59:02.761Z</time></trkpt><trkpt lat="43.4029017" lon="12.9712183"><ele>216.0</ele><time>2026-04-19T15:59:04.76Z</time></trkpt><trkpt lat="43.4028483" lon="12.9713467"><ele>216.0</ele><time>2026-04-19T15:59:06.762Z</time></trkpt><trkpt lat="43.4027767" lon="12.971485"><ele>214.16666666666666</ele><time>2026-04-19T15:59:08.761Z</time></trkpt><trkpt lat="43.4027467" lon="12.9715683"><ele>212.33333333333331</ele><time>2026-04-19T15:59:09.762Z</time></trkpt><trkpt lat="43.402725" lon="12.9716667"><ele>210.5</ele><time>2026-04-19T15:59:10.761Z</time></trkpt><trkpt lat="43.40271" lon="12.971775"><ele>208.66666666666666</ele><time>2026-04-19T15:59:11.762Z</time></trkpt><trkpt lat="43.4027017" lon="12.9719033"><ele>206.83333333333331</ele><time>2026-04-19T15:59:12.761Z</time></trkpt><trkpt lat="43.402685" lon="12.9720483"><ele>205.0</ele><time>2026-04-19T15:59:13.761Z</time></trkpt><trkpt lat="43.4026633" lon="12.9722033"><ele>205.0</ele><time>2026-04-19T15:59:14.76Z</time></trkpt><trkpt lat="43.402635" lon="12.9723633"><ele>205.0</ele><time>2026-04-19T15:59:15.761Z</time></trkpt><trkpt lat="43.4026033" lon="12.9725217"><ele>205.0</ele><time>2026-04-19T15:59:16.761Z</time></trkpt><trkpt lat="43.4025783" lon="12.972665"><ele>205.0</ele><time>2026-04-19T15:59:17.762Z</time></trkpt><trkpt lat="43.4025483" lon="12.9727933"><ele>205.0</ele><time>2026-04-19T15:59:18.762Z</time></trkpt><trkpt lat="43.4025133" lon="12.972915"><ele>206.8</ele><time>2026-04-19T15:59:19.762Z</time></trkpt><trkpt lat="43.402465" lon="12.9730367"><ele>208.6</ele><time>2026-04-19T15:59:20.76Z</time></trkpt><trkpt lat="43.402405" lon="12.973155"><ele>210.39999999999998</ele><time>2026-04-19T15:59:21.761Z</time></trkpt><trkpt lat="43.4023283" lon="12.973255"><ele>212.2</ele><time>2026-04-19T15:59:22.761Z</time></trkpt><trkpt lat="43.40224" lon="12.9733467"><ele>214.0</ele><time>2026-04-19T15:59:23.761Z</time></trkpt><trkpt lat="43.402155" lon="12.9734283"><ele>213.99999999999997</ele><time>2026-04-19T15:59:24.762Z</time></trkpt><trkpt lat="43.4020733" lon="12.9734983"><ele>214.0</ele><time>2026-04-19T15:59:25.763Z</time></trkpt><trkpt lat="43.4019967" lon="12.973555"><ele>214.0</ele><time>2026-04-19T15:59:26.762Z</time></trkpt><trkpt lat="43.4019233" lon="12.9736067"><ele>214.0</ele><time>2026-04-19T15:59:27.762Z</time></trkpt><trkpt lat="43.4018467" lon="12.9736417"><ele>213.99999999999997</ele><time>2026-04-19T15:59:28.76Z</time></trkpt><trkpt lat="43.401775" lon="12.9736417"><ele>214.0</ele><time>2026-04-19T15:59:29.762Z</time></trkpt><trkpt lat="43.4016633" lon="12.9736083"><ele>214.0</ele><time>2026-04-19T15:59:31.761Z</time></trkpt><trkpt lat="43.4015883" lon="12.9736067"><ele>213.99999999999997</ele><time>2026-04-19T15:59:34.762Z</time></trkpt><trkpt lat="43.4015633" lon="12.9737617"><ele>213.99999999999997</ele><time>2026-04-19T15:59:44.762Z</time></trkpt><trkpt lat="43.4015883" lon="12.9738767"><ele>214.0</ele><time>2026-04-19T15:59:45.761Z</time></trkpt><trkpt lat="43.4016233" lon="12.973995"><ele>214.0</ele><time>2026-04-19T15:59:46.761Z</time></trkpt><trkpt lat="43.4016667" lon="12.9741117"><ele>214.6</ele><time>2026-04-19T15:59:47.761Z</time></trkpt><trkpt lat="43.401725" lon="12.9742167"><ele>215.2</ele><time>2026-04-19T15:59:48.76Z</time></trkpt><trkpt lat="43.4018" lon="12.97432"><ele>215.79999999999998</ele><time>2026-04-19T15:59:49.76Z</time></trkpt><trkpt lat="43.4018883" lon="12.974415"><ele>216.39999999999998</ele><time>2026-04-19T15:59:50.76Z</time></trkpt><trkpt lat="43.4019933" lon="12.9744733"><ele>217.0</ele><time>2026-04-19T15:59:51.76Z</time></trkpt><trkpt lat="43.4021167" lon="12.9744967"><ele>212.0</ele><time>2026-04-19T15:59:52.761Z</time></trkpt><trkpt lat="43.4022433" lon="12.97451"><ele>207.0</ele><time>2026-04-19T15:59:53.76Z</time></trkpt><trkpt lat="43.4023867" lon="12.9745117"><ele>202.0</ele><time>2026-04-19T15:59:54.76Z</time></trkpt><trkpt lat="43.402535" lon="12.97452"><ele>197.0</ele><time>2026-04-19T15:59:55.761Z</time></trkpt><trkpt lat="43.40268" lon="12.9745433"><ele>197.0</ele><time>2026-04-19T15:59:56.76Z</time></trkpt><trkpt lat="43.4028333" lon="12.9745583"><ele>197.0</ele><time>2026-04-19T15:59:57.762Z</time></trkpt><trkpt lat="43.4029867" lon="12.97457"><ele>197.0</ele><time>2026-04-19T15:59:58.761Z</time></trkpt><trkpt lat="43.4031317" lon="12.9745917"><ele>196.75</ele><time>2026-04-19T15:59:59.76Z</time></trkpt><trkpt lat="43.4032633" lon="12.97461"><ele>196.5</ele><time>2026-04-19T16:00:00.761Z</time></trkpt><trkpt lat="43.403385" lon="12.974635"><ele>196.25</ele><time>2026-04-19T16:00:01.76Z</time></trkpt><trkpt lat="43.403505" lon="12.9746517"><ele>196.0</ele><time>2026-04-19T16:00:02.76Z</time></trkpt><trkpt lat="43.4036217" lon="12.9746617"><ele>196.0</ele><time>2026-04-19T16:00:03.76Z</time></trkpt><trkpt lat="43.4037333" lon="12.974685"><ele>196.0</ele><time>2026-04-19T16:00:04.76Z</time></trkpt><trkpt lat="43.40384" lon="12.974715"><ele>196.0</ele><time>2026-04-19T16:00:05.762Z</time></trkpt><trkpt lat="43.40394" lon="12.9747583"><ele>196.0</ele><time>2026-04-19T16:00:06.761Z</time></trkpt><trkpt lat="43.4040333" lon="12.97481"><ele>196.0</ele><time>2026-04-19T16:00:07.76Z</time></trkpt><trkpt lat="43.4041167" lon="12.97487"><ele>195.33333333333331</ele><time>2026-04-19T16:00:08.761Z</time></trkpt><trkpt lat="43.4041933" lon="12.9749317"><ele>194.66666666666666</ele><time>2026-04-19T16:00:09.761Z</time></trkpt><trkpt lat="43.40426" lon="12.9750033"><ele>194.0</ele><time>2026-04-19T16:00:10.761Z</time></trkpt><trkpt lat="43.4043183" lon="12.9750783"><ele>193.33333333333331</ele><time>2026-04-19T16:00:11.761Z</time></trkpt><trkpt lat="43.4043717" lon="12.9751567"><ele>192.66666666666666</ele><time>2026-04-19T16:00:12.761Z</time></trkpt><trkpt lat="43.4044233" lon="12.97524"><ele>192.0</ele><time>2026-04-19T16:00:13.762Z</time></trkpt><trkpt lat="43.4044783" lon="12.9753267"><ele>191.99999999999997</ele><time>2026-04-19T16:00:14.762Z</time></trkpt><trkpt lat="43.40453" lon="12.9754133"><ele>192.0</ele><time>2026-04-19T16:00:15.76Z</time></trkpt><trkpt lat="43.404575" lon="12.9755"><ele>192.0</ele><time>2026-04-19T16:00:16.762Z</time></trkpt><trkpt lat="43.40461" lon="12.97559"><ele>192.0</ele><time>2026-04-19T16:00:17.762Z</time></trkpt><trkpt lat="43.4046367" lon="12.9756833"><ele>192.0</ele><time>2026-04-19T16:00:18.761Z</time></trkpt><trkpt lat="43.4046583" lon="12.9757783"><ele>191.99999999999997</ele><time>2026-04-19T16:00:19.764Z</time></trkpt><trkpt lat="43.4046733" lon="12.9758683"><ele>192.0</ele><time>2026-04-19T16:00:20.761Z</time></trkpt><trkpt lat="43.404685" lon="12.9759583"><ele>193.16666666666666</ele><time>2026-04-19T16:00:21.764Z</time></trkpt><trkpt lat="43.4047" lon="12.9760483"><ele>194.33333333333331</ele><time>2026-04-19T16:00:22.762Z</time></trkpt><trkpt lat="43.40472" lon="12.976215"><ele>195.5</ele><time>2026-04-19T16:00:24.762Z</time></trkpt><trkpt lat="43.4047333" lon="12.9763783"><ele>196.66666666666666</ele><time>2026-04-19T16:00:26.761Z</time></trkpt><trkpt lat="43.4047417" lon="12.976465"><ele>197.83333333333331</ele><time>2026-04-19T16:00:27.761Z</time></trkpt><trkpt lat="43.40475" lon="12.9765533"><ele>199.0</ele><time>2026-04-19T16:00:28.762Z</time></trkpt><trkpt lat="43.4047667" lon="12.9767133"><ele>199.0</ele><time>2026-04-19T16:00:30.76Z</time></trkpt><trkpt lat="43.4047833" lon="12.97687"><ele>199.0</ele><time>2026-04-19T16:00:32.76Z</time></trkpt><trkpt lat="43.404795" lon="12.97702"><ele>199.0</ele><time>2026-04-19T16:00:34.76Z</time></trkpt><trkpt lat="43.4048133" lon="12.9771617"><ele>199.0</ele><time>2026-04-19T16:00:36.762Z</time></trkpt><trkpt lat="43.404835" lon="12.9773167"><ele>199.0</ele><time>2026-04-19T16:00:38.762Z</time></trkpt><trkpt lat="43.4048683" lon="12.97745"><ele>197.49999999999997</ele><time>2026-04-19T16:00:40.761Z</time></trkpt><trkpt lat="43.4049117" lon="12.9775483"><ele>196.0</ele><time>2026-04-19T16:00:42.761Z</time></trkpt><trkpt lat="43.4049517" lon="12.977625"><ele>194.5</ele><time>2026-04-19T16:00:44.76Z</time></trkpt><trkpt lat="43.4049917" lon="12.9777033"><ele>193.0</ele><time>2026-04-19T16:00:46.761Z</time></trkpt><trkpt lat="43.40504" lon="12.9778"><ele>191.5</ele><time>2026-04-19T16:00:48.761Z</time></trkpt><trkpt lat="43.405095" lon="12.977895"><ele>190.0</ele><time>2026-04-19T16:00:50.76Z</time></trkpt><trkpt lat="43.40515" lon="12.9779983"><ele>190.0</ele><time>2026-04-19T16:00:52.762Z</time></trkpt><trkpt lat="43.4051867" lon="12.9780833"><ele>190.0</ele><time>2026-04-19T16:00:53.762Z</time></trkpt><trkpt lat="43.4052333" lon="12.9781933"><ele>190.0</ele><time>2026-04-19T16:00:54.761Z</time></trkpt><trkpt lat="43.4052783" lon="12.9783017"><ele>190.0</ele><time>2026-04-19T16:00:55.76Z</time></trkpt><trkpt lat="43.4053283" lon="12.9783917"><ele>190.0</ele><time>2026-04-19T16:00:56.76Z</time></trkpt><trkpt lat="43.4053833" lon="12.9784683"><ele>190.0</ele><time>2026-04-19T16:00:57.761Z</time></trkpt><trkpt lat="43.4054383" lon="12.9785467"><ele>189.4</ele><time>2026-04-19T16:00:58.761Z</time></trkpt><trkpt lat="43.4054917" lon="12.9786433"><ele>188.8</ele><time>2026-04-19T16:00:59.761Z</time></trkpt><trkpt lat="43.4055617" lon="12.9787683"><ele>188.2</ele><time>2026-04-19T16:01:00.76Z</time></trkpt><trkpt lat="43.4056333" lon="12.9789033"><ele>187.6</ele><time>2026-04-19T16:01:01.763Z</time></trkpt><trkpt lat="43.4056983" lon="12.9790233"><ele>187.0</ele><time>2026-04-19T16:01:02.76Z</time></trkpt><trkpt lat="43.4057483" lon="12.97912"><ele>186.6</ele><time>2026-04-19T16:01:03.761Z</time></trkpt><trkpt lat="43.40579" lon="12.979195"><ele>186.2</ele><time>2026-04-19T16:01:04.761Z</time></trkpt><trkpt lat="43.4058533" lon="12.9793183"><ele>185.8</ele><time>2026-04-19T16:01:06.76Z</time></trkpt><trkpt lat="43.4059083" lon="12.9794183"><ele>185.4</ele><time>2026-04-19T16:01:08.761Z</time></trkpt><trkpt lat="43.40596" lon="12.979525"><ele>185.0</ele><time>2026-04-19T16:01:10.76Z</time></trkpt><trkpt lat="43.4060117" lon="12.9796317"><ele>185.0</ele><time>2026-04-19T16:01:12.762Z</time></trkpt><trkpt lat="43.4060817" lon="12.97977"><ele>185.0</ele><time>2026-04-19T16:01:14.762Z</time></trkpt><trkpt lat="43.4061233" lon="12.9798567"><ele>185.0</ele><time>2026-04-19T16:01:15.76Z</time></trkpt><trkpt lat="43.406165" lon="12.9799333"><ele>185.0</ele><time>2026-04-19T16:01:16.76Z</time></trkpt><trkpt lat="43.40624" lon="12.98007"><ele>185.0</ele><time>2026-04-19T16:01:18.76Z</time></trkpt><trkpt lat="43.406285" lon="12.9801533"><ele>185.5</ele><time>2026-04-19T16:01:19.761Z</time></trkpt><trkpt lat="43.4063333" lon="12.980245"><ele>186.0</ele><time>2026-04-19T16:01:20.761Z</time></trkpt><trkpt lat="43.40638" lon="12.9803333"><ele>186.5</ele><time>2026-04-19T16:01:21.765Z</time></trkpt><trkpt lat="43.4064217" lon="12.98041"><ele>187.0</ele><time>2026-04-19T16:01:22.762Z</time></trkpt><trkpt lat="43.40646" lon="12.9804833"><ele>187.5</ele><time>2026-04-19T16:01:23.76Z</time></trkpt><trkpt lat="43.4065233" lon="12.98061"><ele>188.0</ele><time>2026-04-19T16:01:25.763Z</time></trkpt><trkpt lat="43.4065567" lon="12.98071"><ele>188.0</ele><time>2026-04-19T16:01:27.76Z</time></trkpt><trkpt lat="43.4065783" lon="12.9808067"><ele>188.0</ele><time>2026-04-19T16:01:30.762Z</time></trkpt><trkpt lat="43.4065517" lon="12.9808917"><ele>188.0</ele><time>2026-04-19T16:01:58.762Z</time></trkpt><trkpt lat="43.4066533" lon="12.980885"><ele>188.0</ele><time>2026-04-19T16:02:00.762Z</time></trkpt><trkpt lat="43.4068217" lon="12.9808067"><ele>188.0</ele><time>2026-04-19T16:02:01.761Z</time></trkpt><trkpt lat="43.40699" lon="12.9807583"><ele>188.0</ele><time>2026-04-19T16:02:02.76Z</time></trkpt><trkpt lat="43.4071483" lon="12.9806883"><ele>188.0</ele><time>2026-04-19T16:02:03.761Z</time></trkpt><trkpt lat="43.4073267" lon="12.9806283"><ele>188.0</ele><time>2026-04-19T16:02:04.761Z</time></trkpt><trkpt lat="43.4074717" lon="12.980565"><ele>188.75</ele><time>2026-04-19T16:02:05.761Z</time></trkpt><trkpt lat="43.407605" lon="12.9805017"><ele>189.5</ele><time>2026-04-19T16:02:06.76Z</time></trkpt><trkpt lat="43.4077233" lon="12.9804433"><ele>190.25</ele><time>2026-04-19T16:02:07.76Z</time></trkpt><trkpt lat="43.4078317" lon="12.9803867"><ele>191.0</ele><time>2026-04-19T16:02:08.761Z</time></trkpt><trkpt lat="43.40793" lon="12.9803267"><ele>193.0</ele><time>2026-04-19T16:02:09.761Z</time></trkpt><trkpt lat="43.4080217" lon="12.9802783"><ele>195.0</ele><time>2026-04-19T16:02:10.76Z</time></trkpt><trkpt lat="43.408105" lon="12.9802417"><ele>197.0</ele><time>2026-04-19T16:02:11.763Z</time></trkpt><trkpt lat="43.4081783" lon="12.9802083"><ele>199.0</ele><time>2026-04-19T16:02:12.761Z</time></trkpt><trkpt lat="43.4082833" lon="12.9801433"><ele>201.0</ele><time>2026-04-19T16:02:14.76Z</time></trkpt><trkpt lat="43.4083417" lon="12.9800717"><ele>201.0</ele><time>2026-04-19T16:02:16.765Z</time></trkpt><trkpt lat="43.4083667" lon="12.9799733"><ele>201.0</ele><time>2026-04-19T16:02:19.763Z</time></trkpt><trkpt lat="43.4084167" lon="12.98004"><ele>201.0</ele><time>2026-04-19T16:03:16.763Z</time></trkpt><trkpt lat="43.4085283" lon="12.9800667"><ele>201.0</ele><time>2026-04-19T16:04:10.767Z</time></trkpt><trkpt lat="43.4085917" lon="12.9800933"><ele>201.0</ele><time>2026-04-19T16:04:14.77Z</time></trkpt><trkpt lat="43.4087091" lon="12.9801272"><ele>201.0</ele><time>2026-04-19T16:04:45.247Z</time></trkpt><trkpt lat="43.4086725" lon="12.9800455"><ele>201.0</ele><time>2026-04-19T16:05:01.661Z</time></trkpt><trkpt lat="43.4086279" lon="12.9799605"><ele>201.0</ele><time>2026-04-19T16:05:03.767Z</time></trkpt><trkpt lat="43.4086459" lon="12.979871"><ele>201.0</ele><time>2026-04-19T16:05:34.874Z</time></trkpt><trkpt lat="43.4085673" lon="12.9798688"><ele>201.0</ele><time>2026-04-19T16:05:39.766Z</time></trkpt><trkpt lat="43.4085051" lon="12.9799125"><ele>201.0</ele><time>2026-04-19T16:05:44.803Z</time></trkpt><trkpt lat="43.4084357" lon="12.979951"><ele>201.0</ele><time>2026-04-19T16:05:51.826Z</time></trkpt><trkpt lat="43.4084653" lon="12.9800331"><ele>201.0</ele><time>2026-04-19T16:06:55.787Z</time></trkpt><trkpt lat="43.4086132" lon="12.9801007"><ele>201.0</ele><time>2026-04-19T16:07:02.859Z</time></trkpt><trkpt lat="43.4086862" lon="12.9801108"><ele>201.0</ele><time>2026-04-19T16:07:20.018Z</time></trkpt><trkpt lat="43.4087417" lon="12.9801522"><ele>201.0</ele><time>2026-04-19T16:07:46.85Z</time></trkpt><trkpt lat="43.4087719" lon="12.9802439"><ele>201.0</ele><time>2026-04-19T16:08:20.858Z</time></trkpt><trkpt lat="43.4087096" lon="12.980272"><ele>201.0</ele><time>2026-04-19T16:08:33.858Z</time></trkpt><trkpt lat="43.4087211" lon="12.9801504"><ele>201.0</ele><time>2026-04-19T16:08:40.826Z</time></trkpt><trkpt lat="43.408649" lon="12.9801183"><ele>201.0</ele><time>2026-04-19T16:08:44.779Z</time></trkpt><trkpt lat="43.4085911" lon="12.9800703"><ele>201.0</ele><time>2026-04-19T16:08:48.834Z</time></trkpt><trkpt lat="43.4085226" lon="12.9800351"><ele>201.0</ele><time>2026-04-19T16:08:55.802Z</time></trkpt><trkpt lat="43.4084588" lon="12.9800002"><ele>201.0</ele><time>2026-04-19T16:09:00.79Z</time></trkpt><trkpt lat="43.4084894" lon="12.9799073"><ele>201.0</ele><time>2026-04-19T16:10:31.79Z</time></trkpt><trkpt lat="43.4085653" lon="12.9799067"><ele>201.0</ele><time>2026-04-19T16:11:17.806Z</time></trkpt><trkpt lat="43.4085063" lon="12.9799605"><ele>201.0</ele><time>2026-04-19T16:11:22.779Z</time></trkpt><trkpt lat="43.4084431" lon="12.979976"><ele>201.0</ele><time>2026-04-19T16:11:32.838Z</time></trkpt><trkpt lat="43.4085048" lon="12.9800344"><ele>201.0</ele><time>2026-04-19T16:12:14.854Z</time></trkpt><trkpt lat="43.40859" lon="12.9800124"><ele>187.0</ele><time>2026-04-19T16:12:27.762Z</time></trkpt><trkpt lat="43.4086677" lon="12.9800132"><ele>187.0</ele><time>2026-04-19T16:12:33.782Z</time></trkpt><trkpt lat="43.4086677" lon="12.9800132"><ele>187.0</ele><time>2026-04-19T16:12:33.782Z</time></trkpt></trkseg></trk></gpx>